<?xml version='1.0' encoding='UTF-8'?><gpx version="1.1" creator="JPX - https://github.com/jenetics/jpx" xmlns="http://www.topografix.com/GPX/1/1"><trk><trkseg><trkpt lat="45.2399473" lon="8.7402101"><ele>105.0</ele><time>2026-04-25T13:56:34.072Z</time></trkpt><trkpt lat="45.2399276" lon="8.7400966"><ele>105.0</ele><time>2026-04-25T13:59:18.072Z</time></trkpt><trkpt lat="45.2399656" lon="8.7401688"><ele>105.0</ele><time>2026-04-25T14:00:42.071Z</time></trkpt><trkpt lat="45.2400466" lon="8.7401886"><ele>105.0</ele><time>2026-04-25T14:00:47.07Z</time></trkpt><trkpt lat="45.2401132" lon="8.7401751"><ele>105.0</ele><time>2026-04-25T14:00:51.07Z</time></trkpt><trkpt lat="45.2400738" lon="8.7401005"><ele>105.0</ele><time>2026-04-25T14:04:51.07Z</time></trkpt><trkpt lat="45.2400863" lon="8.740312"><ele>105.0</ele><time>2026-04-25T14:04:53.068Z</time></trkpt><trkpt lat="45.2400953" lon="8.7404169"><ele>105.0</ele><time>2026-04-25T14:04:55.023Z</time></trkpt><trkpt lat="45.2401065" lon="8.7405221"><ele>105.0</ele><time>2026-04-25T14:04:57.083Z</time></trkpt><trkpt lat="45.2401522" lon="8.7407747"><ele>105.0</ele><time>2026-04-25T14:04:59.07Z</time></trkpt><trkpt lat="45.2401766" lon="8.7409198"><ele>105.0</ele><time>2026-04-25T14:05:01.069Z</time></trkpt><trkpt lat="45.2401982" lon="8.7410481"><ele>105.2</ele><time>2026-04-25T14:05:03.07Z</time></trkpt><trkpt lat="45.2402161" lon="8.7411827"><ele>105.4</ele><time>2026-04-25T14:05:05.07Z</time></trkpt><trkpt lat="45.2402377" lon="8.7413342"><ele>105.6</ele><time>2026-04-25T14:05:07.069Z</time></trkpt><trkpt lat="45.2402556" lon="8.741507"><ele>105.8</ele><time>2026-04-25T14:05:09.069Z</time></trkpt><trkpt lat="45.2402738" lon="8.7416076"><ele>106.0</ele><time>2026-04-25T14:05:10.068Z</time></trkpt><trkpt lat="45.2402892" lon="8.7417348"><ele>106.0</ele><time>2026-04-25T14:05:11.069Z</time></trkpt><trkpt lat="45.2403103" lon="8.7418673"><ele>106.0</ele><time>2026-04-25T14:05:12.068Z</time></trkpt><trkpt lat="45.24033" lon="8.742012"><ele>106.0</ele><time>2026-04-25T14:05:13.069Z</time></trkpt><trkpt lat="45.2403475" lon="8.7421561"><ele>106.0</ele><time>2026-04-25T14:05:14.069Z</time></trkpt><trkpt lat="45.240373" lon="8.7422983"><ele>106.0</ele><time>2026-04-25T14:05:15.069Z</time></trkpt><trkpt lat="45.2403917" lon="8.7424416"><ele>106.0</ele><time>2026-04-25T14:05:16.069Z</time></trkpt><trkpt lat="45.2404138" lon="8.7426002"><ele>106.0</ele><time>2026-04-25T14:05:17.068Z</time></trkpt><trkpt lat="45.2404259" lon="8.7427479"><ele>106.0</ele><time>2026-04-25T14:05:18.069Z</time></trkpt><trkpt lat="45.240442" lon="8.7428704"><ele>106.0</ele><time>2026-04-25T14:05:19.069Z</time></trkpt><trkpt lat="45.2404577" lon="8.7429762"><ele>106.0</ele><time>2026-04-25T14:05:20.069Z</time></trkpt><trkpt lat="45.2404729" lon="8.743074"><ele>106.0</ele><time>2026-04-25T14:05:21.068Z</time></trkpt><trkpt lat="45.2405055" lon="8.7432216"><ele>106.0</ele><time>2026-04-25T14:05:23.069Z</time></trkpt><trkpt lat="45.2405935" lon="8.7433042"><ele>106.0</ele><time>2026-04-25T14:05:25.069Z</time></trkpt><trkpt lat="45.240733" lon="8.7432792"><ele>106.0</ele><time>2026-04-25T14:05:27.069Z</time></trkpt><trkpt lat="45.2408239" lon="8.7432521"><ele>106.0</ele><time>2026-04-25T14:05:28.069Z</time></trkpt><trkpt lat="45.2409324" lon="8.7432206"><ele>106.0</ele><time>2026-04-25T14:05:29.068Z</time></trkpt><trkpt lat="45.241039" lon="8.7431899"><ele>106.0</ele><time>2026-04-25T14:05:30.068Z</time></trkpt><trkpt lat="45.2411453" lon="8.7431615"><ele>106.0</ele><time>2026-04-25T14:05:31.068Z</time></trkpt><trkpt lat="45.241252" lon="8.7431353"><ele>106.0</ele><time>2026-04-25T14:05:32.069Z</time></trkpt><trkpt lat="45.2413609" lon="8.7431164"><ele>106.0</ele><time>2026-04-25T14:05:33.069Z</time></trkpt><trkpt lat="45.2414691" lon="8.7430981"><ele>106.0</ele><time>2026-04-25T14:05:34.069Z</time></trkpt><trkpt lat="45.2415813" lon="8.7430774"><ele>106.0</ele><time>2026-04-25T14:05:35.069Z</time></trkpt><trkpt lat="45.2416822" lon="8.743067"><ele>106.0</ele><time>2026-04-25T14:05:36.068Z</time></trkpt><trkpt lat="45.2417792" lon="8.7430774"><ele>106.0</ele><time>2026-04-25T14:05:37.069Z</time></trkpt><trkpt lat="45.2418664" lon="8.7431231"><ele>106.0</ele><time>2026-04-25T14:05:38.069Z</time></trkpt><trkpt lat="45.2419367" lon="8.7431994"><ele>106.0</ele><time>2026-04-25T14:05:39.069Z</time></trkpt><trkpt lat="45.2419931" lon="8.7433103"><ele>106.0</ele><time>2026-04-25T14:05:40.069Z</time></trkpt><trkpt lat="45.2420378" lon="8.743443"><ele>106.0</ele><time>2026-04-25T14:05:41.068Z</time></trkpt><trkpt lat="45.2420642" lon="8.7435915"><ele>106.0</ele><time>2026-04-25T14:05:42.068Z</time></trkpt><trkpt lat="45.2420832" lon="8.7437498"><ele>106.0</ele><time>2026-04-25T14:05:43.067Z</time></trkpt><trkpt lat="45.2421007" lon="8.7439221"><ele>106.0</ele><time>2026-04-25T14:05:44.069Z</time></trkpt><trkpt lat="45.2421276" lon="8.7440947"><ele>106.0</ele><time>2026-04-25T14:05:45.069Z</time></trkpt><trkpt lat="45.2421528" lon="8.7442865"><ele>106.0</ele><time>2026-04-25T14:05:46.068Z</time></trkpt><trkpt lat="45.2421781" lon="8.7444808"><ele>106.0</ele><time>2026-04-25T14:05:47.069Z</time></trkpt><trkpt lat="45.2422083" lon="8.7446819"><ele>106.0</ele><time>2026-04-25T14:05:48.068Z</time></trkpt><trkpt lat="45.2422323" lon="8.7448816"><ele>106.0</ele><time>2026-04-25T14:05:49.069Z</time></trkpt><trkpt lat="45.2422604" lon="8.7450801"><ele>106.0</ele><time>2026-04-25T14:05:50.069Z</time></trkpt><trkpt lat="45.2422881" lon="8.7452668"><ele>106.0</ele><time>2026-04-25T14:05:51.068Z</time></trkpt><trkpt lat="45.2423014" lon="8.7454408"><ele>106.0</ele><time>2026-04-25T14:05:52.069Z</time></trkpt><trkpt lat="45.2422997" lon="8.7455907"><ele>106.0</ele><time>2026-04-25T14:05:53.068Z</time></trkpt><trkpt lat="45.242288" lon="8.7457173"><ele>106.0</ele><time>2026-04-25T14:05:54.068Z</time></trkpt><trkpt lat="45.2422616" lon="8.7458269"><ele>106.0</ele><time>2026-04-25T14:05:55.069Z</time></trkpt><trkpt lat="45.2422212" lon="8.7459249"><ele>106.0</ele><time>2026-04-25T14:05:56.068Z</time></trkpt><trkpt lat="45.2421621" lon="8.7460288"><ele>105.83333333333334</ele><time>2026-04-25T14:05:57.068Z</time></trkpt><trkpt lat="45.2421167" lon="8.7461328"><ele>105.66666666666667</ele><time>2026-04-25T14:05:58.069Z</time></trkpt><trkpt lat="45.2420941" lon="8.7462492"><ele>105.5</ele><time>2026-04-25T14:05:59.069Z</time></trkpt><trkpt lat="45.242102" lon="8.7463725"><ele>105.33333333333334</ele><time>2026-04-25T14:06:00.069Z</time></trkpt><trkpt lat="45.2421459" lon="8.7464849"><ele>105.16666666666667</ele><time>2026-04-25T14:06:01.069Z</time></trkpt><trkpt lat="45.2422124" lon="8.7465657"><ele>105.0</ele><time>2026-04-25T14:06:02.067Z</time></trkpt><trkpt lat="45.242293" lon="8.7466003"><ele>104.8</ele><time>2026-04-25T14:06:03.069Z</time></trkpt><trkpt lat="45.2423878" lon="8.7465848"><ele>104.6</ele><time>2026-04-25T14:06:04.068Z</time></trkpt><trkpt lat="45.2424673" lon="8.7465272"><ele>104.4</ele><time>2026-04-25T14:06:05.069Z</time></trkpt><trkpt lat="45.2425386" lon="8.7464401"><ele>104.2</ele><time>2026-04-25T14:06:06.068Z</time></trkpt><trkpt lat="45.2426009" lon="8.7463281"><ele>104.0</ele><time>2026-04-25T14:06:07.067Z</time></trkpt><trkpt lat="45.2426857" lon="8.7462187"><ele>104.0</ele><time>2026-04-25T14:06:08.069Z</time></trkpt><trkpt lat="45.2427975" lon="8.7461444"><ele>104.0</ele><time>2026-04-25T14:06:09.069Z</time></trkpt><trkpt lat="45.2429152" lon="8.7460769"><ele>104.0</ele><time>2026-04-25T14:06:10.068Z</time></trkpt><trkpt lat="45.2430405" lon="8.746014"><ele>104.0</ele><time>2026-04-25T14:06:11.069Z</time></trkpt><trkpt lat="45.2431731" lon="8.7459455"><ele>104.75</ele><time>2026-04-25T14:06:12.068Z</time></trkpt><trkpt lat="45.243307" lon="8.7458891"><ele>105.5</ele><time>2026-04-25T14:06:13.069Z</time></trkpt><trkpt lat="45.243449" lon="8.7458329"><ele>106.25</ele><time>2026-04-25T14:06:14.068Z</time></trkpt><trkpt lat="45.2435961" lon="8.7457761"><ele>107.0</ele><time>2026-04-25T14:06:15.068Z</time></trkpt><trkpt lat="45.2437448" lon="8.7457119"><ele>107.0</ele><time>2026-04-25T14:06:16.069Z</time></trkpt><trkpt lat="45.2438881" lon="8.7456458"><ele>107.0</ele><time>2026-04-25T14:06:17.068Z</time></trkpt><trkpt lat="45.2440356" lon="8.7455862"><ele>107.0</ele><time>2026-04-25T14:06:18.068Z</time></trkpt><trkpt lat="45.2441796" lon="8.7455249"><ele>106.5</ele><time>2026-04-25T14:06:19.068Z</time></trkpt><trkpt lat="45.2443186" lon="8.7454646"><ele>106.0</ele><time>2026-04-25T14:06:20.067Z</time></trkpt><trkpt lat="45.2444532" lon="8.7454094"><ele>105.5</ele><time>2026-04-25T14:06:21.068Z</time></trkpt><trkpt lat="45.2445799" lon="8.7453511"><ele>105.0</ele><time>2026-04-25T14:06:22.068Z</time></trkpt><trkpt lat="45.2446973" lon="8.7452988"><ele>105.16666666666667</ele><time>2026-04-25T14:06:23.069Z</time></trkpt><trkpt lat="45.2448072" lon="8.7452554"><ele>105.33333333333334</ele><time>2026-04-25T14:06:24.068Z</time></trkpt><trkpt lat="45.2448913" lon="8.74522"><ele>105.5</ele><time>2026-04-25T14:06:25.066Z</time></trkpt><trkpt lat="45.2449788" lon="8.7451795"><ele>105.66666666666667</ele><time>2026-04-25T14:06:27.069Z</time></trkpt><trkpt lat="45.2450359" lon="8.7451127"><ele>105.83333333333334</ele><time>2026-04-25T14:06:30.067Z</time></trkpt><trkpt lat="45.2450496" lon="8.7450049"><ele>106.0</ele><time>2026-04-25T14:06:32.067Z</time></trkpt><trkpt lat="45.2450114" lon="8.7448304"><ele>106.00000000000001</ele><time>2026-04-25T14:06:34.069Z</time></trkpt><trkpt lat="45.2449927" lon="8.7447438"><ele>106.0</ele><time>2026-04-25T14:06:35.068Z</time></trkpt><trkpt lat="45.2449685" lon="8.7446342"><ele>106.0</ele><time>2026-04-25T14:06:36.069Z</time></trkpt><trkpt lat="45.2449498" lon="8.7445174"><ele>106.0</ele><time>2026-04-25T14:06:37.068Z</time></trkpt><trkpt lat="45.244928" lon="8.7444084"><ele>106.00000000000001</ele><time>2026-04-25T14:06:38.067Z</time></trkpt><trkpt lat="45.2449002" lon="8.7442928"><ele>106.0</ele><time>2026-04-25T14:06:39.068Z</time></trkpt><trkpt lat="45.2448686" lon="8.7441759"><ele>106.16666666666667</ele><time>2026-04-25T14:06:40.069Z</time></trkpt><trkpt lat="45.2448377" lon="8.7440597"><ele>106.33333333333334</ele><time>2026-04-25T14:06:41.068Z</time></trkpt><trkpt lat="45.2448145" lon="8.7439409"><ele>106.5</ele><time>2026-04-25T14:06:42.067Z</time></trkpt><trkpt lat="45.2447892" lon="8.743827"><ele>106.66666666666666</ele><time>2026-04-25T14:06:43.068Z</time></trkpt><trkpt lat="45.2447681" lon="8.7437032"><ele>106.83333333333333</ele><time>2026-04-25T14:06:44.068Z</time></trkpt><trkpt lat="45.2447445" lon="8.7435793"><ele>107.0</ele><time>2026-04-25T14:06:45.068Z</time></trkpt><trkpt lat="45.2447122" lon="8.7434539"><ele>107.16666666666666</ele><time>2026-04-25T14:06:46.069Z</time></trkpt><trkpt lat="45.2446828" lon="8.7433249"><ele>107.33333333333333</ele><time>2026-04-25T14:06:47.068Z</time></trkpt><trkpt lat="45.2446447" lon="8.7432102"><ele>107.5</ele><time>2026-04-25T14:06:48.069Z</time></trkpt><trkpt lat="45.24462" lon="8.7430921"><ele>107.66666666666666</ele><time>2026-04-25T14:06:49.068Z</time></trkpt><trkpt lat="45.2445926" lon="8.7429776"><ele>107.83333333333333</ele><time>2026-04-25T14:06:50.068Z</time></trkpt><trkpt lat="45.2445686" lon="8.7428734"><ele>108.0</ele><time>2026-04-25T14:06:51.067Z</time></trkpt><trkpt lat="45.2445604" lon="8.7427801"><ele>108.2</ele><time>2026-04-25T14:06:52.068Z</time></trkpt><trkpt lat="45.2445806" lon="8.7426265"><ele>108.4</ele><time>2026-04-25T14:06:54.068Z</time></trkpt><trkpt lat="45.2446526" lon="8.7425404"><ele>108.60000000000001</ele><time>2026-04-25T14:06:55.069Z</time></trkpt><trkpt lat="45.2447147" lon="8.7424906"><ele>108.80000000000001</ele><time>2026-04-25T14:06:56.068Z</time></trkpt><trkpt lat="45.2447931" lon="8.7424437"><ele>109.0</ele><time>2026-04-25T14:06:57.068Z</time></trkpt><trkpt lat="45.2448813" lon="8.7424011"><ele>109.0</ele><time>2026-04-25T14:06:58.068Z</time></trkpt><trkpt lat="45.24498" lon="8.7423532"><ele>109.0</ele><time>2026-04-25T14:06:59.067Z</time></trkpt><trkpt lat="45.2450783" lon="8.742303"><ele>109.0</ele><time>2026-04-25T14:07:00.068Z</time></trkpt><trkpt lat="45.2451757" lon="8.7422515"><ele>109.0</ele><time>2026-04-25T14:07:01.068Z</time></trkpt><trkpt lat="45.2452755" lon="8.7421972"><ele>109.0</ele><time>2026-04-25T14:07:02.068Z</time></trkpt><trkpt lat="45.2453776" lon="8.7421516"><ele>109.0</ele><time>2026-04-25T14:07:03.067Z</time></trkpt><trkpt lat="45.2454887" lon="8.7421041"><ele>109.0</ele><time>2026-04-25T14:07:04.068Z</time></trkpt><trkpt lat="45.2456018" lon="8.7420517"><ele>109.0</ele><time>2026-04-25T14:07:05.069Z</time></trkpt><trkpt lat="45.2457163" lon="8.7419958"><ele>109.0</ele><time>2026-04-25T14:07:06.066Z</time></trkpt><trkpt lat="45.2458296" lon="8.7419346"><ele>108.75</ele><time>2026-04-25T14:07:07.068Z</time></trkpt><trkpt lat="45.2459553" lon="8.7418783"><ele>108.5</ele><time>2026-04-25T14:07:08.068Z</time></trkpt><trkpt lat="45.2460715" lon="8.7418209"><ele>108.25</ele><time>2026-04-25T14:07:09.068Z</time></trkpt><trkpt lat="45.2461834" lon="8.7417668"><ele>108.0</ele><time>2026-04-25T14:07:10.069Z</time></trkpt><trkpt lat="45.2462858" lon="8.7417126"><ele>108.0</ele><time>2026-04-25T14:07:11.068Z</time></trkpt><trkpt lat="45.2463812" lon="8.7416625"><ele>108.0</ele><time>2026-04-25T14:07:12.068Z</time></trkpt><trkpt lat="45.2464691" lon="8.7416283"><ele>108.0</ele><time>2026-04-25T14:07:13.067Z</time></trkpt><trkpt lat="45.2465555" lon="8.7415903"><ele>108.0</ele><time>2026-04-25T14:07:14.068Z</time></trkpt><trkpt lat="45.2466291" lon="8.7415581"><ele>108.0</ele><time>2026-04-25T14:07:15.068Z</time></trkpt><trkpt lat="45.2466956" lon="8.7415284"><ele>108.0</ele><time>2026-04-25T14:07:16.069Z</time></trkpt><trkpt lat="45.2467564" lon="8.7415001"><ele>108.0</ele><time>2026-04-25T14:07:17.069Z</time></trkpt><trkpt lat="45.2468173" lon="8.7414688"><ele>108.0</ele><time>2026-04-25T14:07:18.067Z</time></trkpt><trkpt lat="45.2469173" lon="8.7414171"><ele>108.0</ele><time>2026-04-25T14:07:20.068Z</time></trkpt><trkpt lat="45.2469981" lon="8.7413728"><ele>108.0</ele><time>2026-04-25T14:07:22.069Z</time></trkpt><trkpt lat="45.2470694" lon="8.7413617"><ele>108.0</ele><time>2026-04-25T14:09:11.067Z</time></trkpt><trkpt lat="45.2470983" lon="8.7412571"><ele>108.0</ele><time>2026-04-25T14:09:14.068Z</time></trkpt><trkpt lat="45.247067" lon="8.7411"><ele>107.85714285714286</ele><time>2026-04-25T14:09:16.067Z</time></trkpt><trkpt lat="45.2470401" lon="8.7410011"><ele>107.71428571428571</ele><time>2026-04-25T14:09:17.066Z</time></trkpt><trkpt lat="45.2470167" lon="8.7409005"><ele>107.57142857142858</ele><time>2026-04-25T14:09:18.068Z</time></trkpt><trkpt lat="45.246993" lon="8.7408015"><ele>107.42857142857143</ele><time>2026-04-25T14:09:19.068Z</time></trkpt><trkpt lat="45.2469708" lon="8.7407146"><ele>107.28571428571429</ele><time>2026-04-25T14:09:20.066Z</time></trkpt><trkpt lat="45.2469498" lon="8.7406258"><ele>107.14285714285715</ele><time>2026-04-25T14:09:21.067Z</time></trkpt><trkpt lat="45.2469291" lon="8.7405369"><ele>107.0</ele><time>2026-04-25T14:09:22.067Z</time></trkpt><trkpt lat="45.2469091" lon="8.7404407"><ele>106.99999999999999</ele><time>2026-04-25T14:09:23.066Z</time></trkpt><trkpt lat="45.2468854" lon="8.7403361"><ele>107.0</ele><time>2026-04-25T14:09:24.068Z</time></trkpt><trkpt lat="45.2468641" lon="8.740232"><ele>107.0</ele><time>2026-04-25T14:09:25.068Z</time></trkpt><trkpt lat="45.2468389" lon="8.7401293"><ele>107.0</ele><time>2026-04-25T14:09:26.067Z</time></trkpt><trkpt lat="45.2468156" lon="8.7400216"><ele>106.99999999999999</ele><time>2026-04-25T14:09:27.067Z</time></trkpt><trkpt lat="45.2467929" lon="8.7399173"><ele>107.0</ele><time>2026-04-25T14:09:28.067Z</time></trkpt><trkpt lat="45.2467652" lon="8.7398089"><ele>107.0</ele><time>2026-04-25T14:09:29.067Z</time></trkpt><trkpt lat="45.2467377" lon="8.7397088"><ele>106.99999999999999</ele><time>2026-04-25T14:09:30.066Z</time></trkpt><trkpt lat="45.2467086" lon="8.7396062"><ele>106.99999999999999</ele><time>2026-04-25T14:09:31.067Z</time></trkpt><trkpt lat="45.2466712" lon="8.739448"><ele>107.0</ele><time>2026-04-25T14:09:33.067Z</time></trkpt><trkpt lat="45.2466431" lon="8.7393044"><ele>107.0</ele><time>2026-04-25T14:09:35.067Z</time></trkpt><trkpt lat="45.2466174" lon="8.739168"><ele>106.99999999999999</ele><time>2026-04-25T14:09:37.067Z</time></trkpt><trkpt lat="45.2465777" lon="8.739024"><ele>107.0</ele><time>2026-04-25T14:09:39.067Z</time></trkpt><trkpt lat="45.2465258" lon="8.738875"><ele>107.0</ele><time>2026-04-25T14:09:41.066Z</time></trkpt><trkpt lat="45.2464991" lon="8.7387853"><ele>107.0</ele><time>2026-04-25T14:09:42.066Z</time></trkpt><trkpt lat="45.2464734" lon="8.7386918"><ele>106.99999999999999</ele><time>2026-04-25T14:09:43.067Z</time></trkpt><trkpt lat="45.2464501" lon="8.7385989"><ele>107.0</ele><time>2026-04-25T14:09:44.066Z</time></trkpt><trkpt lat="45.2464343" lon="8.7384976"><ele>106.99999999999999</ele><time>2026-04-25T14:09:45.067Z</time></trkpt><trkpt lat="45.2464687" lon="8.738328"><ele>107.0</ele><time>2026-04-25T14:09:47.067Z</time></trkpt><trkpt lat="45.2465211" lon="8.7382754"><ele>107.0</ele><time>2026-04-25T14:09:48.068Z</time></trkpt><trkpt lat="45.2465858" lon="8.7382379"><ele>107.0</ele><time>2026-04-25T14:09:49.068Z</time></trkpt><trkpt lat="45.2466615" lon="8.7382128"><ele>106.99999999999999</ele><time>2026-04-25T14:09:50.065Z</time></trkpt><trkpt lat="45.2467468" lon="8.7381874"><ele>107.0</ele><time>2026-04-25T14:09:51.066Z</time></trkpt><trkpt lat="45.2468339" lon="8.738155"><ele>107.0</ele><time>2026-04-25T14:09:52.068Z</time></trkpt><trkpt lat="45.2469195" lon="8.7381245"><ele>106.99999999999999</ele><time>2026-04-25T14:09:53.067Z</time></trkpt><trkpt lat="45.2470125" lon="8.7380921"><ele>106.99999999999999</ele><time>2026-04-25T14:09:54.067Z</time></trkpt><trkpt lat="45.2471091" lon="8.7380635"><ele>107.0</ele><time>2026-04-25T14:09:55.067Z</time></trkpt><trkpt lat="45.2472027" lon="8.7380255"><ele>107.0</ele><time>2026-04-25T14:09:56.065Z</time></trkpt><trkpt lat="45.2472966" lon="8.7379902"><ele>106.8</ele><time>2026-04-25T14:09:57.067Z</time></trkpt><trkpt lat="45.2473919" lon="8.7379545"><ele>106.6</ele><time>2026-04-25T14:09:58.067Z</time></trkpt><trkpt lat="45.2474884" lon="8.7379238"><ele>106.39999999999999</ele><time>2026-04-25T14:09:59.067Z</time></trkpt><trkpt lat="45.2475882" lon="8.7378865"><ele>106.19999999999999</ele><time>2026-04-25T14:10:00.068Z</time></trkpt><trkpt lat="45.2476863" lon="8.7378494"><ele>106.0</ele><time>2026-04-25T14:10:01.066Z</time></trkpt><trkpt lat="45.2477885" lon="8.7378165"><ele>106.0</ele><time>2026-04-25T14:10:02.067Z</time></trkpt><trkpt lat="45.2478879" lon="8.7377833"><ele>106.0</ele><time>2026-04-25T14:10:03.066Z</time></trkpt><trkpt lat="45.247985" lon="8.7377527"><ele>106.0</ele><time>2026-04-25T14:10:04.067Z</time></trkpt><trkpt lat="45.2480831" lon="8.7377221"><ele>106.0</ele><time>2026-04-25T14:10:05.067Z</time></trkpt><trkpt lat="45.2481774" lon="8.737694"><ele>106.0</ele><time>2026-04-25T14:10:06.067Z</time></trkpt><trkpt lat="45.2482763" lon="8.7376675"><ele>106.50000000000001</ele><time>2026-04-25T14:10:07.066Z</time></trkpt><trkpt lat="45.2483696" lon="8.7376481"><ele>107.0</ele><time>2026-04-25T14:10:08.067Z</time></trkpt><trkpt lat="45.2484506" lon="8.7376231"><ele>107.5</ele><time>2026-04-25T14:10:09.067Z</time></trkpt><trkpt lat="45.248518" lon="8.7375984"><ele>108.0</ele><time>2026-04-25T14:10:10.066Z</time></trkpt><trkpt lat="45.2486165" lon="8.7375585"><ele>108.50000000000001</ele><time>2026-04-25T14:10:12.066Z</time></trkpt><trkpt lat="45.2486901" lon="8.7375324"><ele>109.0</ele><time>2026-04-25T14:10:48.067Z</time></trkpt><trkpt lat="45.2487354" lon="8.7374533"><ele>109.0</ele><time>2026-04-25T14:10:50.067Z</time></trkpt><trkpt lat="45.2487338" lon="8.7372805"><ele>109.0</ele><time>2026-04-25T14:10:52.066Z</time></trkpt><trkpt lat="45.2487205" lon="8.7371869"><ele>109.0</ele><time>2026-04-25T14:10:53.066Z</time></trkpt><trkpt lat="45.2486936" lon="8.7370589"><ele>109.0</ele><time>2026-04-25T14:10:54.067Z</time></trkpt><trkpt lat="45.248675" lon="8.7369335"><ele>109.0</ele><time>2026-04-25T14:10:55.067Z</time></trkpt><trkpt lat="45.2486402" lon="8.7367999"><ele>109.0</ele><time>2026-04-25T14:10:56.066Z</time></trkpt><trkpt lat="45.248613" lon="8.7366703"><ele>109.0</ele><time>2026-04-25T14:10:57.067Z</time></trkpt><trkpt lat="45.2485938" lon="8.7365391"><ele>109.0</ele><time>2026-04-25T14:10:58.067Z</time></trkpt><trkpt lat="45.2485734" lon="8.7364016"><ele>109.0</ele><time>2026-04-25T14:10:59.066Z</time></trkpt><trkpt lat="45.2485527" lon="8.7362652"><ele>109.0</ele><time>2026-04-25T14:11:00.065Z</time></trkpt><trkpt lat="45.24853" lon="8.7361422"><ele>109.00000000000001</ele><time>2026-04-25T14:11:01.066Z</time></trkpt><trkpt lat="45.2485071" lon="8.736037"><ele>109.0</ele><time>2026-04-25T14:11:02.067Z</time></trkpt><trkpt lat="45.2484808" lon="8.7358945"><ele>109.0</ele><time>2026-04-25T14:11:04.066Z</time></trkpt><trkpt lat="45.2484374" lon="8.7357892"><ele>109.0</ele><time>2026-04-25T14:11:17.067Z</time></trkpt><trkpt lat="45.2483438" lon="8.7357661"><ele>109.00000000000001</ele><time>2026-04-25T14:11:19.066Z</time></trkpt><trkpt lat="45.248272" lon="8.7357708"><ele>109.0</ele><time>2026-04-25T14:11:20.066Z</time></trkpt><trkpt lat="45.2481901" lon="8.7357488"><ele>108.83333333333334</ele><time>2026-04-25T14:11:21.065Z</time></trkpt><trkpt lat="45.2481234" lon="8.73569"><ele>108.66666666666667</ele><time>2026-04-25T14:11:22.065Z</time></trkpt><trkpt lat="45.2480762" lon="8.7356037"><ele>108.5</ele><time>2026-04-25T14:11:23.066Z</time></trkpt><trkpt lat="45.2480359" lon="8.7355104"><ele>108.33333333333334</ele><time>2026-04-25T14:11:24.067Z</time></trkpt><trkpt lat="45.247988" lon="8.7354366"><ele>108.16666666666667</ele><time>2026-04-25T14:11:25.066Z</time></trkpt><trkpt lat="45.2479231" lon="8.7353824"><ele>108.0</ele><time>2026-04-25T14:11:26.067Z</time></trkpt><trkpt lat="45.2478407" lon="8.735354"><ele>108.0</ele><time>2026-04-25T14:11:27.066Z</time></trkpt><trkpt lat="45.2477421" lon="8.7353234"><ele>108.00000000000001</ele><time>2026-04-25T14:11:28.066Z</time></trkpt><trkpt lat="45.247642" lon="8.7352871"><ele>108.00000000000001</ele><time>2026-04-25T14:11:29.067Z</time></trkpt><trkpt lat="45.2475364" lon="8.7352479"><ele>108.0</ele><time>2026-04-25T14:11:30.066Z</time></trkpt><trkpt lat="45.2474159" lon="8.7352018"><ele>108.0</ele><time>2026-04-25T14:11:31.067Z</time></trkpt><trkpt lat="45.2472856" lon="8.7351527"><ele>108.0</ele><time>2026-04-25T14:11:32.065Z</time></trkpt><trkpt lat="45.2471516" lon="8.735098"><ele>108.0</ele><time>2026-04-25T14:11:33.065Z</time></trkpt><trkpt lat="45.2470197" lon="8.735067"><ele>108.0</ele><time>2026-04-25T14:11:34.066Z</time></trkpt><trkpt lat="45.246875" lon="8.735025"><ele>108.0</ele><time>2026-04-25T14:11:35.065Z</time></trkpt><trkpt lat="45.2467203" lon="8.7349826"><ele>108.0</ele><time>2026-04-25T14:11:36.067Z</time></trkpt><trkpt lat="45.2465637" lon="8.7349339"><ele>108.0</ele><time>2026-04-25T14:11:37.066Z</time></trkpt><trkpt lat="45.2464154" lon="8.7348879"><ele>108.0</ele><time>2026-04-25T14:11:38.066Z</time></trkpt><trkpt lat="45.2462681" lon="8.7348419"><ele>108.25</ele><time>2026-04-25T14:11:39.065Z</time></trkpt><trkpt lat="45.2461312" lon="8.7348007"><ele>108.5</ele><time>2026-04-25T14:11:40.066Z</time></trkpt><trkpt lat="45.2460093" lon="8.7347495"><ele>108.75</ele><time>2026-04-25T14:11:41.065Z</time></trkpt><trkpt lat="45.2458939" lon="8.7346871"><ele>109.0</ele><time>2026-04-25T14:11:42.067Z</time></trkpt><trkpt lat="45.2457851" lon="8.7346045"><ele>109.0</ele><time>2026-04-25T14:11:43.066Z</time></trkpt><trkpt lat="45.2456768" lon="8.7345247"><ele>109.0</ele><time>2026-04-25T14:11:44.066Z</time></trkpt><trkpt lat="45.2455781" lon="8.7344124"><ele>109.0</ele><time>2026-04-25T14:11:45.067Z</time></trkpt><trkpt lat="45.2454854" lon="8.7342895"><ele>109.0</ele><time>2026-04-25T14:11:46.066Z</time></trkpt><trkpt lat="45.2454013" lon="8.7341441"><ele>108.75</ele><time>2026-04-25T14:11:47.066Z</time></trkpt><trkpt lat="45.2453269" lon="8.7339997"><ele>108.5</ele><time>2026-04-25T14:11:48.066Z</time></trkpt><trkpt lat="45.2452515" lon="8.7338535"><ele>108.25</ele><time>2026-04-25T14:11:49.066Z</time></trkpt><trkpt lat="45.2451809" lon="8.7337247"><ele>108.0</ele><time>2026-04-25T14:11:50.067Z</time></trkpt><trkpt lat="45.2451251" lon="8.7336251"><ele>107.80000000000001</ele><time>2026-04-25T14:11:51.066Z</time></trkpt><trkpt lat="45.2450622" lon="8.7335189"><ele>107.60000000000001</ele><time>2026-04-25T14:11:53.066Z</time></trkpt><trkpt lat="45.2450163" lon="8.7334427"><ele>107.39999999999999</ele><time>2026-04-25T14:11:58.064Z</time></trkpt><trkpt lat="45.2449556" lon="8.73332"><ele>107.19999999999999</ele><time>2026-04-25T14:12:00.066Z</time></trkpt><trkpt lat="45.2449246" lon="8.7332111"><ele>107.0</ele><time>2026-04-25T14:12:01.066Z</time></trkpt><trkpt lat="45.2448739" lon="8.7330808"><ele>107.0</ele><time>2026-04-25T14:12:02.065Z</time></trkpt><trkpt lat="45.2448209" lon="8.7329336"><ele>107.0</ele><time>2026-04-25T14:12:03.067Z</time></trkpt><trkpt lat="45.244765" lon="8.732766"><ele>107.0</ele><time>2026-04-25T14:12:04.067Z</time></trkpt><trkpt lat="45.2447021" lon="8.7325786"><ele>107.0</ele><time>2026-04-25T14:12:05.066Z</time></trkpt><trkpt lat="45.2446367" lon="8.7323716"><ele>106.66666666666666</ele><time>2026-04-25T14:12:06.066Z</time></trkpt><trkpt lat="45.244568" lon="8.7321623"><ele>106.33333333333334</ele><time>2026-04-25T14:12:07.067Z</time></trkpt><trkpt lat="45.2444963" lon="8.7319484"><ele>106.0</ele><time>2026-04-25T14:12:08.066Z</time></trkpt><trkpt lat="45.2444277" lon="8.7317322"><ele>106.0</ele><time>2026-04-25T14:12:09.066Z</time></trkpt><trkpt lat="45.2443573" lon="8.7315087"><ele>106.0</ele><time>2026-04-25T14:12:10.066Z</time></trkpt><trkpt lat="45.2442843" lon="8.7312822"><ele>106.0</ele><time>2026-04-25T14:12:11.067Z</time></trkpt><trkpt lat="45.2442071" lon="8.7310554"><ele>105.66666666666667</ele><time>2026-04-25T14:12:12.066Z</time></trkpt><trkpt lat="45.2441398" lon="8.730826"><ele>105.33333333333334</ele><time>2026-04-25T14:12:13.066Z</time></trkpt><trkpt lat="45.244072" lon="8.7305954"><ele>105.0</ele><time>2026-04-25T14:12:14.066Z</time></trkpt><trkpt lat="45.2440047" lon="8.7303677"><ele>104.66666666666666</ele><time>2026-04-25T14:12:15.065Z</time></trkpt><trkpt lat="45.243933" lon="8.7301423"><ele>104.33333333333333</ele><time>2026-04-25T14:12:16.066Z</time></trkpt><trkpt lat="45.2438622" lon="8.7299168"><ele>104.0</ele><time>2026-04-25T14:12:17.065Z</time></trkpt><trkpt lat="45.2437934" lon="8.7297031"><ele>104.0</ele><time>2026-04-25T14:12:18.066Z</time></trkpt><trkpt lat="45.2437347" lon="8.7295032"><ele>104.0</ele><time>2026-04-25T14:12:19.066Z</time></trkpt><trkpt lat="45.243677" lon="8.7293159"><ele>104.0</ele><time>2026-04-25T14:12:20.065Z</time></trkpt><trkpt lat="45.2436213" lon="8.7291358"><ele>104.0</ele><time>2026-04-25T14:12:21.065Z</time></trkpt><trkpt lat="45.2435548" lon="8.7289823"><ele>104.5</ele><time>2026-04-25T14:12:22.066Z</time></trkpt><trkpt lat="45.2434902" lon="8.7288576"><ele>105.0</ele><time>2026-04-25T14:12:23.066Z</time></trkpt><trkpt lat="45.2434011" lon="8.7287662"><ele>105.5</ele><time>2026-04-25T14:12:24.066Z</time></trkpt><trkpt lat="45.2432876" lon="8.7287028"><ele>106.0</ele><time>2026-04-25T14:12:25.065Z</time></trkpt><trkpt lat="45.2431547" lon="8.7286537"><ele>106.0</ele><time>2026-04-25T14:12:26.065Z</time></trkpt><trkpt lat="45.2429951" lon="8.7286112"><ele>106.0</ele><time>2026-04-25T14:12:27.066Z</time></trkpt><trkpt lat="45.2428232" lon="8.7285516"><ele>106.0</ele><time>2026-04-25T14:12:28.066Z</time></trkpt><trkpt lat="45.2426437" lon="8.7284953"><ele>106.0</ele><time>2026-04-25T14:12:29.067Z</time></trkpt><trkpt lat="45.2424524" lon="8.7284307"><ele>106.0</ele><time>2026-04-25T14:12:30.066Z</time></trkpt><trkpt lat="45.2422563" lon="8.7283683"><ele>106.0</ele><time>2026-04-25T14:12:31.066Z</time></trkpt><trkpt lat="45.2420616" lon="8.7283078"><ele>106.0</ele><time>2026-04-25T14:12:32.066Z</time></trkpt><trkpt lat="45.2418653" lon="8.7282404"><ele>106.0</ele><time>2026-04-25T14:12:33.064Z</time></trkpt><trkpt lat="45.2416682" lon="8.72818"><ele>106.0</ele><time>2026-04-25T14:12:34.066Z</time></trkpt><trkpt lat="45.241483" lon="8.7281317"><ele>105.66666666666667</ele><time>2026-04-25T14:12:35.066Z</time></trkpt><trkpt lat="45.2413109" lon="8.728082"><ele>105.33333333333334</ele><time>2026-04-25T14:12:36.065Z</time></trkpt><trkpt lat="45.2411467" lon="8.7280248"><ele>105.0</ele><time>2026-04-25T14:12:37.066Z</time></trkpt><trkpt lat="45.2409852" lon="8.7279519"><ele>105.0</ele><time>2026-04-25T14:12:38.066Z</time></trkpt><trkpt lat="45.2408278" lon="8.7278614"><ele>105.0</ele><time>2026-04-25T14:12:39.065Z</time></trkpt><trkpt lat="45.2406743" lon="8.7277423"><ele>105.0</ele><time>2026-04-25T14:12:40.066Z</time></trkpt><trkpt lat="45.240527" lon="8.7276142"><ele>105.0</ele><time>2026-04-25T14:12:41.065Z</time></trkpt><trkpt lat="45.2403812" lon="8.7274652"><ele>105.0</ele><time>2026-04-25T14:12:42.066Z</time></trkpt><trkpt lat="45.2402303" lon="8.7273155"><ele>105.0</ele><time>2026-04-25T14:12:43.065Z</time></trkpt><trkpt lat="45.2400752" lon="8.7271643"><ele>105.0</ele><time>2026-04-25T14:12:44.064Z</time></trkpt><trkpt lat="45.2399164" lon="8.7270116"><ele>105.0</ele><time>2026-04-25T14:12:45.065Z</time></trkpt><trkpt lat="45.2397642" lon="8.7268641"><ele>105.0</ele><time>2026-04-25T14:12:46.066Z</time></trkpt><trkpt lat="45.2396114" lon="8.726713"><ele>106.0</ele><time>2026-04-25T14:12:47.066Z</time></trkpt><trkpt lat="45.2394725" lon="8.7265718"><ele>107.0</ele><time>2026-04-25T14:12:48.066Z</time></trkpt><trkpt lat="45.2393376" lon="8.7264431"><ele>108.0</ele><time>2026-04-25T14:12:49.065Z</time></trkpt><trkpt lat="45.2392045" lon="8.7263287"><ele>108.0</ele><time>2026-04-25T14:12:50.066Z</time></trkpt><trkpt lat="45.2390704" lon="8.7262373"><ele>108.0</ele><time>2026-04-25T14:12:51.066Z</time></trkpt><trkpt lat="45.238928" lon="8.7261705"><ele>108.0</ele><time>2026-04-25T14:12:52.065Z</time></trkpt><trkpt lat="45.2387747" lon="8.72612"><ele>107.66666666666666</ele><time>2026-04-25T14:12:53.065Z</time></trkpt><trkpt lat="45.2386156" lon="8.7260711"><ele>107.33333333333333</ele><time>2026-04-25T14:12:54.065Z</time></trkpt><trkpt lat="45.2384502" lon="8.7260173"><ele>107.0</ele><time>2026-04-25T14:12:55.066Z</time></trkpt><trkpt lat="45.2382822" lon="8.7259797"><ele>106.66666666666666</ele><time>2026-04-25T14:12:56.066Z</time></trkpt><trkpt lat="45.2381062" lon="8.7259591"><ele>106.33333333333334</ele><time>2026-04-25T14:12:57.066Z</time></trkpt><trkpt lat="45.2379309" lon="8.7259507"><ele>106.0</ele><time>2026-04-25T14:12:58.064Z</time></trkpt><trkpt lat="45.2377515" lon="8.7259652"><ele>106.0</ele><time>2026-04-25T14:12:59.065Z</time></trkpt><trkpt lat="45.2375747" lon="8.7259691"><ele>106.0</ele><time>2026-04-25T14:13:00.065Z</time></trkpt><trkpt lat="45.2373921" lon="8.7259924"><ele>106.0</ele><time>2026-04-25T14:13:01.066Z</time></trkpt><trkpt lat="45.2372177" lon="8.7260087"><ele>106.0</ele><time>2026-04-25T14:13:02.066Z</time></trkpt><trkpt lat="45.2370443" lon="8.7260074"><ele>106.0</ele><time>2026-04-25T14:13:03.064Z</time></trkpt><trkpt lat="45.2368685" lon="8.7260042"><ele>106.0</ele><time>2026-04-25T14:13:04.066Z</time></trkpt><trkpt lat="45.2366888" lon="8.7259907"><ele>106.0</ele><time>2026-04-25T14:13:05.065Z</time></trkpt><trkpt lat="45.2365115" lon="8.7259687"><ele>106.0</ele><time>2026-04-25T14:13:06.065Z</time></trkpt><trkpt lat="45.2363364" lon="8.7259365"><ele>106.0</ele><time>2026-04-25T14:13:07.066Z</time></trkpt><trkpt lat="45.2361591" lon="8.7258783"><ele>106.0</ele><time>2026-04-25T14:13:08.064Z</time></trkpt><trkpt lat="45.2359813" lon="8.7258073"><ele>106.0</ele><time>2026-04-25T14:13:09.065Z</time></trkpt><trkpt lat="45.2358041" lon="8.725719"><ele>106.0</ele><time>2026-04-25T14:13:10.064Z</time></trkpt><trkpt lat="45.2356212" lon="8.7256314"><ele>106.33333333333334</ele><time>2026-04-25T14:13:11.066Z</time></trkpt><trkpt lat="45.2354422" lon="8.7255486"><ele>106.66666666666666</ele><time>2026-04-25T14:13:12.066Z</time></trkpt><trkpt lat="45.2352563" lon="8.7254616"><ele>107.0</ele><time>2026-04-25T14:13:13.065Z</time></trkpt><trkpt lat="45.2350708" lon="8.7253723"><ele>107.0</ele><time>2026-04-25T14:13:14.065Z</time></trkpt><trkpt lat="45.2348839" lon="8.7252826"><ele>107.0</ele><time>2026-04-25T14:13:15.066Z</time></trkpt><trkpt lat="45.2346937" lon="8.7251906"><ele>107.0</ele><time>2026-04-25T14:13:16.066Z</time></trkpt><trkpt lat="45.2345049" lon="8.7251039"><ele>106.66666666666666</ele><time>2026-04-25T14:13:17.065Z</time></trkpt><trkpt lat="45.2343108" lon="8.7250053"><ele>106.33333333333334</ele><time>2026-04-25T14:13:18.065Z</time></trkpt><trkpt lat="45.234109" lon="8.7249067"><ele>106.0</ele><time>2026-04-25T14:13:19.065Z</time></trkpt><trkpt lat="45.2339003" lon="8.7248043"><ele>106.0</ele><time>2026-04-25T14:13:20.065Z</time></trkpt><trkpt lat="45.2336937" lon="8.7247034"><ele>106.0</ele><time>2026-04-25T14:13:21.066Z</time></trkpt><trkpt lat="45.2334863" lon="8.7246012"><ele>106.0</ele><time>2026-04-25T14:13:22.066Z</time></trkpt><trkpt lat="45.2332833" lon="8.7245064"><ele>105.66666666666667</ele><time>2026-04-25T14:13:23.066Z</time></trkpt><trkpt lat="45.2330781" lon="8.7244104"><ele>105.33333333333334</ele><time>2026-04-25T14:13:24.066Z</time></trkpt><trkpt lat="45.2328728" lon="8.7243077"><ele>105.0</ele><time>2026-04-25T14:13:25.066Z</time></trkpt><trkpt lat="45.2326682" lon="8.7242125"><ele>105.0</ele><time>2026-04-25T14:13:26.066Z</time></trkpt><trkpt lat="45.2324589" lon="8.724114"><ele>105.0</ele><time>2026-04-25T14:13:27.065Z</time></trkpt><trkpt lat="45.2322534" lon="8.7240151"><ele>105.0</ele><time>2026-04-25T14:13:28.065Z</time></trkpt><trkpt lat="45.2320521" lon="8.7239171"><ele>104.66666666666666</ele><time>2026-04-25T14:13:29.066Z</time></trkpt><trkpt lat="45.2318444" lon="8.7238273"><ele>104.33333333333333</ele><time>2026-04-25T14:13:30.066Z</time></trkpt><trkpt lat="45.2316446" lon="8.7237309"><ele>104.0</ele><time>2026-04-25T14:13:31.066Z</time></trkpt><trkpt lat="45.2314397" lon="8.7236313"><ele>104.33333333333333</ele><time>2026-04-25T14:13:32.066Z</time></trkpt><trkpt lat="45.2312376" lon="8.7235384"><ele>104.66666666666666</ele><time>2026-04-25T14:13:33.066Z</time></trkpt><trkpt lat="45.231042" lon="8.7234388"><ele>105.0</ele><time>2026-04-25T14:13:34.064Z</time></trkpt><trkpt lat="45.2308483" lon="8.7233408"><ele>105.0</ele><time>2026-04-25T14:13:35.066Z</time></trkpt><trkpt lat="45.2306575" lon="8.7232515"><ele>105.0</ele><time>2026-04-25T14:13:36.066Z</time></trkpt><trkpt lat="45.2304672" lon="8.7231554"><ele>105.0</ele><time>2026-04-25T14:13:37.065Z</time></trkpt><trkpt lat="45.2302797" lon="8.7230589"><ele>105.0</ele><time>2026-04-25T14:13:38.065Z</time></trkpt><trkpt lat="45.230092" lon="8.7229621"><ele>105.0</ele><time>2026-04-25T14:13:39.065Z</time></trkpt><trkpt lat="45.2298982" lon="8.722865"><ele>105.0</ele><time>2026-04-25T14:13:40.066Z</time></trkpt><trkpt lat="45.229697" lon="8.722768"><ele>104.5</ele><time>2026-04-25T14:13:41.065Z</time></trkpt><trkpt lat="45.22949" lon="8.7226695"><ele>104.0</ele><time>2026-04-25T14:13:42.066Z</time></trkpt><trkpt lat="45.2292711" lon="8.7225618"><ele>104.0</ele><time>2026-04-25T14:13:43.065Z</time></trkpt><trkpt lat="45.2290476" lon="8.7224494"><ele>104.0</ele><time>2026-04-25T14:13:44.066Z</time></trkpt><trkpt lat="45.2288166" lon="8.7223376"><ele>104.0</ele><time>2026-04-25T14:13:45.064Z</time></trkpt><trkpt lat="45.2285886" lon="8.7222109"><ele>104.0</ele><time>2026-04-25T14:13:46.065Z</time></trkpt><trkpt lat="45.2283566" lon="8.7220843"><ele>104.5</ele><time>2026-04-25T14:13:47.066Z</time></trkpt><trkpt lat="45.228126" lon="8.721959"><ele>105.0</ele><time>2026-04-25T14:13:48.066Z</time></trkpt><trkpt lat="45.227894" lon="8.7218359"><ele>105.0</ele><time>2026-04-25T14:13:49.065Z</time></trkpt><trkpt lat="45.2276633" lon="8.7217215"><ele>105.0</ele><time>2026-04-25T14:13:50.063Z</time></trkpt><trkpt lat="45.227433" lon="8.7216104"><ele>104.5</ele><time>2026-04-25T14:13:51.065Z</time></trkpt><trkpt lat="45.2272066" lon="8.7214896"><ele>104.0</ele><time>2026-04-25T14:13:52.066Z</time></trkpt><trkpt lat="45.2269861" lon="8.7213732"><ele>104.0</ele><time>2026-04-25T14:13:53.066Z</time></trkpt><trkpt lat="45.2267601" lon="8.7212624"><ele>104.0</ele><time>2026-04-25T14:13:54.066Z</time></trkpt><trkpt lat="45.2265363" lon="8.7211474"><ele>104.0</ele><time>2026-04-25T14:13:55.066Z</time></trkpt><trkpt lat="45.2263136" lon="8.721031"><ele>104.0</ele><time>2026-04-25T14:13:56.066Z</time></trkpt><trkpt lat="45.2260975" lon="8.720894"><ele>104.0</ele><time>2026-04-25T14:13:57.065Z</time></trkpt><trkpt lat="45.2258802" lon="8.720745"><ele>104.0</ele><time>2026-04-25T14:13:58.065Z</time></trkpt><trkpt lat="45.2256685" lon="8.7205992"><ele>103.5</ele><time>2026-04-25T14:13:59.065Z</time></trkpt><trkpt lat="45.2254543" lon="8.7204531"><ele>103.0</ele><time>2026-04-25T14:14:00.066Z</time></trkpt><trkpt lat="45.2252405" lon="8.7203055"><ele>103.5</ele><time>2026-04-25T14:14:01.065Z</time></trkpt><trkpt lat="45.2250267" lon="8.7201786"><ele>104.0</ele><time>2026-04-25T14:14:02.064Z</time></trkpt><trkpt lat="45.2248072" lon="8.7200578"><ele>104.5</ele><time>2026-04-25T14:14:03.064Z</time></trkpt><trkpt lat="45.2245877" lon="8.719952"><ele>105.0</ele><time>2026-04-25T14:14:04.065Z</time></trkpt><trkpt lat="45.2243669" lon="8.7198451"><ele>105.0</ele><time>2026-04-25T14:14:05.064Z</time></trkpt><trkpt lat="45.2241547" lon="8.7197332"><ele>105.0</ele><time>2026-04-25T14:14:06.065Z</time></trkpt><trkpt lat="45.2239505" lon="8.7195998"><ele>104.5</ele><time>2026-04-25T14:14:07.064Z</time></trkpt><trkpt lat="45.223747" lon="8.7194558"><ele>104.0</ele><time>2026-04-25T14:14:08.064Z</time></trkpt><trkpt lat="45.2235503" lon="8.7192968"><ele>103.5</ele><time>2026-04-25T14:14:09.065Z</time></trkpt><trkpt lat="45.2233491" lon="8.7191567"><ele>103.0</ele><time>2026-04-25T14:14:10.065Z</time></trkpt><trkpt lat="45.223147" lon="8.7190127"><ele>103.0</ele><time>2026-04-25T14:14:11.065Z</time></trkpt><trkpt lat="45.2229483" lon="8.7188623"><ele>103.0</ele><time>2026-04-25T14:14:12.064Z</time></trkpt><trkpt lat="45.2227485" lon="8.7187174"><ele>103.0</ele><time>2026-04-25T14:14:13.065Z</time></trkpt><trkpt lat="45.2225398" lon="8.7185722"><ele>103.0</ele><time>2026-04-25T14:14:14.065Z</time></trkpt><trkpt lat="45.2223401" lon="8.7184239"><ele>103.5</ele><time>2026-04-25T14:14:15.065Z</time></trkpt><trkpt lat="45.2221381" lon="8.718276"><ele>104.0</ele><time>2026-04-25T14:14:16.064Z</time></trkpt><trkpt lat="45.2219383" lon="8.7181243"><ele>104.0</ele><time>2026-04-25T14:14:17.065Z</time></trkpt><trkpt lat="45.2217381" lon="8.717976"><ele>104.0</ele><time>2026-04-25T14:14:18.065Z</time></trkpt><trkpt lat="45.2215345" lon="8.7178312"><ele>105.0</ele><time>2026-04-25T14:14:19.065Z</time></trkpt><trkpt lat="45.2213288" lon="8.7176892"><ele>106.0</ele><time>2026-04-25T14:14:20.064Z</time></trkpt><trkpt lat="45.2211259" lon="8.7175465"><ele>106.0</ele><time>2026-04-25T14:14:21.065Z</time></trkpt><trkpt lat="45.2209245" lon="8.7174003"><ele>106.0</ele><time>2026-04-25T14:14:22.065Z</time></trkpt><trkpt lat="45.2207256" lon="8.7172531"><ele>105.0</ele><time>2026-04-25T14:14:23.063Z</time></trkpt><trkpt lat="45.2205199" lon="8.7171034"><ele>104.0</ele><time>2026-04-25T14:14:24.065Z</time></trkpt><trkpt lat="45.2203178" lon="8.7169629"><ele>104.0</ele><time>2026-04-25T14:14:25.065Z</time></trkpt><trkpt lat="45.2201119" lon="8.7168139"><ele>104.0</ele><time>2026-04-25T14:14:26.066Z</time></trkpt><trkpt lat="45.2199063" lon="8.7166538"><ele>104.0</ele><time>2026-04-25T14:14:27.065Z</time></trkpt><trkpt lat="45.2197" lon="8.7165029"><ele>104.0</ele><time>2026-04-25T14:14:28.066Z</time></trkpt><trkpt lat="45.2194882" lon="8.7163581"><ele>104.0</ele><time>2026-04-25T14:14:29.065Z</time></trkpt><trkpt lat="45.2192845" lon="8.7162096"><ele>104.0</ele><time>2026-04-25T14:14:30.065Z</time></trkpt><trkpt lat="45.2190802" lon="8.716067"><ele>104.33333333333333</ele><time>2026-04-25T14:14:31.066Z</time></trkpt><trkpt lat="45.2188852" lon="8.7159233"><ele>104.66666666666666</ele><time>2026-04-25T14:14:32.065Z</time></trkpt><trkpt lat="45.2187016" lon="8.7157956"><ele>105.0</ele><time>2026-04-25T14:14:33.065Z</time></trkpt><trkpt lat="45.2185285" lon="8.7156606"><ele>105.0</ele><time>2026-04-25T14:14:34.064Z</time></trkpt><trkpt lat="45.2183659" lon="8.7155404"><ele>105.0</ele><time>2026-04-25T14:14:35.065Z</time></trkpt><trkpt lat="45.2182171" lon="8.7154271"><ele>105.0</ele><time>2026-04-25T14:14:36.066Z</time></trkpt><trkpt lat="45.2180826" lon="8.7153302"><ele>105.0</ele><time>2026-04-25T14:14:37.065Z</time></trkpt><trkpt lat="45.2179566" lon="8.7152637"><ele>105.0</ele><time>2026-04-25T14:14:38.066Z</time></trkpt><trkpt lat="45.2178192" lon="8.7152369"><ele>105.0</ele><time>2026-04-25T14:14:39.065Z</time></trkpt><trkpt lat="45.2176807" lon="8.7152487"><ele>105.0</ele><time>2026-04-25T14:14:40.066Z</time></trkpt><trkpt lat="45.217535" lon="8.7152895"><ele>105.0</ele><time>2026-04-25T14:14:41.065Z</time></trkpt><trkpt lat="45.2173784" lon="8.715341"><ele>105.0</ele><time>2026-04-25T14:14:42.064Z</time></trkpt><trkpt lat="45.2172126" lon="8.7154017"><ele>105.0</ele><time>2026-04-25T14:14:43.065Z</time></trkpt><trkpt lat="45.2170389" lon="8.715469"><ele>105.0</ele><time>2026-04-25T14:14:44.064Z</time></trkpt><trkpt lat="45.2168704" lon="8.715544"><ele>105.0</ele><time>2026-04-25T14:14:45.065Z</time></trkpt><trkpt lat="45.2167111" lon="8.7156059"><ele>105.0</ele><time>2026-04-25T14:14:46.065Z</time></trkpt><trkpt lat="45.2165514" lon="8.7156595"><ele>105.66666666666666</ele><time>2026-04-25T14:14:47.066Z</time></trkpt><trkpt lat="45.2163969" lon="8.7157283"><ele>106.33333333333333</ele><time>2026-04-25T14:14:48.065Z</time></trkpt><trkpt lat="45.216247" lon="8.7157996"><ele>107.0</ele><time>2026-04-25T14:14:49.065Z</time></trkpt><trkpt lat="45.216096" lon="8.7158682"><ele>107.0</ele><time>2026-04-25T14:14:50.065Z</time></trkpt><trkpt lat="45.2159425" lon="8.7159342"><ele>107.0</ele><time>2026-04-25T14:14:51.065Z</time></trkpt><trkpt lat="45.2158024" lon="8.7160015"><ele>107.0</ele><time>2026-04-25T14:14:52.065Z</time></trkpt><trkpt lat="45.2156735" lon="8.7160668"><ele>107.0</ele><time>2026-04-25T14:14:53.064Z</time></trkpt><trkpt lat="45.2155552" lon="8.7161296"><ele>107.19999999999999</ele><time>2026-04-25T14:14:54.064Z</time></trkpt><trkpt lat="45.2154446" lon="8.7161931"><ele>107.39999999999999</ele><time>2026-04-25T14:14:55.065Z</time></trkpt><trkpt lat="45.2153338" lon="8.7162557"><ele>107.60000000000001</ele><time>2026-04-25T14:14:56.065Z</time></trkpt><trkpt lat="45.2152469" lon="8.7163265"><ele>107.80000000000001</ele><time>2026-04-25T14:14:57.066Z</time></trkpt><trkpt lat="45.2151583" lon="8.716392"><ele>108.0</ele><time>2026-04-25T14:14:58.064Z</time></trkpt><trkpt lat="45.2150757" lon="8.7164562"><ele>108.0</ele><time>2026-04-25T14:14:59.065Z</time></trkpt><trkpt lat="45.2149693" lon="8.7165002"><ele>108.0</ele><time>2026-04-25T14:15:00.065Z</time></trkpt><trkpt lat="45.2149134" lon="8.7165528"><ele>108.0</ele><time>2026-04-25T14:15:01.065Z</time></trkpt><trkpt lat="45.2148248" lon="8.716591"><ele>108.0</ele><time>2026-04-25T14:15:02.063Z</time></trkpt><trkpt lat="45.2147496" lon="8.7166433"><ele>108.0</ele><time>2026-04-25T14:15:03.064Z</time></trkpt><trkpt lat="45.2146622" lon="8.7166852"><ele>108.0</ele><time>2026-04-25T14:15:04.064Z</time></trkpt><trkpt lat="45.2145906" lon="8.7167292"><ele>107.83333333333333</ele><time>2026-04-25T14:15:05.065Z</time></trkpt><trkpt lat="45.2145119" lon="8.7167566"><ele>107.66666666666666</ele><time>2026-04-25T14:15:06.064Z</time></trkpt><trkpt lat="45.2144489" lon="8.7167819"><ele>107.5</ele><time>2026-04-25T14:15:07.063Z</time></trkpt><trkpt lat="45.2143846" lon="8.7168034"><ele>107.33333333333333</ele><time>2026-04-25T14:15:08.065Z</time></trkpt><trkpt lat="45.2143129" lon="8.7167486"><ele>107.16666666666666</ele><time>2026-04-25T14:15:10.065Z</time></trkpt><trkpt lat="45.2142602" lon="8.7165766"><ele>107.0</ele><time>2026-04-25T14:15:12.065Z</time></trkpt><trkpt lat="45.2142232" lon="8.7164473"><ele>107.0</ele><time>2026-04-25T14:15:13.065Z</time></trkpt><trkpt lat="45.2141793" lon="8.7163035"><ele>107.0</ele><time>2026-04-25T14:15:14.064Z</time></trkpt><trkpt lat="45.2141288" lon="8.7161556"><ele>107.0</ele><time>2026-04-25T14:15:15.065Z</time></trkpt><trkpt lat="45.2140778" lon="8.7159933"><ele>107.0</ele><time>2026-04-25T14:15:16.065Z</time></trkpt><trkpt lat="45.2140188" lon="8.7158288"><ele>107.0</ele><time>2026-04-25T14:15:17.065Z</time></trkpt><trkpt lat="45.21396" lon="8.7156666"><ele>107.0</ele><time>2026-04-25T14:15:18.065Z</time></trkpt><trkpt lat="45.2138928" lon="8.7155001"><ele>107.0</ele><time>2026-04-25T14:15:19.065Z</time></trkpt><trkpt lat="45.213832" lon="8.7153382"><ele>107.0</ele><time>2026-04-25T14:15:20.064Z</time></trkpt><trkpt lat="45.2137771" lon="8.7151702"><ele>107.0</ele><time>2026-04-25T14:15:21.065Z</time></trkpt><trkpt lat="45.2137213" lon="8.7150205"><ele>106.99999999999999</ele><time>2026-04-25T14:15:22.065Z</time></trkpt><trkpt lat="45.2136753" lon="8.7148869"><ele>106.99999999999999</ele><time>2026-04-25T14:15:23.064Z</time></trkpt><trkpt lat="45.2136313" lon="8.7147635"><ele>107.0</ele><time>2026-04-25T14:15:24.065Z</time></trkpt><trkpt lat="45.2135822" lon="8.7146526"><ele>107.0</ele><time>2026-04-25T14:15:25.065Z</time></trkpt><trkpt lat="45.2135383" lon="8.7145318"><ele>107.0</ele><time>2026-04-25T14:15:26.065Z</time></trkpt><trkpt lat="45.2134961" lon="8.7144053"><ele>106.99999999999999</ele><time>2026-04-25T14:15:27.065Z</time></trkpt><trkpt lat="45.2134449" lon="8.7142729"><ele>106.99999999999999</ele><time>2026-04-25T14:15:28.064Z</time></trkpt><trkpt lat="45.2133774" lon="8.7141356"><ele>107.0</ele><time>2026-04-25T14:15:29.065Z</time></trkpt><trkpt lat="45.2133137" lon="8.7139894"><ele>107.0</ele><time>2026-04-25T14:15:30.064Z</time></trkpt><trkpt lat="45.2132404" lon="8.713856"><ele>106.8</ele><time>2026-04-25T14:15:31.065Z</time></trkpt><trkpt lat="45.2131629" lon="8.7137321"><ele>106.6</ele><time>2026-04-25T14:15:32.065Z</time></trkpt><trkpt lat="45.2131039" lon="8.7136062"><ele>106.39999999999999</ele><time>2026-04-25T14:15:33.064Z</time></trkpt><trkpt lat="45.213047" lon="8.713511"><ele>106.19999999999999</ele><time>2026-04-25T14:15:34.064Z</time></trkpt><trkpt lat="45.2129959" lon="8.7134255"><ele>106.0</ele><time>2026-04-25T14:15:35.065Z</time></trkpt><trkpt lat="45.2129811" lon="8.7133295"><ele>105.4</ele><time>2026-04-25T14:15:36.065Z</time></trkpt><trkpt lat="45.2130011" lon="8.7132245"><ele>104.8</ele><time>2026-04-25T14:15:37.064Z</time></trkpt><trkpt lat="45.2130543" lon="8.7131545"><ele>104.2</ele><time>2026-04-25T14:15:38.064Z</time></trkpt><trkpt lat="45.2131308" lon="8.7130912"><ele>103.60000000000001</ele><time>2026-04-25T14:15:39.065Z</time></trkpt><trkpt lat="45.2132209" lon="8.7130216"><ele>103.0</ele><time>2026-04-25T14:15:40.065Z</time></trkpt><trkpt lat="45.2133138" lon="8.7129153"><ele>103.0</ele><time>2026-04-25T14:15:41.065Z</time></trkpt><trkpt lat="45.2134047" lon="8.7128479"><ele>103.0</ele><time>2026-04-25T14:15:42.065Z</time></trkpt><trkpt lat="45.2134874" lon="8.7127853"><ele>103.0</ele><time>2026-04-25T14:15:43.065Z</time></trkpt><trkpt lat="45.2135779" lon="8.7127412"><ele>103.0</ele><time>2026-04-25T14:15:44.064Z</time></trkpt><trkpt lat="45.2136796" lon="8.7127355"><ele>103.0</ele><time>2026-04-25T14:15:45.065Z</time></trkpt><trkpt lat="45.2137787" lon="8.7127668"><ele>103.0</ele><time>2026-04-25T14:15:46.065Z</time></trkpt><trkpt lat="45.2138787" lon="8.7128075"><ele>103.0</ele><time>2026-04-25T14:15:47.064Z</time></trkpt><trkpt lat="45.2139854" lon="8.7128573"><ele>103.0</ele><time>2026-04-25T14:15:48.065Z</time></trkpt><trkpt lat="45.2140914" lon="8.7128982"><ele>103.0</ele><time>2026-04-25T14:15:49.065Z</time></trkpt><trkpt lat="45.2142061" lon="8.7129349"><ele>103.0</ele><time>2026-04-25T14:15:50.065Z</time></trkpt><trkpt lat="45.2143161" lon="8.7129822"><ele>102.80000000000001</ele><time>2026-04-25T14:15:51.065Z</time></trkpt><trkpt lat="45.2144274" lon="8.7130347"><ele>102.6</ele><time>2026-04-25T14:15:52.064Z</time></trkpt><trkpt lat="45.2145389" lon="8.7130753"><ele>102.4</ele><time>2026-04-25T14:15:53.065Z</time></trkpt><trkpt lat="45.2146392" lon="8.7131217"><ele>102.19999999999999</ele><time>2026-04-25T14:15:54.064Z</time></trkpt><trkpt lat="45.21473" lon="8.7131663"><ele>102.0</ele><time>2026-04-25T14:15:55.065Z</time></trkpt><trkpt lat="45.2148114" lon="8.7132084"><ele>101.83333333333333</ele><time>2026-04-25T14:15:56.065Z</time></trkpt><trkpt lat="45.2148766" lon="8.7132312"><ele>101.66666666666666</ele><time>2026-04-25T14:15:57.065Z</time></trkpt><trkpt lat="45.2149967" lon="8.7132062"><ele>101.5</ele><time>2026-04-25T14:15:59.065Z</time></trkpt><trkpt lat="45.2150453" lon="8.713137"><ele>101.33333333333333</ele><time>2026-04-25T14:16:00.064Z</time></trkpt><trkpt lat="45.2150794" lon="8.7130422"><ele>101.16666666666666</ele><time>2026-04-25T14:16:01.065Z</time></trkpt><trkpt lat="45.2151109" lon="8.7129294"><ele>101.0</ele><time>2026-04-25T14:16:02.065Z</time></trkpt><trkpt lat="45.2151298" lon="8.7128039"><ele>101.25</ele><time>2026-04-25T14:16:03.065Z</time></trkpt><trkpt lat="45.2151367" lon="8.7126649"><ele>101.5</ele><time>2026-04-25T14:16:04.063Z</time></trkpt><trkpt lat="45.2151092" lon="8.7125108"><ele>101.75</ele><time>2026-04-25T14:16:05.064Z</time></trkpt><trkpt lat="45.2150598" lon="8.7123389"><ele>102.0</ele><time>2026-04-25T14:16:06.064Z</time></trkpt><trkpt lat="45.2149901" lon="8.7121452"><ele>102.0</ele><time>2026-04-25T14:16:07.065Z</time></trkpt><trkpt lat="45.2149104" lon="8.7119374"><ele>102.0</ele><time>2026-04-25T14:16:08.065Z</time></trkpt><trkpt lat="45.2148342" lon="8.7117293"><ele>102.0</ele><time>2026-04-25T14:16:09.064Z</time></trkpt><trkpt lat="45.2147522" lon="8.7115157"><ele>102.33333333333334</ele><time>2026-04-25T14:16:10.064Z</time></trkpt><trkpt lat="45.214672" lon="8.7112998"><ele>102.66666666666667</ele><time>2026-04-25T14:16:11.065Z</time></trkpt><trkpt lat="45.2145895" lon="8.7110824"><ele>103.0</ele><time>2026-04-25T14:16:12.064Z</time></trkpt><trkpt lat="45.214507" lon="8.7108688"><ele>103.0</ele><time>2026-04-25T14:16:13.065Z</time></trkpt><trkpt lat="45.214431" lon="8.7106687"><ele>103.0</ele><time>2026-04-25T14:16:14.064Z</time></trkpt><trkpt lat="45.2143602" lon="8.7104776"><ele>103.0</ele><time>2026-04-25T14:16:15.065Z</time></trkpt><trkpt lat="45.2143018" lon="8.7102988"><ele>103.0</ele><time>2026-04-25T14:16:16.064Z</time></trkpt><trkpt lat="45.2142613" lon="8.7101363"><ele>103.0</ele><time>2026-04-25T14:16:17.064Z</time></trkpt><trkpt lat="45.2142517" lon="8.7099723"><ele>103.0</ele><time>2026-04-25T14:16:18.064Z</time></trkpt><trkpt lat="45.2142677" lon="8.7098165"><ele>103.0</ele><time>2026-04-25T14:16:19.065Z</time></trkpt><trkpt lat="45.2143103" lon="8.7096717"><ele>103.0</ele><time>2026-04-25T14:16:20.063Z</time></trkpt><trkpt lat="45.2143781" lon="8.7095411"><ele>103.0</ele><time>2026-04-25T14:16:21.065Z</time></trkpt><trkpt lat="45.2144723" lon="8.7094089"><ele>103.0</ele><time>2026-04-25T14:16:22.063Z</time></trkpt><trkpt lat="45.2145897" lon="8.7092924"><ele>103.0</ele><time>2026-04-25T14:16:23.065Z</time></trkpt><trkpt lat="45.214723" lon="8.7091684"><ele>103.0</ele><time>2026-04-25T14:16:24.065Z</time></trkpt><trkpt lat="45.214878" lon="8.7090225"><ele>103.0</ele><time>2026-04-25T14:16:25.063Z</time></trkpt><trkpt lat="45.2150502" lon="8.7088638"><ele>103.0</ele><time>2026-04-25T14:16:26.064Z</time></trkpt><trkpt lat="45.2152228" lon="8.7087034"><ele>102.66666666666667</ele><time>2026-04-25T14:16:27.064Z</time></trkpt><trkpt lat="45.2154031" lon="8.7085384"><ele>102.33333333333334</ele><time>2026-04-25T14:16:28.065Z</time></trkpt><trkpt lat="45.2155907" lon="8.7083653"><ele>102.0</ele><time>2026-04-25T14:16:29.065Z</time></trkpt><trkpt lat="45.2157875" lon="8.7081878"><ele>102.0</ele><time>2026-04-25T14:16:30.065Z</time></trkpt><trkpt lat="45.21599" lon="8.7079927"><ele>102.0</ele><time>2026-04-25T14:16:31.064Z</time></trkpt><trkpt lat="45.2161956" lon="8.7077956"><ele>102.0</ele><time>2026-04-25T14:16:32.064Z</time></trkpt><trkpt lat="45.2164003" lon="8.7076154"><ele>102.0</ele><time>2026-04-25T14:16:33.064Z</time></trkpt><trkpt lat="45.21661" lon="8.707423"><ele>102.5</ele><time>2026-04-25T14:16:34.063Z</time></trkpt><trkpt lat="45.2168287" lon="8.7072221"><ele>103.0</ele><time>2026-04-25T14:16:35.064Z</time></trkpt><trkpt lat="45.2170498" lon="8.7070217"><ele>103.0</ele><time>2026-04-25T14:16:36.064Z</time></trkpt><trkpt lat="45.2172735" lon="8.7068168"><ele>103.0</ele><time>2026-04-25T14:16:37.063Z</time></trkpt><trkpt lat="45.2174971" lon="8.7066055"><ele>102.5</ele><time>2026-04-25T14:16:38.065Z</time></trkpt><trkpt lat="45.2177225" lon="8.7063941"><ele>102.0</ele><time>2026-04-25T14:16:39.064Z</time></trkpt><trkpt lat="45.217952" lon="8.7061775"><ele>102.5</ele><time>2026-04-25T14:16:40.065Z</time></trkpt><trkpt lat="45.2181832" lon="8.7059611"><ele>103.0</ele><time>2026-04-25T14:16:41.064Z</time></trkpt><trkpt lat="45.2184135" lon="8.7057487"><ele>103.0</ele><time>2026-04-25T14:16:42.064Z</time></trkpt><trkpt lat="45.2186409" lon="8.7055335"><ele>103.0</ele><time>2026-04-25T14:16:43.065Z</time></trkpt><trkpt lat="45.2188669" lon="8.7053234"><ele>102.5</ele><time>2026-04-25T14:16:44.065Z</time></trkpt><trkpt lat="45.2190874" lon="8.7051054"><ele>102.0</ele><time>2026-04-25T14:16:45.064Z</time></trkpt><trkpt lat="45.219313" lon="8.7048927"><ele>102.0</ele><time>2026-04-25T14:16:46.063Z</time></trkpt><trkpt lat="45.2195414" lon="8.7046809"><ele>102.0</ele><time>2026-04-25T14:16:47.064Z</time></trkpt><trkpt lat="45.2197666" lon="8.7044651"><ele>102.5</ele><time>2026-04-25T14:16:48.065Z</time></trkpt><trkpt lat="45.2199884" lon="8.7042578"><ele>103.0</ele><time>2026-04-25T14:16:49.065Z</time></trkpt><trkpt lat="45.2202067" lon="8.7040484"><ele>103.0</ele><time>2026-04-25T14:16:50.064Z</time></trkpt><trkpt lat="45.220428" lon="8.7038482"><ele>103.0</ele><time>2026-04-25T14:16:51.063Z</time></trkpt><trkpt lat="45.2206493" lon="8.7036464"><ele>102.5</ele><time>2026-04-25T14:16:52.064Z</time></trkpt><trkpt lat="45.2208682" lon="8.7034515"><ele>102.0</ele><time>2026-04-25T14:16:53.064Z</time></trkpt><trkpt lat="45.2210854" lon="8.7032616"><ele>102.0</ele><time>2026-04-25T14:16:54.064Z</time></trkpt><trkpt lat="45.2213058" lon="8.7030796"><ele>102.0</ele><time>2026-04-25T14:16:55.064Z</time></trkpt><trkpt lat="45.2215215" lon="8.702886"><ele>103.0</ele><time>2026-04-25T14:16:56.063Z</time></trkpt><trkpt lat="45.2217397" lon="8.7026891"><ele>104.0</ele><time>2026-04-25T14:16:57.064Z</time></trkpt><trkpt lat="45.2219509" lon="8.7024895"><ele>104.0</ele><time>2026-04-25T14:16:58.064Z</time></trkpt><trkpt lat="45.2221582" lon="8.7022809"><ele>104.0</ele><time>2026-04-25T14:16:59.065Z</time></trkpt><trkpt lat="45.2223708" lon="8.702075"><ele>103.0</ele><time>2026-04-25T14:17:00.064Z</time></trkpt><trkpt lat="45.2225817" lon="8.7018746"><ele>102.0</ele><time>2026-04-25T14:17:01.064Z</time></trkpt><trkpt lat="45.2227929" lon="8.7016743"><ele>102.0</ele><time>2026-04-25T14:17:02.064Z</time></trkpt><trkpt lat="45.2230082" lon="8.7014714"><ele>102.0</ele><time>2026-04-25T14:17:03.065Z</time></trkpt><trkpt lat="45.2232141" lon="8.7012673"><ele>102.0</ele><time>2026-04-25T14:17:04.063Z</time></trkpt><trkpt lat="45.223421" lon="8.7010663"><ele>102.0</ele><time>2026-04-25T14:17:05.063Z</time></trkpt><trkpt lat="45.2236318" lon="8.7008645"><ele>102.0</ele><time>2026-04-25T14:17:06.064Z</time></trkpt><trkpt lat="45.2238494" lon="8.7006919"><ele>102.0</ele><time>2026-04-25T14:17:07.064Z</time></trkpt><trkpt lat="45.2240644" lon="8.7005167"><ele>102.5</ele><time>2026-04-25T14:17:08.064Z</time></trkpt><trkpt lat="45.2242855" lon="8.7003563"><ele>103.0</ele><time>2026-04-25T14:17:09.062Z</time></trkpt><trkpt lat="45.2245048" lon="8.7002"><ele>103.0</ele><time>2026-04-25T14:17:10.064Z</time></trkpt><trkpt lat="45.2247286" lon="8.7000433"><ele>103.0</ele><time>2026-04-25T14:17:11.065Z</time></trkpt><trkpt lat="45.2249555" lon="8.699887"><ele>103.0</ele><time>2026-04-25T14:17:12.063Z</time></trkpt><trkpt lat="45.22518" lon="8.6997268"><ele>103.0</ele><time>2026-04-25T14:17:13.065Z</time></trkpt><trkpt lat="45.2254074" lon="8.6995646"><ele>103.0</ele><time>2026-04-25T14:17:14.065Z</time></trkpt><trkpt lat="45.2256363" lon="8.699404"><ele>103.0</ele><time>2026-04-25T14:17:15.064Z</time></trkpt><trkpt lat="45.2258668" lon="8.6992419"><ele>103.0</ele><time>2026-04-25T14:17:16.064Z</time></trkpt><trkpt lat="45.2260951" lon="8.6990789"><ele>103.0</ele><time>2026-04-25T14:17:17.064Z</time></trkpt><trkpt lat="45.226322" lon="8.6989168"><ele>104.0</ele><time>2026-04-25T14:17:18.064Z</time></trkpt><trkpt lat="45.2265477" lon="8.6987559"><ele>105.0</ele><time>2026-04-25T14:17:19.063Z</time></trkpt><trkpt lat="45.2267706" lon="8.6986"><ele>105.0</ele><time>2026-04-25T14:17:20.064Z</time></trkpt><trkpt lat="45.2269957" lon="8.6984409"><ele>105.0</ele><time>2026-04-25T14:17:21.065Z</time></trkpt><trkpt lat="45.2272197" lon="8.698282"><ele>104.5</ele><time>2026-04-25T14:17:22.064Z</time></trkpt><trkpt lat="45.2274444" lon="8.6981239"><ele>104.0</ele><time>2026-04-25T14:17:23.065Z</time></trkpt><trkpt lat="45.2276638" lon="8.6979703"><ele>104.0</ele><time>2026-04-25T14:17:24.063Z</time></trkpt><trkpt lat="45.2278824" lon="8.6978168"><ele>104.0</ele><time>2026-04-25T14:17:25.063Z</time></trkpt><trkpt lat="45.2280996" lon="8.6976755"><ele>104.0</ele><time>2026-04-25T14:17:26.064Z</time></trkpt><trkpt lat="45.2283144" lon="8.6975338"><ele>104.0</ele><time>2026-04-25T14:17:27.063Z</time></trkpt><trkpt lat="45.2285243" lon="8.6973888"><ele>104.0</ele><time>2026-04-25T14:17:28.064Z</time></trkpt><trkpt lat="45.2287374" lon="8.6972399"><ele>104.0</ele><time>2026-04-25T14:17:29.065Z</time></trkpt><trkpt lat="45.228953" lon="8.6970939"><ele>104.0</ele><time>2026-04-25T14:17:30.064Z</time></trkpt><trkpt lat="45.2291664" lon="8.6969483"><ele>104.0</ele><time>2026-04-25T14:17:31.064Z</time></trkpt><trkpt lat="45.2293695" lon="8.6967981"><ele>104.33333333333333</ele><time>2026-04-25T14:17:32.064Z</time></trkpt><trkpt lat="45.2295597" lon="8.6966588"><ele>104.66666666666666</ele><time>2026-04-25T14:17:33.064Z</time></trkpt><trkpt lat="45.2297443" lon="8.6965237"><ele>105.0</ele><time>2026-04-25T14:17:34.064Z</time></trkpt><trkpt lat="45.2299199" lon="8.6963958"><ele>105.0</ele><time>2026-04-25T14:17:35.064Z</time></trkpt><trkpt lat="45.2300888" lon="8.6962718"><ele>105.0</ele><time>2026-04-25T14:17:36.064Z</time></trkpt><trkpt lat="45.2302417" lon="8.6961558"><ele>105.0</ele><time>2026-04-25T14:17:37.063Z</time></trkpt><trkpt lat="45.2303812" lon="8.6960504"><ele>105.25</ele><time>2026-04-25T14:17:38.063Z</time></trkpt><trkpt lat="45.2305079" lon="8.6959607"><ele>105.5</ele><time>2026-04-25T14:17:39.064Z</time></trkpt><trkpt lat="45.2306348" lon="8.6958674"><ele>105.75</ele><time>2026-04-25T14:17:40.064Z</time></trkpt><trkpt lat="45.2307598" lon="8.6957805"><ele>106.0</ele><time>2026-04-25T14:17:41.064Z</time></trkpt><trkpt lat="45.2308884" lon="8.6956828"><ele>106.0</ele><time>2026-04-25T14:17:42.064Z</time></trkpt><trkpt lat="45.2310247" lon="8.6955846"><ele>106.0</ele><time>2026-04-25T14:17:43.064Z</time></trkpt><trkpt lat="45.2311695" lon="8.6954787"><ele>106.0</ele><time>2026-04-25T14:17:44.063Z</time></trkpt><trkpt lat="45.2313117" lon="8.6953697"><ele>106.0</ele><time>2026-04-25T14:17:45.064Z</time></trkpt><trkpt lat="45.2314562" lon="8.6952661"><ele>106.0</ele><time>2026-04-25T14:17:46.064Z</time></trkpt><trkpt lat="45.2315987" lon="8.6951671"><ele>106.0</ele><time>2026-04-25T14:17:47.064Z</time></trkpt><trkpt lat="45.2317307" lon="8.6950716"><ele>105.75</ele><time>2026-04-25T14:17:48.064Z</time></trkpt><trkpt lat="45.2318572" lon="8.6949865"><ele>105.5</ele><time>2026-04-25T14:17:49.063Z</time></trkpt><trkpt lat="45.2319814" lon="8.6949044"><ele>105.25</ele><time>2026-04-25T14:17:50.064Z</time></trkpt><trkpt lat="45.2321103" lon="8.6948128"><ele>105.0</ele><time>2026-04-25T14:17:51.064Z</time></trkpt><trkpt lat="45.2322383" lon="8.6947211"><ele>105.0</ele><time>2026-04-25T14:17:52.063Z</time></trkpt><trkpt lat="45.2323619" lon="8.6946382"><ele>105.0</ele><time>2026-04-25T14:17:53.064Z</time></trkpt><trkpt lat="45.2324822" lon="8.6945495"><ele>105.0</ele><time>2026-04-25T14:17:54.063Z</time></trkpt><trkpt lat="45.2325938" lon="8.6944707"><ele>105.0</ele><time>2026-04-25T14:17:55.064Z</time></trkpt><trkpt lat="45.2326984" lon="8.694399"><ele>105.0</ele><time>2026-04-25T14:17:56.063Z</time></trkpt><trkpt lat="45.2327868" lon="8.6943303"><ele>105.0</ele><time>2026-04-25T14:17:57.063Z</time></trkpt><trkpt lat="45.2328598" lon="8.6942744"><ele>105.0</ele><time>2026-04-25T14:17:58.064Z</time></trkpt><trkpt lat="45.2329149" lon="8.6942158"><ele>105.0</ele><time>2026-04-25T14:17:59.064Z</time></trkpt><trkpt lat="45.2329487" lon="8.694053"><ele>105.0</ele><time>2026-04-25T14:18:01.064Z</time></trkpt><trkpt lat="45.2329299" lon="8.6939636"><ele>105.0</ele><time>2026-04-25T14:18:02.063Z</time></trkpt><trkpt lat="45.2329011" lon="8.6938548"><ele>105.0</ele><time>2026-04-25T14:18:03.063Z</time></trkpt><trkpt lat="45.2328666" lon="8.6937346"><ele>105.0</ele><time>2026-04-25T14:18:04.064Z</time></trkpt><trkpt lat="45.2328208" lon="8.6935928"><ele>105.0</ele><time>2026-04-25T14:18:05.064Z</time></trkpt><trkpt lat="45.232769" lon="8.6934453"><ele>105.0</ele><time>2026-04-25T14:18:06.064Z</time></trkpt><trkpt lat="45.2327168" lon="8.6932922"><ele>105.0</ele><time>2026-04-25T14:18:07.063Z</time></trkpt><trkpt lat="45.2326625" lon="8.6931257"><ele>104.75</ele><time>2026-04-25T14:18:08.064Z</time></trkpt><trkpt lat="45.2326049" lon="8.6929589"><ele>104.5</ele><time>2026-04-25T14:18:09.064Z</time></trkpt><trkpt lat="45.2325473" lon="8.6927828"><ele>104.25</ele><time>2026-04-25T14:18:10.064Z</time></trkpt><trkpt lat="45.2324864" lon="8.6926088"><ele>104.0</ele><time>2026-04-25T14:18:11.064Z</time></trkpt><trkpt lat="45.2324246" lon="8.6924377"><ele>104.5</ele><time>2026-04-25T14:18:12.063Z</time></trkpt><trkpt lat="45.2323626" lon="8.6922689"><ele>105.0</ele><time>2026-04-25T14:18:13.063Z</time></trkpt><trkpt lat="45.2323048" lon="8.6921042"><ele>105.5</ele><time>2026-04-25T14:18:14.064Z</time></trkpt><trkpt lat="45.232253" lon="8.6919369"><ele>106.0</ele><time>2026-04-25T14:18:15.063Z</time></trkpt><trkpt lat="45.2321945" lon="8.6917782"><ele>106.19999999999999</ele><time>2026-04-25T14:18:16.064Z</time></trkpt><trkpt lat="45.2321446" lon="8.6916298"><ele>106.39999999999999</ele><time>2026-04-25T14:18:17.063Z</time></trkpt><trkpt lat="45.2320977" lon="8.6914937"><ele>106.6</ele><time>2026-04-25T14:18:18.064Z</time></trkpt><trkpt lat="45.2320501" lon="8.6913769"><ele>106.8</ele><time>2026-04-25T14:18:19.064Z</time></trkpt><trkpt lat="45.2320107" lon="8.6912639"><ele>107.0</ele><time>2026-04-25T14:18:20.064Z</time></trkpt><trkpt lat="45.2319703" lon="8.6911641"><ele>107.49999999999999</ele><time>2026-04-25T14:18:21.064Z</time></trkpt><trkpt lat="45.2319287" lon="8.6910854"><ele>108.0</ele><time>2026-04-25T14:18:22.064Z</time></trkpt><trkpt lat="45.2318955" lon="8.6910029"><ele>108.5</ele><time>2026-04-25T14:18:23.064Z</time></trkpt><trkpt lat="45.2318376" lon="8.6908797"><ele>109.0</ele><time>2026-04-25T14:18:25.064Z</time></trkpt><trkpt lat="45.231829" lon="8.6907695"><ele>109.49999999999999</ele><time>2026-04-25T14:18:27.064Z</time></trkpt><trkpt lat="45.2319069" lon="8.6906681"><ele>110.0</ele><time>2026-04-25T14:18:29.062Z</time></trkpt><trkpt lat="45.2319601" lon="8.6906152"><ele>110.0</ele><time>2026-04-25T14:18:30.064Z</time></trkpt><trkpt lat="45.232035" lon="8.6905456"><ele>110.0</ele><time>2026-04-25T14:18:31.062Z</time></trkpt><trkpt lat="45.2321177" lon="8.6904622"><ele>110.0</ele><time>2026-04-25T14:18:32.061Z</time></trkpt><trkpt lat="45.2322101" lon="8.690365"><ele>110.0</ele><time>2026-04-25T14:18:33.064Z</time></trkpt><trkpt lat="45.2323042" lon="8.6902644"><ele>110.0</ele><time>2026-04-25T14:18:34.063Z</time></trkpt><trkpt lat="45.2323866" lon="8.6901825"><ele>109.8</ele><time>2026-04-25T14:18:35.063Z</time></trkpt><trkpt lat="45.232471" lon="8.6900959"><ele>109.6</ele><time>2026-04-25T14:18:36.064Z</time></trkpt><trkpt lat="45.2325461" lon="8.6900155"><ele>109.4</ele><time>2026-04-25T14:18:37.062Z</time></trkpt><trkpt lat="45.2326013" lon="8.689964"><ele>109.2</ele><time>2026-04-25T14:18:38.063Z</time></trkpt><trkpt lat="45.2326937" lon="8.6898687"><ele>109.0</ele><time>2026-04-25T14:18:40.064Z</time></trkpt><trkpt lat="45.2327374" lon="8.6897873"><ele>109.0</ele><time>2026-04-25T14:18:41.063Z</time></trkpt><trkpt lat="45.2327807" lon="8.6896879"><ele>109.0</ele><time>2026-04-25T14:18:42.063Z</time></trkpt><trkpt lat="45.2328171" lon="8.6896068"><ele>109.0</ele><time>2026-04-25T14:18:43.063Z</time></trkpt><trkpt lat="45.2328233" lon="8.6895121"><ele>109.0</ele><time>2026-04-25T14:18:44.063Z</time></trkpt><trkpt lat="45.2328073" lon="8.6894044"><ele>109.0</ele><time>2026-04-25T14:18:45.063Z</time></trkpt><trkpt lat="45.2327765" lon="8.6893075"><ele>109.0</ele><time>2026-04-25T14:18:46.064Z</time></trkpt><trkpt lat="45.2327479" lon="8.6892155"><ele>109.0</ele><time>2026-04-25T14:18:47.064Z</time></trkpt><trkpt lat="45.2327348" lon="8.6891264"><ele>108.83333333333334</ele><time>2026-04-25T14:18:48.063Z</time></trkpt><trkpt lat="45.2327814" lon="8.6889708"><ele>108.66666666666667</ele><time>2026-04-25T14:18:50.064Z</time></trkpt><trkpt lat="45.2328413" lon="8.6889084"><ele>108.5</ele><time>2026-04-25T14:18:51.063Z</time></trkpt><trkpt lat="45.2329052" lon="8.6888424"><ele>108.33333333333334</ele><time>2026-04-25T14:18:52.063Z</time></trkpt><trkpt lat="45.2329754" lon="8.6887834"><ele>108.16666666666667</ele><time>2026-04-25T14:18:53.063Z</time></trkpt><trkpt lat="45.2330529" lon="8.6887173"><ele>108.0</ele><time>2026-04-25T14:18:54.063Z</time></trkpt><trkpt lat="45.2331202" lon="8.6886577"><ele>108.0</ele><time>2026-04-25T14:18:55.064Z</time></trkpt><trkpt lat="45.2331851" lon="8.6885887"><ele>108.00000000000001</ele><time>2026-04-25T14:18:56.064Z</time></trkpt><trkpt lat="45.2332652" lon="8.6885109"><ele>108.00000000000001</ele><time>2026-04-25T14:18:58.063Z</time></trkpt><trkpt lat="45.2333061" lon="8.6884007"><ele>108.0</ele><time>2026-04-25T14:20:12.063Z</time></trkpt><trkpt lat="45.2332435" lon="8.6882564"><ele>108.0</ele><time>2026-04-25T14:20:14.063Z</time></trkpt><trkpt lat="45.2332004" lon="8.6881592"><ele>108.0</ele><time>2026-04-25T14:20:15.064Z</time></trkpt><trkpt lat="45.2331576" lon="8.6880513"><ele>108.0</ele><time>2026-04-25T14:20:16.063Z</time></trkpt><trkpt lat="45.2331273" lon="8.687927"><ele>108.0</ele><time>2026-04-25T14:20:17.063Z</time></trkpt><trkpt lat="45.2330969" lon="8.687825"><ele>108.0</ele><time>2026-04-25T14:20:18.062Z</time></trkpt><trkpt lat="45.2330708" lon="8.6877253"><ele>108.0</ele><time>2026-04-25T14:20:19.063Z</time></trkpt><trkpt lat="45.2330486" lon="8.6876396"><ele>108.0</ele><time>2026-04-25T14:20:20.063Z</time></trkpt><trkpt lat="45.2330064" lon="8.6874972"><ele>107.66666666666667</ele><time>2026-04-25T14:20:22.062Z</time></trkpt><trkpt lat="45.2329421" lon="8.6873935"><ele>107.33333333333334</ele><time>2026-04-25T14:20:24.063Z</time></trkpt><trkpt lat="45.2328787" lon="8.6873621"><ele>107.0</ele><time>2026-04-25T14:20:26.062Z</time></trkpt><trkpt lat="45.2328169" lon="8.6873908"><ele>106.66666666666667</ele><time>2026-04-25T14:20:46.062Z</time></trkpt><trkpt lat="45.2328406" lon="8.6874868"><ele>106.33333333333334</ele><time>2026-04-25T14:20:48.062Z</time></trkpt><trkpt lat="45.232874" lon="8.6875673"><ele>106.0</ele><time>2026-04-25T14:20:49.063Z</time></trkpt><trkpt lat="45.2329151" lon="8.6876741"><ele>106.19999999999999</ele><time>2026-04-25T14:20:50.062Z</time></trkpt><trkpt lat="45.2329711" lon="8.6877862"><ele>106.39999999999999</ele><time>2026-04-25T14:20:51.063Z</time></trkpt><trkpt lat="45.2330321" lon="8.687908"><ele>106.6</ele><time>2026-04-25T14:20:52.062Z</time></trkpt><trkpt lat="45.2330816" lon="8.6880322"><ele>106.8</ele><time>2026-04-25T14:20:53.061Z</time></trkpt><trkpt lat="45.2331387" lon="8.6881483"><ele>107.0</ele><time>2026-04-25T14:20:54.063Z</time></trkpt><trkpt lat="45.2331882" lon="8.688249"><ele>107.19999999999999</ele><time>2026-04-25T14:20:55.063Z</time></trkpt><trkpt lat="45.2332244" lon="8.6883263"><ele>107.39999999999999</ele><time>2026-04-25T14:20:56.063Z</time></trkpt><trkpt lat="45.2332281" lon="8.6884677"><ele>107.60000000000001</ele><time>2026-04-25T14:20:58.063Z</time></trkpt><trkpt lat="45.2331679" lon="8.688573"><ele>107.80000000000001</ele><time>2026-04-25T14:21:00.063Z</time></trkpt><trkpt lat="45.2330706" lon="8.6886618"><ele>108.0</ele><time>2026-04-25T14:21:02.063Z</time></trkpt><trkpt lat="45.2329699" lon="8.6887568"><ele>108.0</ele><time>2026-04-25T14:21:04.063Z</time></trkpt><trkpt lat="45.2328887" lon="8.6887998"><ele>108.0</ele><time>2026-04-25T14:21:06.062Z</time></trkpt><trkpt lat="45.2328214" lon="8.688729"><ele>108.0</ele><time>2026-04-25T14:21:08.062Z</time></trkpt><trkpt lat="45.232768" lon="8.6885906"><ele>108.0</ele><time>2026-04-25T14:21:10.062Z</time></trkpt><trkpt lat="45.2327385" lon="8.6885048"><ele>108.0</ele><time>2026-04-25T14:21:11.063Z</time></trkpt><trkpt lat="45.2327103" lon="8.6884133"><ele>108.0</ele><time>2026-04-25T14:21:12.063Z</time></trkpt><trkpt lat="45.2326711" lon="8.6883113"><ele>107.83333333333333</ele><time>2026-04-25T14:21:13.062Z</time></trkpt><trkpt lat="45.2326308" lon="8.6882068"><ele>107.66666666666666</ele><time>2026-04-25T14:21:14.062Z</time></trkpt><trkpt lat="45.2325878" lon="8.6880972"><ele>107.5</ele><time>2026-04-25T14:21:15.063Z</time></trkpt><trkpt lat="45.2325448" lon="8.6879747"><ele>107.33333333333333</ele><time>2026-04-25T14:21:16.062Z</time></trkpt><trkpt lat="45.2325003" lon="8.6878562"><ele>107.16666666666666</ele><time>2026-04-25T14:21:17.063Z</time></trkpt><trkpt lat="45.2324593" lon="8.6877519"><ele>107.0</ele><time>2026-04-25T14:21:18.063Z</time></trkpt><trkpt lat="45.2324086" lon="8.6876436"><ele>106.83333333333333</ele><time>2026-04-25T14:21:19.063Z</time></trkpt><trkpt lat="45.232365" lon="8.6875352"><ele>106.66666666666666</ele><time>2026-04-25T14:21:20.062Z</time></trkpt><trkpt lat="45.2323209" lon="8.6874357"><ele>106.5</ele><time>2026-04-25T14:21:21.063Z</time></trkpt><trkpt lat="45.2322795" lon="8.6873362"><ele>106.33333333333334</ele><time>2026-04-25T14:21:22.063Z</time></trkpt><trkpt lat="45.2322435" lon="8.6872548"><ele>106.16666666666667</ele><time>2026-04-25T14:21:23.062Z</time></trkpt><trkpt lat="45.2322056" lon="8.6871693"><ele>106.0</ele><time>2026-04-25T14:21:24.062Z</time></trkpt><trkpt lat="45.2321655" lon="8.6870816"><ele>106.00000000000001</ele><time>2026-04-25T14:21:25.063Z</time></trkpt><trkpt lat="45.2321111" lon="8.6869996"><ele>106.0</ele><time>2026-04-25T14:21:26.062Z</time></trkpt><trkpt lat="45.2320648" lon="8.686933"><ele>106.0</ele><time>2026-04-25T14:21:27.061Z</time></trkpt><trkpt lat="45.2320192" lon="8.6868429"><ele>106.0</ele><time>2026-04-25T14:21:28.063Z</time></trkpt><trkpt lat="45.2318915" lon="8.6867659"><ele>106.00000000000001</ele><time>2026-04-25T14:21:30.063Z</time></trkpt><trkpt lat="45.2318181" lon="8.6867219"><ele>106.0</ele><time>2026-04-25T14:21:31.063Z</time></trkpt><trkpt lat="45.2317455" lon="8.6866465"><ele>106.0</ele><time>2026-04-25T14:21:32.061Z</time></trkpt><trkpt lat="45.2316609" lon="8.6865828"><ele>106.0</ele><time>2026-04-25T14:21:33.062Z</time></trkpt><trkpt lat="45.2315725" lon="8.6865317"><ele>106.0</ele><time>2026-04-25T14:21:34.063Z</time></trkpt><trkpt lat="45.231506" lon="8.6864697"><ele>106.0</ele><time>2026-04-25T14:21:35.062Z</time></trkpt><trkpt lat="45.2314235" lon="8.6863948"><ele>106.0</ele><time>2026-04-25T14:21:36.062Z</time></trkpt><trkpt lat="45.2313541" lon="8.6863282"><ele>105.8</ele><time>2026-04-25T14:21:37.061Z</time></trkpt><trkpt lat="45.2312914" lon="8.6862355"><ele>105.6</ele><time>2026-04-25T14:21:40.062Z</time></trkpt><trkpt lat="45.231342" lon="8.686155"><ele>105.4</ele><time>2026-04-25T14:21:43.062Z</time></trkpt><trkpt lat="45.2314094" lon="8.6861006"><ele>105.2</ele><time>2026-04-25T14:21:45.063Z</time></trkpt><trkpt lat="45.2315116" lon="8.6860437"><ele>105.0</ele><time>2026-04-25T14:21:47.06Z</time></trkpt><trkpt lat="45.2316201" lon="8.6859893"><ele>105.0</ele><time>2026-04-25T14:21:49.063Z</time></trkpt><trkpt lat="45.231738" lon="8.685922"><ele>105.0</ele><time>2026-04-25T14:21:51.062Z</time></trkpt><trkpt lat="45.231846" lon="8.6858649"><ele>105.0</ele><time>2026-04-25T14:21:53.061Z</time></trkpt><trkpt lat="45.2319363" lon="8.6858117"><ele>105.0</ele><time>2026-04-25T14:21:55.062Z</time></trkpt><trkpt lat="45.2319786" lon="8.6857119"><ele>105.0</ele><time>2026-04-25T14:22:04.063Z</time></trkpt><trkpt lat="45.231927" lon="8.685583"><ele>105.0</ele><time>2026-04-25T14:22:06.062Z</time></trkpt><trkpt lat="45.2318803" lon="8.6855005"><ele>105.0</ele><time>2026-04-25T14:22:07.061Z</time></trkpt><trkpt lat="45.2318228" lon="8.685386"><ele>105.0</ele><time>2026-04-25T14:22:08.063Z</time></trkpt><trkpt lat="45.2317594" lon="8.6852561"><ele>105.0</ele><time>2026-04-25T14:22:09.063Z</time></trkpt><trkpt lat="45.231697" lon="8.6851122"><ele>105.0</ele><time>2026-04-25T14:22:10.062Z</time></trkpt><trkpt lat="45.2316182" lon="8.6849668"><ele>105.0</ele><time>2026-04-25T14:22:11.063Z</time></trkpt><trkpt lat="45.2315383" lon="8.6848089"><ele>105.0</ele><time>2026-04-25T14:22:12.062Z</time></trkpt><trkpt lat="45.2314508" lon="8.6846328"><ele>105.0</ele><time>2026-04-25T14:22:13.062Z</time></trkpt><trkpt lat="45.2313666" lon="8.6844549"><ele>105.0</ele><time>2026-04-25T14:22:14.061Z</time></trkpt><trkpt lat="45.2312746" lon="8.6842609"><ele>104.33333333333334</ele><time>2026-04-25T14:22:15.062Z</time></trkpt><trkpt lat="45.2311823" lon="8.6840676"><ele>103.66666666666667</ele><time>2026-04-25T14:22:16.062Z</time></trkpt><trkpt lat="45.2310851" lon="8.6838698"><ele>103.0</ele><time>2026-04-25T14:22:17.062Z</time></trkpt><trkpt lat="45.2309907" lon="8.6836712"><ele>103.66666666666667</ele><time>2026-04-25T14:22:18.062Z</time></trkpt><trkpt lat="45.230898" lon="8.6834712"><ele>104.33333333333334</ele><time>2026-04-25T14:22:19.062Z</time></trkpt><trkpt lat="45.2308016" lon="8.6832689"><ele>105.0</ele><time>2026-04-25T14:22:20.062Z</time></trkpt><trkpt lat="45.2307064" lon="8.6830624"><ele>104.66666666666666</ele><time>2026-04-25T14:22:21.063Z</time></trkpt><trkpt lat="45.2306076" lon="8.6828572"><ele>104.33333333333333</ele><time>2026-04-25T14:22:22.062Z</time></trkpt><trkpt lat="45.2305107" lon="8.6826582"><ele>104.0</ele><time>2026-04-25T14:22:23.063Z</time></trkpt><trkpt lat="45.2304156" lon="8.6824607"><ele>104.0</ele><time>2026-04-25T14:22:24.06Z</time></trkpt><trkpt lat="45.2303187" lon="8.6822584"><ele>104.0</ele><time>2026-04-25T14:22:25.061Z</time></trkpt><trkpt lat="45.230216" lon="8.6820607"><ele>104.0</ele><time>2026-04-25T14:22:26.062Z</time></trkpt><trkpt lat="45.2301107" lon="8.6818565"><ele>103.66666666666666</ele><time>2026-04-25T14:22:27.062Z</time></trkpt><trkpt lat="45.2300103" lon="8.6816522"><ele>103.33333333333334</ele><time>2026-04-25T14:22:28.06Z</time></trkpt><trkpt lat="45.2298968" lon="8.6814485"><ele>103.0</ele><time>2026-04-25T14:22:29.063Z</time></trkpt><trkpt lat="45.2297932" lon="8.6812423"><ele>103.66666666666667</ele><time>2026-04-25T14:22:30.062Z</time></trkpt><trkpt lat="45.2296822" lon="8.681055"><ele>104.33333333333334</ele><time>2026-04-25T14:22:31.061Z</time></trkpt><trkpt lat="45.2295662" lon="8.6808778"><ele>105.0</ele><time>2026-04-25T14:22:32.062Z</time></trkpt><trkpt lat="45.2294419" lon="8.6807108"><ele>105.0</ele><time>2026-04-25T14:22:33.062Z</time></trkpt><trkpt lat="45.2293066" lon="8.6805632"><ele>105.0</ele><time>2026-04-25T14:22:34.062Z</time></trkpt><trkpt lat="45.2291637" lon="8.6804178"><ele>105.0</ele><time>2026-04-25T14:22:35.061Z</time></trkpt><trkpt lat="45.2290223" lon="8.6802719"><ele>105.0</ele><time>2026-04-25T14:22:36.062Z</time></trkpt><trkpt lat="45.2288814" lon="8.6801226"><ele>105.0</ele><time>2026-04-25T14:22:37.061Z</time></trkpt><trkpt lat="45.2287364" lon="8.6799745"><ele>105.0</ele><time>2026-04-25T14:22:38.062Z</time></trkpt><trkpt lat="45.2285953" lon="8.6798198"><ele>105.0</ele><time>2026-04-25T14:22:39.062Z</time></trkpt><trkpt lat="45.2284549" lon="8.6796674"><ele>105.0</ele><time>2026-04-25T14:22:40.061Z</time></trkpt><trkpt lat="45.2283158" lon="8.6795278"><ele>105.0</ele><time>2026-04-25T14:22:41.061Z</time></trkpt><trkpt lat="45.2281751" lon="8.6793828"><ele>105.0</ele><time>2026-04-25T14:22:42.062Z</time></trkpt><trkpt lat="45.2280334" lon="8.6792381"><ele>105.0</ele><time>2026-04-25T14:22:43.062Z</time></trkpt><trkpt lat="45.2278967" lon="8.6790891"><ele>105.0</ele><time>2026-04-25T14:22:44.061Z</time></trkpt><trkpt lat="45.2277636" lon="8.6789466"><ele>105.0</ele><time>2026-04-25T14:22:45.062Z</time></trkpt><trkpt lat="45.2276429" lon="8.6788068"><ele>105.0</ele><time>2026-04-25T14:22:46.062Z</time></trkpt><trkpt lat="45.2275217" lon="8.6786766"><ele>105.0</ele><time>2026-04-25T14:22:47.062Z</time></trkpt><trkpt lat="45.2274043" lon="8.6785522"><ele>105.25</ele><time>2026-04-25T14:22:48.061Z</time></trkpt><trkpt lat="45.227303" lon="8.6784376"><ele>105.5</ele><time>2026-04-25T14:22:49.062Z</time></trkpt><trkpt lat="45.2272122" lon="8.678334"><ele>105.75</ele><time>2026-04-25T14:22:50.062Z</time></trkpt><trkpt lat="45.2271225" lon="8.6782377"><ele>106.0</ele><time>2026-04-25T14:22:51.061Z</time></trkpt><trkpt lat="45.2270375" lon="8.678138"><ele>106.0</ele><time>2026-04-25T14:22:52.062Z</time></trkpt><trkpt lat="45.2269556" lon="8.6780438"><ele>106.0</ele><time>2026-04-25T14:22:53.062Z</time></trkpt><trkpt lat="45.2268798" lon="8.6779547"><ele>106.0</ele><time>2026-04-25T14:22:54.062Z</time></trkpt><trkpt lat="45.226812" lon="8.6778779"><ele>106.0</ele><time>2026-04-25T14:22:55.062Z</time></trkpt><trkpt lat="45.2267455" lon="8.6778141"><ele>106.0</ele><time>2026-04-25T14:22:56.063Z</time></trkpt><trkpt lat="45.226665" lon="8.677716"><ele>106.00000000000001</ele><time>2026-04-25T14:22:58.062Z</time></trkpt><trkpt lat="45.2266072" lon="8.6776425"><ele>106.0</ele><time>2026-04-25T14:23:00.061Z</time></trkpt><trkpt lat="45.2265539" lon="8.6775627"><ele>106.0</ele><time>2026-04-25T14:23:02.062Z</time></trkpt><trkpt lat="45.226518" lon="8.6774544"><ele>106.0</ele><time>2026-04-25T14:23:04.061Z</time></trkpt><trkpt lat="45.2264838" lon="8.6773282"><ele>106.00000000000001</ele><time>2026-04-25T14:23:06.062Z</time></trkpt><trkpt lat="45.2264138" lon="8.6772127"><ele>106.0</ele><time>2026-04-25T14:23:08.062Z</time></trkpt><trkpt lat="45.2263129" lon="8.6771737"><ele>106.00000000000001</ele><time>2026-04-25T14:23:10.062Z</time></trkpt><trkpt lat="45.22623" lon="8.6772915"><ele>106.0</ele><time>2026-04-25T14:23:12.062Z</time></trkpt><trkpt lat="45.2262493" lon="8.6774437"><ele>106.0</ele><time>2026-04-25T14:23:14.061Z</time></trkpt><trkpt lat="45.2263099" lon="8.677493"><ele>106.0</ele><time>2026-04-25T14:23:15.062Z</time></trkpt><trkpt lat="45.2263768" lon="8.6775246"><ele>106.00000000000001</ele><time>2026-04-25T14:23:16.062Z</time></trkpt><trkpt lat="45.2264544" lon="8.6775595"><ele>106.0</ele><time>2026-04-25T14:23:17.062Z</time></trkpt><trkpt lat="45.2265301" lon="8.6776011"><ele>106.0</ele><time>2026-04-25T14:23:18.062Z</time></trkpt><trkpt lat="45.2266067" lon="8.6776692"><ele>106.0</ele><time>2026-04-25T14:23:19.061Z</time></trkpt><trkpt lat="45.2266737" lon="8.6777511"><ele>106.0</ele><time>2026-04-25T14:23:20.061Z</time></trkpt><trkpt lat="45.2267457" lon="8.6778376"><ele>106.0</ele><time>2026-04-25T14:23:21.062Z</time></trkpt><trkpt lat="45.2268203" lon="8.6779389"><ele>106.0</ele><time>2026-04-25T14:23:22.062Z</time></trkpt><trkpt lat="45.2268947" lon="8.6780306"><ele>106.00000000000001</ele><time>2026-04-25T14:23:23.062Z</time></trkpt><trkpt lat="45.2269662" lon="8.6781119"><ele>106.0</ele><time>2026-04-25T14:23:24.062Z</time></trkpt><trkpt lat="45.2270223" lon="8.6781923"><ele>106.0</ele><time>2026-04-25T14:23:25.061Z</time></trkpt><trkpt lat="45.2270976" lon="8.6782807"><ele>106.0</ele><time>2026-04-25T14:23:27.062Z</time></trkpt><trkpt lat="45.2271423" lon="8.6783455"><ele>106.00000000000001</ele><time>2026-04-25T14:23:29.061Z</time></trkpt><trkpt lat="45.2272292" lon="8.6783599"><ele>106.0</ele><time>2026-04-25T14:23:32.061Z</time></trkpt><trkpt lat="45.2273123" lon="8.6783049"><ele>106.00000000000001</ele><time>2026-04-25T14:23:34.061Z</time></trkpt><trkpt lat="45.227425" lon="8.6782488"><ele>106.0</ele><time>2026-04-25T14:23:36.061Z</time></trkpt><trkpt lat="45.2274878" lon="8.6782291"><ele>106.0</ele><time>2026-04-25T14:23:37.061Z</time></trkpt><trkpt lat="45.227556" lon="8.6782076"><ele>106.0</ele><time>2026-04-25T14:23:38.062Z</time></trkpt><trkpt lat="45.2276259" lon="8.6781917"><ele>106.00000000000001</ele><time>2026-04-25T14:23:39.06Z</time></trkpt><trkpt lat="45.2276977" lon="8.6781692"><ele>106.0</ele><time>2026-04-25T14:23:40.061Z</time></trkpt><trkpt lat="45.2277755" lon="8.6781457"><ele>106.00000000000001</ele><time>2026-04-25T14:23:41.062Z</time></trkpt><trkpt lat="45.2278479" lon="8.6781304"><ele>106.0</ele><time>2026-04-25T14:23:42.061Z</time></trkpt><trkpt lat="45.22793" lon="8.6781095"><ele>106.0</ele><time>2026-04-25T14:23:43.061Z</time></trkpt><trkpt lat="45.2280163" lon="8.6780984"><ele>106.0</ele><time>2026-04-25T14:23:44.059Z</time></trkpt><trkpt lat="45.228099" lon="8.6780797"><ele>106.00000000000001</ele><time>2026-04-25T14:23:45.062Z</time></trkpt><trkpt lat="45.2281882" lon="8.6780586"><ele>106.0</ele><time>2026-04-25T14:23:46.06Z</time></trkpt><trkpt lat="45.2282793" lon="8.6780343"><ele>106.0</ele><time>2026-04-25T14:23:47.061Z</time></trkpt><trkpt lat="45.2283722" lon="8.6780191"><ele>106.0</ele><time>2026-04-25T14:23:48.06Z</time></trkpt><trkpt lat="45.2284686" lon="8.6780047"><ele>106.0</ele><time>2026-04-25T14:23:49.061Z</time></trkpt><trkpt lat="45.2285593" lon="8.6779861"><ele>106.0</ele><time>2026-04-25T14:23:50.062Z</time></trkpt><trkpt lat="45.2286557" lon="8.6779682"><ele>106.0</ele><time>2026-04-25T14:23:51.062Z</time></trkpt><trkpt lat="45.2287514" lon="8.6779446"><ele>106.0</ele><time>2026-04-25T14:23:52.062Z</time></trkpt><trkpt lat="45.2288455" lon="8.6779179"><ele>106.0</ele><time>2026-04-25T14:23:53.062Z</time></trkpt><trkpt lat="45.2289401" lon="8.6779047"><ele>106.0</ele><time>2026-04-25T14:23:54.061Z</time></trkpt><trkpt lat="45.2290318" lon="8.6778877"><ele>106.0</ele><time>2026-04-25T14:23:55.062Z</time></trkpt><trkpt lat="45.2291298" lon="8.6778728"><ele>106.0</ele><time>2026-04-25T14:23:56.061Z</time></trkpt><trkpt lat="45.2292195" lon="8.6778593"><ele>106.16666666666667</ele><time>2026-04-25T14:23:57.06Z</time></trkpt><trkpt lat="45.2293084" lon="8.6778464"><ele>106.33333333333334</ele><time>2026-04-25T14:23:58.062Z</time></trkpt><trkpt lat="45.2293969" lon="8.6778329"><ele>106.5</ele><time>2026-04-25T14:23:59.06Z</time></trkpt><trkpt lat="45.2294823" lon="8.677832"><ele>106.66666666666666</ele><time>2026-04-25T14:24:00.061Z</time></trkpt><trkpt lat="45.2295701" lon="8.677818"><ele>106.83333333333333</ele><time>2026-04-25T14:24:01.062Z</time></trkpt><trkpt lat="45.2296553" lon="8.6778028"><ele>107.0</ele><time>2026-04-25T14:24:02.061Z</time></trkpt><trkpt lat="45.2297449" lon="8.6777876"><ele>107.19999999999999</ele><time>2026-04-25T14:24:03.062Z</time></trkpt><trkpt lat="45.229818" lon="8.6777769"><ele>107.39999999999999</ele><time>2026-04-25T14:24:04.062Z</time></trkpt><trkpt lat="45.2298902" lon="8.6777749"><ele>107.60000000000001</ele><time>2026-04-25T14:24:05.061Z</time></trkpt><trkpt lat="45.229995" lon="8.6777676"><ele>107.80000000000001</ele><time>2026-04-25T14:24:07.062Z</time></trkpt><trkpt lat="45.2300893" lon="8.6777546"><ele>108.0</ele><time>2026-04-25T14:24:09.062Z</time></trkpt><trkpt lat="45.2301983" lon="8.6777161"><ele>108.0</ele><time>2026-04-25T14:24:11.061Z</time></trkpt><trkpt lat="45.230267" lon="8.6776989"><ele>108.0</ele><time>2026-04-25T14:24:12.062Z</time></trkpt><trkpt lat="45.230347" lon="8.6776838"><ele>108.0</ele><time>2026-04-25T14:24:13.061Z</time></trkpt><trkpt lat="45.2304335" lon="8.6776677"><ele>108.0</ele><time>2026-04-25T14:24:14.061Z</time></trkpt><trkpt lat="45.2305259" lon="8.6776496"><ele>108.0</ele><time>2026-04-25T14:24:15.061Z</time></trkpt><trkpt lat="45.2306229" lon="8.6776352"><ele>108.0</ele><time>2026-04-25T14:24:16.062Z</time></trkpt><trkpt lat="45.2307139" lon="8.677617"><ele>107.60000000000001</ele><time>2026-04-25T14:24:17.062Z</time></trkpt><trkpt lat="45.2308124" lon="8.6775945"><ele>107.20000000000002</ele><time>2026-04-25T14:24:18.062Z</time></trkpt><trkpt lat="45.2309195" lon="8.6775699"><ele>106.8</ele><time>2026-04-25T14:24:19.061Z</time></trkpt><trkpt lat="45.2310248" lon="8.6775453"><ele>106.4</ele><time>2026-04-25T14:24:20.062Z</time></trkpt><trkpt lat="45.231136" lon="8.6775231"><ele>106.0</ele><time>2026-04-25T14:24:21.062Z</time></trkpt><trkpt lat="45.2312524" lon="8.6775002"><ele>106.0</ele><time>2026-04-25T14:24:22.062Z</time></trkpt><trkpt lat="45.2313664" lon="8.6774756"><ele>106.0</ele><time>2026-04-25T14:24:23.061Z</time></trkpt><trkpt lat="45.2314844" lon="8.6774584"><ele>106.0</ele><time>2026-04-25T14:24:24.062Z</time></trkpt><trkpt lat="45.2316001" lon="8.6774353"><ele>106.0</ele><time>2026-04-25T14:24:25.061Z</time></trkpt><trkpt lat="45.2317095" lon="8.6774114"><ele>106.19999999999999</ele><time>2026-04-25T14:24:26.062Z</time></trkpt><trkpt lat="45.231822" lon="8.6773839"><ele>106.39999999999999</ele><time>2026-04-25T14:24:27.06Z</time></trkpt><trkpt lat="45.2319291" lon="8.6773639"><ele>106.6</ele><time>2026-04-25T14:24:28.06Z</time></trkpt><trkpt lat="45.232037" lon="8.6773394"><ele>106.8</ele><time>2026-04-25T14:24:29.061Z</time></trkpt><trkpt lat="45.232149" lon="8.6773132"><ele>107.0</ele><time>2026-04-25T14:24:30.062Z</time></trkpt><trkpt lat="45.2322469" lon="8.6772914"><ele>106.6</ele><time>2026-04-25T14:24:31.061Z</time></trkpt><trkpt lat="45.2323421" lon="8.6772705"><ele>106.19999999999999</ele><time>2026-04-25T14:24:32.06Z</time></trkpt><trkpt lat="45.2324369" lon="8.6772518"><ele>105.8</ele><time>2026-04-25T14:24:33.06Z</time></trkpt><trkpt lat="45.2325293" lon="8.6772408"><ele>105.4</ele><time>2026-04-25T14:24:34.061Z</time></trkpt><trkpt lat="45.2326201" lon="8.67722"><ele>105.0</ele><time>2026-04-25T14:24:35.061Z</time></trkpt><trkpt lat="45.2327015" lon="8.6772116"><ele>105.0</ele><time>2026-04-25T14:24:36.061Z</time></trkpt><trkpt lat="45.2327744" lon="8.6772001"><ele>105.0</ele><time>2026-04-25T14:24:37.062Z</time></trkpt><trkpt lat="45.2328449" lon="8.677185"><ele>105.0</ele><time>2026-04-25T14:24:38.061Z</time></trkpt><trkpt lat="45.2329133" lon="8.6771549"><ele>105.0</ele><time>2026-04-25T14:24:39.062Z</time></trkpt><trkpt lat="45.2329833" lon="8.6771152"><ele>105.0</ele><time>2026-04-25T14:24:40.062Z</time></trkpt><trkpt lat="45.2330496" lon="8.67706"><ele>105.0</ele><time>2026-04-25T14:24:41.06Z</time></trkpt><trkpt lat="45.2331229" lon="8.6769902"><ele>104.85714285714286</ele><time>2026-04-25T14:24:42.062Z</time></trkpt><trkpt lat="45.2331887" lon="8.6769151"><ele>104.71428571428572</ele><time>2026-04-25T14:24:43.061Z</time></trkpt><trkpt lat="45.2332503" lon="8.6768472"><ele>104.57142857142857</ele><time>2026-04-25T14:24:44.061Z</time></trkpt><trkpt lat="45.2333032" lon="8.6767662"><ele>104.42857142857143</ele><time>2026-04-25T14:24:45.062Z</time></trkpt><trkpt lat="45.2333376" lon="8.6766776"><ele>104.28571428571429</ele><time>2026-04-25T14:24:46.062Z</time></trkpt><trkpt lat="45.2333729" lon="8.6765979"><ele>104.14285714285714</ele><time>2026-04-25T14:24:47.06Z</time></trkpt><trkpt lat="45.233402" lon="8.67651"><ele>104.0</ele><time>2026-04-25T14:24:48.06Z</time></trkpt><trkpt lat="45.2334276" lon="8.6764283"><ele>103.99999999999999</ele><time>2026-04-25T14:24:49.061Z</time></trkpt><trkpt lat="45.2334603" lon="8.6763475"><ele>104.0</ele><time>2026-04-25T14:24:50.06Z</time></trkpt><trkpt lat="45.2334915" lon="8.6762524"><ele>104.0</ele><time>2026-04-25T14:24:51.061Z</time></trkpt><trkpt lat="45.233526" lon="8.6761563"><ele>104.0</ele><time>2026-04-25T14:24:52.062Z</time></trkpt><trkpt lat="45.2335642" lon="8.6760596"><ele>103.99999999999999</ele><time>2026-04-25T14:24:53.061Z</time></trkpt><trkpt lat="45.2336029" lon="8.6759628"><ele>104.0</ele><time>2026-04-25T14:24:54.062Z</time></trkpt><trkpt lat="45.2336403" lon="8.6758627"><ele>104.2</ele><time>2026-04-25T14:24:55.062Z</time></trkpt><trkpt lat="45.233673" lon="8.6757596"><ele>104.4</ele><time>2026-04-25T14:24:56.061Z</time></trkpt><trkpt lat="45.2337078" lon="8.6756561"><ele>104.6</ele><time>2026-04-25T14:24:57.062Z</time></trkpt><trkpt lat="45.233738" lon="8.6755637"><ele>104.8</ele><time>2026-04-25T14:24:58.061Z</time></trkpt><trkpt lat="45.2337821" lon="8.6754076"><ele>105.0</ele><time>2026-04-25T14:25:00.062Z</time></trkpt><trkpt lat="45.2338042" lon="8.6752597"><ele>105.5</ele><time>2026-04-25T14:25:02.061Z</time></trkpt><trkpt lat="45.2338043" lon="8.6751096"><ele>106.0</ele><time>2026-04-25T14:25:04.061Z</time></trkpt><trkpt lat="45.233802" lon="8.6749436"><ele>106.5</ele><time>2026-04-25T14:25:06.062Z</time></trkpt><trkpt lat="45.2338007" lon="8.6747839"><ele>107.0</ele><time>2026-04-25T14:25:08.06Z</time></trkpt><trkpt lat="45.2338051" lon="8.6746189"><ele>107.0</ele><time>2026-04-25T14:25:10.06Z</time></trkpt><trkpt lat="45.233827" lon="8.6744447"><ele>106.99999999999999</ele><time>2026-04-25T14:25:12.061Z</time></trkpt><trkpt lat="45.2338612" lon="8.6742721"><ele>106.99999999999999</ele><time>2026-04-25T14:25:14.06Z</time></trkpt><trkpt lat="45.2338895" lon="8.6741861"><ele>107.0</ele><time>2026-04-25T14:25:15.061Z</time></trkpt><trkpt lat="45.2339351" lon="8.6741065"><ele>107.0</ele><time>2026-04-25T14:25:16.06Z</time></trkpt><trkpt lat="45.2339809" lon="8.6740331"><ele>106.66666666666666</ele><time>2026-04-25T14:25:17.061Z</time></trkpt><trkpt lat="45.2340358" lon="8.6739643"><ele>106.33333333333333</ele><time>2026-04-25T14:25:18.061Z</time></trkpt><trkpt lat="45.2341007" lon="8.6738935"><ele>106.0</ele><time>2026-04-25T14:25:19.061Z</time></trkpt><trkpt lat="45.2341627" lon="8.6738263"><ele>105.66666666666666</ele><time>2026-04-25T14:25:20.059Z</time></trkpt><trkpt lat="45.2342261" lon="8.6737711"><ele>105.33333333333333</ele><time>2026-04-25T14:25:21.061Z</time></trkpt><trkpt lat="45.234294" lon="8.6737081"><ele>105.0</ele><time>2026-04-25T14:25:22.061Z</time></trkpt><trkpt lat="45.2343599" lon="8.6736392"><ele>105.33333333333333</ele><time>2026-04-25T14:25:23.06Z</time></trkpt><trkpt lat="45.2344177" lon="8.6735728"><ele>105.66666666666666</ele><time>2026-04-25T14:25:24.06Z</time></trkpt><trkpt lat="45.2344781" lon="8.6735007"><ele>106.0</ele><time>2026-04-25T14:25:25.062Z</time></trkpt><trkpt lat="45.2345419" lon="8.6734333"><ele>106.33333333333333</ele><time>2026-04-25T14:25:26.061Z</time></trkpt><trkpt lat="45.2346103" lon="8.6733656"><ele>106.66666666666666</ele><time>2026-04-25T14:25:27.061Z</time></trkpt><trkpt lat="45.2346721" lon="8.6733076"><ele>107.0</ele><time>2026-04-25T14:25:28.062Z</time></trkpt><trkpt lat="45.2347418" lon="8.6732408"><ele>106.66666666666666</ele><time>2026-04-25T14:25:29.06Z</time></trkpt><trkpt lat="45.2348066" lon="8.6731751"><ele>106.33333333333333</ele><time>2026-04-25T14:25:30.06Z</time></trkpt><trkpt lat="45.2348737" lon="8.6731144"><ele>106.0</ele><time>2026-04-25T14:25:31.061Z</time></trkpt><trkpt lat="45.2349392" lon="8.6730522"><ele>105.66666666666666</ele><time>2026-04-25T14:25:32.061Z</time></trkpt><trkpt lat="45.2350102" lon="8.6729877"><ele>105.33333333333333</ele><time>2026-04-25T14:25:33.061Z</time></trkpt><trkpt lat="45.2350795" lon="8.6729218"><ele>105.0</ele><time>2026-04-25T14:25:34.061Z</time></trkpt><trkpt lat="45.2351466" lon="8.6728547"><ele>105.0</ele><time>2026-04-25T14:25:35.06Z</time></trkpt><trkpt lat="45.2352143" lon="8.6727838"><ele>105.0</ele><time>2026-04-25T14:25:36.062Z</time></trkpt><trkpt lat="45.2352756" lon="8.6727118"><ele>105.0</ele><time>2026-04-25T14:25:37.061Z</time></trkpt><trkpt lat="45.2353401" lon="8.6726362"><ele>105.0</ele><time>2026-04-25T14:25:38.061Z</time></trkpt><trkpt lat="45.2353911" lon="8.6725657"><ele>105.0</ele><time>2026-04-25T14:25:39.061Z</time></trkpt><trkpt lat="45.2354517" lon="8.6724893"><ele>105.0</ele><time>2026-04-25T14:25:40.062Z</time></trkpt><trkpt lat="45.2355116" lon="8.6723951"><ele>105.16666666666667</ele><time>2026-04-25T14:25:41.061Z</time></trkpt><trkpt lat="45.2355737" lon="8.672307"><ele>105.33333333333334</ele><time>2026-04-25T14:25:42.061Z</time></trkpt><trkpt lat="45.2356362" lon="8.6722215"><ele>105.5</ele><time>2026-04-25T14:25:43.06Z</time></trkpt><trkpt lat="45.2356954" lon="8.6721307"><ele>105.66666666666667</ele><time>2026-04-25T14:25:44.061Z</time></trkpt><trkpt lat="45.2357538" lon="8.6720415"><ele>105.83333333333334</ele><time>2026-04-25T14:25:45.061Z</time></trkpt><trkpt lat="45.2358227" lon="8.6719525"><ele>106.0</ele><time>2026-04-25T14:25:46.06Z</time></trkpt><trkpt lat="45.2358847" lon="8.6718657"><ele>106.16666666666667</ele><time>2026-04-25T14:25:47.061Z</time></trkpt><trkpt lat="45.2359362" lon="8.6717915"><ele>106.33333333333334</ele><time>2026-04-25T14:25:48.061Z</time></trkpt><trkpt lat="45.2359777" lon="8.671712"><ele>106.5</ele><time>2026-04-25T14:25:49.061Z</time></trkpt><trkpt lat="45.2360207" lon="8.6716198"><ele>106.66666666666666</ele><time>2026-04-25T14:25:50.061Z</time></trkpt><trkpt lat="45.2360749" lon="8.6715211"><ele>106.83333333333333</ele><time>2026-04-25T14:25:51.06Z</time></trkpt><trkpt lat="45.236118" lon="8.6714269"><ele>107.0</ele><time>2026-04-25T14:25:52.06Z</time></trkpt><trkpt lat="45.2361588" lon="8.6713297"><ele>106.99999999999999</ele><time>2026-04-25T14:25:53.061Z</time></trkpt><trkpt lat="45.2362012" lon="8.6712327"><ele>107.0</ele><time>2026-04-25T14:25:54.061Z</time></trkpt><trkpt lat="45.2362476" lon="8.6711376"><ele>107.0</ele><time>2026-04-25T14:25:55.06Z</time></trkpt><trkpt lat="45.2362901" lon="8.6710438"><ele>107.0</ele><time>2026-04-25T14:25:56.061Z</time></trkpt><trkpt lat="45.236335" lon="8.6709475"><ele>106.99999999999999</ele><time>2026-04-25T14:25:57.061Z</time></trkpt><trkpt lat="45.2363761" lon="8.670856"><ele>107.0</ele><time>2026-04-25T14:25:58.06Z</time></trkpt><trkpt lat="45.2364197" lon="8.6707552"><ele>106.99999999999999</ele><time>2026-04-25T14:25:59.059Z</time></trkpt><trkpt lat="45.2364611" lon="8.670655"><ele>107.0</ele><time>2026-04-25T14:26:00.06Z</time></trkpt><trkpt lat="45.2365061" lon="8.6705538"><ele>107.0</ele><time>2026-04-25T14:26:01.061Z</time></trkpt><trkpt lat="45.236549" lon="8.670451"><ele>107.0</ele><time>2026-04-25T14:26:02.061Z</time></trkpt><trkpt lat="45.2365999" lon="8.6703487"><ele>106.99999999999999</ele><time>2026-04-25T14:26:03.059Z</time></trkpt><trkpt lat="45.236651" lon="8.6702376"><ele>107.0</ele><time>2026-04-25T14:26:04.061Z</time></trkpt><trkpt lat="45.2367007" lon="8.670129"><ele>106.8</ele><time>2026-04-25T14:26:05.061Z</time></trkpt><trkpt lat="45.2367491" lon="8.6700217"><ele>106.6</ele><time>2026-04-25T14:26:06.06Z</time></trkpt><trkpt lat="45.2367941" lon="8.669914"><ele>106.39999999999999</ele><time>2026-04-25T14:26:07.06Z</time></trkpt><trkpt lat="45.2368471" lon="8.6697998"><ele>106.19999999999999</ele><time>2026-04-25T14:26:08.06Z</time></trkpt><trkpt lat="45.236893" lon="8.6696948"><ele>106.0</ele><time>2026-04-25T14:26:09.061Z</time></trkpt><trkpt lat="45.2369436" lon="8.6695797"><ele>106.00000000000001</ele><time>2026-04-25T14:26:10.061Z</time></trkpt><trkpt lat="45.2369936" lon="8.6694723"><ele>106.0</ele><time>2026-04-25T14:26:11.061Z</time></trkpt><trkpt lat="45.2370416" lon="8.669368"><ele>106.0</ele><time>2026-04-25T14:26:12.06Z</time></trkpt><trkpt lat="45.2370868" lon="8.6692726"><ele>106.0</ele><time>2026-04-25T14:26:13.061Z</time></trkpt><trkpt lat="45.2371297" lon="8.6691691"><ele>106.00000000000001</ele><time>2026-04-25T14:26:14.061Z</time></trkpt><trkpt lat="45.2371749" lon="8.6690761"><ele>106.0</ele><time>2026-04-25T14:26:15.06Z</time></trkpt><trkpt lat="45.2372154" lon="8.6689848"><ele>106.0</ele><time>2026-04-25T14:26:16.06Z</time></trkpt><trkpt lat="45.2372556" lon="8.6688986"><ele>106.0</ele><time>2026-04-25T14:26:17.061Z</time></trkpt><trkpt lat="45.2372966" lon="8.6688025"><ele>106.0</ele><time>2026-04-25T14:26:18.061Z</time></trkpt><trkpt lat="45.237337" lon="8.6687146"><ele>106.0</ele><time>2026-04-25T14:26:19.06Z</time></trkpt><trkpt lat="45.2373756" lon="8.6686306"><ele>106.0</ele><time>2026-04-25T14:26:20.06Z</time></trkpt><trkpt lat="45.2374086" lon="8.6685461"><ele>106.0</ele><time>2026-04-25T14:26:21.061Z</time></trkpt><trkpt lat="45.2374446" lon="8.668463"><ele>106.0</ele><time>2026-04-25T14:26:22.058Z</time></trkpt><trkpt lat="45.2375016" lon="8.6683321"><ele>106.16666666666667</ele><time>2026-04-25T14:26:24.059Z</time></trkpt><trkpt lat="45.2375419" lon="8.6682217"><ele>106.33333333333334</ele><time>2026-04-25T14:26:26.061Z</time></trkpt><trkpt lat="45.2375693" lon="8.6681315"><ele>106.5</ele><time>2026-04-25T14:28:19.059Z</time></trkpt><trkpt lat="45.2375736" lon="8.6680251"><ele>106.66666666666666</ele><time>2026-04-25T14:28:23.06Z</time></trkpt><trkpt lat="45.2375202" lon="8.6679665"><ele>106.83333333333333</ele><time>2026-04-25T14:28:25.06Z</time></trkpt><trkpt lat="45.2374152" lon="8.6678817"><ele>107.0</ele><time>2026-04-25T14:28:27.06Z</time></trkpt><trkpt lat="45.2373418" lon="8.6678273"><ele>107.19999999999999</ele><time>2026-04-25T14:28:28.06Z</time></trkpt><trkpt lat="45.2372632" lon="8.667762"><ele>107.39999999999999</ele><time>2026-04-25T14:28:29.06Z</time></trkpt><trkpt lat="45.2371722" lon="8.6676893"><ele>107.60000000000001</ele><time>2026-04-25T14:28:30.06Z</time></trkpt><trkpt lat="45.2370749" lon="8.667613"><ele>107.80000000000001</ele><time>2026-04-25T14:28:31.059Z</time></trkpt><trkpt lat="45.2369716" lon="8.6675253"><ele>108.0</ele><time>2026-04-25T14:28:32.06Z</time></trkpt><trkpt lat="45.236859" lon="8.6674258"><ele>108.0</ele><time>2026-04-25T14:28:33.06Z</time></trkpt><trkpt lat="45.2367345" lon="8.6673276"><ele>108.0</ele><time>2026-04-25T14:28:34.06Z</time></trkpt><trkpt lat="45.2366033" lon="8.6672257"><ele>108.0</ele><time>2026-04-25T14:28:35.059Z</time></trkpt><trkpt lat="45.23647" lon="8.6671164"><ele>108.0</ele><time>2026-04-25T14:28:36.06Z</time></trkpt><trkpt lat="45.2363369" lon="8.6670074"><ele>108.33333333333334</ele><time>2026-04-25T14:28:37.06Z</time></trkpt><trkpt lat="45.2362053" lon="8.6668977"><ele>108.66666666666667</ele><time>2026-04-25T14:28:38.059Z</time></trkpt><trkpt lat="45.2360772" lon="8.6667878"><ele>109.0</ele><time>2026-04-25T14:28:39.06Z</time></trkpt><trkpt lat="45.2359447" lon="8.666676"><ele>109.0</ele><time>2026-04-25T14:28:40.059Z</time></trkpt><trkpt lat="45.2358134" lon="8.6665645"><ele>109.0</ele><time>2026-04-25T14:28:41.06Z</time></trkpt><trkpt lat="45.235677" lon="8.6664505"><ele>109.0</ele><time>2026-04-25T14:28:42.059Z</time></trkpt><trkpt lat="45.235538" lon="8.6663403"><ele>108.66666666666667</ele><time>2026-04-25T14:28:43.059Z</time></trkpt><trkpt lat="45.235396" lon="8.6662321"><ele>108.33333333333334</ele><time>2026-04-25T14:28:44.06Z</time></trkpt><trkpt lat="45.2352546" lon="8.6661193"><ele>108.0</ele><time>2026-04-25T14:28:45.059Z</time></trkpt><trkpt lat="45.235111" lon="8.6660054"><ele>108.0</ele><time>2026-04-25T14:28:46.06Z</time></trkpt><trkpt lat="45.2349684" lon="8.6658888"><ele>108.0</ele><time>2026-04-25T14:28:47.06Z</time></trkpt><trkpt lat="45.234826" lon="8.6657713"><ele>108.0</ele><time>2026-04-25T14:28:48.06Z</time></trkpt><trkpt lat="45.2346857" lon="8.6656576"><ele>107.66666666666666</ele><time>2026-04-25T14:28:49.059Z</time></trkpt><trkpt lat="45.2345426" lon="8.6655434"><ele>107.33333333333333</ele><time>2026-04-25T14:28:50.059Z</time></trkpt><trkpt lat="45.2343953" lon="8.6654283"><ele>107.0</ele><time>2026-04-25T14:28:51.059Z</time></trkpt><trkpt lat="45.2342534" lon="8.6653082"><ele>107.0</ele><time>2026-04-25T14:28:52.06Z</time></trkpt><trkpt lat="45.2341184" lon="8.6651935"><ele>107.0</ele><time>2026-04-25T14:28:53.059Z</time></trkpt><trkpt lat="45.2339892" lon="8.6650876"><ele>107.0</ele><time>2026-04-25T14:28:54.06Z</time></trkpt><trkpt lat="45.233866" lon="8.6649791"><ele>107.0</ele><time>2026-04-25T14:28:55.059Z</time></trkpt><trkpt lat="45.233749" lon="8.6648801"><ele>107.0</ele><time>2026-04-25T14:28:56.059Z</time></trkpt><trkpt lat="45.2336342" lon="8.6647851"><ele>107.0</ele><time>2026-04-25T14:28:57.059Z</time></trkpt><trkpt lat="45.2335161" lon="8.6646911"><ele>107.0</ele><time>2026-04-25T14:28:58.06Z</time></trkpt><trkpt lat="45.2333975" lon="8.6645945"><ele>107.0</ele><time>2026-04-25T14:28:59.059Z</time></trkpt><trkpt lat="45.23328" lon="8.6644902"><ele>107.0</ele><time>2026-04-25T14:29:00.059Z</time></trkpt><trkpt lat="45.2331601" lon="8.6643772"><ele>107.0</ele><time>2026-04-25T14:29:01.06Z</time></trkpt><trkpt lat="45.2330472" lon="8.66427"><ele>107.0</ele><time>2026-04-25T14:29:02.06Z</time></trkpt><trkpt lat="45.232938" lon="8.664161"><ele>107.0</ele><time>2026-04-25T14:29:03.06Z</time></trkpt><trkpt lat="45.2328318" lon="8.6640513"><ele>107.0</ele><time>2026-04-25T14:29:04.06Z</time></trkpt><trkpt lat="45.2327239" lon="8.66394"><ele>107.0</ele><time>2026-04-25T14:29:05.06Z</time></trkpt><trkpt lat="45.23262" lon="8.6638272"><ele>107.0</ele><time>2026-04-25T14:29:06.06Z</time></trkpt><trkpt lat="45.2325162" lon="8.6637261"><ele>107.0</ele><time>2026-04-25T14:29:07.059Z</time></trkpt><trkpt lat="45.2324299" lon="8.6636324"><ele>106.99999999999999</ele><time>2026-04-25T14:29:08.06Z</time></trkpt><trkpt lat="45.2323571" lon="8.6635571"><ele>106.99999999999999</ele><time>2026-04-25T14:29:09.06Z</time></trkpt><trkpt lat="45.2322998" lon="8.6634846"><ele>107.0</ele><time>2026-04-25T14:29:10.06Z</time></trkpt><trkpt lat="45.232234" lon="8.6633746"><ele>107.0</ele><time>2026-04-25T14:29:12.059Z</time></trkpt><trkpt lat="45.2322566" lon="8.6632729"><ele>107.5</ele><time>2026-04-25T14:29:14.059Z</time></trkpt><trkpt lat="45.2323527" lon="8.6631492"><ele>108.0</ele><time>2026-04-25T14:29:16.06Z</time></trkpt><trkpt lat="45.2324244" lon="8.6630499"><ele>108.5</ele><time>2026-04-25T14:29:17.059Z</time></trkpt><trkpt lat="45.23251" lon="8.6629336"><ele>109.0</ele><time>2026-04-25T14:29:18.059Z</time></trkpt><trkpt lat="45.2325948" lon="8.6628187"><ele>109.25</ele><time>2026-04-25T14:29:19.058Z</time></trkpt><trkpt lat="45.2326896" lon="8.6626883"><ele>109.5</ele><time>2026-04-25T14:29:20.059Z</time></trkpt><trkpt lat="45.2327915" lon="8.6625523"><ele>109.75</ele><time>2026-04-25T14:29:21.059Z</time></trkpt><trkpt lat="45.2328976" lon="8.6624086"><ele>110.0</ele><time>2026-04-25T14:29:22.059Z</time></trkpt><trkpt lat="45.2330084" lon="8.6622495"><ele>110.0</ele><time>2026-04-25T14:29:23.06Z</time></trkpt><trkpt lat="45.2331303" lon="8.6620874"><ele>110.0</ele><time>2026-04-25T14:29:24.06Z</time></trkpt><trkpt lat="45.2332548" lon="8.6619033"><ele>110.0</ele><time>2026-04-25T14:29:25.059Z</time></trkpt><trkpt lat="45.2333859" lon="8.6617154"><ele>110.0</ele><time>2026-04-25T14:29:26.06Z</time></trkpt><trkpt lat="45.2335218" lon="8.6615198"><ele>110.0</ele><time>2026-04-25T14:29:27.06Z</time></trkpt><trkpt lat="45.2336614" lon="8.6613301"><ele>110.0</ele><time>2026-04-25T14:29:28.06Z</time></trkpt><trkpt lat="45.2337989" lon="8.6611352"><ele>109.66666666666666</ele><time>2026-04-25T14:29:29.06Z</time></trkpt><trkpt lat="45.233941" lon="8.6609393"><ele>109.33333333333334</ele><time>2026-04-25T14:29:30.06Z</time></trkpt><trkpt lat="45.2340937" lon="8.6607339"><ele>109.0</ele><time>2026-04-25T14:29:31.059Z</time></trkpt><trkpt lat="45.2342411" lon="8.6605267"><ele>109.0</ele><time>2026-04-25T14:29:32.059Z</time></trkpt><trkpt lat="45.2343925" lon="8.6603137"><ele>109.0</ele><time>2026-04-25T14:29:33.058Z</time></trkpt><trkpt lat="45.2345441" lon="8.6601197"><ele>109.0</ele><time>2026-04-25T14:29:34.06Z</time></trkpt><trkpt lat="45.2346968" lon="8.6599169"><ele>109.0</ele><time>2026-04-25T14:29:35.059Z</time></trkpt><trkpt lat="45.2348482" lon="8.6597129"><ele>109.0</ele><time>2026-04-25T14:29:36.059Z</time></trkpt><trkpt lat="45.2349949" lon="8.6595068"><ele>109.0</ele><time>2026-04-25T14:29:37.059Z</time></trkpt><trkpt lat="45.2351321" lon="8.6593089"><ele>109.0</ele><time>2026-04-25T14:29:38.059Z</time></trkpt><trkpt lat="45.2352731" lon="8.6591067"><ele>109.0</ele><time>2026-04-25T14:29:39.058Z</time></trkpt><trkpt lat="45.2354092" lon="8.6589113"><ele>109.0</ele><time>2026-04-25T14:29:40.057Z</time></trkpt><trkpt lat="45.2355509" lon="8.6587225"><ele>109.0</ele><time>2026-04-25T14:29:41.06Z</time></trkpt><trkpt lat="45.2356922" lon="8.6585203"><ele>109.0</ele><time>2026-04-25T14:29:42.059Z</time></trkpt><trkpt lat="45.2358375" lon="8.658323"><ele>109.0</ele><time>2026-04-25T14:29:43.059Z</time></trkpt><trkpt lat="45.2359902" lon="8.6581211"><ele>109.0</ele><time>2026-04-25T14:29:44.06Z</time></trkpt><trkpt lat="45.2361399" lon="8.6579175"><ele>109.0</ele><time>2026-04-25T14:29:45.059Z</time></trkpt><trkpt lat="45.2362926" lon="8.6577155"><ele>109.0</ele><time>2026-04-25T14:29:46.059Z</time></trkpt><trkpt lat="45.2364436" lon="8.6575056"><ele>109.0</ele><time>2026-04-25T14:29:47.059Z</time></trkpt><trkpt lat="45.2365914" lon="8.6572951"><ele>109.0</ele><time>2026-04-25T14:29:48.059Z</time></trkpt><trkpt lat="45.2367394" lon="8.6570786"><ele>109.0</ele><time>2026-04-25T14:29:49.059Z</time></trkpt><trkpt lat="45.2368925" lon="8.6568698"><ele>109.0</ele><time>2026-04-25T14:29:50.059Z</time></trkpt><trkpt lat="45.2370422" lon="8.656662"><ele>109.0</ele><time>2026-04-25T14:29:51.06Z</time></trkpt><trkpt lat="45.2371944" lon="8.6564397"><ele>109.0</ele><time>2026-04-25T14:29:52.06Z</time></trkpt><trkpt lat="45.2373464" lon="8.6562206"><ele>108.66666666666667</ele><time>2026-04-25T14:29:53.058Z</time></trkpt><trkpt lat="45.2375092" lon="8.6560018"><ele>108.33333333333334</ele><time>2026-04-25T14:29:54.059Z</time></trkpt><trkpt lat="45.2376662" lon="8.6557838"><ele>108.0</ele><time>2026-04-25T14:29:55.059Z</time></trkpt><trkpt lat="45.2378194" lon="8.6555673"><ele>108.0</ele><time>2026-04-25T14:29:56.059Z</time></trkpt><trkpt lat="45.2379816" lon="8.655344"><ele>108.0</ele><time>2026-04-25T14:29:57.058Z</time></trkpt><trkpt lat="45.2381408" lon="8.6551194"><ele>108.5</ele><time>2026-04-25T14:29:58.059Z</time></trkpt><trkpt lat="45.238302" lon="8.6548886"><ele>109.0</ele><time>2026-04-25T14:29:59.06Z</time></trkpt><trkpt lat="45.2384669" lon="8.6546572"><ele>108.5</ele><time>2026-04-25T14:30:00.058Z</time></trkpt><trkpt lat="45.2386325" lon="8.6544266"><ele>108.0</ele><time>2026-04-25T14:30:01.06Z</time></trkpt><trkpt lat="45.2387969" lon="8.6541933"><ele>108.0</ele><time>2026-04-25T14:30:02.058Z</time></trkpt><trkpt lat="45.2389617" lon="8.6539661"><ele>108.0</ele><time>2026-04-25T14:30:03.059Z</time></trkpt><trkpt lat="45.239128" lon="8.6537281"><ele>108.5</ele><time>2026-04-25T14:30:04.058Z</time></trkpt><trkpt lat="45.2392911" lon="8.6534999"><ele>109.0</ele><time>2026-04-25T14:30:05.059Z</time></trkpt><trkpt lat="45.2394596" lon="8.6532674"><ele>109.0</ele><time>2026-04-25T14:30:06.058Z</time></trkpt><trkpt lat="45.2396337" lon="8.6530239"><ele>109.0</ele><time>2026-04-25T14:30:07.059Z</time></trkpt><trkpt lat="45.2397996" lon="8.6527939"><ele>109.0</ele><time>2026-04-25T14:30:08.059Z</time></trkpt><trkpt lat="45.2399657" lon="8.6525677"><ele>109.0</ele><time>2026-04-25T14:30:09.058Z</time></trkpt><trkpt lat="45.2401236" lon="8.652348"><ele>109.0</ele><time>2026-04-25T14:30:10.059Z</time></trkpt><trkpt lat="45.2402803" lon="8.6521363"><ele>109.0</ele><time>2026-04-25T14:30:11.06Z</time></trkpt><trkpt lat="45.2404214" lon="8.6519397"><ele>109.0</ele><time>2026-04-25T14:30:12.059Z</time></trkpt><trkpt lat="45.2405602" lon="8.6517499"><ele>108.66666666666667</ele><time>2026-04-25T14:30:13.059Z</time></trkpt><trkpt lat="45.2406989" lon="8.6515649"><ele>108.33333333333334</ele><time>2026-04-25T14:30:14.06Z</time></trkpt><trkpt lat="45.2408305" lon="8.6513726"><ele>108.0</ele><time>2026-04-25T14:30:15.06Z</time></trkpt><trkpt lat="45.2409656" lon="8.6511754"><ele>108.0</ele><time>2026-04-25T14:30:16.059Z</time></trkpt><trkpt lat="45.2411003" lon="8.6509762"><ele>108.0</ele><time>2026-04-25T14:30:17.058Z</time></trkpt><trkpt lat="45.2412361" lon="8.6507835"><ele>108.0</ele><time>2026-04-25T14:30:18.058Z</time></trkpt><trkpt lat="45.2413768" lon="8.650609"><ele>108.33333333333334</ele><time>2026-04-25T14:30:19.059Z</time></trkpt><trkpt lat="45.2415115" lon="8.6504298"><ele>108.66666666666667</ele><time>2026-04-25T14:30:20.059Z</time></trkpt><trkpt lat="45.2416445" lon="8.650246"><ele>109.0</ele><time>2026-04-25T14:30:21.06Z</time></trkpt><trkpt lat="45.2417817" lon="8.6500646"><ele>109.33333333333334</ele><time>2026-04-25T14:30:22.059Z</time></trkpt><trkpt lat="45.2419148" lon="8.6498768"><ele>109.66666666666666</ele><time>2026-04-25T14:30:23.06Z</time></trkpt><trkpt lat="45.2420516" lon="8.6496832"><ele>110.0</ele><time>2026-04-25T14:30:24.058Z</time></trkpt><trkpt lat="45.2421936" lon="8.6494812"><ele>110.66666666666666</ele><time>2026-04-25T14:30:25.058Z</time></trkpt><trkpt lat="45.2423279" lon="8.6492868"><ele>111.33333333333334</ele><time>2026-04-25T14:30:26.059Z</time></trkpt><trkpt lat="45.2424679" lon="8.6490889"><ele>112.0</ele><time>2026-04-25T14:30:27.059Z</time></trkpt><trkpt lat="45.2426119" lon="8.6488955"><ele>112.0</ele><time>2026-04-25T14:30:28.058Z</time></trkpt><trkpt lat="45.2427549" lon="8.6486986"><ele>112.0</ele><time>2026-04-25T14:30:29.059Z</time></trkpt><trkpt lat="45.242889" lon="8.6485021"><ele>112.0</ele><time>2026-04-25T14:30:30.059Z</time></trkpt><trkpt lat="45.2430336" lon="8.6483063"><ele>111.66666666666667</ele><time>2026-04-25T14:30:31.058Z</time></trkpt><trkpt lat="45.243174" lon="8.6481122"><ele>111.33333333333334</ele><time>2026-04-25T14:30:32.058Z</time></trkpt><trkpt lat="45.2433101" lon="8.6479145"><ele>111.0</ele><time>2026-04-25T14:30:33.059Z</time></trkpt><trkpt lat="45.2434485" lon="8.6477229"><ele>110.66666666666666</ele><time>2026-04-25T14:30:34.057Z</time></trkpt><trkpt lat="45.2435891" lon="8.6475296"><ele>110.33333333333333</ele><time>2026-04-25T14:30:35.058Z</time></trkpt><trkpt lat="45.2437287" lon="8.6473378"><ele>110.0</ele><time>2026-04-25T14:30:36.059Z</time></trkpt><trkpt lat="45.2438577" lon="8.6471563"><ele>110.66666666666666</ele><time>2026-04-25T14:30:37.058Z</time></trkpt><trkpt lat="45.2439821" lon="8.6469858"><ele>111.33333333333334</ele><time>2026-04-25T14:30:38.059Z</time></trkpt><trkpt lat="45.2440983" lon="8.646819"><ele>112.0</ele><time>2026-04-25T14:30:39.058Z</time></trkpt><trkpt lat="45.2442115" lon="8.6466637"><ele>112.0</ele><time>2026-04-25T14:30:40.057Z</time></trkpt><trkpt lat="45.2443207" lon="8.6465088"><ele>112.0</ele><time>2026-04-25T14:30:41.058Z</time></trkpt><trkpt lat="45.2444217" lon="8.646366"><ele>112.0</ele><time>2026-04-25T14:30:42.058Z</time></trkpt><trkpt lat="45.2445223" lon="8.646228"><ele>112.0</ele><time>2026-04-25T14:30:43.059Z</time></trkpt><trkpt lat="45.2446212" lon="8.646096"><ele>112.25</ele><time>2026-04-25T14:30:44.06Z</time></trkpt><trkpt lat="45.2447217" lon="8.6459629"><ele>112.5</ele><time>2026-04-25T14:30:45.059Z</time></trkpt><trkpt lat="45.2448138" lon="8.6458247"><ele>112.75</ele><time>2026-04-25T14:30:46.059Z</time></trkpt><trkpt lat="45.244908" lon="8.6456937"><ele>113.0</ele><time>2026-04-25T14:30:47.06Z</time></trkpt><trkpt lat="45.2449998" lon="8.6455664"><ele>113.0</ele><time>2026-04-25T14:30:48.059Z</time></trkpt><trkpt lat="45.2450876" lon="8.6454457"><ele>113.0</ele><time>2026-04-25T14:30:49.059Z</time></trkpt><trkpt lat="45.2451762" lon="8.6453209"><ele>113.0</ele><time>2026-04-25T14:30:50.059Z</time></trkpt><trkpt lat="45.2452621" lon="8.6452006"><ele>113.0</ele><time>2026-04-25T14:30:51.059Z</time></trkpt><trkpt lat="45.2453481" lon="8.6450907"><ele>113.0</ele><time>2026-04-25T14:30:52.058Z</time></trkpt><trkpt lat="45.2454269" lon="8.6449849"><ele>113.00000000000001</ele><time>2026-04-25T14:30:53.059Z</time></trkpt><trkpt lat="45.2455058" lon="8.6448802"><ele>113.00000000000001</ele><time>2026-04-25T14:30:54.058Z</time></trkpt><trkpt lat="45.2455809" lon="8.6447821"><ele>113.0</ele><time>2026-04-25T14:30:55.058Z</time></trkpt><trkpt lat="45.2456558" lon="8.6446862"><ele>113.0</ele><time>2026-04-25T14:30:56.059Z</time></trkpt><trkpt lat="45.2457286" lon="8.644587"><ele>112.99999999999999</ele><time>2026-04-25T14:30:57.059Z</time></trkpt><trkpt lat="45.2457956" lon="8.6445059"><ele>113.0</ele><time>2026-04-25T14:30:58.059Z</time></trkpt><trkpt lat="45.2458687" lon="8.6444158"><ele>113.0</ele><time>2026-04-25T14:30:59.058Z</time></trkpt><trkpt lat="45.2459312" lon="8.6443488"><ele>113.0</ele><time>2026-04-25T14:31:00.059Z</time></trkpt><trkpt lat="45.2459877" lon="8.6442742"><ele>112.99999999999999</ele><time>2026-04-25T14:31:01.058Z</time></trkpt><trkpt lat="45.2460534" lon="8.6441627"><ele>113.0</ele><time>2026-04-25T14:31:03.059Z</time></trkpt><trkpt lat="45.2461042" lon="8.6440278"><ele>113.0</ele><time>2026-04-25T14:31:05.059Z</time></trkpt><trkpt lat="45.2459996" lon="8.6439772"><ele>113.00000000000001</ele><time>2026-04-25T14:31:06.06Z</time></trkpt><trkpt lat="45.2459502" lon="8.6438063"><ele>113.00000000000001</ele><time>2026-04-25T14:31:08.06Z</time></trkpt><trkpt lat="45.2459205" lon="8.6437112"><ele>113.0</ele><time>2026-04-25T14:31:09.058Z</time></trkpt><trkpt lat="45.2458904" lon="8.6436103"><ele>113.0</ele><time>2026-04-25T14:31:10.058Z</time></trkpt><trkpt lat="45.2458605" lon="8.6435088"><ele>113.0</ele><time>2026-04-25T14:31:11.058Z</time></trkpt><trkpt lat="45.2458285" lon="8.6434132"><ele>113.0</ele><time>2026-04-25T14:31:12.058Z</time></trkpt><trkpt lat="45.2458004" lon="8.6433195"><ele>113.0</ele><time>2026-04-25T14:31:13.058Z</time></trkpt><trkpt lat="45.2457716" lon="8.6432276"><ele>113.0</ele><time>2026-04-25T14:31:14.059Z</time></trkpt><trkpt lat="45.2457366" lon="8.6431312"><ele>113.0</ele><time>2026-04-25T14:31:15.06Z</time></trkpt><trkpt lat="45.2457045" lon="8.6430331"><ele>113.0</ele><time>2026-04-25T14:31:16.059Z</time></trkpt><trkpt lat="45.2456716" lon="8.6429427"><ele>113.0</ele><time>2026-04-25T14:31:17.058Z</time></trkpt><trkpt lat="45.2456389" lon="8.6428413"><ele>112.83333333333333</ele><time>2026-04-25T14:31:18.059Z</time></trkpt><trkpt lat="45.2456044" lon="8.6427396"><ele>112.66666666666666</ele><time>2026-04-25T14:31:19.059Z</time></trkpt><trkpt lat="45.2455716" lon="8.6426318"><ele>112.5</ele><time>2026-04-25T14:31:20.058Z</time></trkpt><trkpt lat="45.2455399" lon="8.6425243"><ele>112.33333333333334</ele><time>2026-04-25T14:31:21.059Z</time></trkpt><trkpt lat="45.2455" lon="8.6424151"><ele>112.16666666666667</ele><time>2026-04-25T14:31:22.058Z</time></trkpt><trkpt lat="45.2454578" lon="8.6422918"><ele>112.0</ele><time>2026-04-25T14:31:23.058Z</time></trkpt><trkpt lat="45.2454209" lon="8.6421749"><ele>112.00000000000001</ele><time>2026-04-25T14:31:24.059Z</time></trkpt><trkpt lat="45.245397" lon="8.6420409"><ele>112.0</ele><time>2026-04-25T14:31:25.06Z</time></trkpt><trkpt lat="45.2453604" lon="8.6419262"><ele>112.0</ele><time>2026-04-25T14:31:26.059Z</time></trkpt><trkpt lat="45.2453169" lon="8.6418142"><ele>112.0</ele><time>2026-04-25T14:31:27.06Z</time></trkpt><trkpt lat="45.2452742" lon="8.641725"><ele>112.00000000000001</ele><time>2026-04-25T14:31:28.059Z</time></trkpt><trkpt lat="45.2452462" lon="8.6416305"><ele>112.0</ele><time>2026-04-25T14:31:29.059Z</time></trkpt><trkpt lat="45.2451946" lon="8.6415206"><ele>112.16666666666667</ele><time>2026-04-25T14:31:31.059Z</time></trkpt><trkpt lat="45.2451855" lon="8.64143"><ele>112.33333333333334</ele><time>2026-04-25T14:31:33.058Z</time></trkpt><trkpt lat="45.2452349" lon="8.6413238"><ele>112.5</ele><time>2026-04-25T14:31:36.059Z</time></trkpt><trkpt lat="45.2452962" lon="8.6412662"><ele>112.66666666666666</ele><time>2026-04-25T14:31:38.058Z</time></trkpt><trkpt lat="45.2453712" lon="8.6412463"><ele>112.83333333333333</ele><time>2026-04-25T14:32:08.06Z</time></trkpt><trkpt lat="45.2452959" lon="8.6412717"><ele>113.0</ele><time>2026-04-25T14:32:23.058Z</time></trkpt><trkpt lat="45.2452359" lon="8.6413249"><ele>112.99999999999999</ele><time>2026-04-25T14:32:26.058Z</time></trkpt><trkpt lat="45.2451763" lon="8.6413743"><ele>113.0</ele><time>2026-04-25T14:32:30.057Z</time></trkpt><trkpt lat="45.2451102" lon="8.6413675"><ele>113.0</ele><time>2026-04-25T14:32:48.057Z</time></trkpt><trkpt lat="45.2450617" lon="8.6412971"><ele>113.0</ele><time>2026-04-25T14:32:50.058Z</time></trkpt><trkpt lat="45.244999" lon="8.6411905"><ele>112.99999999999999</ele><time>2026-04-25T14:32:52.059Z</time></trkpt><trkpt lat="45.2449407" lon="8.6410909"><ele>113.0</ele><time>2026-04-25T14:32:54.058Z</time></trkpt><trkpt lat="45.2448931" lon="8.6409981"><ele>113.0</ele><time>2026-04-25T14:32:56.058Z</time></trkpt><trkpt lat="45.2448576" lon="8.6409031"><ele>113.00000000000001</ele><time>2026-04-25T14:32:58.058Z</time></trkpt><trkpt lat="45.2448131" lon="8.6407696"><ele>113.00000000000001</ele><time>2026-04-25T14:33:00.058Z</time></trkpt><trkpt lat="45.2447771" lon="8.6406132"><ele>113.0</ele><time>2026-04-25T14:33:02.059Z</time></trkpt><trkpt lat="45.2447558" lon="8.6404843"><ele>113.0</ele><time>2026-04-25T14:33:04.058Z</time></trkpt><trkpt lat="45.2447815" lon="8.6403858"><ele>113.0</ele><time>2026-04-25T14:33:07.059Z</time></trkpt><trkpt lat="45.2448628" lon="8.6403329"><ele>113.00000000000001</ele><time>2026-04-25T14:33:09.058Z</time></trkpt><trkpt lat="45.2449728" lon="8.6402779"><ele>113.00000000000001</ele><time>2026-04-25T14:33:11.058Z</time></trkpt><trkpt lat="45.245042" lon="8.6402372"><ele>113.0</ele><time>2026-04-25T14:33:12.058Z</time></trkpt><trkpt lat="45.2451218" lon="8.640206"><ele>113.0</ele><time>2026-04-25T14:33:13.058Z</time></trkpt><trkpt lat="45.2452026" lon="8.6401565"><ele>112.99999999999999</ele><time>2026-04-25T14:33:14.058Z</time></trkpt><trkpt lat="45.2452817" lon="8.6401088"><ele>113.0</ele><time>2026-04-25T14:33:15.057Z</time></trkpt><trkpt lat="45.2453563" lon="8.640075"><ele>113.0</ele><time>2026-04-25T14:33:16.057Z</time></trkpt><trkpt lat="45.2454292" lon="8.6400384"><ele>113.0</ele><time>2026-04-25T14:33:17.058Z</time></trkpt><trkpt lat="45.2455028" lon="8.639997"><ele>112.99999999999999</ele><time>2026-04-25T14:33:18.059Z</time></trkpt><trkpt lat="45.245572" lon="8.639949"><ele>113.0</ele><time>2026-04-25T14:33:19.058Z</time></trkpt><trkpt lat="45.2456354" lon="8.6399082"><ele>113.16666666666666</ele><time>2026-04-25T14:33:20.058Z</time></trkpt><trkpt lat="45.2457194" lon="8.639857"><ele>113.33333333333333</ele><time>2026-04-25T14:33:22.058Z</time></trkpt><trkpt lat="45.2457764" lon="8.6398071"><ele>113.5</ele><time>2026-04-25T14:33:25.058Z</time></trkpt><trkpt lat="45.2458168" lon="8.6396879"><ele>113.66666666666666</ele><time>2026-04-25T14:33:28.059Z</time></trkpt><trkpt lat="45.2458157" lon="8.6395235"><ele>113.83333333333333</ele><time>2026-04-25T14:33:30.058Z</time></trkpt><trkpt lat="45.2458071" lon="8.6394193"><ele>114.0</ele><time>2026-04-25T14:33:31.058Z</time></trkpt><trkpt lat="45.2457951" lon="8.6393072"><ele>113.66666666666667</ele><time>2026-04-25T14:33:32.058Z</time></trkpt><trkpt lat="45.2457843" lon="8.6391891"><ele>113.33333333333334</ele><time>2026-04-25T14:33:33.058Z</time></trkpt><trkpt lat="45.2457758" lon="8.6390663"><ele>113.0</ele><time>2026-04-25T14:33:34.059Z</time></trkpt><trkpt lat="45.2457666" lon="8.638958"><ele>112.66666666666667</ele><time>2026-04-25T14:33:35.058Z</time></trkpt><trkpt lat="45.2457619" lon="8.6388496"><ele>112.33333333333334</ele><time>2026-04-25T14:33:36.058Z</time></trkpt><trkpt lat="45.2457518" lon="8.6387344"><ele>112.0</ele><time>2026-04-25T14:33:37.057Z</time></trkpt><trkpt lat="45.2457413" lon="8.6386166"><ele>111.8</ele><time>2026-04-25T14:33:38.057Z</time></trkpt><trkpt lat="45.2457319" lon="8.6384879"><ele>111.6</ele><time>2026-04-25T14:33:39.057Z</time></trkpt><trkpt lat="45.2457221" lon="8.6383629"><ele>111.39999999999999</ele><time>2026-04-25T14:33:40.058Z</time></trkpt><trkpt lat="45.2457127" lon="8.6382338"><ele>111.19999999999999</ele><time>2026-04-25T14:33:41.057Z</time></trkpt><trkpt lat="45.2457147" lon="8.6381115"><ele>111.0</ele><time>2026-04-25T14:33:42.058Z</time></trkpt><trkpt lat="45.2457135" lon="8.6379673"><ele>111.0</ele><time>2026-04-25T14:33:43.058Z</time></trkpt><trkpt lat="45.2457156" lon="8.6378141"><ele>111.0</ele><time>2026-04-25T14:33:44.057Z</time></trkpt><trkpt lat="45.2457174" lon="8.6376589"><ele>111.0</ele><time>2026-04-25T14:33:45.057Z</time></trkpt><trkpt lat="45.2457279" lon="8.6375078"><ele>111.0</ele><time>2026-04-25T14:33:46.058Z</time></trkpt><trkpt lat="45.2457369" lon="8.6373636"><ele>111.0</ele><time>2026-04-25T14:33:47.058Z</time></trkpt><trkpt lat="45.2457469" lon="8.6372332"><ele>111.0</ele><time>2026-04-25T14:33:48.057Z</time></trkpt><trkpt lat="45.2457608" lon="8.637107"><ele>111.0</ele><time>2026-04-25T14:33:49.058Z</time></trkpt><trkpt lat="45.2457894" lon="8.6369767"><ele>111.0</ele><time>2026-04-25T14:33:50.058Z</time></trkpt><trkpt lat="45.245825" lon="8.6368342"><ele>111.0</ele><time>2026-04-25T14:33:51.058Z</time></trkpt><trkpt lat="45.24588" lon="8.6367062"><ele>111.0</ele><time>2026-04-25T14:33:52.058Z</time></trkpt><trkpt lat="45.2459413" lon="8.6365883"><ele>111.0</ele><time>2026-04-25T14:33:53.058Z</time></trkpt><trkpt lat="45.2460031" lon="8.636459"><ele>111.0</ele><time>2026-04-25T14:33:54.057Z</time></trkpt><trkpt lat="45.2460666" lon="8.6363591"><ele>111.0</ele><time>2026-04-25T14:33:55.058Z</time></trkpt><trkpt lat="45.2461327" lon="8.6362519"><ele>111.0</ele><time>2026-04-25T14:33:56.057Z</time></trkpt><trkpt lat="45.2461976" lon="8.6361404"><ele>111.0</ele><time>2026-04-25T14:33:57.058Z</time></trkpt><trkpt lat="45.2462581" lon="8.6360289"><ele>111.0</ele><time>2026-04-25T14:33:58.057Z</time></trkpt><trkpt lat="45.2463215" lon="8.6359113"><ele>111.0</ele><time>2026-04-25T14:33:59.058Z</time></trkpt><trkpt lat="45.2463888" lon="8.6357865"><ele>111.0</ele><time>2026-04-25T14:34:00.058Z</time></trkpt><trkpt lat="45.2464534" lon="8.6356651"><ele>111.0</ele><time>2026-04-25T14:34:01.058Z</time></trkpt><trkpt lat="45.2465196" lon="8.6355335"><ele>111.0</ele><time>2026-04-25T14:34:02.057Z</time></trkpt><trkpt lat="45.2465869" lon="8.6354072"><ele>111.0</ele><time>2026-04-25T14:34:03.058Z</time></trkpt><trkpt lat="45.2466557" lon="8.6352841"><ele>111.0</ele><time>2026-04-25T14:34:04.057Z</time></trkpt><trkpt lat="45.2467249" lon="8.6351781"><ele>111.0</ele><time>2026-04-25T14:34:05.058Z</time></trkpt><trkpt lat="45.2467917" lon="8.6350761"><ele>111.0</ele><time>2026-04-25T14:34:06.058Z</time></trkpt><trkpt lat="45.2468466" lon="8.6349828"><ele>111.0</ele><time>2026-04-25T14:34:07.057Z</time></trkpt><trkpt lat="45.246892" lon="8.6348883"><ele>111.0</ele><time>2026-04-25T14:34:08.057Z</time></trkpt><trkpt lat="45.2469488" lon="8.6347867"><ele>111.0</ele><time>2026-04-25T14:34:09.058Z</time></trkpt><trkpt lat="45.2470134" lon="8.6347003"><ele>111.0</ele><time>2026-04-25T14:34:10.057Z</time></trkpt><trkpt lat="45.2470768" lon="8.6346026"><ele>111.0</ele><time>2026-04-25T14:34:11.057Z</time></trkpt><trkpt lat="45.2471395" lon="8.6345073"><ele>111.0</ele><time>2026-04-25T14:34:12.058Z</time></trkpt><trkpt lat="45.2472" lon="8.6344221"><ele>110.83333333333333</ele><time>2026-04-25T14:34:13.058Z</time></trkpt><trkpt lat="45.2472623" lon="8.6343441"><ele>110.66666666666666</ele><time>2026-04-25T14:34:14.057Z</time></trkpt><trkpt lat="45.2473191" lon="8.6342644"><ele>110.5</ele><time>2026-04-25T14:34:15.058Z</time></trkpt><trkpt lat="45.2473793" lon="8.6341749"><ele>110.33333333333333</ele><time>2026-04-25T14:34:16.058Z</time></trkpt><trkpt lat="45.247439" lon="8.6340898"><ele>110.16666666666666</ele><time>2026-04-25T14:34:17.057Z</time></trkpt><trkpt lat="45.2474971" lon="8.6340099"><ele>110.0</ele><time>2026-04-25T14:34:18.058Z</time></trkpt><trkpt lat="45.2475548" lon="8.6339374"><ele>109.85714285714285</ele><time>2026-04-25T14:34:19.057Z</time></trkpt><trkpt lat="45.2476076" lon="8.6338641"><ele>109.71428571428571</ele><time>2026-04-25T14:34:20.057Z</time></trkpt><trkpt lat="45.2476665" lon="8.633786"><ele>109.57142857142857</ele><time>2026-04-25T14:34:21.057Z</time></trkpt><trkpt lat="45.2477107" lon="8.6337066"><ele>109.42857142857142</ele><time>2026-04-25T14:34:22.056Z</time></trkpt><trkpt lat="45.2477523" lon="8.6336217"><ele>109.28571428571429</ele><time>2026-04-25T14:34:23.058Z</time></trkpt><trkpt lat="45.2477922" lon="8.6335345"><ele>109.14285714285714</ele><time>2026-04-25T14:34:24.057Z</time></trkpt><trkpt lat="45.2478304" lon="8.6334524"><ele>109.0</ele><time>2026-04-25T14:34:25.057Z</time></trkpt><trkpt lat="45.2478614" lon="8.633366"><ele>109.0</ele><time>2026-04-25T14:34:26.058Z</time></trkpt><trkpt lat="45.2478871" lon="8.6332771"><ele>109.0</ele><time>2026-04-25T14:34:27.055Z</time></trkpt><trkpt lat="45.2479155" lon="8.6331819"><ele>109.0</ele><time>2026-04-25T14:34:28.058Z</time></trkpt><trkpt lat="45.2479435" lon="8.6330921"><ele>109.0</ele><time>2026-04-25T14:34:29.057Z</time></trkpt><trkpt lat="45.2479678" lon="8.6329992"><ele>109.0</ele><time>2026-04-25T14:34:30.058Z</time></trkpt><trkpt lat="45.2479845" lon="8.6329085"><ele>109.0</ele><time>2026-04-25T14:34:31.057Z</time></trkpt><trkpt lat="45.2479954" lon="8.6328192"><ele>109.0</ele><time>2026-04-25T14:34:32.057Z</time></trkpt><trkpt lat="45.2480055" lon="8.632714"><ele>109.14285714285714</ele><time>2026-04-25T14:34:33.058Z</time></trkpt><trkpt lat="45.2480143" lon="8.6326172"><ele>109.28571428571429</ele><time>2026-04-25T14:34:34.058Z</time></trkpt><trkpt lat="45.2480211" lon="8.6325149"><ele>109.42857142857142</ele><time>2026-04-25T14:34:35.057Z</time></trkpt><trkpt lat="45.24803" lon="8.632406"><ele>109.57142857142857</ele><time>2026-04-25T14:34:36.058Z</time></trkpt><trkpt lat="45.2480376" lon="8.6323048"><ele>109.71428571428571</ele><time>2026-04-25T14:34:37.057Z</time></trkpt><trkpt lat="45.2480473" lon="8.6322019"><ele>109.85714285714285</ele><time>2026-04-25T14:34:38.056Z</time></trkpt><trkpt lat="45.2480509" lon="8.6320918"><ele>110.0</ele><time>2026-04-25T14:34:39.058Z</time></trkpt><trkpt lat="45.2480633" lon="8.6319812"><ele>109.99999999999999</ele><time>2026-04-25T14:34:40.057Z</time></trkpt><trkpt lat="45.2480706" lon="8.6318828"><ele>110.0</ele><time>2026-04-25T14:34:41.057Z</time></trkpt><trkpt lat="45.2480722" lon="8.6317831"><ele>110.0</ele><time>2026-04-25T14:34:42.056Z</time></trkpt><trkpt lat="45.2480783" lon="8.6316751"><ele>110.0</ele><time>2026-04-25T14:34:43.057Z</time></trkpt><trkpt lat="45.2480764" lon="8.6315742"><ele>110.0</ele><time>2026-04-25T14:34:44.057Z</time></trkpt><trkpt lat="45.248084" lon="8.6314704"><ele>109.99999999999999</ele><time>2026-04-25T14:34:45.057Z</time></trkpt><trkpt lat="45.2480912" lon="8.6313563"><ele>110.0</ele><time>2026-04-25T14:34:46.058Z</time></trkpt><trkpt lat="45.2480875" lon="8.6312459"><ele>109.99999999999999</ele><time>2026-04-25T14:34:47.058Z</time></trkpt><trkpt lat="45.2480909" lon="8.6311378"><ele>110.0</ele><time>2026-04-25T14:34:48.058Z</time></trkpt><trkpt lat="45.2480895" lon="8.6310391"><ele>110.0</ele><time>2026-04-25T14:34:49.056Z</time></trkpt><trkpt lat="45.2480961" lon="8.6309436"><ele>110.0</ele><time>2026-04-25T14:34:50.058Z</time></trkpt><trkpt lat="45.2481022" lon="8.6308423"><ele>110.0</ele><time>2026-04-25T14:34:51.058Z</time></trkpt><trkpt lat="45.2481009" lon="8.6307429"><ele>109.99999999999999</ele><time>2026-04-25T14:34:52.057Z</time></trkpt><trkpt lat="45.2481064" lon="8.6306384"><ele>110.0</ele><time>2026-04-25T14:34:53.057Z</time></trkpt><trkpt lat="45.2481082" lon="8.63053"><ele>109.99999999999999</ele><time>2026-04-25T14:34:54.057Z</time></trkpt><trkpt lat="45.2481057" lon="8.6304317"><ele>110.0</ele><time>2026-04-25T14:34:55.058Z</time></trkpt><trkpt lat="45.248107" lon="8.6303309"><ele>110.0</ele><time>2026-04-25T14:34:56.057Z</time></trkpt><trkpt lat="45.2481086" lon="8.6302237"><ele>110.0</ele><time>2026-04-25T14:34:57.058Z</time></trkpt><trkpt lat="45.248111" lon="8.6301202"><ele>110.0</ele><time>2026-04-25T14:34:58.057Z</time></trkpt><trkpt lat="45.2481147" lon="8.6300235"><ele>109.99999999999999</ele><time>2026-04-25T14:34:59.058Z</time></trkpt><trkpt lat="45.248123" lon="8.6299213"><ele>110.0</ele><time>2026-04-25T14:35:00.056Z</time></trkpt><trkpt lat="45.2481269" lon="8.6298238"><ele>109.99999999999999</ele><time>2026-04-25T14:35:01.058Z</time></trkpt><trkpt lat="45.2481342" lon="8.6297246"><ele>110.0</ele><time>2026-04-25T14:35:02.058Z</time></trkpt><trkpt lat="45.248137" lon="8.6296216"><ele>110.0</ele><time>2026-04-25T14:35:03.056Z</time></trkpt><trkpt lat="45.2481367" lon="8.629523"><ele>110.0</ele><time>2026-04-25T14:35:04.058Z</time></trkpt><trkpt lat="45.2481394" lon="8.6294289"><ele>110.0</ele><time>2026-04-25T14:35:05.057Z</time></trkpt><trkpt lat="45.2481501" lon="8.6293371"><ele>109.99999999999999</ele><time>2026-04-25T14:35:06.058Z</time></trkpt><trkpt lat="45.248147" lon="8.6292352"><ele>110.0</ele><time>2026-04-25T14:35:07.058Z</time></trkpt><trkpt lat="45.2481519" lon="8.6291276"><ele>110.2</ele><time>2026-04-25T14:35:08.056Z</time></trkpt><trkpt lat="45.2481522" lon="8.6290344"><ele>110.4</ele><time>2026-04-25T14:35:09.056Z</time></trkpt><trkpt lat="45.2481598" lon="8.6288558"><ele>110.6</ele><time>2026-04-25T14:35:11.058Z</time></trkpt><trkpt lat="45.2481541" lon="8.6287042"><ele>110.8</ele><time>2026-04-25T14:35:13.056Z</time></trkpt><trkpt lat="45.2481673" lon="8.6285416"><ele>111.0</ele><time>2026-04-25T14:35:15.057Z</time></trkpt><trkpt lat="45.2482013" lon="8.628384"><ele>111.0</ele><time>2026-04-25T14:35:17.057Z</time></trkpt><trkpt lat="45.2482417" lon="8.6283041"><ele>111.0</ele><time>2026-04-25T14:35:18.057Z</time></trkpt><trkpt lat="45.248281" lon="8.6282324"><ele>111.0</ele><time>2026-04-25T14:35:19.058Z</time></trkpt><trkpt lat="45.2483314" lon="8.6281535"><ele>111.0</ele><time>2026-04-25T14:35:20.058Z</time></trkpt><trkpt lat="45.2483777" lon="8.6280764"><ele>111.0</ele><time>2026-04-25T14:35:21.058Z</time></trkpt><trkpt lat="45.2484278" lon="8.6280004"><ele>111.0</ele><time>2026-04-25T14:35:22.057Z</time></trkpt><trkpt lat="45.248477" lon="8.627926"><ele>111.0</ele><time>2026-04-25T14:35:23.057Z</time></trkpt><trkpt lat="45.2485496" lon="8.6277705"><ele>111.14285714285714</ele><time>2026-04-25T14:35:25.056Z</time></trkpt><trkpt lat="45.2485824" lon="8.627689"><ele>111.28571428571429</ele><time>2026-04-25T14:35:26.056Z</time></trkpt><trkpt lat="45.2486047" lon="8.6276042"><ele>111.42857142857143</ele><time>2026-04-25T14:35:27.057Z</time></trkpt><trkpt lat="45.2486242" lon="8.6275176"><ele>111.57142857142857</ele><time>2026-04-25T14:35:28.057Z</time></trkpt><trkpt lat="45.2486361" lon="8.6274294"><ele>111.71428571428572</ele><time>2026-04-25T14:35:29.056Z</time></trkpt><trkpt lat="45.248646" lon="8.6273246"><ele>111.85714285714286</ele><time>2026-04-25T14:35:30.056Z</time></trkpt><trkpt lat="45.2486497" lon="8.6272253"><ele>112.0</ele><time>2026-04-25T14:35:31.057Z</time></trkpt><trkpt lat="45.2486523" lon="8.627129"><ele>112.00000000000001</ele><time>2026-04-25T14:35:32.056Z</time></trkpt><trkpt lat="45.2486514" lon="8.6270344"><ele>112.0</ele><time>2026-04-25T14:35:33.056Z</time></trkpt><trkpt lat="45.2486498" lon="8.6269445"><ele>112.0</ele><time>2026-04-25T14:35:34.057Z</time></trkpt><trkpt lat="45.248645" lon="8.6267743"><ele>112.0</ele><time>2026-04-25T14:35:36.057Z</time></trkpt><trkpt lat="45.2486411" lon="8.6266197"><ele>112.00000000000001</ele><time>2026-04-25T14:35:38.057Z</time></trkpt><trkpt lat="45.2486404" lon="8.6265283"><ele>112.0</ele><time>2026-04-25T14:35:39.056Z</time></trkpt><trkpt lat="45.2486382" lon="8.6264377"><ele>111.83333333333334</ele><time>2026-04-25T14:35:40.058Z</time></trkpt><trkpt lat="45.2486476" lon="8.6263332"><ele>111.66666666666667</ele><time>2026-04-25T14:35:41.056Z</time></trkpt><trkpt lat="45.2486565" lon="8.6262252"><ele>111.5</ele><time>2026-04-25T14:35:42.057Z</time></trkpt><trkpt lat="45.2486712" lon="8.6261097"><ele>111.33333333333334</ele><time>2026-04-25T14:35:43.057Z</time></trkpt><trkpt lat="45.2486941" lon="8.6259883"><ele>111.16666666666667</ele><time>2026-04-25T14:35:44.058Z</time></trkpt><trkpt lat="45.2487173" lon="8.6258675"><ele>111.0</ele><time>2026-04-25T14:35:45.056Z</time></trkpt><trkpt lat="45.2487482" lon="8.6257405"><ele>111.0</ele><time>2026-04-25T14:35:46.057Z</time></trkpt><trkpt lat="45.2487662" lon="8.6256127"><ele>111.0</ele><time>2026-04-25T14:35:47.057Z</time></trkpt><trkpt lat="45.2487868" lon="8.6254965"><ele>111.0</ele><time>2026-04-25T14:35:48.057Z</time></trkpt><trkpt lat="45.2488095" lon="8.6253747"><ele>111.0</ele><time>2026-04-25T14:35:49.057Z</time></trkpt><trkpt lat="45.2488324" lon="8.6252579"><ele>111.0</ele><time>2026-04-25T14:35:50.057Z</time></trkpt><trkpt lat="45.2488526" lon="8.6251394"><ele>111.0</ele><time>2026-04-25T14:35:51.056Z</time></trkpt><trkpt lat="45.2488676" lon="8.6250231"><ele>110.8</ele><time>2026-04-25T14:35:52.057Z</time></trkpt><trkpt lat="45.2488843" lon="8.6248987"><ele>110.6</ele><time>2026-04-25T14:35:53.058Z</time></trkpt><trkpt lat="45.2489035" lon="8.6247764"><ele>110.4</ele><time>2026-04-25T14:35:54.058Z</time></trkpt><trkpt lat="45.2489211" lon="8.624655"><ele>110.2</ele><time>2026-04-25T14:35:55.057Z</time></trkpt><trkpt lat="45.2489431" lon="8.6245249"><ele>110.0</ele><time>2026-04-25T14:35:56.058Z</time></trkpt><trkpt lat="45.2489704" lon="8.6243903"><ele>110.0</ele><time>2026-04-25T14:35:57.055Z</time></trkpt><trkpt lat="45.2489973" lon="8.6242534"><ele>110.0</ele><time>2026-04-25T14:35:58.057Z</time></trkpt><trkpt lat="45.2490283" lon="8.6241188"><ele>110.0</ele><time>2026-04-25T14:35:59.057Z</time></trkpt><trkpt lat="45.2490633" lon="8.6239806"><ele>110.0</ele><time>2026-04-25T14:36:00.057Z</time></trkpt><trkpt lat="45.2491008" lon="8.6238553"><ele>110.0</ele><time>2026-04-25T14:36:01.057Z</time></trkpt><trkpt lat="45.249133" lon="8.6237394"><ele>110.2</ele><time>2026-04-25T14:36:02.056Z</time></trkpt><trkpt lat="45.2491653" lon="8.62362"><ele>110.4</ele><time>2026-04-25T14:36:03.057Z</time></trkpt><trkpt lat="45.2491965" lon="8.6234979"><ele>110.6</ele><time>2026-04-25T14:36:04.057Z</time></trkpt><trkpt lat="45.2492239" lon="8.6233713"><ele>110.8</ele><time>2026-04-25T14:36:05.058Z</time></trkpt><trkpt lat="45.2492444" lon="8.6232488"><ele>111.0</ele><time>2026-04-25T14:36:06.058Z</time></trkpt><trkpt lat="45.2492643" lon="8.6231214"><ele>111.0</ele><time>2026-04-25T14:36:07.056Z</time></trkpt><trkpt lat="45.2492837" lon="8.6229878"><ele>111.0</ele><time>2026-04-25T14:36:08.057Z</time></trkpt><trkpt lat="45.2493014" lon="8.6228527"><ele>111.0</ele><time>2026-04-25T14:36:09.056Z</time></trkpt><trkpt lat="45.2493098" lon="8.622729"><ele>111.0</ele><time>2026-04-25T14:36:10.057Z</time></trkpt><trkpt lat="45.2493211" lon="8.6226011"><ele>111.0</ele><time>2026-04-25T14:36:11.057Z</time></trkpt><trkpt lat="45.2493299" lon="8.6224626"><ele>111.16666666666667</ele><time>2026-04-25T14:36:12.058Z</time></trkpt><trkpt lat="45.2493374" lon="8.6223268"><ele>111.33333333333334</ele><time>2026-04-25T14:36:13.057Z</time></trkpt><trkpt lat="45.249349" lon="8.6221911"><ele>111.5</ele><time>2026-04-25T14:36:14.056Z</time></trkpt><trkpt lat="45.2493638" lon="8.6220702"><ele>111.66666666666667</ele><time>2026-04-25T14:36:15.057Z</time></trkpt><trkpt lat="45.249382" lon="8.621956"><ele>111.83333333333334</ele><time>2026-04-25T14:36:16.057Z</time></trkpt><trkpt lat="45.2494186" lon="8.6218549"><ele>112.0</ele><time>2026-04-25T14:36:17.057Z</time></trkpt><trkpt lat="45.2494738" lon="8.621758"><ele>111.83333333333334</ele><time>2026-04-25T14:36:18.057Z</time></trkpt><trkpt lat="45.2495362" lon="8.6216785"><ele>111.66666666666667</ele><time>2026-04-25T14:36:19.057Z</time></trkpt><trkpt lat="45.2496029" lon="8.6216221"><ele>111.5</ele><time>2026-04-25T14:36:20.057Z</time></trkpt><trkpt lat="45.2496793" lon="8.6215724"><ele>111.33333333333334</ele><time>2026-04-25T14:36:21.057Z</time></trkpt><trkpt lat="45.2497614" lon="8.6215288"><ele>111.16666666666667</ele><time>2026-04-25T14:36:22.057Z</time></trkpt><trkpt lat="45.2498444" lon="8.6214885"><ele>111.0</ele><time>2026-04-25T14:36:23.057Z</time></trkpt><trkpt lat="45.2499363" lon="8.6214366"><ele>111.0</ele><time>2026-04-25T14:36:24.057Z</time></trkpt><trkpt lat="45.2500289" lon="8.6213996"><ele>111.0</ele><time>2026-04-25T14:36:25.057Z</time></trkpt><trkpt lat="45.2501203" lon="8.6213537"><ele>111.0</ele><time>2026-04-25T14:36:26.057Z</time></trkpt><trkpt lat="45.2502003" lon="8.6213088"><ele>111.0</ele><time>2026-04-25T14:36:27.056Z</time></trkpt><trkpt lat="45.2502679" lon="8.6212533"><ele>111.0</ele><time>2026-04-25T14:36:28.058Z</time></trkpt><trkpt lat="45.2503181" lon="8.6211882"><ele>111.0</ele><time>2026-04-25T14:36:29.055Z</time></trkpt><trkpt lat="45.2503556" lon="8.6210962"><ele>111.0</ele><time>2026-04-25T14:36:30.056Z</time></trkpt><trkpt lat="45.2503864" lon="8.6209978"><ele>111.0</ele><time>2026-04-25T14:36:31.057Z</time></trkpt><trkpt lat="45.2504053" lon="8.6208738"><ele>111.0</ele><time>2026-04-25T14:36:32.056Z</time></trkpt><trkpt lat="45.2504133" lon="8.6207445"><ele>111.0</ele><time>2026-04-25T14:36:33.057Z</time></trkpt><trkpt lat="45.25042" lon="8.6206041"><ele>111.0</ele><time>2026-04-25T14:36:34.057Z</time></trkpt><trkpt lat="45.250425" lon="8.6204685"><ele>111.0</ele><time>2026-04-25T14:36:35.057Z</time></trkpt><trkpt lat="45.2504301" lon="8.6203252"><ele>111.0</ele><time>2026-04-25T14:36:36.057Z</time></trkpt><trkpt lat="45.250424" lon="8.620181"><ele>111.0</ele><time>2026-04-25T14:36:37.056Z</time></trkpt><trkpt lat="45.2504203" lon="8.6200358"><ele>111.0</ele><time>2026-04-25T14:36:38.057Z</time></trkpt><trkpt lat="45.2504161" lon="8.6198849"><ele>111.0</ele><time>2026-04-25T14:36:39.057Z</time></trkpt><trkpt lat="45.2504115" lon="8.6197372"><ele>111.0</ele><time>2026-04-25T14:36:40.056Z</time></trkpt><trkpt lat="45.2504065" lon="8.6195923"><ele>111.0</ele><time>2026-04-25T14:36:41.057Z</time></trkpt><trkpt lat="45.2504015" lon="8.6194478"><ele>111.0</ele><time>2026-04-25T14:36:42.057Z</time></trkpt><trkpt lat="45.2503922" lon="8.6193015"><ele>111.0</ele><time>2026-04-25T14:36:43.055Z</time></trkpt><trkpt lat="45.2503905" lon="8.6191584"><ele>111.0</ele><time>2026-04-25T14:36:44.055Z</time></trkpt><trkpt lat="45.2503875" lon="8.6190207"><ele>110.8</ele><time>2026-04-25T14:36:45.056Z</time></trkpt><trkpt lat="45.2503914" lon="8.6188894"><ele>110.6</ele><time>2026-04-25T14:36:46.056Z</time></trkpt><trkpt lat="45.2504043" lon="8.6187592"><ele>110.4</ele><time>2026-04-25T14:36:47.056Z</time></trkpt><trkpt lat="45.250426" lon="8.6186341"><ele>110.2</ele><time>2026-04-25T14:36:48.057Z</time></trkpt><trkpt lat="45.250458" lon="8.6185107"><ele>110.0</ele><time>2026-04-25T14:36:49.057Z</time></trkpt><trkpt lat="45.2504977" lon="8.6183881"><ele>110.0</ele><time>2026-04-25T14:36:50.056Z</time></trkpt><trkpt lat="45.2505389" lon="8.6182639"><ele>110.0</ele><time>2026-04-25T14:36:51.057Z</time></trkpt><trkpt lat="45.2505837" lon="8.618138"><ele>110.0</ele><time>2026-04-25T14:36:52.057Z</time></trkpt><trkpt lat="45.2506318" lon="8.6180125"><ele>110.0</ele><time>2026-04-25T14:36:53.057Z</time></trkpt><trkpt lat="45.250684" lon="8.6178774"><ele>110.0</ele><time>2026-04-25T14:36:54.055Z</time></trkpt><trkpt lat="45.2507433" lon="8.6177397"><ele>110.0</ele><time>2026-04-25T14:36:55.057Z</time></trkpt><trkpt lat="45.2508015" lon="8.6176082"><ele>110.0</ele><time>2026-04-25T14:36:56.057Z</time></trkpt><trkpt lat="45.2508656" lon="8.6174805"><ele>110.0</ele><time>2026-04-25T14:36:57.056Z</time></trkpt><trkpt lat="45.2509286" lon="8.6173646"><ele>110.0</ele><time>2026-04-25T14:36:58.057Z</time></trkpt><trkpt lat="45.2509987" lon="8.6172462"><ele>110.0</ele><time>2026-04-25T14:36:59.055Z</time></trkpt><trkpt lat="45.2510676" lon="8.6171341"><ele>110.0</ele><time>2026-04-25T14:37:00.057Z</time></trkpt><trkpt lat="45.2511339" lon="8.6170252"><ele>110.0</ele><time>2026-04-25T14:37:01.057Z</time></trkpt><trkpt lat="45.2511891" lon="8.6169254"><ele>110.0</ele><time>2026-04-25T14:37:02.056Z</time></trkpt><trkpt lat="45.2512321" lon="8.6168282"><ele>110.0</ele><time>2026-04-25T14:37:03.057Z</time></trkpt><trkpt lat="45.2512596" lon="8.6167376"><ele>110.0</ele><time>2026-04-25T14:37:04.057Z</time></trkpt><trkpt lat="45.2512621" lon="8.6165676"><ele>110.16666666666666</ele><time>2026-04-25T14:37:06.057Z</time></trkpt><trkpt lat="45.2512802" lon="8.6164721"><ele>110.33333333333333</ele><time>2026-04-25T14:37:07.057Z</time></trkpt><trkpt lat="45.251316" lon="8.6163816"><ele>110.5</ele><time>2026-04-25T14:37:08.056Z</time></trkpt><trkpt lat="45.2513701" lon="8.6162836"><ele>110.66666666666666</ele><time>2026-04-25T14:37:09.057Z</time></trkpt><trkpt lat="45.251427" lon="8.6161811"><ele>110.83333333333333</ele><time>2026-04-25T14:37:10.057Z</time></trkpt><trkpt lat="45.2514984" lon="8.616054"><ele>111.0</ele><time>2026-04-25T14:37:11.056Z</time></trkpt><trkpt lat="45.2515752" lon="8.6159178"><ele>111.0</ele><time>2026-04-25T14:37:12.057Z</time></trkpt><trkpt lat="45.2516552" lon="8.6157688"><ele>111.0</ele><time>2026-04-25T14:37:13.057Z</time></trkpt><trkpt lat="45.251731" lon="8.6156252"><ele>111.0</ele><time>2026-04-25T14:37:14.055Z</time></trkpt><trkpt lat="45.2518038" lon="8.6154876"><ele>111.0</ele><time>2026-04-25T14:37:15.056Z</time></trkpt><trkpt lat="45.2518713" lon="8.6153639"><ele>111.4</ele><time>2026-04-25T14:37:16.056Z</time></trkpt><trkpt lat="45.2519359" lon="8.6152432"><ele>111.8</ele><time>2026-04-25T14:37:17.056Z</time></trkpt><trkpt lat="45.2519965" lon="8.615137"><ele>112.20000000000002</ele><time>2026-04-25T14:37:18.057Z</time></trkpt><trkpt lat="45.2520437" lon="8.6150364"><ele>112.60000000000001</ele><time>2026-04-25T14:37:19.056Z</time></trkpt><trkpt lat="45.2520934" lon="8.6149493"><ele>113.0</ele><time>2026-04-25T14:37:20.057Z</time></trkpt><trkpt lat="45.252152" lon="8.6148649"><ele>113.0</ele><time>2026-04-25T14:37:21.056Z</time></trkpt><trkpt lat="45.2522134" lon="8.614785"><ele>113.00000000000001</ele><time>2026-04-25T14:37:22.056Z</time></trkpt><trkpt lat="45.2522865" lon="8.6147209"><ele>113.00000000000001</ele><time>2026-04-25T14:37:23.057Z</time></trkpt><trkpt lat="45.2523691" lon="8.6146611"><ele>113.0</ele><time>2026-04-25T14:37:24.057Z</time></trkpt><trkpt lat="45.252455" lon="8.6146083"><ele>113.0</ele><time>2026-04-25T14:37:25.057Z</time></trkpt><trkpt lat="45.2525471" lon="8.6145514"><ele>113.0</ele><time>2026-04-25T14:37:26.057Z</time></trkpt><trkpt lat="45.2526429" lon="8.614499"><ele>113.00000000000001</ele><time>2026-04-25T14:37:27.056Z</time></trkpt><trkpt lat="45.2527382" lon="8.6144405"><ele>113.00000000000001</ele><time>2026-04-25T14:37:28.055Z</time></trkpt><trkpt lat="45.2528432" lon="8.6143771"><ele>113.0</ele><time>2026-04-25T14:37:29.056Z</time></trkpt><trkpt lat="45.252944" lon="8.6143127"><ele>113.0</ele><time>2026-04-25T14:37:30.056Z</time></trkpt><trkpt lat="45.2530451" lon="8.6142508"><ele>113.4</ele><time>2026-04-25T14:37:31.057Z</time></trkpt><trkpt lat="45.2531468" lon="8.6141851"><ele>113.80000000000001</ele><time>2026-04-25T14:37:32.057Z</time></trkpt><trkpt lat="45.2532508" lon="8.6141315"><ele>114.2</ele><time>2026-04-25T14:37:33.057Z</time></trkpt><trkpt lat="45.2533567" lon="8.6140806"><ele>114.6</ele><time>2026-04-25T14:37:34.056Z</time></trkpt><trkpt lat="45.2534598" lon="8.6140258"><ele>115.0</ele><time>2026-04-25T14:37:35.057Z</time></trkpt><trkpt lat="45.2535591" lon="8.6139655"><ele>115.0</ele><time>2026-04-25T14:37:36.057Z</time></trkpt><trkpt lat="45.2536612" lon="8.6139083"><ele>115.0</ele><time>2026-04-25T14:37:37.056Z</time></trkpt><trkpt lat="45.2537644" lon="8.6138482"><ele>115.0</ele><time>2026-04-25T14:37:38.056Z</time></trkpt><trkpt lat="45.2538705" lon="8.6137908"><ele>115.0</ele><time>2026-04-25T14:37:39.055Z</time></trkpt><trkpt lat="45.2539802" lon="8.6137324"><ele>115.0</ele><time>2026-04-25T14:37:40.055Z</time></trkpt><trkpt lat="45.2540865" lon="8.6136606"><ele>115.0</ele><time>2026-04-25T14:37:41.055Z</time></trkpt><trkpt lat="45.2541943" lon="8.6135898"><ele>115.0</ele><time>2026-04-25T14:37:42.057Z</time></trkpt><trkpt lat="45.2542987" lon="8.6135241"><ele>115.0</ele><time>2026-04-25T14:37:43.056Z</time></trkpt><trkpt lat="45.2544013" lon="8.6134525"><ele>115.0</ele><time>2026-04-25T14:37:44.057Z</time></trkpt><trkpt lat="45.2544981" lon="8.6133761"><ele>115.0</ele><time>2026-04-25T14:37:45.056Z</time></trkpt><trkpt lat="45.2545878" lon="8.6133091"><ele>115.0</ele><time>2026-04-25T14:37:46.055Z</time></trkpt><trkpt lat="45.2546688" lon="8.6132506"><ele>115.0</ele><time>2026-04-25T14:37:47.055Z</time></trkpt><trkpt lat="45.2547481" lon="8.6131996"><ele>115.0</ele><time>2026-04-25T14:37:48.057Z</time></trkpt><trkpt lat="45.2548231" lon="8.613146"><ele>115.16666666666667</ele><time>2026-04-25T14:37:49.057Z</time></trkpt><trkpt lat="45.2548962" lon="8.6130947"><ele>115.33333333333334</ele><time>2026-04-25T14:37:50.056Z</time></trkpt><trkpt lat="45.2549676" lon="8.6130459"><ele>115.5</ele><time>2026-04-25T14:37:51.057Z</time></trkpt><trkpt lat="45.2550347" lon="8.6130011"><ele>115.66666666666666</ele><time>2026-04-25T14:37:52.056Z</time></trkpt><trkpt lat="45.255103" lon="8.61296"><ele>115.83333333333333</ele><time>2026-04-25T14:37:53.057Z</time></trkpt><trkpt lat="45.2551678" lon="8.6129153"><ele>116.0</ele><time>2026-04-25T14:37:54.056Z</time></trkpt><trkpt lat="45.2552558" lon="8.6128571"><ele>115.83333333333333</ele><time>2026-04-25T14:37:56.057Z</time></trkpt><trkpt lat="45.2553167" lon="8.6128111"><ele>115.66666666666666</ele><time>2026-04-25T14:38:03.056Z</time></trkpt><trkpt lat="45.255349" lon="8.6127013"><ele>115.5</ele><time>2026-04-25T14:38:05.055Z</time></trkpt><trkpt lat="45.2553549" lon="8.6125295"><ele>115.33333333333334</ele><time>2026-04-25T14:38:07.055Z</time></trkpt><trkpt lat="45.2553406" lon="8.6124295"><ele>115.16666666666667</ele><time>2026-04-25T14:38:08.055Z</time></trkpt><trkpt lat="45.25532" lon="8.612328"><ele>115.0</ele><time>2026-04-25T14:38:09.056Z</time></trkpt><trkpt lat="45.2552865" lon="8.6122256"><ele>115.00000000000001</ele><time>2026-04-25T14:38:10.056Z</time></trkpt><trkpt lat="45.2552414" lon="8.6121226"><ele>115.0</ele><time>2026-04-25T14:38:11.056Z</time></trkpt><trkpt lat="45.255203" lon="8.6120165"><ele>115.0</ele><time>2026-04-25T14:38:12.055Z</time></trkpt><trkpt lat="45.2551632" lon="8.6119073"><ele>115.0</ele><time>2026-04-25T14:38:13.055Z</time></trkpt><trkpt lat="45.2551154" lon="8.6117961"><ele>115.00000000000001</ele><time>2026-04-25T14:38:14.056Z</time></trkpt><trkpt lat="45.2550682" lon="8.6116739"><ele>115.0</ele><time>2026-04-25T14:38:15.056Z</time></trkpt><trkpt lat="45.2550157" lon="8.6115495"><ele>115.0</ele><time>2026-04-25T14:38:16.057Z</time></trkpt><trkpt lat="45.254963" lon="8.611412"><ele>115.0</ele><time>2026-04-25T14:38:17.057Z</time></trkpt><trkpt lat="45.2549121" lon="8.6112675"><ele>115.0</ele><time>2026-04-25T14:38:18.057Z</time></trkpt><trkpt lat="45.25486" lon="8.6111274"><ele>115.0</ele><time>2026-04-25T14:38:19.056Z</time></trkpt><trkpt lat="45.254809" lon="8.610993"><ele>115.0</ele><time>2026-04-25T14:38:20.055Z</time></trkpt><trkpt lat="45.2547632" lon="8.6108585"><ele>115.00000000000001</ele><time>2026-04-25T14:38:21.055Z</time></trkpt><trkpt lat="45.254726" lon="8.6107372"><ele>115.0</ele><time>2026-04-25T14:38:22.055Z</time></trkpt><trkpt lat="45.2546915" lon="8.610635"><ele>115.0</ele><time>2026-04-25T14:38:23.057Z</time></trkpt><trkpt lat="45.2546596" lon="8.6105394"><ele>115.0</ele><time>2026-04-25T14:38:24.056Z</time></trkpt><trkpt lat="45.2546296" lon="8.6104382"><ele>115.00000000000001</ele><time>2026-04-25T14:38:25.055Z</time></trkpt><trkpt lat="45.2546001" lon="8.6103416"><ele>115.0</ele><time>2026-04-25T14:38:26.056Z</time></trkpt><trkpt lat="45.2545738" lon="8.6102548"><ele>114.8</ele><time>2026-04-25T14:38:27.056Z</time></trkpt><trkpt lat="45.2545206" lon="8.6101018"><ele>114.6</ele><time>2026-04-25T14:38:29.055Z</time></trkpt><trkpt lat="45.2544574" lon="8.6099544"><ele>114.4</ele><time>2026-04-25T14:38:31.055Z</time></trkpt><trkpt lat="45.2544166" lon="8.6098802"><ele>114.2</ele><time>2026-04-25T14:38:32.057Z</time></trkpt><trkpt lat="45.2543756" lon="8.6097987"><ele>114.0</ele><time>2026-04-25T14:38:33.055Z</time></trkpt><trkpt lat="45.2543319" lon="8.6097183"><ele>114.0</ele><time>2026-04-25T14:38:34.055Z</time></trkpt><trkpt lat="45.2542859" lon="8.6096406"><ele>114.0</ele><time>2026-04-25T14:38:35.055Z</time></trkpt><trkpt lat="45.2542012" lon="8.6095222"><ele>114.0</ele><time>2026-04-25T14:38:37.056Z</time></trkpt><trkpt lat="45.2540865" lon="8.6094731"><ele>114.0</ele><time>2026-04-25T14:38:39.057Z</time></trkpt><trkpt lat="45.2540156" lon="8.6094863"><ele>114.0</ele><time>2026-04-25T14:38:40.055Z</time></trkpt><trkpt lat="45.2539425" lon="8.6095026"><ele>114.0</ele><time>2026-04-25T14:38:41.054Z</time></trkpt><trkpt lat="45.253864" lon="8.6095258"><ele>114.0</ele><time>2026-04-25T14:38:42.057Z</time></trkpt><trkpt lat="45.2537809" lon="8.6095552"><ele>114.0</ele><time>2026-04-25T14:38:43.056Z</time></trkpt><trkpt lat="45.2536973" lon="8.6095803"><ele>114.0</ele><time>2026-04-25T14:38:44.055Z</time></trkpt><trkpt lat="45.2536196" lon="8.6096066"><ele>114.0</ele><time>2026-04-25T14:38:45.056Z</time></trkpt><trkpt lat="45.2535478" lon="8.6096267"><ele>114.0</ele><time>2026-04-25T14:38:46.056Z</time></trkpt><trkpt lat="45.2534784" lon="8.6096507"><ele>114.0</ele><time>2026-04-25T14:38:47.057Z</time></trkpt><trkpt lat="45.253405" lon="8.6096551"><ele>114.0</ele><time>2026-04-25T14:38:48.056Z</time></trkpt><trkpt lat="45.253331" lon="8.609653"><ele>114.0</ele><time>2026-04-25T14:38:49.054Z</time></trkpt><trkpt lat="45.2532561" lon="8.6096535"><ele>114.0</ele><time>2026-04-25T14:38:50.056Z</time></trkpt><trkpt lat="45.2531526" lon="8.609628"><ele>114.0</ele><time>2026-04-25T14:38:52.056Z</time></trkpt><trkpt lat="45.2530699" lon="8.6095543"><ele>114.0</ele><time>2026-04-25T14:38:54.057Z</time></trkpt><trkpt lat="45.253019" lon="8.6094114"><ele>113.4</ele><time>2026-04-25T14:38:56.056Z</time></trkpt><trkpt lat="45.2529958" lon="8.6092985"><ele>112.80000000000001</ele><time>2026-04-25T14:38:57.056Z</time></trkpt><trkpt lat="45.2529741" lon="8.6091721"><ele>112.19999999999999</ele><time>2026-04-25T14:38:58.055Z</time></trkpt><trkpt lat="45.2529456" lon="8.6090329"><ele>111.6</ele><time>2026-04-25T14:38:59.056Z</time></trkpt><trkpt lat="45.25292" lon="8.6088921"><ele>111.0</ele><time>2026-04-25T14:39:00.056Z</time></trkpt><trkpt lat="45.2528955" lon="8.6087339"><ele>111.0</ele><time>2026-04-25T14:39:01.056Z</time></trkpt><trkpt lat="45.2528633" lon="8.6085696"><ele>111.0</ele><time>2026-04-25T14:39:02.055Z</time></trkpt><trkpt lat="45.2528395" lon="8.6084001"><ele>111.0</ele><time>2026-04-25T14:39:03.056Z</time></trkpt><trkpt lat="45.2528144" lon="8.6082224"><ele>111.0</ele><time>2026-04-25T14:39:04.056Z</time></trkpt><trkpt lat="45.252793" lon="8.6080485"><ele>111.0</ele><time>2026-04-25T14:39:05.056Z</time></trkpt><trkpt lat="45.2527714" lon="8.6078819"><ele>111.0</ele><time>2026-04-25T14:39:06.055Z</time></trkpt><trkpt lat="45.2527463" lon="8.6077158"><ele>111.0</ele><time>2026-04-25T14:39:07.055Z</time></trkpt><trkpt lat="45.2527208" lon="8.6075657"><ele>111.0</ele><time>2026-04-25T14:39:08.057Z</time></trkpt><trkpt lat="45.2527043" lon="8.6074086"><ele>111.16666666666667</ele><time>2026-04-25T14:39:09.056Z</time></trkpt><trkpt lat="45.2526817" lon="8.6072709"><ele>111.33333333333334</ele><time>2026-04-25T14:39:10.055Z</time></trkpt><trkpt lat="45.2526557" lon="8.6071399"><ele>111.5</ele><time>2026-04-25T14:39:11.056Z</time></trkpt><trkpt lat="45.2526286" lon="8.6070283"><ele>111.66666666666667</ele><time>2026-04-25T14:39:12.056Z</time></trkpt><trkpt lat="45.2526016" lon="8.6069211"><ele>111.83333333333334</ele><time>2026-04-25T14:39:13.055Z</time></trkpt><trkpt lat="45.2525777" lon="8.6068305"><ele>112.0</ele><time>2026-04-25T14:39:14.056Z</time></trkpt><trkpt lat="45.2525396" lon="8.6066865"><ele>111.8</ele><time>2026-04-25T14:39:16.056Z</time></trkpt><trkpt lat="45.2524946" lon="8.6065611"><ele>111.6</ele><time>2026-04-25T14:39:18.056Z</time></trkpt><trkpt lat="45.2524469" lon="8.6064014"><ele>111.39999999999999</ele><time>2026-04-25T14:39:20.055Z</time></trkpt><trkpt lat="45.2524022" lon="8.6062373"><ele>111.19999999999999</ele><time>2026-04-25T14:39:22.056Z</time></trkpt><trkpt lat="45.2523758" lon="8.6061406"><ele>111.0</ele><time>2026-04-25T14:39:23.054Z</time></trkpt><trkpt lat="45.2523518" lon="8.606046"><ele>111.0</ele><time>2026-04-25T14:39:24.056Z</time></trkpt><trkpt lat="45.2523315" lon="8.6059514"><ele>111.0</ele><time>2026-04-25T14:39:25.055Z</time></trkpt><trkpt lat="45.2523177" lon="8.6058551"><ele>111.0</ele><time>2026-04-25T14:39:26.054Z</time></trkpt><trkpt lat="45.2523055" lon="8.6057579"><ele>111.0</ele><time>2026-04-25T14:39:27.056Z</time></trkpt><trkpt lat="45.2522901" lon="8.6056501"><ele>111.0</ele><time>2026-04-25T14:39:28.056Z</time></trkpt><trkpt lat="45.2522757" lon="8.6055471"><ele>111.0</ele><time>2026-04-25T14:39:29.056Z</time></trkpt><trkpt lat="45.2522537" lon="8.605431"><ele>111.0</ele><time>2026-04-25T14:39:30.056Z</time></trkpt><trkpt lat="45.252232" lon="8.6053152"><ele>110.83333333333333</ele><time>2026-04-25T14:39:31.056Z</time></trkpt><trkpt lat="45.2522069" lon="8.6052048"><ele>110.66666666666666</ele><time>2026-04-25T14:39:32.056Z</time></trkpt><trkpt lat="45.2521704" lon="8.6051001"><ele>110.5</ele><time>2026-04-25T14:39:33.056Z</time></trkpt><trkpt lat="45.2521234" lon="8.6050018"><ele>110.33333333333333</ele><time>2026-04-25T14:39:34.056Z</time></trkpt><trkpt lat="45.2520724" lon="8.6049117"><ele>110.16666666666666</ele><time>2026-04-25T14:39:35.056Z</time></trkpt><trkpt lat="45.2520138" lon="8.6048301"><ele>110.0</ele><time>2026-04-25T14:39:36.055Z</time></trkpt><trkpt lat="45.2519539" lon="8.6047586"><ele>109.99999999999999</ele><time>2026-04-25T14:39:37.056Z</time></trkpt><trkpt lat="45.2518968" lon="8.6046801"><ele>110.0</ele><time>2026-04-25T14:39:38.056Z</time></trkpt><trkpt lat="45.2518366" lon="8.6046095"><ele>110.0</ele><time>2026-04-25T14:39:39.054Z</time></trkpt><trkpt lat="45.2517797" lon="8.6045369"><ele>110.0</ele><time>2026-04-25T14:39:40.056Z</time></trkpt><trkpt lat="45.2517258" lon="8.6044485"><ele>109.99999999999999</ele><time>2026-04-25T14:39:41.055Z</time></trkpt><trkpt lat="45.2516748" lon="8.6043627"><ele>110.0</ele><time>2026-04-25T14:39:42.056Z</time></trkpt><trkpt lat="45.2516246" lon="8.6042695"><ele>109.99999999999999</ele><time>2026-04-25T14:39:43.055Z</time></trkpt><trkpt lat="45.2515785" lon="8.6041744"><ele>110.0</ele><time>2026-04-25T14:39:44.056Z</time></trkpt><trkpt lat="45.2515289" lon="8.604081"><ele>110.0</ele><time>2026-04-25T14:39:45.056Z</time></trkpt><trkpt lat="45.2514763" lon="8.6039825"><ele>110.0</ele><time>2026-04-25T14:39:46.056Z</time></trkpt><trkpt lat="45.2514272" lon="8.6038799"><ele>109.99999999999999</ele><time>2026-04-25T14:39:47.055Z</time></trkpt><trkpt lat="45.2513863" lon="8.6037751"><ele>110.0</ele><time>2026-04-25T14:39:48.055Z</time></trkpt><trkpt lat="45.2513466" lon="8.6036664"><ele>109.83333333333333</ele><time>2026-04-25T14:39:49.056Z</time></trkpt><trkpt lat="45.2513025" lon="8.6035524"><ele>109.66666666666666</ele><time>2026-04-25T14:39:50.056Z</time></trkpt><trkpt lat="45.2512685" lon="8.6034401"><ele>109.5</ele><time>2026-04-25T14:39:51.055Z</time></trkpt><trkpt lat="45.2512457" lon="8.6033328"><ele>109.33333333333334</ele><time>2026-04-25T14:39:52.055Z</time></trkpt><trkpt lat="45.2512118" lon="8.6032268"><ele>109.16666666666667</ele><time>2026-04-25T14:39:53.056Z</time></trkpt><trkpt lat="45.2511769" lon="8.6031156"><ele>109.0</ele><time>2026-04-25T14:39:54.055Z</time></trkpt><trkpt lat="45.2511485" lon="8.603019"><ele>109.0</ele><time>2026-04-25T14:39:55.056Z</time></trkpt><trkpt lat="45.2511216" lon="8.6029324"><ele>109.0</ele><time>2026-04-25T14:39:56.055Z</time></trkpt><trkpt lat="45.2510553" lon="8.6027885"><ele>109.0</ele><time>2026-04-25T14:39:58.056Z</time></trkpt><trkpt lat="45.250964" lon="8.6026645"><ele>109.0</ele><time>2026-04-25T14:40:00.056Z</time></trkpt><trkpt lat="45.2509144" lon="8.6025975"><ele>109.0</ele><time>2026-04-25T14:40:01.055Z</time></trkpt><trkpt lat="45.250866" lon="8.6025177"><ele>109.14285714285714</ele><time>2026-04-25T14:40:02.056Z</time></trkpt><trkpt lat="45.2508183" lon="8.6024406"><ele>109.28571428571429</ele><time>2026-04-25T14:40:03.055Z</time></trkpt><trkpt lat="45.2507744" lon="8.602365"><ele>109.42857142857142</ele><time>2026-04-25T14:40:04.056Z</time></trkpt><trkpt lat="45.2507378" lon="8.6022811"><ele>109.57142857142857</ele><time>2026-04-25T14:40:05.056Z</time></trkpt><trkpt lat="45.2507044" lon="8.6021953"><ele>109.71428571428571</ele><time>2026-04-25T14:40:06.055Z</time></trkpt><trkpt lat="45.2506749" lon="8.602102"><ele>109.85714285714285</ele><time>2026-04-25T14:40:07.055Z</time></trkpt><trkpt lat="45.2506525" lon="8.6019951"><ele>110.0</ele><time>2026-04-25T14:40:08.055Z</time></trkpt><trkpt lat="45.2506268" lon="8.601889"><ele>109.83333333333333</ele><time>2026-04-25T14:40:09.056Z</time></trkpt><trkpt lat="45.2506045" lon="8.6017889"><ele>109.66666666666666</ele><time>2026-04-25T14:40:10.056Z</time></trkpt><trkpt lat="45.2505813" lon="8.6016881"><ele>109.5</ele><time>2026-04-25T14:40:11.055Z</time></trkpt><trkpt lat="45.2505644" lon="8.6015856"><ele>109.33333333333334</ele><time>2026-04-25T14:40:12.055Z</time></trkpt><trkpt lat="45.2505438" lon="8.6014806"><ele>109.16666666666667</ele><time>2026-04-25T14:40:13.055Z</time></trkpt><trkpt lat="45.2505253" lon="8.6013782"><ele>109.0</ele><time>2026-04-25T14:40:14.056Z</time></trkpt><trkpt lat="45.2505042" lon="8.6012731"><ele>109.16666666666667</ele><time>2026-04-25T14:40:15.054Z</time></trkpt><trkpt lat="45.2504874" lon="8.6011613"><ele>109.33333333333334</ele><time>2026-04-25T14:40:16.055Z</time></trkpt><trkpt lat="45.2504741" lon="8.601044"><ele>109.5</ele><time>2026-04-25T14:40:17.055Z</time></trkpt><trkpt lat="45.2504657" lon="8.6009294"><ele>109.66666666666666</ele><time>2026-04-25T14:40:18.055Z</time></trkpt><trkpt lat="45.2504571" lon="8.6008131"><ele>109.83333333333333</ele><time>2026-04-25T14:40:19.056Z</time></trkpt><trkpt lat="45.2504545" lon="8.6006966"><ele>110.0</ele><time>2026-04-25T14:40:20.054Z</time></trkpt><trkpt lat="45.2504541" lon="8.6005827"><ele>109.99999999999999</ele><time>2026-04-25T14:40:21.056Z</time></trkpt><trkpt lat="45.2504554" lon="8.6004683"><ele>110.0</ele><time>2026-04-25T14:40:22.054Z</time></trkpt><trkpt lat="45.2504642" lon="8.6003579"><ele>110.0</ele><time>2026-04-25T14:40:23.055Z</time></trkpt><trkpt lat="45.2504757" lon="8.6002338"><ele>110.0</ele><time>2026-04-25T14:40:24.054Z</time></trkpt><trkpt lat="45.2504834" lon="8.600118"><ele>109.99999999999999</ele><time>2026-04-25T14:40:25.054Z</time></trkpt><trkpt lat="45.250492" lon="8.6000027"><ele>110.0</ele><time>2026-04-25T14:40:26.055Z</time></trkpt><trkpt lat="45.2505003" lon="8.5998841"><ele>110.16666666666666</ele><time>2026-04-25T14:40:27.055Z</time></trkpt><trkpt lat="45.2505133" lon="8.5997641"><ele>110.33333333333333</ele><time>2026-04-25T14:40:28.056Z</time></trkpt><trkpt lat="45.2505206" lon="8.5996452"><ele>110.5</ele><time>2026-04-25T14:40:29.055Z</time></trkpt><trkpt lat="45.2505264" lon="8.5995206"><ele>110.66666666666666</ele><time>2026-04-25T14:40:30.055Z</time></trkpt><trkpt lat="45.2505355" lon="8.5994007"><ele>110.83333333333333</ele><time>2026-04-25T14:40:31.054Z</time></trkpt><trkpt lat="45.2505485" lon="8.5992753"><ele>111.0</ele><time>2026-04-25T14:40:32.054Z</time></trkpt><trkpt lat="45.250558" lon="8.5991519"><ele>111.0</ele><time>2026-04-25T14:40:33.055Z</time></trkpt><trkpt lat="45.250563" lon="8.5990266"><ele>111.0</ele><time>2026-04-25T14:40:34.056Z</time></trkpt><trkpt lat="45.2505692" lon="8.598907"><ele>111.0</ele><time>2026-04-25T14:40:35.055Z</time></trkpt><trkpt lat="45.2505801" lon="8.5987835"><ele>111.0</ele><time>2026-04-25T14:40:36.055Z</time></trkpt><trkpt lat="45.2505879" lon="8.5986634"><ele>111.0</ele><time>2026-04-25T14:40:37.054Z</time></trkpt><trkpt lat="45.2505978" lon="8.5985469"><ele>111.0</ele><time>2026-04-25T14:40:38.054Z</time></trkpt><trkpt lat="45.2506024" lon="8.5984311"><ele>110.8</ele><time>2026-04-25T14:40:39.056Z</time></trkpt><trkpt lat="45.2506019" lon="8.5983253"><ele>110.6</ele><time>2026-04-25T14:40:40.056Z</time></trkpt><trkpt lat="45.2506098" lon="8.5982267"><ele>110.4</ele><time>2026-04-25T14:40:41.056Z</time></trkpt><trkpt lat="45.2506258" lon="8.5980615"><ele>110.2</ele><time>2026-04-25T14:40:43.055Z</time></trkpt><trkpt lat="45.2507083" lon="8.5979658"><ele>110.0</ele><time>2026-04-25T14:40:45.055Z</time></trkpt><trkpt lat="45.250838" lon="8.5979137"><ele>110.33333333333333</ele><time>2026-04-25T14:40:47.056Z</time></trkpt><trkpt lat="45.2509171" lon="8.597887"><ele>110.66666666666666</ele><time>2026-04-25T14:40:48.055Z</time></trkpt><trkpt lat="45.2510021" lon="8.5978518"><ele>111.0</ele><time>2026-04-25T14:40:49.055Z</time></trkpt><trkpt lat="45.2510848" lon="8.5978265"><ele>111.33333333333334</ele><time>2026-04-25T14:40:50.055Z</time></trkpt><trkpt lat="45.2511705" lon="8.5977922"><ele>111.66666666666667</ele><time>2026-04-25T14:40:51.055Z</time></trkpt><trkpt lat="45.2512549" lon="8.5977658"><ele>112.0</ele><time>2026-04-25T14:40:52.055Z</time></trkpt><trkpt lat="45.2513314" lon="8.5977468"><ele>112.00000000000001</ele><time>2026-04-25T14:40:53.055Z</time></trkpt><trkpt lat="45.2514141" lon="8.5977264"><ele>112.0</ele><time>2026-04-25T14:40:54.056Z</time></trkpt><trkpt lat="45.2514989" lon="8.5977089"><ele>112.0</ele><time>2026-04-25T14:40:55.054Z</time></trkpt><trkpt lat="45.2515855" lon="8.5976905"><ele>112.0</ele><time>2026-04-25T14:40:56.055Z</time></trkpt><trkpt lat="45.2516694" lon="8.5976587"><ele>112.00000000000001</ele><time>2026-04-25T14:40:57.054Z</time></trkpt><trkpt lat="45.2517465" lon="8.597635"><ele>112.0</ele><time>2026-04-25T14:40:58.055Z</time></trkpt><trkpt lat="45.2518277" lon="8.5976111"><ele>112.00000000000001</ele><time>2026-04-25T14:40:59.055Z</time></trkpt><trkpt lat="45.2519033" lon="8.5975717"><ele>112.0</ele><time>2026-04-25T14:41:00.055Z</time></trkpt><trkpt lat="45.2519893" lon="8.597537"><ele>112.0</ele><time>2026-04-25T14:41:01.055Z</time></trkpt><trkpt lat="45.2520718" lon="8.5975005"><ele>112.0</ele><time>2026-04-25T14:41:02.055Z</time></trkpt><trkpt lat="45.2521521" lon="8.597461"><ele>112.00000000000001</ele><time>2026-04-25T14:41:03.056Z</time></trkpt><trkpt lat="45.252234" lon="8.5974345"><ele>112.0</ele><time>2026-04-25T14:41:04.055Z</time></trkpt><trkpt lat="45.2523221" lon="8.5974183"><ele>112.00000000000001</ele><time>2026-04-25T14:41:05.055Z</time></trkpt><trkpt lat="45.2524059" lon="8.5973963"><ele>112.0</ele><time>2026-04-25T14:41:06.053Z</time></trkpt><trkpt lat="45.2524843" lon="8.5973811"><ele>112.0</ele><time>2026-04-25T14:41:07.056Z</time></trkpt><trkpt lat="45.2525522" lon="8.5973648"><ele>112.0</ele><time>2026-04-25T14:41:08.055Z</time></trkpt><trkpt lat="45.2526204" lon="8.5973579"><ele>112.00000000000001</ele><time>2026-04-25T14:41:09.055Z</time></trkpt><trkpt lat="45.2527425" lon="8.5973583"><ele>112.0</ele><time>2026-04-25T14:41:11.056Z</time></trkpt><trkpt lat="45.2528497" lon="8.5973689"><ele>112.0</ele><time>2026-04-25T14:41:13.056Z</time></trkpt><trkpt lat="45.2529431" lon="8.5973882"><ele>111.99999999999999</ele><time>2026-04-25T14:41:15.056Z</time></trkpt><trkpt lat="45.2530347" lon="8.5973958"><ele>111.99999999999999</ele><time>2026-04-25T14:41:17.056Z</time></trkpt><trkpt lat="45.2531167" lon="8.597406"><ele>112.0</ele><time>2026-04-25T14:41:19.056Z</time></trkpt><trkpt lat="45.2532032" lon="8.5974029"><ele>112.0</ele><time>2026-04-25T14:41:21.055Z</time></trkpt><trkpt lat="45.2533037" lon="8.5974029"><ele>111.83333333333334</ele><time>2026-04-25T14:41:23.055Z</time></trkpt><trkpt lat="45.2534189" lon="8.5973928"><ele>111.66666666666667</ele><time>2026-04-25T14:41:25.055Z</time></trkpt><trkpt lat="45.2534815" lon="8.5973786"><ele>111.5</ele><time>2026-04-25T14:41:26.055Z</time></trkpt><trkpt lat="45.2535446" lon="8.5973501"><ele>111.33333333333334</ele><time>2026-04-25T14:41:27.055Z</time></trkpt><trkpt lat="45.253622" lon="8.5973103"><ele>111.16666666666667</ele><time>2026-04-25T14:41:28.055Z</time></trkpt><trkpt lat="45.2536913" lon="8.5972742"><ele>111.0</ele><time>2026-04-25T14:41:29.056Z</time></trkpt><trkpt lat="45.2537724" lon="8.5972335"><ele>111.0</ele><time>2026-04-25T14:41:30.053Z</time></trkpt><trkpt lat="45.2538561" lon="8.5971875"><ele>111.0</ele><time>2026-04-25T14:41:31.054Z</time></trkpt><trkpt lat="45.253941" lon="8.5971386"><ele>111.0</ele><time>2026-04-25T14:41:32.055Z</time></trkpt><trkpt lat="45.2540301" lon="8.5970916"><ele>111.0</ele><time>2026-04-25T14:41:33.055Z</time></trkpt><trkpt lat="45.2541108" lon="8.5970548"><ele>111.0</ele><time>2026-04-25T14:41:34.055Z</time></trkpt><trkpt lat="45.2541827" lon="8.5970149"><ele>111.0</ele><time>2026-04-25T14:41:35.056Z</time></trkpt><trkpt lat="45.2542471" lon="8.596979"><ele>111.0</ele><time>2026-04-25T14:41:36.054Z</time></trkpt><trkpt lat="45.2543445" lon="8.5969274"><ele>111.0</ele><time>2026-04-25T14:41:38.056Z</time></trkpt><trkpt lat="45.2544095" lon="8.5969035"><ele>111.0</ele><time>2026-04-25T14:41:40.054Z</time></trkpt><trkpt lat="45.254459" lon="8.596834"><ele>111.0</ele><time>2026-04-25T14:41:48.056Z</time></trkpt><trkpt lat="45.2544697" lon="8.5966968"><ele>111.0</ele><time>2026-04-25T14:41:50.055Z</time></trkpt><trkpt lat="45.2544748" lon="8.596586"><ele>111.0</ele><time>2026-04-25T14:41:51.054Z</time></trkpt><trkpt lat="45.2544821" lon="8.5964371"><ele>111.0</ele><time>2026-04-25T14:41:52.055Z</time></trkpt><trkpt lat="45.254487" lon="8.5962807"><ele>111.0</ele><time>2026-04-25T14:41:53.054Z</time></trkpt><trkpt lat="45.2544979" lon="8.5961004"><ele>111.0</ele><time>2026-04-25T14:41:54.055Z</time></trkpt><trkpt lat="45.2545058" lon="8.595924"><ele>111.0</ele><time>2026-04-25T14:41:55.055Z</time></trkpt><trkpt lat="45.2545069" lon="8.5957277"><ele>111.0</ele><time>2026-04-25T14:41:56.054Z</time></trkpt><trkpt lat="45.2545123" lon="8.5955217"><ele>111.0</ele><time>2026-04-25T14:41:57.055Z</time></trkpt><trkpt lat="45.2545117" lon="8.5953086"><ele>111.0</ele><time>2026-04-25T14:41:58.056Z</time></trkpt><trkpt lat="45.2545048" lon="8.5950788"><ele>111.0</ele><time>2026-04-25T14:41:59.055Z</time></trkpt><trkpt lat="45.2544911" lon="8.5948314"><ele>111.0</ele><time>2026-04-25T14:42:00.055Z</time></trkpt><trkpt lat="45.2544743" lon="8.5945846"><ele>111.0</ele><time>2026-04-25T14:42:01.055Z</time></trkpt><trkpt lat="45.2544492" lon="8.5943315"><ele>111.33333333333334</ele><time>2026-04-25T14:42:02.054Z</time></trkpt><trkpt lat="45.2544287" lon="8.5940695"><ele>111.66666666666667</ele><time>2026-04-25T14:42:03.054Z</time></trkpt><trkpt lat="45.2544126" lon="8.5938019"><ele>112.0</ele><time>2026-04-25T14:42:04.055Z</time></trkpt><trkpt lat="45.2544034" lon="8.5935318"><ele>112.0</ele><time>2026-04-25T14:42:05.054Z</time></trkpt><trkpt lat="45.2543984" lon="8.5932506"><ele>112.0</ele><time>2026-04-25T14:42:06.055Z</time></trkpt><trkpt lat="45.254397" lon="8.5929703"><ele>112.0</ele><time>2026-04-25T14:42:07.055Z</time></trkpt><trkpt lat="45.2543971" lon="8.5926856"><ele>112.0</ele><time>2026-04-25T14:42:08.056Z</time></trkpt><trkpt lat="45.2543928" lon="8.5924045"><ele>112.0</ele><time>2026-04-25T14:42:09.053Z</time></trkpt><trkpt lat="45.2543869" lon="8.5921184"><ele>112.0</ele><time>2026-04-25T14:42:10.055Z</time></trkpt><trkpt lat="45.2543716" lon="8.5918342"><ele>112.33333333333334</ele><time>2026-04-25T14:42:11.054Z</time></trkpt><trkpt lat="45.2543597" lon="8.5915461"><ele>112.66666666666666</ele><time>2026-04-25T14:42:12.055Z</time></trkpt><trkpt lat="45.2543506" lon="8.591258"><ele>113.0</ele><time>2026-04-25T14:42:13.055Z</time></trkpt><trkpt lat="45.2543437" lon="8.59097"><ele>113.0</ele><time>2026-04-25T14:42:14.055Z</time></trkpt><trkpt lat="45.2543275" lon="8.5906882"><ele>113.0</ele><time>2026-04-25T14:42:15.055Z</time></trkpt><trkpt lat="45.2542972" lon="8.5904088"><ele>113.0</ele><time>2026-04-25T14:42:16.055Z</time></trkpt><trkpt lat="45.254257" lon="8.5901287"><ele>112.66666666666666</ele><time>2026-04-25T14:42:17.055Z</time></trkpt><trkpt lat="45.2542139" lon="8.5898436"><ele>112.33333333333334</ele><time>2026-04-25T14:42:18.055Z</time></trkpt><trkpt lat="45.2541771" lon="8.5895635"><ele>112.0</ele><time>2026-04-25T14:42:19.054Z</time></trkpt><trkpt lat="45.2541391" lon="8.5892858"><ele>112.0</ele><time>2026-04-25T14:42:20.054Z</time></trkpt><trkpt lat="45.2540956" lon="8.5890075"><ele>112.0</ele><time>2026-04-25T14:42:21.054Z</time></trkpt><trkpt lat="45.2540591" lon="8.5887465"><ele>112.0</ele><time>2026-04-25T14:42:22.055Z</time></trkpt><trkpt lat="45.2540257" lon="8.5884891"><ele>112.0</ele><time>2026-04-25T14:42:23.055Z</time></trkpt><trkpt lat="45.2539883" lon="8.5882453"><ele>112.0</ele><time>2026-04-25T14:42:24.054Z</time></trkpt><trkpt lat="45.25395" lon="8.5880091"><ele>112.0</ele><time>2026-04-25T14:42:25.052Z</time></trkpt><trkpt lat="45.2539169" lon="8.5877813"><ele>111.8</ele><time>2026-04-25T14:42:26.055Z</time></trkpt><trkpt lat="45.2538824" lon="8.5875736"><ele>111.6</ele><time>2026-04-25T14:42:27.054Z</time></trkpt><trkpt lat="45.2538572" lon="8.587394"><ele>111.39999999999999</ele><time>2026-04-25T14:42:28.055Z</time></trkpt><trkpt lat="45.2538372" lon="8.5872567"><ele>111.19999999999999</ele><time>2026-04-25T14:42:29.055Z</time></trkpt><trkpt lat="45.2538254" lon="8.5871593"><ele>111.0</ele><time>2026-04-25T14:42:30.055Z</time></trkpt><trkpt lat="45.2538241" lon="8.5870698"><ele>111.0</ele><time>2026-04-25T14:42:31.054Z</time></trkpt><trkpt lat="45.2538378" lon="8.5869319"><ele>111.0</ele><time>2026-04-25T14:42:33.055Z</time></trkpt><trkpt lat="45.2538659" lon="8.5867773"><ele>111.0</ele><time>2026-04-25T14:42:35.054Z</time></trkpt><trkpt lat="45.2538754" lon="8.586675"><ele>111.0</ele><time>2026-04-25T14:42:36.055Z</time></trkpt><trkpt lat="45.2538779" lon="8.5865691"><ele>111.0</ele><time>2026-04-25T14:42:37.055Z</time></trkpt><trkpt lat="45.2538715" lon="8.5864498"><ele>111.0</ele><time>2026-04-25T14:42:38.054Z</time></trkpt><trkpt lat="45.2538655" lon="8.5863266"><ele>111.0</ele><time>2026-04-25T14:42:39.055Z</time></trkpt><trkpt lat="45.2538585" lon="8.5861968"><ele>111.0</ele><time>2026-04-25T14:42:40.054Z</time></trkpt><trkpt lat="45.2538484" lon="8.5860583"><ele>111.0</ele><time>2026-04-25T14:42:41.055Z</time></trkpt><trkpt lat="45.2538381" lon="8.5859186"><ele>111.0</ele><time>2026-04-25T14:42:42.054Z</time></trkpt><trkpt lat="45.2538264" lon="8.58579"><ele>111.0</ele><time>2026-04-25T14:42:43.055Z</time></trkpt><trkpt lat="45.2538142" lon="8.5856691"><ele>111.0</ele><time>2026-04-25T14:42:44.055Z</time></trkpt><trkpt lat="45.2538027" lon="8.5855503"><ele>111.0</ele><time>2026-04-25T14:42:45.054Z</time></trkpt><trkpt lat="45.2537919" lon="8.5854287"><ele>111.0</ele><time>2026-04-25T14:42:46.055Z</time></trkpt><trkpt lat="45.253772" lon="8.585308"><ele>111.0</ele><time>2026-04-25T14:42:47.054Z</time></trkpt><trkpt lat="45.2537476" lon="8.585187"><ele>111.0</ele><time>2026-04-25T14:42:48.054Z</time></trkpt><trkpt lat="45.2537178" lon="8.5850581"><ele>111.0</ele><time>2026-04-25T14:42:49.055Z</time></trkpt><trkpt lat="45.253677" lon="8.5849275"><ele>111.0</ele><time>2026-04-25T14:42:50.054Z</time></trkpt><trkpt lat="45.2536401" lon="8.5847968"><ele>111.0</ele><time>2026-04-25T14:42:51.055Z</time></trkpt><trkpt lat="45.2535998" lon="8.5846664"><ele>111.0</ele><time>2026-04-25T14:42:52.053Z</time></trkpt><trkpt lat="45.2535562" lon="8.5845363"><ele>111.0</ele><time>2026-04-25T14:42:53.054Z</time></trkpt><trkpt lat="45.2535105" lon="8.5844148"><ele>111.0</ele><time>2026-04-25T14:42:54.054Z</time></trkpt><trkpt lat="45.2534592" lon="8.5842947"><ele>110.6</ele><time>2026-04-25T14:42:55.053Z</time></trkpt><trkpt lat="45.2534047" lon="8.5841807"><ele>110.19999999999999</ele><time>2026-04-25T14:42:56.053Z</time></trkpt><trkpt lat="45.2533366" lon="8.5840772"><ele>109.80000000000001</ele><time>2026-04-25T14:42:57.054Z</time></trkpt><trkpt lat="45.2532646" lon="8.5839764"><ele>109.4</ele><time>2026-04-25T14:42:58.055Z</time></trkpt><trkpt lat="45.2531963" lon="8.5838709"><ele>109.0</ele><time>2026-04-25T14:42:59.053Z</time></trkpt><trkpt lat="45.2531387" lon="8.5837571"><ele>109.6</ele><time>2026-04-25T14:43:00.053Z</time></trkpt><trkpt lat="45.253079" lon="8.5836236"><ele>110.2</ele><time>2026-04-25T14:43:01.054Z</time></trkpt><trkpt lat="45.253039" lon="8.5834975"><ele>110.79999999999998</ele><time>2026-04-25T14:43:02.054Z</time></trkpt><trkpt lat="45.2529999" lon="8.5833601"><ele>111.39999999999999</ele><time>2026-04-25T14:43:03.053Z</time></trkpt><trkpt lat="45.2529722" lon="8.5832223"><ele>112.0</ele><time>2026-04-25T14:43:04.054Z</time></trkpt><trkpt lat="45.2529449" lon="8.5830849"><ele>112.0</ele><time>2026-04-25T14:43:05.054Z</time></trkpt><trkpt lat="45.2529138" lon="8.5829389"><ele>111.99999999999999</ele><time>2026-04-25T14:43:06.055Z</time></trkpt><trkpt lat="45.2528784" lon="8.5827939"><ele>111.99999999999999</ele><time>2026-04-25T14:43:07.054Z</time></trkpt><trkpt lat="45.2528459" lon="8.5826488"><ele>112.0</ele><time>2026-04-25T14:43:08.055Z</time></trkpt><trkpt lat="45.2528126" lon="8.582506"><ele>112.0</ele><time>2026-04-25T14:43:09.055Z</time></trkpt><trkpt lat="45.2527804" lon="8.5823671"><ele>111.6</ele><time>2026-04-25T14:43:10.054Z</time></trkpt><trkpt lat="45.2527629" lon="8.5822267"><ele>111.19999999999999</ele><time>2026-04-25T14:43:11.054Z</time></trkpt><trkpt lat="45.2527544" lon="8.5820878"><ele>110.8</ele><time>2026-04-25T14:43:12.053Z</time></trkpt><trkpt lat="45.2527557" lon="8.5819515"><ele>110.4</ele><time>2026-04-25T14:43:13.053Z</time></trkpt><trkpt lat="45.2527553" lon="8.5818139"><ele>110.0</ele><time>2026-04-25T14:43:14.054Z</time></trkpt><trkpt lat="45.2527433" lon="8.5816846"><ele>109.99999999999999</ele><time>2026-04-25T14:43:15.053Z</time></trkpt><trkpt lat="45.2527195" lon="8.5815514"><ele>110.0</ele><time>2026-04-25T14:43:16.055Z</time></trkpt><trkpt lat="45.2526884" lon="8.5814239"><ele>110.0</ele><time>2026-04-25T14:43:17.054Z</time></trkpt><trkpt lat="45.2526586" lon="8.5813161"><ele>110.0</ele><time>2026-04-25T14:43:18.054Z</time></trkpt><trkpt lat="45.2526398" lon="8.5811998"><ele>109.99999999999999</ele><time>2026-04-25T14:43:19.054Z</time></trkpt><trkpt lat="45.2526424" lon="8.5810844"><ele>110.0</ele><time>2026-04-25T14:43:20.054Z</time></trkpt><trkpt lat="45.2526564" lon="8.5809822"><ele>110.4</ele><time>2026-04-25T14:43:21.055Z</time></trkpt><trkpt lat="45.2526711" lon="8.5808632"><ele>110.8</ele><time>2026-04-25T14:43:22.053Z</time></trkpt><trkpt lat="45.2526686" lon="8.5807309"><ele>111.19999999999999</ele><time>2026-04-25T14:43:23.054Z</time></trkpt><trkpt lat="45.2526527" lon="8.5805958"><ele>111.6</ele><time>2026-04-25T14:43:24.053Z</time></trkpt><trkpt lat="45.2526315" lon="8.5804636"><ele>112.0</ele><time>2026-04-25T14:43:25.054Z</time></trkpt><trkpt lat="45.2526082" lon="8.5803423"><ele>112.14285714285714</ele><time>2026-04-25T14:43:26.054Z</time></trkpt><trkpt lat="45.2525932" lon="8.5802446"><ele>112.28571428571428</ele><time>2026-04-25T14:43:27.055Z</time></trkpt><trkpt lat="45.2525764" lon="8.5801428"><ele>112.42857142857143</ele><time>2026-04-25T14:43:29.054Z</time></trkpt><trkpt lat="45.2525604" lon="8.580037"><ele>112.57142857142857</ele><time>2026-04-25T14:43:31.053Z</time></trkpt><trkpt lat="45.2525472" lon="8.5799433"><ele>112.71428571428571</ele><time>2026-04-25T14:43:32.054Z</time></trkpt><trkpt lat="45.2525308" lon="8.5798511"><ele>112.85714285714286</ele><time>2026-04-25T14:43:33.055Z</time></trkpt><trkpt lat="45.2525134" lon="8.5797512"><ele>113.0</ele><time>2026-04-25T14:43:34.054Z</time></trkpt><trkpt lat="45.2525005" lon="8.5796475"><ele>112.99999999999999</ele><time>2026-04-25T14:43:35.055Z</time></trkpt><trkpt lat="45.2524798" lon="8.5795428"><ele>113.0</ele><time>2026-04-25T14:43:36.055Z</time></trkpt><trkpt lat="45.2524639" lon="8.5794513"><ele>113.0</ele><time>2026-04-25T14:43:37.054Z</time></trkpt><trkpt lat="45.2524446" lon="8.5793071"><ele>113.0</ele><time>2026-04-25T14:43:39.053Z</time></trkpt><trkpt lat="45.252428" lon="8.5792182"><ele>112.99999999999999</ele><time>2026-04-25T14:43:41.053Z</time></trkpt><trkpt lat="45.2523558" lon="8.5791721"><ele>113.0</ele><time>2026-04-25T14:43:43.054Z</time></trkpt><trkpt lat="45.2522413" lon="8.5791015"><ele>112.99999999999999</ele><time>2026-04-25T14:43:45.054Z</time></trkpt><trkpt lat="45.2521832" lon="8.5790213"><ele>113.0</ele><time>2026-04-25T14:43:46.055Z</time></trkpt><trkpt lat="45.2521325" lon="8.5789186"><ele>113.0</ele><time>2026-04-25T14:43:47.053Z</time></trkpt><trkpt lat="45.2520867" lon="8.578822"><ele>113.0</ele><time>2026-04-25T14:43:48.054Z</time></trkpt><trkpt lat="45.2520441" lon="8.578736"><ele>112.99999999999999</ele><time>2026-04-25T14:43:49.053Z</time></trkpt><trkpt lat="45.2520056" lon="8.5786514"><ele>113.0</ele><time>2026-04-25T14:43:50.053Z</time></trkpt><trkpt lat="45.2519591" lon="8.5785664"><ele>113.0</ele><time>2026-04-25T14:43:51.054Z</time></trkpt><trkpt lat="45.2518999" lon="8.5784785"><ele>113.00000000000001</ele><time>2026-04-25T14:43:52.053Z</time></trkpt><trkpt lat="45.2518212" lon="8.5784145"><ele>113.00000000000001</ele><time>2026-04-25T14:43:53.054Z</time></trkpt><trkpt lat="45.2517297" lon="8.5783677"><ele>113.0</ele><time>2026-04-25T14:43:54.054Z</time></trkpt><trkpt lat="45.2516274" lon="8.5783153"><ele>113.0</ele><time>2026-04-25T14:43:55.054Z</time></trkpt><trkpt lat="45.2515164" lon="8.5782609"><ele>113.4</ele><time>2026-04-25T14:43:56.054Z</time></trkpt><trkpt lat="45.2514099" lon="8.5782073"><ele>113.80000000000001</ele><time>2026-04-25T14:43:57.054Z</time></trkpt><trkpt lat="45.2513105" lon="8.5781567"><ele>114.2</ele><time>2026-04-25T14:43:58.055Z</time></trkpt><trkpt lat="45.2512236" lon="8.5781253"><ele>114.6</ele><time>2026-04-25T14:43:59.054Z</time></trkpt><trkpt lat="45.251149" lon="8.5780873"><ele>115.0</ele><time>2026-04-25T14:44:00.054Z</time></trkpt><trkpt lat="45.2510863" lon="8.5780547"><ele>115.0</ele><time>2026-04-25T14:44:01.054Z</time></trkpt><trkpt lat="45.2510188" lon="8.5779414"><ele>115.0</ele><time>2026-04-25T14:44:03.054Z</time></trkpt><trkpt lat="45.2510275" lon="8.5777717"><ele>115.0</ele><time>2026-04-25T14:44:05.052Z</time></trkpt><trkpt lat="45.2510484" lon="8.5776699"><ele>115.0</ele><time>2026-04-25T14:44:06.055Z</time></trkpt><trkpt lat="45.2510729" lon="8.57757"><ele>115.0</ele><time>2026-04-25T14:44:07.053Z</time></trkpt><trkpt lat="45.2510905" lon="8.5774496"><ele>114.8</ele><time>2026-04-25T14:44:08.054Z</time></trkpt><trkpt lat="45.2511021" lon="8.5773174"><ele>114.6</ele><time>2026-04-25T14:44:09.054Z</time></trkpt><trkpt lat="45.2511229" lon="8.5771755"><ele>114.4</ele><time>2026-04-25T14:44:10.055Z</time></trkpt><trkpt lat="45.2511478" lon="8.5770295"><ele>114.2</ele><time>2026-04-25T14:44:11.054Z</time></trkpt><trkpt lat="45.2511778" lon="8.5768816"><ele>114.0</ele><time>2026-04-25T14:44:12.053Z</time></trkpt><trkpt lat="45.2512145" lon="8.5767279"><ele>114.0</ele><time>2026-04-25T14:44:13.053Z</time></trkpt><trkpt lat="45.2512596" lon="8.5765665"><ele>114.0</ele><time>2026-04-25T14:44:14.054Z</time></trkpt><trkpt lat="45.2513171" lon="8.5764031"><ele>114.0</ele><time>2026-04-25T14:44:15.053Z</time></trkpt><trkpt lat="45.251377" lon="8.5762347"><ele>114.0</ele><time>2026-04-25T14:44:16.055Z</time></trkpt><trkpt lat="45.251453" lon="8.5760482"><ele>113.5</ele><time>2026-04-25T14:44:17.053Z</time></trkpt><trkpt lat="45.251521" lon="8.5758696"><ele>113.0</ele><time>2026-04-25T14:44:18.053Z</time></trkpt><trkpt lat="45.2515889" lon="8.5756787"><ele>112.5</ele><time>2026-04-25T14:44:19.054Z</time></trkpt><trkpt lat="45.2516545" lon="8.5754896"><ele>112.0</ele><time>2026-04-25T14:44:20.054Z</time></trkpt><trkpt lat="45.251716" lon="8.5753025"><ele>112.0</ele><time>2026-04-25T14:44:21.054Z</time></trkpt><trkpt lat="45.2517824" lon="8.5751075"><ele>112.0</ele><time>2026-04-25T14:44:22.054Z</time></trkpt><trkpt lat="45.2518332" lon="8.5749076"><ele>112.0</ele><time>2026-04-25T14:44:23.054Z</time></trkpt><trkpt lat="45.2518868" lon="8.5747098"><ele>112.0</ele><time>2026-04-25T14:44:24.054Z</time></trkpt><trkpt lat="45.2519386" lon="8.5745103"><ele>112.0</ele><time>2026-04-25T14:44:25.054Z</time></trkpt><trkpt lat="45.251988" lon="8.5743225"><ele>112.0</ele><time>2026-04-25T14:44:26.053Z</time></trkpt><trkpt lat="45.2520299" lon="8.5741469"><ele>112.0</ele><time>2026-04-25T14:44:27.054Z</time></trkpt><trkpt lat="45.2520671" lon="8.5739856"><ele>112.0</ele><time>2026-04-25T14:44:28.054Z</time></trkpt><trkpt lat="45.2520986" lon="8.5738302"><ele>112.0</ele><time>2026-04-25T14:44:29.054Z</time></trkpt><trkpt lat="45.2521334" lon="8.5736836"><ele>112.0</ele><time>2026-04-25T14:44:30.052Z</time></trkpt><trkpt lat="45.2521689" lon="8.573529"><ele>112.0</ele><time>2026-04-25T14:44:31.054Z</time></trkpt><trkpt lat="45.2521954" lon="8.5733591"><ele>111.6</ele><time>2026-04-25T14:44:32.053Z</time></trkpt><trkpt lat="45.2522223" lon="8.5731995"><ele>111.19999999999999</ele><time>2026-04-25T14:44:33.054Z</time></trkpt><trkpt lat="45.2522374" lon="8.5730481"><ele>110.8</ele><time>2026-04-25T14:44:34.053Z</time></trkpt><trkpt lat="45.2522529" lon="8.5729046"><ele>110.4</ele><time>2026-04-25T14:44:35.054Z</time></trkpt><trkpt lat="45.2522599" lon="8.5727538"><ele>110.0</ele><time>2026-04-25T14:44:36.054Z</time></trkpt><trkpt lat="45.2522844" lon="8.5725873"><ele>110.0</ele><time>2026-04-25T14:44:37.053Z</time></trkpt><trkpt lat="45.2523275" lon="8.5724237"><ele>110.0</ele><time>2026-04-25T14:44:38.053Z</time></trkpt><trkpt lat="45.2523835" lon="8.5722557"><ele>110.0</ele><time>2026-04-25T14:44:39.054Z</time></trkpt><trkpt lat="45.2524397" lon="8.5720842"><ele>110.0</ele><time>2026-04-25T14:44:40.054Z</time></trkpt><trkpt lat="45.2525014" lon="8.5719"><ele>110.25</ele><time>2026-04-25T14:44:41.054Z</time></trkpt><trkpt lat="45.2525638" lon="8.5717233"><ele>110.5</ele><time>2026-04-25T14:44:42.053Z</time></trkpt><trkpt lat="45.2526272" lon="8.571531"><ele>110.75</ele><time>2026-04-25T14:44:43.054Z</time></trkpt><trkpt lat="45.2526847" lon="8.5713306"><ele>111.0</ele><time>2026-04-25T14:44:44.054Z</time></trkpt><trkpt lat="45.2527466" lon="8.5711317"><ele>110.33333333333334</ele><time>2026-04-25T14:44:45.054Z</time></trkpt><trkpt lat="45.2528048" lon="8.57093"><ele>109.66666666666667</ele><time>2026-04-25T14:44:46.054Z</time></trkpt><trkpt lat="45.252859" lon="8.5707183"><ele>109.0</ele><time>2026-04-25T14:44:47.054Z</time></trkpt><trkpt lat="45.2529129" lon="8.5705082"><ele>109.0</ele><time>2026-04-25T14:44:48.054Z</time></trkpt><trkpt lat="45.2529672" lon="8.5702983"><ele>109.0</ele><time>2026-04-25T14:44:49.054Z</time></trkpt><trkpt lat="45.2530186" lon="8.5700836"><ele>109.0</ele><time>2026-04-25T14:44:50.053Z</time></trkpt><trkpt lat="45.2530661" lon="8.569866"><ele>109.0</ele><time>2026-04-25T14:44:51.054Z</time></trkpt><trkpt lat="45.2531112" lon="8.5696548"><ele>109.0</ele><time>2026-04-25T14:44:52.053Z</time></trkpt><trkpt lat="45.2531456" lon="8.569455"><ele>109.0</ele><time>2026-04-25T14:44:53.054Z</time></trkpt><trkpt lat="45.2531664" lon="8.5692615"><ele>109.0</ele><time>2026-04-25T14:44:54.054Z</time></trkpt><trkpt lat="45.2531803" lon="8.5690641"><ele>109.25</ele><time>2026-04-25T14:44:55.054Z</time></trkpt><trkpt lat="45.2531898" lon="8.5688639"><ele>109.5</ele><time>2026-04-25T14:44:56.054Z</time></trkpt><trkpt lat="45.2531923" lon="8.5686663"><ele>109.75</ele><time>2026-04-25T14:44:57.053Z</time></trkpt><trkpt lat="45.2531953" lon="8.5684697"><ele>110.0</ele><time>2026-04-25T14:44:58.054Z</time></trkpt><trkpt lat="45.2531928" lon="8.5682726"><ele>110.0</ele><time>2026-04-25T14:44:59.053Z</time></trkpt><trkpt lat="45.253183" lon="8.5680671"><ele>110.0</ele><time>2026-04-25T14:45:00.054Z</time></trkpt><trkpt lat="45.2531709" lon="8.5678664"><ele>110.0</ele><time>2026-04-25T14:45:01.054Z</time></trkpt><trkpt lat="45.2531621" lon="8.5676664"><ele>110.0</ele><time>2026-04-25T14:45:02.054Z</time></trkpt><trkpt lat="45.2531504" lon="8.567481"><ele>110.0</ele><time>2026-04-25T14:45:03.053Z</time></trkpt><trkpt lat="45.2531375" lon="8.5673089"><ele>110.0</ele><time>2026-04-25T14:45:04.054Z</time></trkpt><trkpt lat="45.2531256" lon="8.5671679"><ele>110.0</ele><time>2026-04-25T14:45:05.053Z</time></trkpt><trkpt lat="45.2531212" lon="8.5670467"><ele>110.0</ele><time>2026-04-25T14:45:06.053Z</time></trkpt><trkpt lat="45.2531094" lon="8.5669436"><ele>110.0</ele><time>2026-04-25T14:45:07.054Z</time></trkpt><trkpt lat="45.2530944" lon="8.5668471"><ele>109.66666666666666</ele><time>2026-04-25T14:45:08.053Z</time></trkpt><trkpt lat="45.2530757" lon="8.5667403"><ele>109.33333333333333</ele><time>2026-04-25T14:45:09.054Z</time></trkpt><trkpt lat="45.2530629" lon="8.5666322"><ele>109.0</ele><time>2026-04-25T14:45:10.054Z</time></trkpt><trkpt lat="45.2530433" lon="8.566516"><ele>108.66666666666666</ele><time>2026-04-25T14:45:11.054Z</time></trkpt><trkpt lat="45.2530223" lon="8.5663994"><ele>108.33333333333333</ele><time>2026-04-25T14:45:12.053Z</time></trkpt><trkpt lat="45.2529963" lon="8.5662696"><ele>108.0</ele><time>2026-04-25T14:45:13.053Z</time></trkpt><trkpt lat="45.2529706" lon="8.566142"><ele>107.60000000000001</ele><time>2026-04-25T14:45:14.054Z</time></trkpt><trkpt lat="45.252949" lon="8.5660146"><ele>107.20000000000002</ele><time>2026-04-25T14:45:15.054Z</time></trkpt><trkpt lat="45.2529281" lon="8.5658779"><ele>106.8</ele><time>2026-04-25T14:45:16.052Z</time></trkpt><trkpt lat="45.2529148" lon="8.5657351"><ele>106.4</ele><time>2026-04-25T14:45:17.053Z</time></trkpt><trkpt lat="45.2529202" lon="8.5655888"><ele>106.0</ele><time>2026-04-25T14:45:18.054Z</time></trkpt><trkpt lat="45.2529325" lon="8.5654505"><ele>106.4</ele><time>2026-04-25T14:45:19.053Z</time></trkpt><trkpt lat="45.2529515" lon="8.5653097"><ele>106.8</ele><time>2026-04-25T14:45:20.052Z</time></trkpt><trkpt lat="45.2529715" lon="8.5651647"><ele>107.20000000000002</ele><time>2026-04-25T14:45:21.054Z</time></trkpt><trkpt lat="45.252995" lon="8.5650192"><ele>107.60000000000001</ele><time>2026-04-25T14:45:22.053Z</time></trkpt><trkpt lat="45.2530129" lon="8.5648698"><ele>108.0</ele><time>2026-04-25T14:45:23.053Z</time></trkpt><trkpt lat="45.2530299" lon="8.5647144"><ele>108.0</ele><time>2026-04-25T14:45:24.052Z</time></trkpt><trkpt lat="45.2530486" lon="8.5645678"><ele>108.00000000000001</ele><time>2026-04-25T14:45:25.053Z</time></trkpt><trkpt lat="45.2530645" lon="8.5644115"><ele>108.00000000000001</ele><time>2026-04-25T14:45:26.054Z</time></trkpt><trkpt lat="45.2530824" lon="8.5642535"><ele>108.0</ele><time>2026-04-25T14:45:27.054Z</time></trkpt><trkpt lat="45.253105" lon="8.5641033"><ele>108.0</ele><time>2026-04-25T14:45:28.053Z</time></trkpt><trkpt lat="45.2531259" lon="8.5639439"><ele>108.0</ele><time>2026-04-25T14:45:29.054Z</time></trkpt><trkpt lat="45.2531452" lon="8.5637826"><ele>108.0</ele><time>2026-04-25T14:45:30.053Z</time></trkpt><trkpt lat="45.2531672" lon="8.5636193"><ele>108.0</ele><time>2026-04-25T14:45:31.054Z</time></trkpt><trkpt lat="45.2531942" lon="8.5634603"><ele>108.0</ele><time>2026-04-25T14:45:32.053Z</time></trkpt><trkpt lat="45.2532075" lon="8.5633002"><ele>108.0</ele><time>2026-04-25T14:45:33.053Z</time></trkpt><trkpt lat="45.2532254" lon="8.5631421"><ele>108.0</ele><time>2026-04-25T14:45:34.052Z</time></trkpt><trkpt lat="45.2532463" lon="8.5629805"><ele>108.0</ele><time>2026-04-25T14:45:35.054Z</time></trkpt><trkpt lat="45.2532608" lon="8.5628208"><ele>108.0</ele><time>2026-04-25T14:45:36.054Z</time></trkpt><trkpt lat="45.2532636" lon="8.5626607"><ele>108.0</ele><time>2026-04-25T14:45:37.054Z</time></trkpt><trkpt lat="45.2532629" lon="8.5625025"><ele>108.0</ele><time>2026-04-25T14:45:38.054Z</time></trkpt><trkpt lat="45.2532653" lon="8.5623274"><ele>108.0</ele><time>2026-04-25T14:45:39.052Z</time></trkpt><trkpt lat="45.2532528" lon="8.5621668"><ele>108.0</ele><time>2026-04-25T14:45:40.052Z</time></trkpt><trkpt lat="45.2532467" lon="8.5620026"><ele>108.0</ele><time>2026-04-25T14:45:41.052Z</time></trkpt><trkpt lat="45.2532423" lon="8.5618452"><ele>108.00000000000001</ele><time>2026-04-25T14:45:42.053Z</time></trkpt><trkpt lat="45.2532398" lon="8.5616917"><ele>108.00000000000001</ele><time>2026-04-25T14:45:43.053Z</time></trkpt><trkpt lat="45.2532353" lon="8.5615335"><ele>108.0</ele><time>2026-04-25T14:45:44.054Z</time></trkpt><trkpt lat="45.2532299" lon="8.5613777"><ele>108.0</ele><time>2026-04-25T14:45:45.054Z</time></trkpt><trkpt lat="45.2532196" lon="8.5612198"><ele>108.2</ele><time>2026-04-25T14:45:46.053Z</time></trkpt><trkpt lat="45.2532082" lon="8.5610638"><ele>108.4</ele><time>2026-04-25T14:45:47.054Z</time></trkpt><trkpt lat="45.2531946" lon="8.5609258"><ele>108.60000000000001</ele><time>2026-04-25T14:45:48.052Z</time></trkpt><trkpt lat="45.2531639" lon="8.5607973"><ele>108.80000000000001</ele><time>2026-04-25T14:45:49.052Z</time></trkpt><trkpt lat="45.2531251" lon="8.5606659"><ele>109.0</ele><time>2026-04-25T14:45:50.052Z</time></trkpt><trkpt lat="45.2530673" lon="8.560562"><ele>109.2</ele><time>2026-04-25T14:45:51.054Z</time></trkpt><trkpt lat="45.2529945" lon="8.5604696"><ele>109.4</ele><time>2026-04-25T14:45:52.053Z</time></trkpt><trkpt lat="45.2529119" lon="8.5603942"><ele>109.6</ele><time>2026-04-25T14:45:53.054Z</time></trkpt><trkpt lat="45.2528215" lon="8.5603314"><ele>109.8</ele><time>2026-04-25T14:45:54.053Z</time></trkpt><trkpt lat="45.2527359" lon="8.5602779"><ele>110.0</ele><time>2026-04-25T14:45:55.053Z</time></trkpt><trkpt lat="45.2526618" lon="8.5602135"><ele>109.66666666666666</ele><time>2026-04-25T14:45:56.053Z</time></trkpt><trkpt lat="45.2525854" lon="8.5601483"><ele>109.33333333333333</ele><time>2026-04-25T14:45:57.054Z</time></trkpt><trkpt lat="45.2525312" lon="8.5600687"><ele>109.0</ele><time>2026-04-25T14:45:58.053Z</time></trkpt><trkpt lat="45.2524861" lon="8.5599577"><ele>108.66666666666666</ele><time>2026-04-25T14:45:59.052Z</time></trkpt><trkpt lat="45.252456" lon="8.5598377"><ele>108.33333333333333</ele><time>2026-04-25T14:46:00.053Z</time></trkpt><trkpt lat="45.2524421" lon="8.5597141"><ele>108.0</ele><time>2026-04-25T14:46:01.051Z</time></trkpt><trkpt lat="45.252434" lon="8.5595852"><ele>108.0</ele><time>2026-04-25T14:46:02.054Z</time></trkpt><trkpt lat="45.252426" lon="8.5594387"><ele>108.00000000000001</ele><time>2026-04-25T14:46:03.054Z</time></trkpt><trkpt lat="45.2524135" lon="8.5592853"><ele>108.00000000000001</ele><time>2026-04-25T14:46:04.053Z</time></trkpt><trkpt lat="45.2523933" lon="8.5591279"><ele>108.0</ele><time>2026-04-25T14:46:05.052Z</time></trkpt><trkpt lat="45.2523716" lon="8.5589651"><ele>108.0</ele><time>2026-04-25T14:46:06.054Z</time></trkpt><trkpt lat="45.2523517" lon="8.5588037"><ele>107.75</ele><time>2026-04-25T14:46:07.054Z</time></trkpt><trkpt lat="45.2523353" lon="8.5586388"><ele>107.5</ele><time>2026-04-25T14:46:08.053Z</time></trkpt><trkpt lat="45.2523161" lon="8.5584764"><ele>107.25</ele><time>2026-04-25T14:46:09.052Z</time></trkpt><trkpt lat="45.2522955" lon="8.5583073"><ele>107.0</ele><time>2026-04-25T14:46:10.052Z</time></trkpt><trkpt lat="45.2522815" lon="8.5581446"><ele>107.0</ele><time>2026-04-25T14:46:11.054Z</time></trkpt><trkpt lat="45.252265" lon="8.5579782"><ele>107.0</ele><time>2026-04-25T14:46:12.054Z</time></trkpt><trkpt lat="45.2522436" lon="8.5578088"><ele>107.0</ele><time>2026-04-25T14:46:13.053Z</time></trkpt><trkpt lat="45.2522268" lon="8.5576394"><ele>107.0</ele><time>2026-04-25T14:46:14.054Z</time></trkpt><trkpt lat="45.2522106" lon="8.5574662"><ele>106.75</ele><time>2026-04-25T14:46:15.053Z</time></trkpt><trkpt lat="45.2521923" lon="8.5572974"><ele>106.5</ele><time>2026-04-25T14:46:16.054Z</time></trkpt><trkpt lat="45.2521765" lon="8.5571212"><ele>106.25</ele><time>2026-04-25T14:46:17.054Z</time></trkpt><trkpt lat="45.252159" lon="8.5569567"><ele>106.0</ele><time>2026-04-25T14:46:18.053Z</time></trkpt><trkpt lat="45.2521422" lon="8.5567934"><ele>106.0</ele><time>2026-04-25T14:46:19.053Z</time></trkpt><trkpt lat="45.2521227" lon="8.5566316"><ele>106.0</ele><time>2026-04-25T14:46:20.052Z</time></trkpt><trkpt lat="45.2521024" lon="8.5564668"><ele>106.0</ele><time>2026-04-25T14:46:21.053Z</time></trkpt><trkpt lat="45.2520828" lon="8.5563024"><ele>106.0</ele><time>2026-04-25T14:46:22.053Z</time></trkpt><trkpt lat="45.2520713" lon="8.5561452"><ele>106.5</ele><time>2026-04-25T14:46:23.053Z</time></trkpt><trkpt lat="45.2520523" lon="8.555987"><ele>107.0</ele><time>2026-04-25T14:46:24.053Z</time></trkpt><trkpt lat="45.2520334" lon="8.555823"><ele>107.5</ele><time>2026-04-25T14:46:25.052Z</time></trkpt><trkpt lat="45.252013" lon="8.5556627"><ele>108.0</ele><time>2026-04-25T14:46:26.054Z</time></trkpt><trkpt lat="45.2519974" lon="8.555499"><ele>108.0</ele><time>2026-04-25T14:46:27.053Z</time></trkpt><trkpt lat="45.2519799" lon="8.5553449"><ele>108.0</ele><time>2026-04-25T14:46:28.054Z</time></trkpt><trkpt lat="45.2519652" lon="8.5551803"><ele>108.0</ele><time>2026-04-25T14:46:29.052Z</time></trkpt><trkpt lat="45.251949" lon="8.5550231"><ele>108.0</ele><time>2026-04-25T14:46:30.054Z</time></trkpt><trkpt lat="45.2519318" lon="8.5548657"><ele>108.0</ele><time>2026-04-25T14:46:31.053Z</time></trkpt><trkpt lat="45.2519148" lon="8.5547334"><ele>108.0</ele><time>2026-04-25T14:46:32.054Z</time></trkpt><trkpt lat="45.2519025" lon="8.55461"><ele>108.0</ele><time>2026-04-25T14:46:33.051Z</time></trkpt><trkpt lat="45.2518923" lon="8.5545141"><ele>108.0</ele><time>2026-04-25T14:46:34.052Z</time></trkpt><trkpt lat="45.2518944" lon="8.5544238"><ele>108.0</ele><time>2026-04-25T14:46:35.053Z</time></trkpt><trkpt lat="45.2518646" lon="8.5543009"><ele>108.0</ele><time>2026-04-25T14:46:37.054Z</time></trkpt><trkpt lat="45.2517841" lon="8.5542296"><ele>108.16666666666667</ele><time>2026-04-25T14:46:39.052Z</time></trkpt><trkpt lat="45.2517166" lon="8.5542159"><ele>108.33333333333334</ele><time>2026-04-25T14:46:40.054Z</time></trkpt><trkpt lat="45.2516473" lon="8.5542069"><ele>108.5</ele><time>2026-04-25T14:46:41.054Z</time></trkpt><trkpt lat="45.2515654" lon="8.5541997"><ele>108.66666666666667</ele><time>2026-04-25T14:46:42.052Z</time></trkpt><trkpt lat="45.2514752" lon="8.5541922"><ele>108.83333333333334</ele><time>2026-04-25T14:46:43.053Z</time></trkpt><trkpt lat="45.2513877" lon="8.5541779"><ele>109.0</ele><time>2026-04-25T14:46:44.054Z</time></trkpt><trkpt lat="45.25129" lon="8.5541623"><ele>109.0</ele><time>2026-04-25T14:46:45.052Z</time></trkpt><trkpt lat="45.2511867" lon="8.5541494"><ele>109.0</ele><time>2026-04-25T14:46:46.052Z</time></trkpt><trkpt lat="45.2510847" lon="8.5541356"><ele>109.0</ele><time>2026-04-25T14:46:47.052Z</time></trkpt><trkpt lat="45.2509817" lon="8.5541323"><ele>109.0</ele><time>2026-04-25T14:46:48.052Z</time></trkpt><trkpt lat="45.2508818" lon="8.5541261"><ele>109.0</ele><time>2026-04-25T14:46:49.052Z</time></trkpt><trkpt lat="45.2507683" lon="8.5541232"><ele>109.0</ele><time>2026-04-25T14:46:50.052Z</time></trkpt><trkpt lat="45.2506548" lon="8.5541215"><ele>109.0</ele><time>2026-04-25T14:46:51.053Z</time></trkpt><trkpt lat="45.250548" lon="8.5541243"><ele>109.0</ele><time>2026-04-25T14:46:52.052Z</time></trkpt><trkpt lat="45.2504378" lon="8.5541295"><ele>109.0</ele><time>2026-04-25T14:46:53.052Z</time></trkpt><trkpt lat="45.2503254" lon="8.5541295"><ele>109.0</ele><time>2026-04-25T14:46:54.053Z</time></trkpt><trkpt lat="45.2502146" lon="8.5541312"><ele>108.6</ele><time>2026-04-25T14:46:55.053Z</time></trkpt><trkpt lat="45.2501027" lon="8.5541365"><ele>108.2</ele><time>2026-04-25T14:46:56.053Z</time></trkpt><trkpt lat="45.2499962" lon="8.5541367"><ele>107.79999999999998</ele><time>2026-04-25T14:46:57.053Z</time></trkpt><trkpt lat="45.2498855" lon="8.5541432"><ele>107.39999999999999</ele><time>2026-04-25T14:46:58.054Z</time></trkpt><trkpt lat="45.2497786" lon="8.5541403"><ele>107.0</ele><time>2026-04-25T14:46:59.053Z</time></trkpt><trkpt lat="45.2496711" lon="8.5541433"><ele>107.0</ele><time>2026-04-25T14:47:00.052Z</time></trkpt><trkpt lat="45.2495658" lon="8.554148"><ele>106.99999999999999</ele><time>2026-04-25T14:47:01.053Z</time></trkpt><trkpt lat="45.2494597" lon="8.5541482"><ele>106.99999999999999</ele><time>2026-04-25T14:47:02.053Z</time></trkpt><trkpt lat="45.2493536" lon="8.5541481"><ele>107.0</ele><time>2026-04-25T14:47:03.053Z</time></trkpt><trkpt lat="45.2492446" lon="8.5541547"><ele>107.0</ele><time>2026-04-25T14:47:04.054Z</time></trkpt><trkpt lat="45.2491422" lon="8.5541544"><ele>107.0</ele><time>2026-04-25T14:47:05.053Z</time></trkpt><trkpt lat="45.2490371" lon="8.5541511"><ele>106.99999999999999</ele><time>2026-04-25T14:47:06.052Z</time></trkpt><trkpt lat="45.24894" lon="8.5541521"><ele>106.99999999999999</ele><time>2026-04-25T14:47:07.053Z</time></trkpt><trkpt lat="45.2488459" lon="8.5541575"><ele>107.0</ele><time>2026-04-25T14:47:08.053Z</time></trkpt><trkpt lat="45.2487576" lon="8.5541656"><ele>107.0</ele><time>2026-04-25T14:47:09.053Z</time></trkpt><trkpt lat="45.2486769" lon="8.5541656"><ele>107.57142857142858</ele><time>2026-04-25T14:47:10.051Z</time></trkpt><trkpt lat="45.2486018" lon="8.5541673"><ele>108.14285714285714</ele><time>2026-04-25T14:47:11.053Z</time></trkpt><trkpt lat="45.2485365" lon="8.5541546"><ele>108.71428571428572</ele><time>2026-04-25T14:47:12.052Z</time></trkpt><trkpt lat="45.2484702" lon="8.5541231"><ele>109.28571428571429</ele><time>2026-04-25T14:47:13.053Z</time></trkpt><trkpt lat="45.2484183" lon="8.5540692"><ele>109.85714285714286</ele><time>2026-04-25T14:47:14.053Z</time></trkpt><trkpt lat="45.2483787" lon="8.5539834"><ele>110.42857142857143</ele><time>2026-04-25T14:47:15.052Z</time></trkpt><trkpt lat="45.2483546" lon="8.5538816"><ele>111.0</ele><time>2026-04-25T14:47:16.052Z</time></trkpt><trkpt lat="45.2483291" lon="8.5537624"><ele>110.4</ele><time>2026-04-25T14:47:17.052Z</time></trkpt><trkpt lat="45.2482898" lon="8.5536323"><ele>109.8</ele><time>2026-04-25T14:47:18.054Z</time></trkpt><trkpt lat="45.2482505" lon="8.5535003"><ele>109.20000000000002</ele><time>2026-04-25T14:47:19.053Z</time></trkpt><trkpt lat="45.2482142" lon="8.5533737"><ele>108.60000000000001</ele><time>2026-04-25T14:47:20.051Z</time></trkpt><trkpt lat="45.2481856" lon="8.5532643"><ele>108.0</ele><time>2026-04-25T14:47:21.052Z</time></trkpt><trkpt lat="45.2481583" lon="8.5531663"><ele>108.0</ele><time>2026-04-25T14:47:22.053Z</time></trkpt><trkpt lat="45.2481304" lon="8.5530676"><ele>108.0</ele><time>2026-04-25T14:47:23.052Z</time></trkpt><trkpt lat="45.2481011" lon="8.5529574"><ele>108.0</ele><time>2026-04-25T14:47:24.052Z</time></trkpt><trkpt lat="45.2480676" lon="8.5528459"><ele>108.0</ele><time>2026-04-25T14:47:25.051Z</time></trkpt><trkpt lat="45.2480338" lon="8.5527359"><ele>108.0</ele><time>2026-04-25T14:47:26.052Z</time></trkpt><trkpt lat="45.2480007" lon="8.5526131"><ele>108.0</ele><time>2026-04-25T14:47:27.053Z</time></trkpt><trkpt lat="45.247964" lon="8.5524842"><ele>108.0</ele><time>2026-04-25T14:47:28.051Z</time></trkpt><trkpt lat="45.2479272" lon="8.5523716"><ele>108.00000000000001</ele><time>2026-04-25T14:47:29.053Z</time></trkpt><trkpt lat="45.2478909" lon="8.5522493"><ele>108.00000000000001</ele><time>2026-04-25T14:47:30.054Z</time></trkpt><trkpt lat="45.2478471" lon="8.5521187"><ele>108.0</ele><time>2026-04-25T14:47:31.052Z</time></trkpt><trkpt lat="45.2478096" lon="8.5519928"><ele>108.0</ele><time>2026-04-25T14:47:32.053Z</time></trkpt><trkpt lat="45.2477625" lon="8.5518612"><ele>108.0</ele><time>2026-04-25T14:47:33.053Z</time></trkpt><trkpt lat="45.247718" lon="8.5517347"><ele>108.00000000000001</ele><time>2026-04-25T14:47:34.052Z</time></trkpt><trkpt lat="45.247673" lon="8.5516057"><ele>108.00000000000001</ele><time>2026-04-25T14:47:35.053Z</time></trkpt><trkpt lat="45.2476275" lon="8.5514762"><ele>108.0</ele><time>2026-04-25T14:47:36.053Z</time></trkpt><trkpt lat="45.2475836" lon="8.5513448"><ele>108.0</ele><time>2026-04-25T14:47:37.052Z</time></trkpt><trkpt lat="45.2475416" lon="8.5512164"><ele>107.60000000000001</ele><time>2026-04-25T14:47:38.052Z</time></trkpt><trkpt lat="45.2475036" lon="8.5510842"><ele>107.20000000000002</ele><time>2026-04-25T14:47:39.052Z</time></trkpt><trkpt lat="45.2474709" lon="8.5509577"><ele>106.8</ele><time>2026-04-25T14:47:40.053Z</time></trkpt><trkpt lat="45.2474256" lon="8.5508348"><ele>106.4</ele><time>2026-04-25T14:47:41.052Z</time></trkpt><trkpt lat="45.2473783" lon="8.5507133"><ele>106.0</ele><time>2026-04-25T14:47:42.053Z</time></trkpt><trkpt lat="45.2473423" lon="8.5505964"><ele>106.00000000000001</ele><time>2026-04-25T14:47:43.053Z</time></trkpt><trkpt lat="45.2473108" lon="8.5504824"><ele>106.0</ele><time>2026-04-25T14:47:44.053Z</time></trkpt><trkpt lat="45.2472839" lon="8.5503816"><ele>106.0</ele><time>2026-04-25T14:47:45.053Z</time></trkpt><trkpt lat="45.2472621" lon="8.5502882"><ele>106.0</ele><time>2026-04-25T14:47:46.052Z</time></trkpt><trkpt lat="45.2471795" lon="8.5501679"><ele>106.00000000000001</ele><time>2026-04-25T14:47:48.053Z</time></trkpt><trkpt lat="45.247121" lon="8.5501161"><ele>106.0</ele><time>2026-04-25T14:47:49.053Z</time></trkpt><trkpt lat="45.2470486" lon="8.5500667"><ele>106.4</ele><time>2026-04-25T14:47:50.053Z</time></trkpt><trkpt lat="45.2469674" lon="8.5500116"><ele>106.8</ele><time>2026-04-25T14:47:51.052Z</time></trkpt><trkpt lat="45.2468876" lon="8.5499598"><ele>107.20000000000002</ele><time>2026-04-25T14:47:52.053Z</time></trkpt><trkpt lat="45.2468111" lon="8.5499025"><ele>107.60000000000001</ele><time>2026-04-25T14:47:53.053Z</time></trkpt><trkpt lat="45.2467291" lon="8.5498472"><ele>108.0</ele><time>2026-04-25T14:47:54.053Z</time></trkpt><trkpt lat="45.2466416" lon="8.5497886"><ele>108.0</ele><time>2026-04-25T14:47:55.053Z</time></trkpt><trkpt lat="45.2465535" lon="8.5497308"><ele>108.00000000000001</ele><time>2026-04-25T14:47:56.053Z</time></trkpt><trkpt lat="45.2464635" lon="8.5496683"><ele>108.00000000000001</ele><time>2026-04-25T14:47:57.052Z</time></trkpt><trkpt lat="45.2463791" lon="8.5495999"><ele>108.0</ele><time>2026-04-25T14:47:58.052Z</time></trkpt><trkpt lat="45.2462891" lon="8.5495465"><ele>108.0</ele><time>2026-04-25T14:47:59.052Z</time></trkpt><trkpt lat="45.2462005" lon="8.5494865"><ele>108.2</ele><time>2026-04-25T14:48:00.052Z</time></trkpt><trkpt lat="45.2461107" lon="8.5494359"><ele>108.4</ele><time>2026-04-25T14:48:01.052Z</time></trkpt><trkpt lat="45.2460212" lon="8.5493873"><ele>108.60000000000001</ele><time>2026-04-25T14:48:02.053Z</time></trkpt><trkpt lat="45.2459334" lon="8.5493429"><ele>108.80000000000001</ele><time>2026-04-25T14:48:03.052Z</time></trkpt><trkpt lat="45.2458417" lon="8.5493087"><ele>109.0</ele><time>2026-04-25T14:48:04.051Z</time></trkpt><trkpt lat="45.245751" lon="8.5492914"><ele>109.0</ele><time>2026-04-25T14:48:05.053Z</time></trkpt><trkpt lat="45.2456576" lon="8.5492648"><ele>109.0</ele><time>2026-04-25T14:48:06.053Z</time></trkpt><trkpt lat="45.2455642" lon="8.5492394"><ele>109.0</ele><time>2026-04-25T14:48:07.052Z</time></trkpt><trkpt lat="45.2454683" lon="8.5492245"><ele>109.0</ele><time>2026-04-25T14:48:08.053Z</time></trkpt><trkpt lat="45.2453737" lon="8.5491988"><ele>109.0</ele><time>2026-04-25T14:48:09.053Z</time></trkpt><trkpt lat="45.2452773" lon="8.549182"><ele>108.6</ele><time>2026-04-25T14:48:10.052Z</time></trkpt><trkpt lat="45.245187" lon="8.5491565"><ele>108.2</ele><time>2026-04-25T14:48:11.052Z</time></trkpt><trkpt lat="45.2451015" lon="8.5491377"><ele>107.79999999999998</ele><time>2026-04-25T14:48:12.051Z</time></trkpt><trkpt lat="45.2450156" lon="8.5491143"><ele>107.39999999999999</ele><time>2026-04-25T14:48:13.052Z</time></trkpt><trkpt lat="45.2449223" lon="8.5490925"><ele>107.0</ele><time>2026-04-25T14:48:14.052Z</time></trkpt><trkpt lat="45.2448314" lon="8.5490625"><ele>107.19999999999999</ele><time>2026-04-25T14:48:15.053Z</time></trkpt><trkpt lat="45.2447392" lon="8.5490435"><ele>107.39999999999999</ele><time>2026-04-25T14:48:16.051Z</time></trkpt><trkpt lat="45.2446434" lon="8.5490194"><ele>107.60000000000001</ele><time>2026-04-25T14:48:17.053Z</time></trkpt><trkpt lat="45.2445545" lon="8.5489941"><ele>107.80000000000001</ele><time>2026-04-25T14:48:18.052Z</time></trkpt><trkpt lat="45.2444626" lon="8.5489732"><ele>108.0</ele><time>2026-04-25T14:48:19.053Z</time></trkpt><trkpt lat="45.2443688" lon="8.5489491"><ele>108.0</ele><time>2026-04-25T14:48:20.053Z</time></trkpt><trkpt lat="45.2442747" lon="8.5489207"><ele>108.00000000000001</ele><time>2026-04-25T14:48:21.053Z</time></trkpt><trkpt lat="45.2441853" lon="8.5488896"><ele>108.00000000000001</ele><time>2026-04-25T14:48:22.053Z</time></trkpt><trkpt lat="45.2441" lon="8.5488569"><ele>108.0</ele><time>2026-04-25T14:48:23.052Z</time></trkpt><trkpt lat="45.2440127" lon="8.5488224"><ele>108.0</ele><time>2026-04-25T14:48:24.053Z</time></trkpt><trkpt lat="45.2439286" lon="8.5487886"><ele>107.83333333333333</ele><time>2026-04-25T14:48:25.051Z</time></trkpt><trkpt lat="45.2438486" lon="8.5487568"><ele>107.66666666666666</ele><time>2026-04-25T14:48:26.053Z</time></trkpt><trkpt lat="45.2437711" lon="8.5487324"><ele>107.5</ele><time>2026-04-25T14:48:27.052Z</time></trkpt><trkpt lat="45.2436921" lon="8.5487153"><ele>107.33333333333333</ele><time>2026-04-25T14:48:28.052Z</time></trkpt><trkpt lat="45.243624" lon="8.5487043"><ele>107.16666666666666</ele><time>2026-04-25T14:48:29.052Z</time></trkpt><trkpt lat="45.2435042" lon="8.5486985"><ele>107.0</ele><time>2026-04-25T14:48:31.053Z</time></trkpt><trkpt lat="45.2433947" lon="8.5487077"><ele>107.0</ele><time>2026-04-25T14:48:33.052Z</time></trkpt><trkpt lat="45.2432774" lon="8.5487099"><ele>106.99999999999999</ele><time>2026-04-25T14:48:35.053Z</time></trkpt><trkpt lat="45.2431523" lon="8.5487036"><ele>106.99999999999999</ele><time>2026-04-25T14:48:37.053Z</time></trkpt><trkpt lat="45.2430855" lon="8.5486997"><ele>107.0</ele><time>2026-04-25T14:48:38.051Z</time></trkpt><trkpt lat="45.2430109" lon="8.5486995"><ele>107.0</ele><time>2026-04-25T14:48:39.053Z</time></trkpt><trkpt lat="45.2429284" lon="8.5486979"><ele>106.99999999999999</ele><time>2026-04-25T14:48:40.053Z</time></trkpt><trkpt lat="45.2428473" lon="8.5486899"><ele>107.0</ele><time>2026-04-25T14:48:41.053Z</time></trkpt><trkpt lat="45.2427656" lon="8.5486857"><ele>107.0</ele><time>2026-04-25T14:48:42.051Z</time></trkpt><trkpt lat="45.2426795" lon="8.5486818"><ele>107.0</ele><time>2026-04-25T14:48:43.053Z</time></trkpt><trkpt lat="45.24259" lon="8.5486692"><ele>106.99999999999999</ele><time>2026-04-25T14:48:44.053Z</time></trkpt><trkpt lat="45.2424919" lon="8.5486614"><ele>107.0</ele><time>2026-04-25T14:48:45.053Z</time></trkpt><trkpt lat="45.2423978" lon="8.5486639"><ele>107.0</ele><time>2026-04-25T14:48:46.053Z</time></trkpt><trkpt lat="45.2423056" lon="8.5486653"><ele>106.99999999999999</ele><time>2026-04-25T14:48:47.051Z</time></trkpt><trkpt lat="45.2422173" lon="8.5486752"><ele>106.99999999999999</ele><time>2026-04-25T14:48:48.052Z</time></trkpt><trkpt lat="45.2421233" lon="8.5486938"><ele>107.0</ele><time>2026-04-25T14:48:49.052Z</time></trkpt><trkpt lat="45.2420365" lon="8.5487245"><ele>107.0</ele><time>2026-04-25T14:48:50.051Z</time></trkpt><trkpt lat="45.2419506" lon="8.5487574"><ele>106.99999999999999</ele><time>2026-04-25T14:48:51.053Z</time></trkpt><trkpt lat="45.2418684" lon="8.5487863"><ele>107.0</ele><time>2026-04-25T14:48:52.051Z</time></trkpt><trkpt lat="45.2417852" lon="8.5488208"><ele>107.0</ele><time>2026-04-25T14:48:53.052Z</time></trkpt><trkpt lat="45.2417019" lon="8.5488457"><ele>107.0</ele><time>2026-04-25T14:48:54.053Z</time></trkpt><trkpt lat="45.2416141" lon="8.5488671"><ele>106.99999999999999</ele><time>2026-04-25T14:48:55.053Z</time></trkpt><trkpt lat="45.2415264" lon="8.548896"><ele>107.0</ele><time>2026-04-25T14:48:56.053Z</time></trkpt><trkpt lat="45.2414395" lon="8.5489264"><ele>107.0</ele><time>2026-04-25T14:48:57.052Z</time></trkpt><trkpt lat="45.241347" lon="8.5489598"><ele>106.99999999999999</ele><time>2026-04-25T14:48:58.051Z</time></trkpt><trkpt lat="45.2412564" lon="8.5489845"><ele>106.99999999999999</ele><time>2026-04-25T14:48:59.052Z</time></trkpt><trkpt lat="45.2411676" lon="8.5490121"><ele>107.0</ele><time>2026-04-25T14:49:00.053Z</time></trkpt><trkpt lat="45.241074" lon="8.5490347"><ele>107.0</ele><time>2026-04-25T14:49:01.052Z</time></trkpt><trkpt lat="45.2409877" lon="8.5490483"><ele>107.0</ele><time>2026-04-25T14:49:02.051Z</time></trkpt><trkpt lat="45.2408985" lon="8.549066"><ele>106.99999999999999</ele><time>2026-04-25T14:49:03.05Z</time></trkpt><trkpt lat="45.2408082" lon="8.5490731"><ele>106.99999999999999</ele><time>2026-04-25T14:49:04.051Z</time></trkpt><trkpt lat="45.2407189" lon="8.5490832"><ele>107.0</ele><time>2026-04-25T14:49:05.052Z</time></trkpt><trkpt lat="45.2406292" lon="8.5490988"><ele>107.0</ele><time>2026-04-25T14:49:06.052Z</time></trkpt><trkpt lat="45.2405388" lon="8.5491119"><ele>107.0</ele><time>2026-04-25T14:49:07.052Z</time></trkpt><trkpt lat="45.2404455" lon="8.549125"><ele>106.99999999999999</ele><time>2026-04-25T14:49:08.053Z</time></trkpt><trkpt lat="45.2403559" lon="8.5491365"><ele>106.99999999999999</ele><time>2026-04-25T14:49:09.053Z</time></trkpt><trkpt lat="45.2402614" lon="8.5491419"><ele>107.0</ele><time>2026-04-25T14:49:10.052Z</time></trkpt><trkpt lat="45.2401648" lon="8.5491558"><ele>107.0</ele><time>2026-04-25T14:49:11.051Z</time></trkpt><trkpt lat="45.2400689" lon="8.5491613"><ele>107.0</ele><time>2026-04-25T14:49:12.053Z</time></trkpt><trkpt lat="45.2399776" lon="8.5491649"><ele>106.99999999999999</ele><time>2026-04-25T14:49:13.052Z</time></trkpt><trkpt lat="45.239881" lon="8.5491782"><ele>106.99999999999999</ele><time>2026-04-25T14:49:14.051Z</time></trkpt><trkpt lat="45.2397782" lon="8.5491894"><ele>107.0</ele><time>2026-04-25T14:49:15.053Z</time></trkpt><trkpt lat="45.2396805" lon="8.5491999"><ele>107.0</ele><time>2026-04-25T14:49:16.053Z</time></trkpt><trkpt lat="45.2395813" lon="8.5492159"><ele>107.0</ele><time>2026-04-25T14:49:17.051Z</time></trkpt><trkpt lat="45.2394808" lon="8.5492277"><ele>106.99999999999999</ele><time>2026-04-25T14:49:18.052Z</time></trkpt><trkpt lat="45.2393807" lon="8.5492345"><ele>106.99999999999999</ele><time>2026-04-25T14:49:19.052Z</time></trkpt><trkpt lat="45.2392834" lon="8.5492423"><ele>107.0</ele><time>2026-04-25T14:49:20.052Z</time></trkpt><trkpt lat="45.23919" lon="8.5492375"><ele>107.0</ele><time>2026-04-25T14:49:21.052Z</time></trkpt><trkpt lat="45.2390939" lon="8.5492317"><ele>107.0</ele><time>2026-04-25T14:49:22.052Z</time></trkpt><trkpt lat="45.2389957" lon="8.5492118"><ele>106.99999999999999</ele><time>2026-04-25T14:49:23.053Z</time></trkpt><trkpt lat="45.2389019" lon="8.5491922"><ele>106.99999999999999</ele><time>2026-04-25T14:49:24.052Z</time></trkpt><trkpt lat="45.238802" lon="8.549165"><ele>107.0</ele><time>2026-04-25T14:49:25.052Z</time></trkpt><trkpt lat="45.2387009" lon="8.5491462"><ele>107.0</ele><time>2026-04-25T14:49:26.053Z</time></trkpt><trkpt lat="45.2386009" lon="8.5491215"><ele>106.8</ele><time>2026-04-25T14:49:27.053Z</time></trkpt><trkpt lat="45.2385065" lon="8.5490941"><ele>106.6</ele><time>2026-04-25T14:49:28.05Z</time></trkpt><trkpt lat="45.2384125" lon="8.54907"><ele>106.39999999999999</ele><time>2026-04-25T14:49:29.052Z</time></trkpt><trkpt lat="45.2383191" lon="8.5490404"><ele>106.19999999999999</ele><time>2026-04-25T14:49:30.052Z</time></trkpt><trkpt lat="45.2382331" lon="8.5490051"><ele>106.0</ele><time>2026-04-25T14:49:31.051Z</time></trkpt><trkpt lat="45.2381438" lon="8.5489569"><ele>106.0</ele><time>2026-04-25T14:49:32.052Z</time></trkpt><trkpt lat="45.2380635" lon="8.5488942"><ele>106.0</ele><time>2026-04-25T14:49:33.052Z</time></trkpt><trkpt lat="45.2379795" lon="8.5488275"><ele>106.0</ele><time>2026-04-25T14:49:34.052Z</time></trkpt><trkpt lat="45.2378963" lon="8.5487541"><ele>106.0</ele><time>2026-04-25T14:49:35.053Z</time></trkpt><trkpt lat="45.2378168" lon="8.5486724"><ele>106.0</ele><time>2026-04-25T14:49:36.053Z</time></trkpt><trkpt lat="45.2377366" lon="8.5485959"><ele>106.16666666666667</ele><time>2026-04-25T14:49:37.051Z</time></trkpt><trkpt lat="45.2376603" lon="8.5485245"><ele>106.33333333333334</ele><time>2026-04-25T14:49:38.051Z</time></trkpt><trkpt lat="45.2375836" lon="8.5484458"><ele>106.5</ele><time>2026-04-25T14:49:39.051Z</time></trkpt><trkpt lat="45.2375153" lon="8.5483836"><ele>106.66666666666666</ele><time>2026-04-25T14:49:40.052Z</time></trkpt><trkpt lat="45.2374393" lon="8.5483354"><ele>106.83333333333333</ele><time>2026-04-25T14:49:41.053Z</time></trkpt><trkpt lat="45.2373578" lon="8.5482995"><ele>107.0</ele><time>2026-04-25T14:49:42.052Z</time></trkpt><trkpt lat="45.2372718" lon="8.5482865"><ele>108.0</ele><time>2026-04-25T14:49:43.052Z</time></trkpt><trkpt lat="45.2371825" lon="8.5482815"><ele>108.99999999999999</ele><time>2026-04-25T14:49:44.052Z</time></trkpt><trkpt lat="45.2370868" lon="8.5482841"><ele>109.99999999999999</ele><time>2026-04-25T14:49:45.052Z</time></trkpt><trkpt lat="45.2369927" lon="8.5482719"><ele>111.0</ele><time>2026-04-25T14:49:46.051Z</time></trkpt><trkpt lat="45.2368969" lon="8.5482696"><ele>112.0</ele><time>2026-04-25T14:49:47.051Z</time></trkpt><trkpt lat="45.2367959" lon="8.5482643"><ele>112.0</ele><time>2026-04-25T14:49:48.051Z</time></trkpt><trkpt lat="45.2366985" lon="8.5482592"><ele>111.99999999999999</ele><time>2026-04-25T14:49:49.052Z</time></trkpt><trkpt lat="45.2366017" lon="8.5482606"><ele>111.99999999999999</ele><time>2026-04-25T14:49:50.053Z</time></trkpt><trkpt lat="45.2365049" lon="8.5482671"><ele>112.0</ele><time>2026-04-25T14:49:51.052Z</time></trkpt><trkpt lat="45.2364104" lon="8.5482787"><ele>112.0</ele><time>2026-04-25T14:49:52.052Z</time></trkpt><trkpt lat="45.2363184" lon="8.5483044"><ele>111.6</ele><time>2026-04-25T14:49:53.053Z</time></trkpt><trkpt lat="45.236229" lon="8.5483367"><ele>111.19999999999999</ele><time>2026-04-25T14:49:54.051Z</time></trkpt><trkpt lat="45.2361386" lon="8.5483811"><ele>110.8</ele><time>2026-04-25T14:49:55.052Z</time></trkpt><trkpt lat="45.2360406" lon="8.5484257"><ele>110.4</ele><time>2026-04-25T14:49:56.052Z</time></trkpt><trkpt lat="45.2359456" lon="8.5484772"><ele>110.0</ele><time>2026-04-25T14:49:57.052Z</time></trkpt><trkpt lat="45.2358472" lon="8.5485315"><ele>110.0</ele><time>2026-04-25T14:49:58.052Z</time></trkpt><trkpt lat="45.2357541" lon="8.5485778"><ele>110.0</ele><time>2026-04-25T14:49:59.051Z</time></trkpt><trkpt lat="45.2356556" lon="8.5486295"><ele>110.0</ele><time>2026-04-25T14:50:00.052Z</time></trkpt><trkpt lat="45.2355628" lon="8.5486893"><ele>110.0</ele><time>2026-04-25T14:50:01.053Z</time></trkpt><trkpt lat="45.2354658" lon="8.5487423"><ele>110.0</ele><time>2026-04-25T14:50:02.051Z</time></trkpt><trkpt lat="45.2353712" lon="8.5487946"><ele>110.4</ele><time>2026-04-25T14:50:03.051Z</time></trkpt><trkpt lat="45.2352744" lon="8.5488473"><ele>110.8</ele><time>2026-04-25T14:50:04.052Z</time></trkpt><trkpt lat="45.235179" lon="8.5489033"><ele>111.19999999999999</ele><time>2026-04-25T14:50:05.052Z</time></trkpt><trkpt lat="45.2350845" lon="8.5489587"><ele>111.6</ele><time>2026-04-25T14:50:06.052Z</time></trkpt><trkpt lat="45.2349915" lon="8.549013"><ele>112.0</ele><time>2026-04-25T14:50:07.052Z</time></trkpt><trkpt lat="45.2348943" lon="8.549055"><ele>112.0</ele><time>2026-04-25T14:50:08.052Z</time></trkpt><trkpt lat="45.2348058" lon="8.5491052"><ele>111.99999999999999</ele><time>2026-04-25T14:50:09.051Z</time></trkpt><trkpt lat="45.2347091" lon="8.5491531"><ele>111.99999999999999</ele><time>2026-04-25T14:50:10.051Z</time></trkpt><trkpt lat="45.2346141" lon="8.5491934"><ele>112.0</ele><time>2026-04-25T14:50:11.051Z</time></trkpt><trkpt lat="45.234523" lon="8.5492326"><ele>112.0</ele><time>2026-04-25T14:50:12.052Z</time></trkpt><trkpt lat="45.2344266" lon="8.5492651"><ele>112.0</ele><time>2026-04-25T14:50:13.051Z</time></trkpt><trkpt lat="45.234333" lon="8.5492833"><ele>111.99999999999999</ele><time>2026-04-25T14:50:14.052Z</time></trkpt><trkpt lat="45.2342351" lon="8.549303"><ele>111.99999999999999</ele><time>2026-04-25T14:50:15.052Z</time></trkpt><trkpt lat="45.2341402" lon="8.5493134"><ele>112.0</ele><time>2026-04-25T14:50:16.052Z</time></trkpt><trkpt lat="45.2340459" lon="8.5493116"><ele>112.0</ele><time>2026-04-25T14:50:17.051Z</time></trkpt><trkpt lat="45.2339624" lon="8.5492961"><ele>111.83333333333334</ele><time>2026-04-25T14:50:18.051Z</time></trkpt><trkpt lat="45.2338789" lon="8.5492861"><ele>111.66666666666667</ele><time>2026-04-25T14:50:19.052Z</time></trkpt><trkpt lat="45.2338083" lon="8.549273"><ele>111.5</ele><time>2026-04-25T14:50:20.051Z</time></trkpt><trkpt lat="45.233734" lon="8.549261"><ele>111.33333333333334</ele><time>2026-04-25T14:50:21.051Z</time></trkpt><trkpt lat="45.2336515" lon="8.5492449"><ele>111.16666666666667</ele><time>2026-04-25T14:50:22.05Z</time></trkpt><trkpt lat="45.2335641" lon="8.5492269"><ele>111.0</ele><time>2026-04-25T14:50:23.052Z</time></trkpt><trkpt lat="45.2334792" lon="8.549208"><ele>111.0</ele><time>2026-04-25T14:50:24.051Z</time></trkpt><trkpt lat="45.233394" lon="8.549192"><ele>111.0</ele><time>2026-04-25T14:50:25.052Z</time></trkpt><trkpt lat="45.2333119" lon="8.5491713"><ele>111.0</ele><time>2026-04-25T14:50:26.051Z</time></trkpt><trkpt lat="45.233227" lon="8.5491422"><ele>111.0</ele><time>2026-04-25T14:50:27.051Z</time></trkpt><trkpt lat="45.2331383" lon="8.5491"><ele>111.0</ele><time>2026-04-25T14:50:28.051Z</time></trkpt><trkpt lat="45.2330662" lon="8.54906"><ele>111.0</ele><time>2026-04-25T14:50:29.051Z</time></trkpt><trkpt lat="45.2329844" lon="8.5490019"><ele>110.66666666666667</ele><time>2026-04-25T14:50:30.051Z</time></trkpt><trkpt lat="45.2329119" lon="8.548935"><ele>110.33333333333334</ele><time>2026-04-25T14:50:31.052Z</time></trkpt><trkpt lat="45.2328494" lon="8.5488653"><ele>110.0</ele><time>2026-04-25T14:50:32.051Z</time></trkpt><trkpt lat="45.2327871" lon="8.5487904"><ele>109.66666666666667</ele><time>2026-04-25T14:50:33.051Z</time></trkpt><trkpt lat="45.2327261" lon="8.5487058"><ele>109.33333333333334</ele><time>2026-04-25T14:50:34.052Z</time></trkpt><trkpt lat="45.2326714" lon="8.5486177"><ele>109.0</ele><time>2026-04-25T14:50:35.052Z</time></trkpt><trkpt lat="45.2326271" lon="8.5485243"><ele>109.0</ele><time>2026-04-25T14:50:36.052Z</time></trkpt><trkpt lat="45.2325765" lon="8.5484225"><ele>109.0</ele><time>2026-04-25T14:50:37.052Z</time></trkpt><trkpt lat="45.2325194" lon="8.5483165"><ele>109.0</ele><time>2026-04-25T14:50:38.052Z</time></trkpt><trkpt lat="45.232468" lon="8.5482035"><ele>109.0</ele><time>2026-04-25T14:50:39.052Z</time></trkpt><trkpt lat="45.2324133" lon="8.5480927"><ele>109.0</ele><time>2026-04-25T14:50:40.052Z</time></trkpt><trkpt lat="45.2323563" lon="8.5479758"><ele>108.80000000000001</ele><time>2026-04-25T14:50:41.052Z</time></trkpt><trkpt lat="45.2323014" lon="8.5478597"><ele>108.60000000000001</ele><time>2026-04-25T14:50:42.052Z</time></trkpt><trkpt lat="45.2322441" lon="8.5477434"><ele>108.4</ele><time>2026-04-25T14:50:43.052Z</time></trkpt><trkpt lat="45.2321883" lon="8.5476258"><ele>108.2</ele><time>2026-04-25T14:50:44.05Z</time></trkpt><trkpt lat="45.2321278" lon="8.5475129"><ele>108.0</ele><time>2026-04-25T14:50:45.051Z</time></trkpt><trkpt lat="45.23207" lon="8.547392"><ele>108.0</ele><time>2026-04-25T14:50:46.052Z</time></trkpt><trkpt lat="45.2320083" lon="8.5472753"><ele>108.00000000000001</ele><time>2026-04-25T14:50:47.052Z</time></trkpt><trkpt lat="45.2319489" lon="8.5471589"><ele>108.00000000000001</ele><time>2026-04-25T14:50:48.051Z</time></trkpt><trkpt lat="45.2318921" lon="8.5470442"><ele>108.0</ele><time>2026-04-25T14:50:49.052Z</time></trkpt><trkpt lat="45.2318308" lon="8.5469269"><ele>108.0</ele><time>2026-04-25T14:50:50.051Z</time></trkpt><trkpt lat="45.231774" lon="8.5468011"><ele>107.80000000000001</ele><time>2026-04-25T14:50:51.052Z</time></trkpt><trkpt lat="45.2317154" lon="8.546683"><ele>107.60000000000001</ele><time>2026-04-25T14:50:52.051Z</time></trkpt><trkpt lat="45.2316637" lon="8.5465567"><ele>107.39999999999999</ele><time>2026-04-25T14:50:53.052Z</time></trkpt><trkpt lat="45.2316111" lon="8.5464334"><ele>107.19999999999999</ele><time>2026-04-25T14:50:54.052Z</time></trkpt><trkpt lat="45.2315489" lon="8.546322"><ele>107.0</ele><time>2026-04-25T14:50:55.051Z</time></trkpt><trkpt lat="45.2314878" lon="8.5462076"><ele>107.0</ele><time>2026-04-25T14:50:56.051Z</time></trkpt><trkpt lat="45.2314222" lon="8.5460961"><ele>106.99999999999999</ele><time>2026-04-25T14:50:57.052Z</time></trkpt><trkpt lat="45.2313515" lon="8.5459847"><ele>106.99999999999999</ele><time>2026-04-25T14:50:58.052Z</time></trkpt><trkpt lat="45.2312824" lon="8.5458729"><ele>107.0</ele><time>2026-04-25T14:50:59.052Z</time></trkpt><trkpt lat="45.2312138" lon="8.54576"><ele>107.0</ele><time>2026-04-25T14:51:00.052Z</time></trkpt><trkpt lat="45.2311422" lon="8.545649"><ele>107.0</ele><time>2026-04-25T14:51:01.052Z</time></trkpt><trkpt lat="45.2310699" lon="8.5455424"><ele>106.99999999999999</ele><time>2026-04-25T14:51:02.052Z</time></trkpt><trkpt lat="45.231002" lon="8.5454354"><ele>106.99999999999999</ele><time>2026-04-25T14:51:03.052Z</time></trkpt><trkpt lat="45.2309305" lon="8.5453338"><ele>107.0</ele><time>2026-04-25T14:51:04.051Z</time></trkpt><trkpt lat="45.2308588" lon="8.545233"><ele>107.0</ele><time>2026-04-25T14:51:05.051Z</time></trkpt><trkpt lat="45.2307897" lon="8.5451285"><ele>107.0</ele><time>2026-04-25T14:51:06.05Z</time></trkpt><trkpt lat="45.2307182" lon="8.5450141"><ele>106.99999999999999</ele><time>2026-04-25T14:51:07.051Z</time></trkpt><trkpt lat="45.2306353" lon="8.5449054"><ele>106.99999999999999</ele><time>2026-04-25T14:51:08.051Z</time></trkpt><trkpt lat="45.2305562" lon="8.5447952"><ele>107.0</ele><time>2026-04-25T14:51:09.051Z</time></trkpt><trkpt lat="45.2304796" lon="8.5446857"><ele>107.0</ele><time>2026-04-25T14:51:10.051Z</time></trkpt><trkpt lat="45.2304007" lon="8.5445719"><ele>107.25</ele><time>2026-04-25T14:51:11.051Z</time></trkpt><trkpt lat="45.230325" lon="8.5444631"><ele>107.5</ele><time>2026-04-25T14:51:12.05Z</time></trkpt><trkpt lat="45.2302386" lon="8.5443512"><ele>107.75</ele><time>2026-04-25T14:51:13.051Z</time></trkpt><trkpt lat="45.2301531" lon="8.5442391"><ele>108.0</ele><time>2026-04-25T14:51:14.052Z</time></trkpt><trkpt lat="45.2300675" lon="8.5441277"><ele>108.0</ele><time>2026-04-25T14:51:15.051Z</time></trkpt><trkpt lat="45.229981" lon="8.5440163"><ele>108.0</ele><time>2026-04-25T14:51:16.05Z</time></trkpt><trkpt lat="45.2298929" lon="8.5439088"><ele>108.0</ele><time>2026-04-25T14:51:17.052Z</time></trkpt><trkpt lat="45.2298089" lon="8.5438013"><ele>108.0</ele><time>2026-04-25T14:51:18.052Z</time></trkpt><trkpt lat="45.22973" lon="8.5436989"><ele>108.2</ele><time>2026-04-25T14:51:19.05Z</time></trkpt><trkpt lat="45.2296513" lon="8.5435886"><ele>108.4</ele><time>2026-04-25T14:51:20.051Z</time></trkpt><trkpt lat="45.2295713" lon="8.5434802"><ele>108.60000000000001</ele><time>2026-04-25T14:51:21.052Z</time></trkpt><trkpt lat="45.2294907" lon="8.5433771"><ele>108.80000000000001</ele><time>2026-04-25T14:51:22.052Z</time></trkpt><trkpt lat="45.2294129" lon="8.5432742"><ele>109.0</ele><time>2026-04-25T14:51:23.052Z</time></trkpt><trkpt lat="45.2293353" lon="8.5431661"><ele>109.0</ele><time>2026-04-25T14:51:24.052Z</time></trkpt><trkpt lat="45.22926" lon="8.5430601"><ele>109.0</ele><time>2026-04-25T14:51:25.051Z</time></trkpt><trkpt lat="45.2291856" lon="8.542954"><ele>109.0</ele><time>2026-04-25T14:51:26.052Z</time></trkpt><trkpt lat="45.2291074" lon="8.5428462"><ele>109.0</ele><time>2026-04-25T14:51:27.051Z</time></trkpt><trkpt lat="45.229025" lon="8.5427416"><ele>109.0</ele><time>2026-04-25T14:51:28.051Z</time></trkpt><trkpt lat="45.2289461" lon="8.5426348"><ele>108.4</ele><time>2026-04-25T14:51:29.052Z</time></trkpt><trkpt lat="45.2288697" lon="8.5425226"><ele>107.80000000000001</ele><time>2026-04-25T14:51:30.051Z</time></trkpt><trkpt lat="45.2287967" lon="8.5424118"><ele>107.19999999999999</ele><time>2026-04-25T14:51:31.051Z</time></trkpt><trkpt lat="45.2287165" lon="8.5423071"><ele>106.6</ele><time>2026-04-25T14:51:32.051Z</time></trkpt><trkpt lat="45.2286342" lon="8.5422018"><ele>106.0</ele><time>2026-04-25T14:51:33.051Z</time></trkpt><trkpt lat="45.2285507" lon="8.5420924"><ele>106.0</ele><time>2026-04-25T14:51:34.051Z</time></trkpt><trkpt lat="45.2284671" lon="8.5419831"><ele>106.0</ele><time>2026-04-25T14:51:35.051Z</time></trkpt><trkpt lat="45.2283871" lon="8.5418677"><ele>106.0</ele><time>2026-04-25T14:51:36.052Z</time></trkpt><trkpt lat="45.2283073" lon="8.5417693"><ele>106.0</ele><time>2026-04-25T14:51:37.052Z</time></trkpt><trkpt lat="45.2282235" lon="8.5416642"><ele>106.0</ele><time>2026-04-25T14:51:38.051Z</time></trkpt><trkpt lat="45.2281398" lon="8.541563"><ele>106.0</ele><time>2026-04-25T14:51:39.052Z</time></trkpt><trkpt lat="45.2280535" lon="8.5414554"><ele>106.0</ele><time>2026-04-25T14:51:40.052Z</time></trkpt><trkpt lat="45.2279689" lon="8.5413455"><ele>106.0</ele><time>2026-04-25T14:51:41.052Z</time></trkpt><trkpt lat="45.2278833" lon="8.5412352"><ele>106.0</ele><time>2026-04-25T14:51:42.051Z</time></trkpt><trkpt lat="45.2277988" lon="8.5411197"><ele>106.4</ele><time>2026-04-25T14:51:43.051Z</time></trkpt><trkpt lat="45.2277127" lon="8.5410118"><ele>106.8</ele><time>2026-04-25T14:51:44.051Z</time></trkpt><trkpt lat="45.2276333" lon="8.5408987"><ele>107.20000000000002</ele><time>2026-04-25T14:51:45.051Z</time></trkpt><trkpt lat="45.2275602" lon="8.5407955"><ele>107.60000000000001</ele><time>2026-04-25T14:51:46.052Z</time></trkpt><trkpt lat="45.2274933" lon="8.5407018"><ele>108.0</ele><time>2026-04-25T14:51:47.052Z</time></trkpt><trkpt lat="45.2274334" lon="8.5406006"><ele>108.0</ele><time>2026-04-25T14:51:48.05Z</time></trkpt><trkpt lat="45.2273855" lon="8.5405014"><ele>108.0</ele><time>2026-04-25T14:51:49.052Z</time></trkpt><trkpt lat="45.2273491" lon="8.5404003"><ele>108.0</ele><time>2026-04-25T14:51:50.051Z</time></trkpt><trkpt lat="45.2273275" lon="8.5402845"><ele>108.0</ele><time>2026-04-25T14:51:51.051Z</time></trkpt><trkpt lat="45.2273203" lon="8.5401589"><ele>108.0</ele><time>2026-04-25T14:51:52.052Z</time></trkpt><trkpt lat="45.2273212" lon="8.5400325"><ele>108.0</ele><time>2026-04-25T14:51:53.051Z</time></trkpt><trkpt lat="45.2273255" lon="8.5399076"><ele>108.0</ele><time>2026-04-25T14:51:54.051Z</time></trkpt><trkpt lat="45.2273296" lon="8.5397826"><ele>108.00000000000001</ele><time>2026-04-25T14:51:55.052Z</time></trkpt><trkpt lat="45.2273293" lon="8.5396642"><ele>108.00000000000001</ele><time>2026-04-25T14:51:56.051Z</time></trkpt><trkpt lat="45.2273321" lon="8.539536"><ele>108.0</ele><time>2026-04-25T14:51:57.051Z</time></trkpt><trkpt lat="45.2273331" lon="8.5394"><ele>108.0</ele><time>2026-04-25T14:51:58.052Z</time></trkpt><trkpt lat="45.2273338" lon="8.539261"><ele>108.0</ele><time>2026-04-25T14:51:59.051Z</time></trkpt><trkpt lat="45.2273362" lon="8.5391234"><ele>108.00000000000001</ele><time>2026-04-25T14:52:00.051Z</time></trkpt><trkpt lat="45.2273391" lon="8.5389801"><ele>108.00000000000001</ele><time>2026-04-25T14:52:01.05Z</time></trkpt><trkpt lat="45.2273353" lon="8.538835"><ele>108.0</ele><time>2026-04-25T14:52:02.052Z</time></trkpt><trkpt lat="45.2273384" lon="8.538683"><ele>108.0</ele><time>2026-04-25T14:52:03.051Z</time></trkpt><trkpt lat="45.2273342" lon="8.5385398"><ele>107.60000000000001</ele><time>2026-04-25T14:52:04.051Z</time></trkpt><trkpt lat="45.2273334" lon="8.5384019"><ele>107.20000000000002</ele><time>2026-04-25T14:52:05.051Z</time></trkpt><trkpt lat="45.2273319" lon="8.5382551"><ele>106.8</ele><time>2026-04-25T14:52:06.052Z</time></trkpt><trkpt lat="45.2273281" lon="8.5381083"><ele>106.4</ele><time>2026-04-25T14:52:07.052Z</time></trkpt><trkpt lat="45.2273296" lon="8.5379584"><ele>106.0</ele><time>2026-04-25T14:52:08.051Z</time></trkpt><trkpt lat="45.2273318" lon="8.5378033"><ele>106.0</ele><time>2026-04-25T14:52:09.05Z</time></trkpt><trkpt lat="45.2273342" lon="8.5376487"><ele>106.0</ele><time>2026-04-25T14:52:10.051Z</time></trkpt><trkpt lat="45.2273376" lon="8.5374916"><ele>106.0</ele><time>2026-04-25T14:52:11.05Z</time></trkpt><trkpt lat="45.2273383" lon="8.5373365"><ele>106.0</ele><time>2026-04-25T14:52:12.05Z</time></trkpt><trkpt lat="45.2273467" lon="8.5371909"><ele>106.0</ele><time>2026-04-25T14:52:13.051Z</time></trkpt><trkpt lat="45.2273464" lon="8.5370319"><ele>106.0</ele><time>2026-04-25T14:52:14.051Z</time></trkpt><trkpt lat="45.2273489" lon="8.5368761"><ele>106.0</ele><time>2026-04-25T14:52:15.05Z</time></trkpt><trkpt lat="45.2273525" lon="8.5367146"><ele>106.0</ele><time>2026-04-25T14:52:16.05Z</time></trkpt><trkpt lat="45.2273532" lon="8.5365505"><ele>106.0</ele><time>2026-04-25T14:52:17.05Z</time></trkpt><trkpt lat="45.2273563" lon="8.5363953"><ele>106.0</ele><time>2026-04-25T14:52:18.052Z</time></trkpt><trkpt lat="45.2273575" lon="8.5362277"><ele>106.19999999999999</ele><time>2026-04-25T14:52:19.05Z</time></trkpt><trkpt lat="45.22736" lon="8.5360687"><ele>106.39999999999999</ele><time>2026-04-25T14:52:20.052Z</time></trkpt><trkpt lat="45.2273626" lon="8.535905"><ele>106.6</ele><time>2026-04-25T14:52:21.052Z</time></trkpt><trkpt lat="45.2273636" lon="8.5357513"><ele>106.8</ele><time>2026-04-25T14:52:22.051Z</time></trkpt><trkpt lat="45.2273623" lon="8.5356017"><ele>107.0</ele><time>2026-04-25T14:52:23.052Z</time></trkpt><trkpt lat="45.2273594" lon="8.535446"><ele>106.8</ele><time>2026-04-25T14:52:24.052Z</time></trkpt><trkpt lat="45.2273637" lon="8.5352937"><ele>106.6</ele><time>2026-04-25T14:52:25.051Z</time></trkpt><trkpt lat="45.2273652" lon="8.5351393"><ele>106.39999999999999</ele><time>2026-04-25T14:52:26.051Z</time></trkpt><trkpt lat="45.2273664" lon="8.5349844"><ele>106.19999999999999</ele><time>2026-04-25T14:52:27.051Z</time></trkpt><trkpt lat="45.2273713" lon="8.5348343"><ele>106.0</ele><time>2026-04-25T14:52:28.051Z</time></trkpt><trkpt lat="45.2273738" lon="8.5346798"><ele>106.00000000000001</ele><time>2026-04-25T14:52:29.049Z</time></trkpt><trkpt lat="45.2273733" lon="8.5345374"><ele>106.0</ele><time>2026-04-25T14:52:30.051Z</time></trkpt><trkpt lat="45.2273676" lon="8.5344159"><ele>106.0</ele><time>2026-04-25T14:52:31.049Z</time></trkpt><trkpt lat="45.2273611" lon="8.534295"><ele>106.0</ele><time>2026-04-25T14:52:32.052Z</time></trkpt><trkpt lat="45.2273467" lon="8.534192"><ele>106.00000000000001</ele><time>2026-04-25T14:52:33.052Z</time></trkpt><trkpt lat="45.2273236" lon="8.5340907"><ele>106.0</ele><time>2026-04-25T14:52:34.052Z</time></trkpt><trkpt lat="45.2272851" lon="8.5339904"><ele>106.00000000000001</ele><time>2026-04-25T14:52:35.05Z</time></trkpt><trkpt lat="45.2272354" lon="8.5338971"><ele>106.0</ele><time>2026-04-25T14:52:36.049Z</time></trkpt><trkpt lat="45.2271824" lon="8.5338157"><ele>106.0</ele><time>2026-04-25T14:52:37.051Z</time></trkpt><trkpt lat="45.2271144" lon="8.5337326"><ele>106.0</ele><time>2026-04-25T14:52:38.052Z</time></trkpt><trkpt lat="45.2270376" lon="8.5336667"><ele>106.00000000000001</ele><time>2026-04-25T14:52:39.051Z</time></trkpt><trkpt lat="45.2269574" lon="8.5336011"><ele>106.0</ele><time>2026-04-25T14:52:40.051Z</time></trkpt><trkpt lat="45.2268862" lon="8.5335357"><ele>106.00000000000001</ele><time>2026-04-25T14:52:41.051Z</time></trkpt><trkpt lat="45.2268164" lon="8.5334716"><ele>106.0</ele><time>2026-04-25T14:52:42.052Z</time></trkpt><trkpt lat="45.2267428" lon="8.5334016"><ele>106.0</ele><time>2026-04-25T14:52:43.05Z</time></trkpt><trkpt lat="45.2266626" lon="8.5333385"><ele>106.0</ele><time>2026-04-25T14:52:44.051Z</time></trkpt><trkpt lat="45.226587" lon="8.5332801"><ele>106.00000000000001</ele><time>2026-04-25T14:52:45.05Z</time></trkpt><trkpt lat="45.2265127" lon="8.5332248"><ele>106.0</ele><time>2026-04-25T14:52:46.052Z</time></trkpt><trkpt lat="45.2264302" lon="8.533171"><ele>106.0</ele><time>2026-04-25T14:52:47.049Z</time></trkpt><trkpt lat="45.2263481" lon="8.5331077"><ele>106.0</ele><time>2026-04-25T14:52:48.052Z</time></trkpt><trkpt lat="45.2262564" lon="8.5330435"><ele>106.0</ele><time>2026-04-25T14:52:49.051Z</time></trkpt><trkpt lat="45.2261672" lon="8.5329763"><ele>106.0</ele><time>2026-04-25T14:52:50.051Z</time></trkpt><trkpt lat="45.2260749" lon="8.5329075"><ele>106.0</ele><time>2026-04-25T14:52:51.05Z</time></trkpt><trkpt lat="45.2259844" lon="8.5328392"><ele>106.0</ele><time>2026-04-25T14:52:52.051Z</time></trkpt><trkpt lat="45.2258941" lon="8.532774"><ele>106.0</ele><time>2026-04-25T14:52:53.051Z</time></trkpt><trkpt lat="45.2258047" lon="8.5327019"><ele>106.0</ele><time>2026-04-25T14:52:54.05Z</time></trkpt><trkpt lat="45.2257153" lon="8.5326368"><ele>106.0</ele><time>2026-04-25T14:52:55.052Z</time></trkpt><trkpt lat="45.225622" lon="8.5325696"><ele>106.0</ele><time>2026-04-25T14:52:56.05Z</time></trkpt><trkpt lat="45.225526" lon="8.5324938"><ele>106.0</ele><time>2026-04-25T14:52:57.052Z</time></trkpt><trkpt lat="45.2254356" lon="8.5324247"><ele>106.0</ele><time>2026-04-25T14:52:58.051Z</time></trkpt><trkpt lat="45.2253405" lon="8.5323539"><ele>106.0</ele><time>2026-04-25T14:52:59.052Z</time></trkpt><trkpt lat="45.2252467" lon="8.5322916"><ele>106.0</ele><time>2026-04-25T14:53:00.051Z</time></trkpt><trkpt lat="45.2251548" lon="8.532224"><ele>106.0</ele><time>2026-04-25T14:53:01.051Z</time></trkpt><trkpt lat="45.2250624" lon="8.532162"><ele>106.0</ele><time>2026-04-25T14:53:02.051Z</time></trkpt><trkpt lat="45.2249733" lon="8.532092"><ele>106.0</ele><time>2026-04-25T14:53:03.052Z</time></trkpt><trkpt lat="45.224887" lon="8.5320168"><ele>106.0</ele><time>2026-04-25T14:53:04.05Z</time></trkpt><trkpt lat="45.2247979" lon="8.5319484"><ele>106.0</ele><time>2026-04-25T14:53:05.051Z</time></trkpt><trkpt lat="45.224705" lon="8.5318822"><ele>106.0</ele><time>2026-04-25T14:53:06.049Z</time></trkpt><trkpt lat="45.2246158" lon="8.5318142"><ele>106.0</ele><time>2026-04-25T14:53:07.05Z</time></trkpt><trkpt lat="45.2245215" lon="8.5317447"><ele>106.0</ele><time>2026-04-25T14:53:08.05Z</time></trkpt><trkpt lat="45.2244312" lon="8.5316671"><ele>106.0</ele><time>2026-04-25T14:53:09.05Z</time></trkpt><trkpt lat="45.2243359" lon="8.5315959"><ele>106.0</ele><time>2026-04-25T14:53:10.05Z</time></trkpt><trkpt lat="45.2242433" lon="8.5315259"><ele>106.0</ele><time>2026-04-25T14:53:11.051Z</time></trkpt><trkpt lat="45.2241519" lon="8.5314565"><ele>106.0</ele><time>2026-04-25T14:53:12.05Z</time></trkpt><trkpt lat="45.2240644" lon="8.5313883"><ele>106.0</ele><time>2026-04-25T14:53:13.052Z</time></trkpt><trkpt lat="45.223973" lon="8.531325"><ele>106.0</ele><time>2026-04-25T14:53:14.051Z</time></trkpt><trkpt lat="45.2238882" lon="8.5312673"><ele>106.0</ele><time>2026-04-25T14:53:15.051Z</time></trkpt><trkpt lat="45.2237959" lon="8.5311931"><ele>106.0</ele><time>2026-04-25T14:53:16.05Z</time></trkpt><trkpt lat="45.223709" lon="8.5311201"><ele>105.8</ele><time>2026-04-25T14:53:17.051Z</time></trkpt><trkpt lat="45.2236136" lon="8.5310417"><ele>105.6</ele><time>2026-04-25T14:53:18.051Z</time></trkpt><trkpt lat="45.2235163" lon="8.5309787"><ele>105.4</ele><time>2026-04-25T14:53:19.051Z</time></trkpt><trkpt lat="45.2234157" lon="8.5309059"><ele>105.2</ele><time>2026-04-25T14:53:20.051Z</time></trkpt><trkpt lat="45.2233179" lon="8.5308355"><ele>105.0</ele><time>2026-04-25T14:53:21.05Z</time></trkpt><trkpt lat="45.2232259" lon="8.5307646"><ele>104.6</ele><time>2026-04-25T14:53:22.05Z</time></trkpt><trkpt lat="45.2231321" lon="8.5307058"><ele>104.2</ele><time>2026-04-25T14:53:23.051Z</time></trkpt><trkpt lat="45.2230287" lon="8.5306483"><ele>103.80000000000001</ele><time>2026-04-25T14:53:24.051Z</time></trkpt><trkpt lat="45.2229293" lon="8.5305941"><ele>103.4</ele><time>2026-04-25T14:53:25.051Z</time></trkpt><trkpt lat="45.2228315" lon="8.5305468"><ele>103.0</ele><time>2026-04-25T14:53:26.051Z</time></trkpt><trkpt lat="45.2227283" lon="8.5304975"><ele>103.0</ele><time>2026-04-25T14:53:27.05Z</time></trkpt><trkpt lat="45.2226242" lon="8.5304627"><ele>103.0</ele><time>2026-04-25T14:53:28.051Z</time></trkpt><trkpt lat="45.2225193" lon="8.5304307"><ele>103.0</ele><time>2026-04-25T14:53:29.051Z</time></trkpt><trkpt lat="45.2224135" lon="8.5304094"><ele>103.0</ele><time>2026-04-25T14:53:30.05Z</time></trkpt><trkpt lat="45.2223038" lon="8.5303954"><ele>103.0</ele><time>2026-04-25T14:53:31.05Z</time></trkpt><trkpt lat="45.222197" lon="8.5303822"><ele>103.2</ele><time>2026-04-25T14:53:32.051Z</time></trkpt><trkpt lat="45.222086" lon="8.530365"><ele>103.4</ele><time>2026-04-25T14:53:33.05Z</time></trkpt><trkpt lat="45.2219822" lon="8.5303643"><ele>103.60000000000001</ele><time>2026-04-25T14:53:34.05Z</time></trkpt><trkpt lat="45.2218823" lon="8.5303707"><ele>103.80000000000001</ele><time>2026-04-25T14:53:35.051Z</time></trkpt><trkpt lat="45.2217758" lon="8.5303803"><ele>104.0</ele><time>2026-04-25T14:53:36.051Z</time></trkpt><trkpt lat="45.2216717" lon="8.5303895"><ele>104.2</ele><time>2026-04-25T14:53:37.049Z</time></trkpt><trkpt lat="45.2215662" lon="8.5304027"><ele>104.4</ele><time>2026-04-25T14:53:38.051Z</time></trkpt><trkpt lat="45.221462" lon="8.5304211"><ele>104.6</ele><time>2026-04-25T14:53:39.051Z</time></trkpt><trkpt lat="45.2213606" lon="8.5304432"><ele>104.8</ele><time>2026-04-25T14:53:40.05Z</time></trkpt><trkpt lat="45.221258" lon="8.5304784"><ele>105.0</ele><time>2026-04-25T14:53:41.05Z</time></trkpt><trkpt lat="45.2211581" lon="8.5305134"><ele>105.2</ele><time>2026-04-25T14:53:42.051Z</time></trkpt><trkpt lat="45.2210557" lon="8.5305517"><ele>105.4</ele><time>2026-04-25T14:53:43.049Z</time></trkpt><trkpt lat="45.2209568" lon="8.5305968"><ele>105.6</ele><time>2026-04-25T14:53:44.05Z</time></trkpt><trkpt lat="45.2208531" lon="8.5306423"><ele>105.8</ele><time>2026-04-25T14:53:45.051Z</time></trkpt><trkpt lat="45.2207517" lon="8.5306941"><ele>106.0</ele><time>2026-04-25T14:53:46.051Z</time></trkpt><trkpt lat="45.2206529" lon="8.5307539"><ele>105.6</ele><time>2026-04-25T14:53:47.049Z</time></trkpt><trkpt lat="45.2205599" lon="8.530816"><ele>105.19999999999999</ele><time>2026-04-25T14:53:48.049Z</time></trkpt><trkpt lat="45.2204674" lon="8.5308815"><ele>104.80000000000001</ele><time>2026-04-25T14:53:49.05Z</time></trkpt><trkpt lat="45.2203716" lon="8.5309543"><ele>104.4</ele><time>2026-04-25T14:53:50.05Z</time></trkpt><trkpt lat="45.220276" lon="8.5310272"><ele>104.0</ele><time>2026-04-25T14:53:51.051Z</time></trkpt><trkpt lat="45.2201837" lon="8.5311008"><ele>104.0</ele><time>2026-04-25T14:53:52.051Z</time></trkpt><trkpt lat="45.2200889" lon="8.5311748"><ele>104.0</ele><time>2026-04-25T14:53:53.051Z</time></trkpt><trkpt lat="45.2199885" lon="8.5312547"><ele>104.0</ele><time>2026-04-25T14:53:54.05Z</time></trkpt><trkpt lat="45.2198932" lon="8.5313306"><ele>104.0</ele><time>2026-04-25T14:53:55.051Z</time></trkpt><trkpt lat="45.2197972" lon="8.531408"><ele>104.0</ele><time>2026-04-25T14:53:56.051Z</time></trkpt><trkpt lat="45.2196999" lon="8.5314839"><ele>105.5</ele><time>2026-04-25T14:53:57.049Z</time></trkpt><trkpt lat="45.2195978" lon="8.5315618"><ele>107.0</ele><time>2026-04-25T14:53:58.051Z</time></trkpt><trkpt lat="45.2194985" lon="8.5316486"><ele>108.5</ele><time>2026-04-25T14:53:59.051Z</time></trkpt><trkpt lat="45.2194013" lon="8.5317358"><ele>110.0</ele><time>2026-04-25T14:54:00.049Z</time></trkpt><trkpt lat="45.2193042" lon="8.5318047"><ele>110.0</ele><time>2026-04-25T14:54:01.05Z</time></trkpt><trkpt lat="45.2192129" lon="8.5318818"><ele>110.0</ele><time>2026-04-25T14:54:02.05Z</time></trkpt><trkpt lat="45.2191189" lon="8.5319619"><ele>110.0</ele><time>2026-04-25T14:54:03.049Z</time></trkpt><trkpt lat="45.2190245" lon="8.5320514"><ele>110.0</ele><time>2026-04-25T14:54:04.049Z</time></trkpt><trkpt lat="45.2189309" lon="8.5321312"><ele>110.0</ele><time>2026-04-25T14:54:05.049Z</time></trkpt><trkpt lat="45.2188385" lon="8.5322111"><ele>109.8</ele><time>2026-04-25T14:54:06.05Z</time></trkpt><trkpt lat="45.218748" lon="8.5322949"><ele>109.6</ele><time>2026-04-25T14:54:07.051Z</time></trkpt><trkpt lat="45.2186605" lon="8.5323735"><ele>109.4</ele><time>2026-04-25T14:54:08.049Z</time></trkpt><trkpt lat="45.2185686" lon="8.5324561"><ele>109.2</ele><time>2026-04-25T14:54:09.051Z</time></trkpt><trkpt lat="45.2184778" lon="8.5325404"><ele>109.0</ele><time>2026-04-25T14:54:10.049Z</time></trkpt><trkpt lat="45.2183891" lon="8.5326156"><ele>109.0</ele><time>2026-04-25T14:54:11.05Z</time></trkpt><trkpt lat="45.2182997" lon="8.5326882"><ele>109.0</ele><time>2026-04-25T14:54:12.05Z</time></trkpt><trkpt lat="45.2182146" lon="8.5327707"><ele>109.0</ele><time>2026-04-25T14:54:13.05Z</time></trkpt><trkpt lat="45.2181231" lon="8.5328571"><ele>109.0</ele><time>2026-04-25T14:54:14.05Z</time></trkpt><trkpt lat="45.2180338" lon="8.5329475"><ele>109.0</ele><time>2026-04-25T14:54:15.051Z</time></trkpt><trkpt lat="45.2179468" lon="8.5330256"><ele>108.2</ele><time>2026-04-25T14:54:16.05Z</time></trkpt><trkpt lat="45.217858" lon="8.5331134"><ele>107.4</ele><time>2026-04-25T14:54:17.051Z</time></trkpt><trkpt lat="45.2177618" lon="8.5332002"><ele>106.6</ele><time>2026-04-25T14:54:18.05Z</time></trkpt><trkpt lat="45.2176645" lon="8.5332819"><ele>105.8</ele><time>2026-04-25T14:54:19.048Z</time></trkpt><trkpt lat="45.2175735" lon="8.5333648"><ele>105.0</ele><time>2026-04-25T14:54:20.05Z</time></trkpt><trkpt lat="45.2174833" lon="8.5334478"><ele>105.0</ele><time>2026-04-25T14:54:21.05Z</time></trkpt><trkpt lat="45.2173905" lon="8.5335338"><ele>105.0</ele><time>2026-04-25T14:54:22.05Z</time></trkpt><trkpt lat="45.2172996" lon="8.5336235"><ele>105.0</ele><time>2026-04-25T14:54:23.049Z</time></trkpt><trkpt lat="45.2172045" lon="8.5337121"><ele>105.0</ele><time>2026-04-25T14:54:24.05Z</time></trkpt><trkpt lat="45.217107" lon="8.5337892"><ele>105.0</ele><time>2026-04-25T14:54:25.049Z</time></trkpt><trkpt lat="45.2170134" lon="8.5338633"><ele>105.4</ele><time>2026-04-25T14:54:26.05Z</time></trkpt><trkpt lat="45.2169228" lon="8.5339432"><ele>105.8</ele><time>2026-04-25T14:54:27.051Z</time></trkpt><trkpt lat="45.2168269" lon="8.5340358"><ele>106.19999999999999</ele><time>2026-04-25T14:54:28.05Z</time></trkpt><trkpt lat="45.2167383" lon="8.5341189"><ele>106.6</ele><time>2026-04-25T14:54:29.05Z</time></trkpt><trkpt lat="45.2166423" lon="8.534205"><ele>107.0</ele><time>2026-04-25T14:54:30.05Z</time></trkpt><trkpt lat="45.2165513" lon="8.5342983"><ele>106.8</ele><time>2026-04-25T14:54:31.05Z</time></trkpt><trkpt lat="45.2164576" lon="8.5343822"><ele>106.6</ele><time>2026-04-25T14:54:32.051Z</time></trkpt><trkpt lat="45.2163645" lon="8.5344694"><ele>106.39999999999999</ele><time>2026-04-25T14:54:33.05Z</time></trkpt><trkpt lat="45.2162668" lon="8.5345541"><ele>106.19999999999999</ele><time>2026-04-25T14:54:34.051Z</time></trkpt><trkpt lat="45.2161729" lon="8.5346381"><ele>106.0</ele><time>2026-04-25T14:54:35.048Z</time></trkpt><trkpt lat="45.2160756" lon="8.5347241"><ele>106.0</ele><time>2026-04-25T14:54:36.05Z</time></trkpt><trkpt lat="45.2159863" lon="8.5348001"><ele>106.0</ele><time>2026-04-25T14:54:37.05Z</time></trkpt><trkpt lat="45.2158951" lon="8.5348805"><ele>106.0</ele><time>2026-04-25T14:54:38.05Z</time></trkpt><trkpt lat="45.2158053" lon="8.5349703"><ele>106.0</ele><time>2026-04-25T14:54:39.05Z</time></trkpt><trkpt lat="45.2157131" lon="8.5350466"><ele>106.0</ele><time>2026-04-25T14:54:40.05Z</time></trkpt><trkpt lat="45.2156219" lon="8.5351297"><ele>106.0</ele><time>2026-04-25T14:54:41.051Z</time></trkpt><trkpt lat="45.2155277" lon="8.5352251"><ele>106.0</ele><time>2026-04-25T14:54:42.05Z</time></trkpt><trkpt lat="45.2154371" lon="8.5353114"><ele>106.0</ele><time>2026-04-25T14:54:43.051Z</time></trkpt><trkpt lat="45.2153487" lon="8.5353935"><ele>106.0</ele><time>2026-04-25T14:54:44.05Z</time></trkpt><trkpt lat="45.2152531" lon="8.5354746"><ele>106.0</ele><time>2026-04-25T14:54:45.049Z</time></trkpt><trkpt lat="45.2151584" lon="8.5355559"><ele>106.0</ele><time>2026-04-25T14:54:46.049Z</time></trkpt><trkpt lat="45.2150587" lon="8.5356429"><ele>106.0</ele><time>2026-04-25T14:54:47.05Z</time></trkpt><trkpt lat="45.2149705" lon="8.5357345"><ele>106.0</ele><time>2026-04-25T14:54:48.051Z</time></trkpt><trkpt lat="45.2148804" lon="8.5358199"><ele>106.0</ele><time>2026-04-25T14:54:49.049Z</time></trkpt><trkpt lat="45.2147891" lon="8.5359115"><ele>106.0</ele><time>2026-04-25T14:54:50.05Z</time></trkpt><trkpt lat="45.2146983" lon="8.5360054"><ele>106.0</ele><time>2026-04-25T14:54:51.049Z</time></trkpt><trkpt lat="45.2146092" lon="8.5361003"><ele>106.0</ele><time>2026-04-25T14:54:52.051Z</time></trkpt><trkpt lat="45.2145183" lon="8.536198"><ele>106.0</ele><time>2026-04-25T14:54:53.051Z</time></trkpt><trkpt lat="45.2144292" lon="8.5362902"><ele>106.0</ele><time>2026-04-25T14:54:54.05Z</time></trkpt><trkpt lat="45.2143407" lon="8.5363842"><ele>106.0</ele><time>2026-04-25T14:54:55.05Z</time></trkpt><trkpt lat="45.2142617" lon="8.5364814"><ele>105.5</ele><time>2026-04-25T14:54:56.05Z</time></trkpt><trkpt lat="45.2141814" lon="8.5365929"><ele>105.0</ele><time>2026-04-25T14:54:57.049Z</time></trkpt><trkpt lat="45.214104" lon="8.5367152"><ele>104.5</ele><time>2026-04-25T14:54:58.05Z</time></trkpt><trkpt lat="45.214031" lon="8.5368387"><ele>104.0</ele><time>2026-04-25T14:54:59.051Z</time></trkpt><trkpt lat="45.213954" lon="8.5369476"><ele>103.5</ele><time>2026-04-25T14:55:00.05Z</time></trkpt><trkpt lat="45.2138831" lon="8.5370709"><ele>103.0</ele><time>2026-04-25T14:55:01.049Z</time></trkpt><trkpt lat="45.2138113" lon="8.5371983"><ele>102.5</ele><time>2026-04-25T14:55:02.049Z</time></trkpt><trkpt lat="45.2137338" lon="8.5373189"><ele>102.0</ele><time>2026-04-25T14:55:03.05Z</time></trkpt><trkpt lat="45.2136631" lon="8.5374406"><ele>102.0</ele><time>2026-04-25T14:55:04.05Z</time></trkpt><trkpt lat="45.2135956" lon="8.5375594"><ele>102.0</ele><time>2026-04-25T14:55:05.05Z</time></trkpt><trkpt lat="45.2135348" lon="8.5376769"><ele>102.0</ele><time>2026-04-25T14:55:06.048Z</time></trkpt><trkpt lat="45.2134724" lon="8.5378009"><ele>102.0</ele><time>2026-04-25T14:55:07.051Z</time></trkpt><trkpt lat="45.2134026" lon="8.5379196"><ele>102.0</ele><time>2026-04-25T14:55:08.05Z</time></trkpt><trkpt lat="45.2133404" lon="8.5380398"><ele>102.0</ele><time>2026-04-25T14:55:09.049Z</time></trkpt><trkpt lat="45.2132739" lon="8.5381562"><ele>102.0</ele><time>2026-04-25T14:55:10.051Z</time></trkpt><trkpt lat="45.2132064" lon="8.5382778"><ele>102.0</ele><time>2026-04-25T14:55:11.05Z</time></trkpt><trkpt lat="45.2131374" lon="8.5384011"><ele>102.0</ele><time>2026-04-25T14:55:12.05Z</time></trkpt><trkpt lat="45.21307" lon="8.5385271"><ele>102.0</ele><time>2026-04-25T14:55:13.05Z</time></trkpt><trkpt lat="45.2130085" lon="8.5386448"><ele>102.19999999999999</ele><time>2026-04-25T14:55:14.051Z</time></trkpt><trkpt lat="45.2129457" lon="8.538769"><ele>102.4</ele><time>2026-04-25T14:55:15.051Z</time></trkpt><trkpt lat="45.2128819" lon="8.5388915"><ele>102.6</ele><time>2026-04-25T14:55:16.049Z</time></trkpt><trkpt lat="45.2128162" lon="8.539018"><ele>102.80000000000001</ele><time>2026-04-25T14:55:17.051Z</time></trkpt><trkpt lat="45.2127514" lon="8.5391418"><ele>103.0</ele><time>2026-04-25T14:55:18.05Z</time></trkpt><trkpt lat="45.2126853" lon="8.5392557"><ele>103.0</ele><time>2026-04-25T14:55:19.049Z</time></trkpt><trkpt lat="45.212626" lon="8.5393812"><ele>103.0</ele><time>2026-04-25T14:55:20.05Z</time></trkpt><trkpt lat="45.2125585" lon="8.5395143"><ele>103.0</ele><time>2026-04-25T14:55:21.051Z</time></trkpt><trkpt lat="45.2125064" lon="8.5396317"><ele>103.0</ele><time>2026-04-25T14:55:22.05Z</time></trkpt><trkpt lat="45.2124418" lon="8.5397635"><ele>103.0</ele><time>2026-04-25T14:55:23.05Z</time></trkpt><trkpt lat="45.2123749" lon="8.5398875"><ele>103.2</ele><time>2026-04-25T14:55:24.05Z</time></trkpt><trkpt lat="45.2123111" lon="8.5400121"><ele>103.4</ele><time>2026-04-25T14:55:25.049Z</time></trkpt><trkpt lat="45.2122452" lon="8.540136"><ele>103.60000000000001</ele><time>2026-04-25T14:55:26.051Z</time></trkpt><trkpt lat="45.2121882" lon="8.5402615"><ele>103.80000000000001</ele><time>2026-04-25T14:55:27.051Z</time></trkpt><trkpt lat="45.2121273" lon="8.5403843"><ele>104.0</ele><time>2026-04-25T14:55:28.051Z</time></trkpt><trkpt lat="45.2120643" lon="8.5405045"><ele>104.0</ele><time>2026-04-25T14:55:29.05Z</time></trkpt><trkpt lat="45.2120034" lon="8.540629"><ele>104.0</ele><time>2026-04-25T14:55:30.051Z</time></trkpt><trkpt lat="45.2119332" lon="8.5407446"><ele>104.0</ele><time>2026-04-25T14:55:31.05Z</time></trkpt><trkpt lat="45.2118681" lon="8.5408706"><ele>104.0</ele><time>2026-04-25T14:55:32.05Z</time></trkpt><trkpt lat="45.2118002" lon="8.5409899"><ele>104.0</ele><time>2026-04-25T14:55:33.05Z</time></trkpt><trkpt lat="45.2117363" lon="8.5411067"><ele>104.2</ele><time>2026-04-25T14:55:34.05Z</time></trkpt><trkpt lat="45.2116651" lon="8.5412277"><ele>104.4</ele><time>2026-04-25T14:55:35.049Z</time></trkpt><trkpt lat="45.2116021" lon="8.5413444"><ele>104.6</ele><time>2026-04-25T14:55:36.05Z</time></trkpt><trkpt lat="45.2115327" lon="8.541465"><ele>104.8</ele><time>2026-04-25T14:55:37.049Z</time></trkpt><trkpt lat="45.2114699" lon="8.5415845"><ele>105.0</ele><time>2026-04-25T14:55:38.05Z</time></trkpt><trkpt lat="45.2114" lon="8.5417004"><ele>104.4</ele><time>2026-04-25T14:55:39.051Z</time></trkpt><trkpt lat="45.2113309" lon="8.5418208"><ele>103.8</ele><time>2026-04-25T14:55:40.05Z</time></trkpt><trkpt lat="45.2112602" lon="8.541946"><ele>103.19999999999999</ele><time>2026-04-25T14:55:41.051Z</time></trkpt><trkpt lat="45.2111927" lon="8.5420747"><ele>102.6</ele><time>2026-04-25T14:55:42.05Z</time></trkpt><trkpt lat="45.2111222" lon="8.5422007"><ele>102.0</ele><time>2026-04-25T14:55:43.05Z</time></trkpt><trkpt lat="45.2110528" lon="8.5423311"><ele>102.0</ele><time>2026-04-25T14:55:44.05Z</time></trkpt><trkpt lat="45.2109842" lon="8.5424591"><ele>102.0</ele><time>2026-04-25T14:55:45.05Z</time></trkpt><trkpt lat="45.2109158" lon="8.5425796"><ele>102.0</ele><time>2026-04-25T14:55:46.05Z</time></trkpt><trkpt lat="45.2108493" lon="8.5426966"><ele>102.0</ele><time>2026-04-25T14:55:47.051Z</time></trkpt><trkpt lat="45.210788" lon="8.5428216"><ele>102.0</ele><time>2026-04-25T14:55:48.049Z</time></trkpt><trkpt lat="45.2107248" lon="8.5429394"><ele>102.16666666666667</ele><time>2026-04-25T14:55:49.051Z</time></trkpt><trkpt lat="45.2106827" lon="8.5430597"><ele>102.33333333333334</ele><time>2026-04-25T14:55:50.05Z</time></trkpt><trkpt lat="45.2106503" lon="8.5431741"><ele>102.5</ele><time>2026-04-25T14:55:51.05Z</time></trkpt><trkpt lat="45.2106444" lon="8.5432859"><ele>102.66666666666667</ele><time>2026-04-25T14:55:52.049Z</time></trkpt><trkpt lat="45.2106481" lon="8.5433943"><ele>102.83333333333334</ele><time>2026-04-25T14:55:53.049Z</time></trkpt><trkpt lat="45.2106294" lon="8.5435208"><ele>103.0</ele><time>2026-04-25T14:55:54.05Z</time></trkpt><trkpt lat="45.2106066" lon="8.5436556"><ele>102.83333333333334</ele><time>2026-04-25T14:55:55.05Z</time></trkpt><trkpt lat="45.2105752" lon="8.5437707"><ele>102.66666666666667</ele><time>2026-04-25T14:55:56.049Z</time></trkpt><trkpt lat="45.2105478" lon="8.5438719"><ele>102.5</ele><time>2026-04-25T14:55:57.048Z</time></trkpt><trkpt lat="45.2105189" lon="8.5439755"><ele>102.33333333333334</ele><time>2026-04-25T14:55:58.049Z</time></trkpt><trkpt lat="45.2104772" lon="8.5440626"><ele>102.16666666666667</ele><time>2026-04-25T14:55:59.05Z</time></trkpt><trkpt lat="45.2104299" lon="8.544134"><ele>102.0</ele><time>2026-04-25T14:56:00.048Z</time></trkpt><trkpt lat="45.2103722" lon="8.5441802"><ele>102.0</ele><time>2026-04-25T14:56:01.051Z</time></trkpt><trkpt lat="45.2103011" lon="8.5442199"><ele>102.0</ele><time>2026-04-25T14:56:02.05Z</time></trkpt><trkpt lat="45.2102287" lon="8.5442775"><ele>102.0</ele><time>2026-04-25T14:56:03.049Z</time></trkpt><trkpt lat="45.210164" lon="8.5443382"><ele>102.0</ele><time>2026-04-25T14:56:04.05Z</time></trkpt><trkpt lat="45.2100967" lon="8.5444352"><ele>102.0</ele><time>2026-04-25T14:56:05.049Z</time></trkpt><trkpt lat="45.2100225" lon="8.5445348"><ele>102.0</ele><time>2026-04-25T14:56:06.05Z</time></trkpt><trkpt lat="45.2099422" lon="8.5446475"><ele>101.75</ele><time>2026-04-25T14:56:07.05Z</time></trkpt><trkpt lat="45.2098655" lon="8.5447626"><ele>101.5</ele><time>2026-04-25T14:56:08.049Z</time></trkpt><trkpt lat="45.2097848" lon="8.5448754"><ele>101.25</ele><time>2026-04-25T14:56:09.049Z</time></trkpt><trkpt lat="45.2097088" lon="8.5449832"><ele>101.0</ele><time>2026-04-25T14:56:10.049Z</time></trkpt><trkpt lat="45.2096278" lon="8.5451048"><ele>101.0</ele><time>2026-04-25T14:56:11.05Z</time></trkpt><trkpt lat="45.2095502" lon="8.5452221"><ele>101.0</ele><time>2026-04-25T14:56:12.049Z</time></trkpt><trkpt lat="45.2094677" lon="8.545336"><ele>101.0</ele><time>2026-04-25T14:56:13.049Z</time></trkpt><trkpt lat="45.2093871" lon="8.5454596"><ele>101.0</ele><time>2026-04-25T14:56:14.049Z</time></trkpt><trkpt lat="45.2093049" lon="8.5455713"><ele>101.0</ele><time>2026-04-25T14:56:15.049Z</time></trkpt><trkpt lat="45.209219" lon="8.5456802"><ele>101.0</ele><time>2026-04-25T14:56:16.049Z</time></trkpt><trkpt lat="45.209134" lon="8.5457855"><ele>101.0</ele><time>2026-04-25T14:56:17.049Z</time></trkpt><trkpt lat="45.2090506" lon="8.5458911"><ele>101.0</ele><time>2026-04-25T14:56:18.05Z</time></trkpt><trkpt lat="45.2089682" lon="8.5460018"><ele>101.0</ele><time>2026-04-25T14:56:19.05Z</time></trkpt><trkpt lat="45.2088837" lon="8.5461094"><ele>101.0</ele><time>2026-04-25T14:56:20.05Z</time></trkpt><trkpt lat="45.2088024" lon="8.5462185"><ele>101.0</ele><time>2026-04-25T14:56:21.049Z</time></trkpt><trkpt lat="45.2087176" lon="8.5463276"><ele>101.0</ele><time>2026-04-25T14:56:22.05Z</time></trkpt><trkpt lat="45.2086363" lon="8.5464211"><ele>101.0</ele><time>2026-04-25T14:56:23.049Z</time></trkpt><trkpt lat="45.2085553" lon="8.5465259"><ele>101.49999999999999</ele><time>2026-04-25T14:56:24.049Z</time></trkpt><trkpt lat="45.2084752" lon="8.5466202"><ele>102.0</ele><time>2026-04-25T14:56:25.05Z</time></trkpt><trkpt lat="45.2083984" lon="8.5467102"><ele>102.5</ele><time>2026-04-25T14:56:26.05Z</time></trkpt><trkpt lat="45.2083328" lon="8.5467844"><ele>103.0</ele><time>2026-04-25T14:56:27.05Z</time></trkpt><trkpt lat="45.2082795" lon="8.546849"><ele>103.49999999999999</ele><time>2026-04-25T14:56:28.049Z</time></trkpt><trkpt lat="45.2082346" lon="8.5469142"><ele>104.0</ele><time>2026-04-25T14:56:29.049Z</time></trkpt><trkpt lat="45.208173" lon="8.5470206"><ele>104.2</ele><time>2026-04-25T14:56:31.049Z</time></trkpt><trkpt lat="45.2081247" lon="8.5470866"><ele>104.4</ele><time>2026-04-25T14:57:28.048Z</time></trkpt><trkpt lat="45.2080407" lon="8.5471781"><ele>104.6</ele><time>2026-04-25T14:57:31.049Z</time></trkpt><trkpt lat="45.2079687" lon="8.5472626"><ele>104.8</ele><time>2026-04-25T14:57:33.05Z</time></trkpt><trkpt lat="45.2078862" lon="8.5473514"><ele>105.0</ele><time>2026-04-25T14:57:35.047Z</time></trkpt><trkpt lat="45.2078013" lon="8.5474414"><ele>105.0</ele><time>2026-04-25T14:57:37.049Z</time></trkpt><trkpt lat="45.2077525" lon="8.5475019"><ele>105.0</ele><time>2026-04-25T14:57:38.05Z</time></trkpt><trkpt lat="45.2076984" lon="8.5475702"><ele>105.0</ele><time>2026-04-25T14:57:39.049Z</time></trkpt><trkpt lat="45.207639" lon="8.5476443"><ele>105.0</ele><time>2026-04-25T14:57:40.047Z</time></trkpt><trkpt lat="45.2075766" lon="8.5477192"><ele>105.0</ele><time>2026-04-25T14:57:41.05Z</time></trkpt><trkpt lat="45.2075094" lon="8.5477977"><ele>105.0</ele><time>2026-04-25T14:57:42.049Z</time></trkpt><trkpt lat="45.207441" lon="8.5478839"><ele>104.83333333333333</ele><time>2026-04-25T14:57:43.05Z</time></trkpt><trkpt lat="45.2073732" lon="8.5479658"><ele>104.66666666666666</ele><time>2026-04-25T14:57:44.05Z</time></trkpt><trkpt lat="45.2073115" lon="8.5480365"><ele>104.5</ele><time>2026-04-25T14:57:45.05Z</time></trkpt><trkpt lat="45.2072544" lon="8.5481083"><ele>104.33333333333333</ele><time>2026-04-25T14:57:46.049Z</time></trkpt><trkpt lat="45.2071983" lon="8.5481784"><ele>104.16666666666666</ele><time>2026-04-25T14:57:47.05Z</time></trkpt><trkpt lat="45.2071421" lon="8.548243"><ele>104.0</ele><time>2026-04-25T14:57:48.05Z</time></trkpt><trkpt lat="45.2070844" lon="8.5483176"><ele>103.83333333333333</ele><time>2026-04-25T14:57:49.049Z</time></trkpt><trkpt lat="45.2070224" lon="8.5483946"><ele>103.66666666666666</ele><time>2026-04-25T14:57:50.048Z</time></trkpt><trkpt lat="45.206963" lon="8.5484674"><ele>103.5</ele><time>2026-04-25T14:57:51.05Z</time></trkpt><trkpt lat="45.2068993" lon="8.5485413"><ele>103.33333333333334</ele><time>2026-04-25T14:57:52.05Z</time></trkpt><trkpt lat="45.2068358" lon="8.5486209"><ele>103.16666666666667</ele><time>2026-04-25T14:57:53.049Z</time></trkpt><trkpt lat="45.2067683" lon="8.5487091"><ele>103.0</ele><time>2026-04-25T14:57:54.05Z</time></trkpt><trkpt lat="45.2067025" lon="8.5487946"><ele>103.4</ele><time>2026-04-25T14:57:55.049Z</time></trkpt><trkpt lat="45.2066371" lon="8.5488766"><ele>103.80000000000001</ele><time>2026-04-25T14:57:56.049Z</time></trkpt><trkpt lat="45.2065689" lon="8.5489631"><ele>104.2</ele><time>2026-04-25T14:57:57.048Z</time></trkpt><trkpt lat="45.2065" lon="8.5490474"><ele>104.6</ele><time>2026-04-25T14:57:58.048Z</time></trkpt><trkpt lat="45.2064328" lon="8.5491314"><ele>105.0</ele><time>2026-04-25T14:57:59.048Z</time></trkpt><trkpt lat="45.206366" lon="8.54922"><ele>105.0</ele><time>2026-04-25T14:58:00.048Z</time></trkpt><trkpt lat="45.2062989" lon="8.5493033"><ele>105.0</ele><time>2026-04-25T14:58:01.049Z</time></trkpt><trkpt lat="45.2062319" lon="8.5493841"><ele>105.0</ele><time>2026-04-25T14:58:02.05Z</time></trkpt><trkpt lat="45.2061637" lon="8.5494608"><ele>105.0</ele><time>2026-04-25T14:58:03.05Z</time></trkpt><trkpt lat="45.2060974" lon="8.5495458"><ele>105.0</ele><time>2026-04-25T14:58:04.049Z</time></trkpt><trkpt lat="45.2060242" lon="8.5496273"><ele>105.0</ele><time>2026-04-25T14:58:05.049Z</time></trkpt><trkpt lat="45.2059519" lon="8.549715"><ele>105.2</ele><time>2026-04-25T14:58:06.048Z</time></trkpt><trkpt lat="45.2058804" lon="8.5498039"><ele>105.4</ele><time>2026-04-25T14:58:07.049Z</time></trkpt><trkpt lat="45.2058111" lon="8.5498938"><ele>105.6</ele><time>2026-04-25T14:58:08.049Z</time></trkpt><trkpt lat="45.2057392" lon="8.5499819"><ele>105.8</ele><time>2026-04-25T14:58:09.048Z</time></trkpt><trkpt lat="45.2056761" lon="8.5500721"><ele>106.0</ele><time>2026-04-25T14:58:10.048Z</time></trkpt><trkpt lat="45.2056023" lon="8.5501522"><ele>105.8</ele><time>2026-04-25T14:58:11.049Z</time></trkpt><trkpt lat="45.2055324" lon="8.5502431"><ele>105.6</ele><time>2026-04-25T14:58:12.049Z</time></trkpt><trkpt lat="45.2054623" lon="8.5503369"><ele>105.4</ele><time>2026-04-25T14:58:13.049Z</time></trkpt><trkpt lat="45.2053882" lon="8.5504281"><ele>105.2</ele><time>2026-04-25T14:58:14.05Z</time></trkpt><trkpt lat="45.2053178" lon="8.5505156"><ele>105.0</ele><time>2026-04-25T14:58:15.049Z</time></trkpt><trkpt lat="45.2052428" lon="8.5506067"><ele>105.0</ele><time>2026-04-25T14:58:16.048Z</time></trkpt><trkpt lat="45.2051697" lon="8.5506943"><ele>105.0</ele><time>2026-04-25T14:58:17.049Z</time></trkpt><trkpt lat="45.2051008" lon="8.5507847"><ele>105.0</ele><time>2026-04-25T14:58:18.049Z</time></trkpt><trkpt lat="45.2050304" lon="8.5508701"><ele>105.0</ele><time>2026-04-25T14:58:19.049Z</time></trkpt><trkpt lat="45.2049586" lon="8.5509586"><ele>105.0</ele><time>2026-04-25T14:58:20.049Z</time></trkpt><trkpt lat="45.2048851" lon="8.5510401"><ele>105.0</ele><time>2026-04-25T14:58:21.049Z</time></trkpt><trkpt lat="45.2048116" lon="8.5511347"><ele>105.0</ele><time>2026-04-25T14:58:22.048Z</time></trkpt><trkpt lat="45.2047403" lon="8.5512235"><ele>105.0</ele><time>2026-04-25T14:58:23.048Z</time></trkpt><trkpt lat="45.2046657" lon="8.5513162"><ele>105.0</ele><time>2026-04-25T14:58:24.049Z</time></trkpt><trkpt lat="45.2045958" lon="8.5514019"><ele>105.0</ele><time>2026-04-25T14:58:25.048Z</time></trkpt><trkpt lat="45.2045238" lon="8.5514974"><ele>105.0</ele><time>2026-04-25T14:58:26.048Z</time></trkpt><trkpt lat="45.2044494" lon="8.551594"><ele>105.0</ele><time>2026-04-25T14:58:27.049Z</time></trkpt><trkpt lat="45.2043777" lon="8.5516825"><ele>105.0</ele><time>2026-04-25T14:58:28.048Z</time></trkpt><trkpt lat="45.204316" lon="8.5517683"><ele>105.0</ele><time>2026-04-25T14:58:29.049Z</time></trkpt><trkpt lat="45.2042719" lon="8.5518594"><ele>105.0</ele><time>2026-04-25T14:58:30.049Z</time></trkpt><trkpt lat="45.2042321" lon="8.551952"><ele>105.0</ele><time>2026-04-25T14:58:31.048Z</time></trkpt><trkpt lat="45.2041905" lon="8.5520612"><ele>104.8</ele><time>2026-04-25T14:58:32.049Z</time></trkpt><trkpt lat="45.2041583" lon="8.5521892"><ele>104.6</ele><time>2026-04-25T14:58:33.048Z</time></trkpt><trkpt lat="45.204134" lon="8.5523182"><ele>104.4</ele><time>2026-04-25T14:58:34.048Z</time></trkpt><trkpt lat="45.2041088" lon="8.5524447"><ele>104.2</ele><time>2026-04-25T14:58:35.049Z</time></trkpt><trkpt lat="45.2040901" lon="8.5525805"><ele>104.0</ele><time>2026-04-25T14:58:36.049Z</time></trkpt><trkpt lat="45.20407" lon="8.5527153"><ele>104.0</ele><time>2026-04-25T14:58:37.048Z</time></trkpt><trkpt lat="45.2040605" lon="8.5528547"><ele>104.0</ele><time>2026-04-25T14:58:38.049Z</time></trkpt><trkpt lat="45.2040492" lon="8.552991"><ele>104.0</ele><time>2026-04-25T14:58:39.049Z</time></trkpt><trkpt lat="45.2040349" lon="8.5531326"><ele>104.0</ele><time>2026-04-25T14:58:40.049Z</time></trkpt><trkpt lat="45.2040231" lon="8.5532772"><ele>104.0</ele><time>2026-04-25T14:58:41.048Z</time></trkpt><trkpt lat="45.2040117" lon="8.5534193"><ele>103.80000000000001</ele><time>2026-04-25T14:58:42.049Z</time></trkpt><trkpt lat="45.2040051" lon="8.5535618"><ele>103.60000000000001</ele><time>2026-04-25T14:58:43.049Z</time></trkpt><trkpt lat="45.2039982" lon="8.5537023"><ele>103.4</ele><time>2026-04-25T14:58:44.048Z</time></trkpt><trkpt lat="45.2039879" lon="8.553846"><ele>103.2</ele><time>2026-04-25T14:58:45.05Z</time></trkpt><trkpt lat="45.2039767" lon="8.5539976"><ele>103.0</ele><time>2026-04-25T14:58:46.048Z</time></trkpt><trkpt lat="45.2039669" lon="8.5541413"><ele>103.00000000000001</ele><time>2026-04-25T14:58:47.049Z</time></trkpt><trkpt lat="45.2039572" lon="8.5542779"><ele>103.0</ele><time>2026-04-25T14:58:48.049Z</time></trkpt><trkpt lat="45.203949" lon="8.5543956"><ele>103.0</ele><time>2026-04-25T14:58:49.048Z</time></trkpt><trkpt lat="45.2039322" lon="8.5544951"><ele>103.0</ele><time>2026-04-25T14:58:50.049Z</time></trkpt><trkpt lat="45.2039093" lon="8.5545786"><ele>103.00000000000001</ele><time>2026-04-25T14:58:51.05Z</time></trkpt><trkpt lat="45.2038207" lon="8.5546603"><ele>103.0</ele><time>2026-04-25T14:58:53.049Z</time></trkpt><trkpt lat="45.2037013" lon="8.5546453"><ele>103.0</ele><time>2026-04-25T14:58:55.049Z</time></trkpt><trkpt lat="45.2036288" lon="8.5546159"><ele>103.0</ele><time>2026-04-25T14:58:56.049Z</time></trkpt><trkpt lat="45.2035379" lon="8.5545696"><ele>103.0</ele><time>2026-04-25T14:58:57.049Z</time></trkpt><trkpt lat="45.2034547" lon="8.5545243"><ele>103.0</ele><time>2026-04-25T14:58:58.049Z</time></trkpt><trkpt lat="45.2033648" lon="8.5544787"><ele>103.0</ele><time>2026-04-25T14:58:59.049Z</time></trkpt><trkpt lat="45.2032717" lon="8.5544201"><ele>103.0</ele><time>2026-04-25T14:59:00.049Z</time></trkpt><trkpt lat="45.2031678" lon="8.5543638"><ele>103.0</ele><time>2026-04-25T14:59:01.049Z</time></trkpt><trkpt lat="45.203056" lon="8.5543059"><ele>103.0</ele><time>2026-04-25T14:59:02.048Z</time></trkpt><trkpt lat="45.2029413" lon="8.554247"><ele>103.0</ele><time>2026-04-25T14:59:03.049Z</time></trkpt><trkpt lat="45.2028227" lon="8.5541821"><ele>103.25</ele><time>2026-04-25T14:59:04.048Z</time></trkpt><trkpt lat="45.2027025" lon="8.5541208"><ele>103.5</ele><time>2026-04-25T14:59:05.048Z</time></trkpt><trkpt lat="45.2025817" lon="8.554056"><ele>103.75</ele><time>2026-04-25T14:59:06.048Z</time></trkpt><trkpt lat="45.2024569" lon="8.5539919"><ele>104.0</ele><time>2026-04-25T14:59:07.049Z</time></trkpt><trkpt lat="45.2023335" lon="8.5539316"><ele>104.0</ele><time>2026-04-25T14:59:08.048Z</time></trkpt><trkpt lat="45.2022125" lon="8.5538669"><ele>104.0</ele><time>2026-04-25T14:59:09.049Z</time></trkpt><trkpt lat="45.2020896" lon="8.5538047"><ele>104.0</ele><time>2026-04-25T14:59:10.049Z</time></trkpt><trkpt lat="45.2019713" lon="8.5537404"><ele>104.0</ele><time>2026-04-25T14:59:11.049Z</time></trkpt><trkpt lat="45.201842" lon="8.5536688"><ele>104.0</ele><time>2026-04-25T14:59:12.048Z</time></trkpt><trkpt lat="45.2017141" lon="8.5536103"><ele>104.0</ele><time>2026-04-25T14:59:13.048Z</time></trkpt><trkpt lat="45.2015929" lon="8.5535548"><ele>104.0</ele><time>2026-04-25T14:59:14.047Z</time></trkpt><trkpt lat="45.2014871" lon="8.553502"><ele>104.0</ele><time>2026-04-25T14:59:15.048Z</time></trkpt><trkpt lat="45.2014051" lon="8.5534685"><ele>104.33333333333333</ele><time>2026-04-25T14:59:16.047Z</time></trkpt><trkpt lat="45.2013139" lon="8.5534222"><ele>104.66666666666666</ele><time>2026-04-25T14:59:18.048Z</time></trkpt><trkpt lat="45.2012505" lon="8.5533869"><ele>105.0</ele><time>2026-04-25T14:59:41.047Z</time></trkpt><trkpt lat="45.2011755" lon="8.5533458"><ele>105.33333333333334</ele><time>2026-04-25T14:59:43.049Z</time></trkpt><trkpt lat="45.2011119" lon="8.5533277"><ele>105.66666666666667</ele><time>2026-04-25T14:59:44.048Z</time></trkpt><trkpt lat="45.2010392" lon="8.5533077"><ele>106.0</ele><time>2026-04-25T14:59:45.049Z</time></trkpt><trkpt lat="45.2009609" lon="8.5532832"><ele>106.0</ele><time>2026-04-25T14:59:46.048Z</time></trkpt><trkpt lat="45.200881" lon="8.5532573"><ele>106.0</ele><time>2026-04-25T14:59:47.048Z</time></trkpt><trkpt lat="45.2007922" lon="8.5532376"><ele>106.0</ele><time>2026-04-25T14:59:48.048Z</time></trkpt><trkpt lat="45.2006949" lon="8.5532157"><ele>106.0</ele><time>2026-04-25T14:59:49.049Z</time></trkpt><trkpt lat="45.2006014" lon="8.553194"><ele>106.0</ele><time>2026-04-25T14:59:50.049Z</time></trkpt><trkpt lat="45.2005122" lon="8.5531848"><ele>106.00000000000001</ele><time>2026-04-25T14:59:51.047Z</time></trkpt><trkpt lat="45.2004284" lon="8.5531809"><ele>106.0</ele><time>2026-04-25T14:59:52.048Z</time></trkpt><trkpt lat="45.2003444" lon="8.5531848"><ele>106.0</ele><time>2026-04-25T14:59:53.048Z</time></trkpt><trkpt lat="45.2002606" lon="8.5531944"><ele>106.0</ele><time>2026-04-25T14:59:54.049Z</time></trkpt><trkpt lat="45.2001773" lon="8.5532144"><ele>106.00000000000001</ele><time>2026-04-25T14:59:55.048Z</time></trkpt><trkpt lat="45.2000949" lon="8.5532382"><ele>106.0</ele><time>2026-04-25T14:59:56.047Z</time></trkpt><trkpt lat="45.2000193" lon="8.5532633"><ele>106.00000000000001</ele><time>2026-04-25T14:59:57.048Z</time></trkpt><trkpt lat="45.1999503" lon="8.5532937"><ele>106.0</ele><time>2026-04-25T14:59:58.048Z</time></trkpt><trkpt lat="45.1998889" lon="8.5533196"><ele>106.0</ele><time>2026-04-25T14:59:59.049Z</time></trkpt><trkpt lat="45.1998277" lon="8.5533572"><ele>106.0</ele><time>2026-04-25T15:00:00.047Z</time></trkpt><trkpt lat="45.199747" lon="8.5533973"><ele>106.00000000000001</ele><time>2026-04-25T15:00:01.049Z</time></trkpt><trkpt lat="45.1996708" lon="8.5534348"><ele>106.0</ele><time>2026-04-25T15:00:02.048Z</time></trkpt><trkpt lat="45.1995853" lon="8.5534777"><ele>106.00000000000001</ele><time>2026-04-25T15:00:03.049Z</time></trkpt><trkpt lat="45.199497" lon="8.5535237"><ele>106.0</ele><time>2026-04-25T15:00:04.048Z</time></trkpt><trkpt lat="45.1994148" lon="8.553566"><ele>106.0</ele><time>2026-04-25T15:00:05.048Z</time></trkpt><trkpt lat="45.1993317" lon="8.5536013"><ele>106.0</ele><time>2026-04-25T15:00:06.048Z</time></trkpt><trkpt lat="45.1992495" lon="8.553646"><ele>106.00000000000001</ele><time>2026-04-25T15:00:07.048Z</time></trkpt><trkpt lat="45.1991721" lon="8.5536926"><ele>106.0</ele><time>2026-04-25T15:00:08.046Z</time></trkpt><trkpt lat="45.1990893" lon="8.5537349"><ele>105.83333333333334</ele><time>2026-04-25T15:00:09.047Z</time></trkpt><trkpt lat="45.1990141" lon="8.5537774"><ele>105.66666666666667</ele><time>2026-04-25T15:00:10.049Z</time></trkpt><trkpt lat="45.1989406" lon="8.5538148"><ele>105.5</ele><time>2026-04-25T15:00:11.049Z</time></trkpt><trkpt lat="45.19887" lon="8.5538474"><ele>105.33333333333334</ele><time>2026-04-25T15:00:12.048Z</time></trkpt><trkpt lat="45.1988018" lon="8.5538882"><ele>105.16666666666667</ele><time>2026-04-25T15:00:13.049Z</time></trkpt><trkpt lat="45.1987305" lon="8.553928"><ele>105.0</ele><time>2026-04-25T15:00:14.048Z</time></trkpt><trkpt lat="45.1986563" lon="8.5539695"><ele>105.33333333333333</ele><time>2026-04-25T15:00:15.047Z</time></trkpt><trkpt lat="45.1985803" lon="8.5540088"><ele>105.66666666666666</ele><time>2026-04-25T15:00:16.049Z</time></trkpt><trkpt lat="45.1985046" lon="8.5540498"><ele>106.0</ele><time>2026-04-25T15:00:17.048Z</time></trkpt><trkpt lat="45.1984261" lon="8.5540915"><ele>106.33333333333333</ele><time>2026-04-25T15:00:18.048Z</time></trkpt><trkpt lat="45.1983481" lon="8.5541255"><ele>106.66666666666666</ele><time>2026-04-25T15:00:19.048Z</time></trkpt><trkpt lat="45.1982656" lon="8.5541723"><ele>107.0</ele><time>2026-04-25T15:00:20.049Z</time></trkpt><trkpt lat="45.1981881" lon="8.5542159"><ele>106.49999999999999</ele><time>2026-04-25T15:00:21.047Z</time></trkpt><trkpt lat="45.1981147" lon="8.5542594"><ele>106.0</ele><time>2026-04-25T15:00:22.048Z</time></trkpt><trkpt lat="45.1980506" lon="8.5542956"><ele>105.5</ele><time>2026-04-25T15:00:23.048Z</time></trkpt><trkpt lat="45.1979442" lon="8.5543655"><ele>105.0</ele><time>2026-04-25T15:00:25.048Z</time></trkpt><trkpt lat="45.1978671" lon="8.554417"><ele>104.49999999999999</ele><time>2026-04-25T15:00:27.048Z</time></trkpt><trkpt lat="45.1977822" lon="8.5544726"><ele>104.0</ele><time>2026-04-25T15:00:30.047Z</time></trkpt><trkpt lat="45.1977165" lon="8.5545206"><ele>104.14285714285714</ele><time>2026-04-25T15:00:33.049Z</time></trkpt><trkpt lat="45.1976662" lon="8.554586"><ele>104.28571428571429</ele><time>2026-04-25T15:02:40.046Z</time></trkpt><trkpt lat="45.1976029" lon="8.5546037"><ele>104.42857142857143</ele><time>2026-04-25T15:07:08.044Z</time></trkpt><trkpt lat="45.1975417" lon="8.5546731"><ele>104.57142857142857</ele><time>2026-04-25T15:07:14.044Z</time></trkpt><trkpt lat="45.1975196" lon="8.5547583"><ele>104.71428571428572</ele><time>2026-04-25T15:07:17.045Z</time></trkpt><trkpt lat="45.1975068" lon="8.5548611"><ele>104.85714285714286</ele><time>2026-04-25T15:07:19.045Z</time></trkpt><trkpt lat="45.1974921" lon="8.5549862"><ele>105.0</ele><time>2026-04-25T15:07:21.045Z</time></trkpt><trkpt lat="45.1974771" lon="8.5551049"><ele>105.0</ele><time>2026-04-25T15:07:23.045Z</time></trkpt><trkpt lat="45.1974507" lon="8.5552294"><ele>105.0</ele><time>2026-04-25T15:07:25.044Z</time></trkpt><trkpt lat="45.1973912" lon="8.5553816"><ele>105.0</ele><time>2026-04-25T15:07:27.045Z</time></trkpt><trkpt lat="45.1973497" lon="8.5554591"><ele>105.0</ele><time>2026-04-25T15:07:28.046Z</time></trkpt><trkpt lat="45.1972993" lon="8.5555298"><ele>105.0</ele><time>2026-04-25T15:07:29.045Z</time></trkpt><trkpt lat="45.1972471" lon="8.5556016"><ele>105.0</ele><time>2026-04-25T15:07:30.046Z</time></trkpt><trkpt lat="45.1971949" lon="8.5556648"><ele>105.0</ele><time>2026-04-25T15:07:31.046Z</time></trkpt><trkpt lat="45.1971477" lon="8.5557304"><ele>105.0</ele><time>2026-04-25T15:07:32.045Z</time></trkpt><trkpt lat="45.1970734" lon="8.5558464"><ele>105.0</ele><time>2026-04-25T15:07:34.045Z</time></trkpt><trkpt lat="45.1970169" lon="8.5559146"><ele>105.0</ele><time>2026-04-25T15:07:35.046Z</time></trkpt><trkpt lat="45.1969658" lon="8.5559973"><ele>105.0</ele><time>2026-04-25T15:07:36.045Z</time></trkpt><trkpt lat="45.19691" lon="8.5560768"><ele>105.0</ele><time>2026-04-25T15:07:37.045Z</time></trkpt><trkpt lat="45.1968548" lon="8.556168"><ele>105.0</ele><time>2026-04-25T15:07:38.045Z</time></trkpt><trkpt lat="45.1967962" lon="8.5562682"><ele>105.0</ele><time>2026-04-25T15:07:39.046Z</time></trkpt><trkpt lat="45.1967342" lon="8.5563727"><ele>105.0</ele><time>2026-04-25T15:07:40.045Z</time></trkpt><trkpt lat="45.1966711" lon="8.5564859"><ele>105.0</ele><time>2026-04-25T15:07:41.045Z</time></trkpt><trkpt lat="45.1966085" lon="8.5565982"><ele>105.0</ele><time>2026-04-25T15:07:42.044Z</time></trkpt><trkpt lat="45.1965467" lon="8.5567031"><ele>105.0</ele><time>2026-04-25T15:07:43.045Z</time></trkpt><trkpt lat="45.1964837" lon="8.5568096"><ele>105.0</ele><time>2026-04-25T15:07:44.046Z</time></trkpt><trkpt lat="45.1964174" lon="8.5568975"><ele>105.0</ele><time>2026-04-25T15:07:45.044Z</time></trkpt><trkpt lat="45.1963553" lon="8.5569683"><ele>105.0</ele><time>2026-04-25T15:07:46.045Z</time></trkpt><trkpt lat="45.19629" lon="8.5570322"><ele>105.0</ele><time>2026-04-25T15:07:47.045Z</time></trkpt><trkpt lat="45.1962221" lon="8.5570734"><ele>105.0</ele><time>2026-04-25T15:07:48.045Z</time></trkpt><trkpt lat="45.196143" lon="8.5571075"><ele>104.6</ele><time>2026-04-25T15:07:49.045Z</time></trkpt><trkpt lat="45.1960558" lon="8.557114"><ele>104.2</ele><time>2026-04-25T15:07:50.044Z</time></trkpt><trkpt lat="45.1959603" lon="8.5571024"><ele>103.80000000000001</ele><time>2026-04-25T15:07:51.045Z</time></trkpt><trkpt lat="45.1958569" lon="8.55708"><ele>103.4</ele><time>2026-04-25T15:07:52.044Z</time></trkpt><trkpt lat="45.1957506" lon="8.5570661"><ele>103.0</ele><time>2026-04-25T15:07:53.044Z</time></trkpt><trkpt lat="45.1956417" lon="8.5570383"><ele>102.75</ele><time>2026-04-25T15:07:54.046Z</time></trkpt><trkpt lat="45.1955301" lon="8.5570207"><ele>102.5</ele><time>2026-04-25T15:07:55.045Z</time></trkpt><trkpt lat="45.195416" lon="8.5569946"><ele>102.25</ele><time>2026-04-25T15:07:56.045Z</time></trkpt><trkpt lat="45.1952989" lon="8.556972"><ele>102.0</ele><time>2026-04-25T15:07:57.045Z</time></trkpt><trkpt lat="45.1951846" lon="8.5569523"><ele>102.0</ele><time>2026-04-25T15:07:58.045Z</time></trkpt><trkpt lat="45.1950807" lon="8.5569356"><ele>102.0</ele><time>2026-04-25T15:07:59.044Z</time></trkpt><trkpt lat="45.1949789" lon="8.5569201"><ele>102.0</ele><time>2026-04-25T15:08:00.045Z</time></trkpt><trkpt lat="45.1948668" lon="8.5569365"><ele>102.0</ele><time>2026-04-25T15:08:01.044Z</time></trkpt><trkpt lat="45.1947606" lon="8.5569793"><ele>102.0</ele><time>2026-04-25T15:08:02.044Z</time></trkpt><trkpt lat="45.1946591" lon="8.5570527"><ele>102.0</ele><time>2026-04-25T15:08:03.044Z</time></trkpt><trkpt lat="45.1945656" lon="8.5571481"><ele>102.0</ele><time>2026-04-25T15:08:04.044Z</time></trkpt><trkpt lat="45.1944762" lon="8.5572635"><ele>102.0</ele><time>2026-04-25T15:08:05.045Z</time></trkpt><trkpt lat="45.1943852" lon="8.5573895"><ele>102.0</ele><time>2026-04-25T15:08:06.045Z</time></trkpt><trkpt lat="45.1942909" lon="8.5575181"><ele>102.0</ele><time>2026-04-25T15:08:07.045Z</time></trkpt><trkpt lat="45.1941979" lon="8.5576505"><ele>102.0</ele><time>2026-04-25T15:08:08.045Z</time></trkpt><trkpt lat="45.194105" lon="8.5577752"><ele>102.0</ele><time>2026-04-25T15:08:09.045Z</time></trkpt><trkpt lat="45.1940161" lon="8.5579157"><ele>102.0</ele><time>2026-04-25T15:08:10.045Z</time></trkpt><trkpt lat="45.19393" lon="8.5580636"><ele>102.0</ele><time>2026-04-25T15:08:11.045Z</time></trkpt><trkpt lat="45.1938422" lon="8.5582262"><ele>102.0</ele><time>2026-04-25T15:08:12.045Z</time></trkpt><trkpt lat="45.1937624" lon="8.5583916"><ele>102.0</ele><time>2026-04-25T15:08:13.045Z</time></trkpt><trkpt lat="45.1936902" lon="8.5585543"><ele>102.0</ele><time>2026-04-25T15:08:14.045Z</time></trkpt><trkpt lat="45.1936179" lon="8.5587198"><ele>102.0</ele><time>2026-04-25T15:08:15.045Z</time></trkpt><trkpt lat="45.1935454" lon="8.5588918"><ele>102.0</ele><time>2026-04-25T15:08:16.044Z</time></trkpt><trkpt lat="45.1934739" lon="8.5590686"><ele>102.0</ele><time>2026-04-25T15:08:17.045Z</time></trkpt><trkpt lat="45.1934033" lon="8.5592537"><ele>102.0</ele><time>2026-04-25T15:08:18.044Z</time></trkpt><trkpt lat="45.1933406" lon="8.5594457"><ele>101.75</ele><time>2026-04-25T15:08:19.045Z</time></trkpt><trkpt lat="45.1932844" lon="8.559635"><ele>101.5</ele><time>2026-04-25T15:08:20.044Z</time></trkpt><trkpt lat="45.19323" lon="8.5598288"><ele>101.25</ele><time>2026-04-25T15:08:21.044Z</time></trkpt><trkpt lat="45.1931778" lon="8.5600314"><ele>101.0</ele><time>2026-04-25T15:08:22.044Z</time></trkpt><trkpt lat="45.1931286" lon="8.5602225"><ele>101.25</ele><time>2026-04-25T15:08:23.045Z</time></trkpt><trkpt lat="45.1930842" lon="8.5604001"><ele>101.5</ele><time>2026-04-25T15:08:24.045Z</time></trkpt><trkpt lat="45.193043" lon="8.5605689"><ele>101.75</ele><time>2026-04-25T15:08:25.044Z</time></trkpt><trkpt lat="45.1930011" lon="8.560714"><ele>102.0</ele><time>2026-04-25T15:08:26.044Z</time></trkpt><trkpt lat="45.1929497" lon="8.5608593"><ele>102.0</ele><time>2026-04-25T15:08:27.045Z</time></trkpt><trkpt lat="45.1928928" lon="8.5609909"><ele>102.0</ele><time>2026-04-25T15:08:28.044Z</time></trkpt><trkpt lat="45.1928252" lon="8.5611089"><ele>102.0</ele><time>2026-04-25T15:08:29.045Z</time></trkpt><trkpt lat="45.1927452" lon="8.5612189"><ele>102.0</ele><time>2026-04-25T15:08:30.045Z</time></trkpt><trkpt lat="45.1926447" lon="8.5613106"><ele>102.0</ele><time>2026-04-25T15:08:31.045Z</time></trkpt><trkpt lat="45.1925356" lon="8.5613752"><ele>102.0</ele><time>2026-04-25T15:08:32.043Z</time></trkpt><trkpt lat="45.1924156" lon="8.561407"><ele>102.0</ele><time>2026-04-25T15:08:33.045Z</time></trkpt><trkpt lat="45.1922959" lon="8.5614142"><ele>102.0</ele><time>2026-04-25T15:08:34.045Z</time></trkpt><trkpt lat="45.1921714" lon="8.5614184"><ele>102.0</ele><time>2026-04-25T15:08:35.043Z</time></trkpt><trkpt lat="45.1920423" lon="8.5614242"><ele>102.0</ele><time>2026-04-25T15:08:36.044Z</time></trkpt><trkpt lat="45.1919041" lon="8.5614427"><ele>102.0</ele><time>2026-04-25T15:08:37.043Z</time></trkpt><trkpt lat="45.1917729" lon="8.5614642"><ele>102.0</ele><time>2026-04-25T15:08:38.045Z</time></trkpt><trkpt lat="45.1916339" lon="8.5614865"><ele>102.0</ele><time>2026-04-25T15:08:39.045Z</time></trkpt><trkpt lat="45.191496" lon="8.561515"><ele>102.0</ele><time>2026-04-25T15:08:40.044Z</time></trkpt><trkpt lat="45.1913593" lon="8.5615546"><ele>102.0</ele><time>2026-04-25T15:08:41.045Z</time></trkpt><trkpt lat="45.1912257" lon="8.5616116"><ele>102.0</ele><time>2026-04-25T15:08:42.043Z</time></trkpt><trkpt lat="45.1910932" lon="8.5616827"><ele>102.0</ele><time>2026-04-25T15:08:43.045Z</time></trkpt><trkpt lat="45.1909646" lon="8.5617692"><ele>102.0</ele><time>2026-04-25T15:08:44.043Z</time></trkpt><trkpt lat="45.1908479" lon="8.5618482"><ele>102.0</ele><time>2026-04-25T15:08:45.044Z</time></trkpt><trkpt lat="45.1907315" lon="8.5619245"><ele>102.0</ele><time>2026-04-25T15:08:46.045Z</time></trkpt><trkpt lat="45.1906228" lon="8.5619833"><ele>102.0</ele><time>2026-04-25T15:08:47.045Z</time></trkpt><trkpt lat="45.190512" lon="8.5620311"><ele>102.16666666666667</ele><time>2026-04-25T15:08:48.043Z</time></trkpt><trkpt lat="45.1904255" lon="8.5620569"><ele>102.33333333333334</ele><time>2026-04-25T15:08:49.044Z</time></trkpt><trkpt lat="45.1903437" lon="8.5620763"><ele>102.5</ele><time>2026-04-25T15:08:50.044Z</time></trkpt><trkpt lat="45.1902674" lon="8.5620982"><ele>102.66666666666667</ele><time>2026-04-25T15:08:51.044Z</time></trkpt><trkpt lat="45.190194" lon="8.5621254"><ele>102.83333333333334</ele><time>2026-04-25T15:08:52.045Z</time></trkpt><trkpt lat="45.1901211" lon="8.56217"><ele>103.0</ele><time>2026-04-25T15:08:53.045Z</time></trkpt><trkpt lat="45.1900442" lon="8.5622176"><ele>103.0</ele><time>2026-04-25T15:08:54.044Z</time></trkpt><trkpt lat="45.1899611" lon="8.5622666"><ele>103.0</ele><time>2026-04-25T15:08:55.044Z</time></trkpt><trkpt lat="45.1898661" lon="8.5623197"><ele>103.0</ele><time>2026-04-25T15:08:56.045Z</time></trkpt><trkpt lat="45.1897718" lon="8.5623765"><ele>103.0</ele><time>2026-04-25T15:08:57.043Z</time></trkpt><trkpt lat="45.189667" lon="8.5624319"><ele>103.0</ele><time>2026-04-25T15:08:58.045Z</time></trkpt><trkpt lat="45.1895587" lon="8.5624839"><ele>103.0</ele><time>2026-04-25T15:08:59.044Z</time></trkpt><trkpt lat="45.1894377" lon="8.5625199"><ele>103.0</ele><time>2026-04-25T15:09:00.044Z</time></trkpt><trkpt lat="45.1893121" lon="8.5625426"><ele>103.0</ele><time>2026-04-25T15:09:01.043Z</time></trkpt><trkpt lat="45.1891812" lon="8.562538"><ele>103.0</ele><time>2026-04-25T15:09:02.044Z</time></trkpt><trkpt lat="45.1890343" lon="8.5625328"><ele>102.66666666666667</ele><time>2026-04-25T15:09:03.045Z</time></trkpt><trkpt lat="45.188893" lon="8.5625175"><ele>102.33333333333334</ele><time>2026-04-25T15:09:04.045Z</time></trkpt><trkpt lat="45.1887337" lon="8.5625223"><ele>102.0</ele><time>2026-04-25T15:09:05.045Z</time></trkpt><trkpt lat="45.1885606" lon="8.5625189"><ele>102.0</ele><time>2026-04-25T15:09:06.044Z</time></trkpt><trkpt lat="45.18838" lon="8.5625152"><ele>102.0</ele><time>2026-04-25T15:09:07.045Z</time></trkpt><trkpt lat="45.1881937" lon="8.562515"><ele>102.0</ele><time>2026-04-25T15:09:08.043Z</time></trkpt><trkpt lat="45.1880002" lon="8.5625157"><ele>102.0</ele><time>2026-04-25T15:09:09.044Z</time></trkpt><trkpt lat="45.1877944" lon="8.5625132"><ele>102.0</ele><time>2026-04-25T15:09:10.045Z</time></trkpt><trkpt lat="45.1875845" lon="8.5625112"><ele>102.0</ele><time>2026-04-25T15:09:11.045Z</time></trkpt><trkpt lat="45.1873906" lon="8.5624957"><ele>101.33333333333334</ele><time>2026-04-25T15:09:12.043Z</time></trkpt><trkpt lat="45.1872078" lon="8.5625036"><ele>100.66666666666667</ele><time>2026-04-25T15:09:13.044Z</time></trkpt><trkpt lat="45.1870387" lon="8.5625124"><ele>100.0</ele><time>2026-04-25T15:09:14.043Z</time></trkpt><trkpt lat="45.1868778" lon="8.5625425"><ele>100.0</ele><time>2026-04-25T15:09:15.044Z</time></trkpt><trkpt lat="45.1867267" lon="8.5625634"><ele>100.0</ele><time>2026-04-25T15:09:16.044Z</time></trkpt><trkpt lat="45.1865741" lon="8.5625724"><ele>100.0</ele><time>2026-04-25T15:09:17.045Z</time></trkpt><trkpt lat="45.1864187" lon="8.56255"><ele>100.33333333333334</ele><time>2026-04-25T15:09:18.045Z</time></trkpt><trkpt lat="45.186262" lon="8.5625074"><ele>100.66666666666666</ele><time>2026-04-25T15:09:19.044Z</time></trkpt><trkpt lat="45.1861033" lon="8.5624605"><ele>101.0</ele><time>2026-04-25T15:09:20.045Z</time></trkpt><trkpt lat="45.1859373" lon="8.5624004"><ele>101.0</ele><time>2026-04-25T15:09:21.044Z</time></trkpt><trkpt lat="45.1857529" lon="8.562361"><ele>101.0</ele><time>2026-04-25T15:09:22.043Z</time></trkpt><trkpt lat="45.185572" lon="8.5623469"><ele>101.0</ele><time>2026-04-25T15:09:23.043Z</time></trkpt><trkpt lat="45.1853836" lon="8.562333"><ele>101.0</ele><time>2026-04-25T15:09:24.044Z</time></trkpt><trkpt lat="45.1851781" lon="8.5623307"><ele>101.0</ele><time>2026-04-25T15:09:25.044Z</time></trkpt><trkpt lat="45.1849637" lon="8.5623187"><ele>101.0</ele><time>2026-04-25T15:09:26.045Z</time></trkpt><trkpt lat="45.1847453" lon="8.5623006"><ele>101.0</ele><time>2026-04-25T15:09:27.045Z</time></trkpt><trkpt lat="45.1845254" lon="8.5622783"><ele>101.0</ele><time>2026-04-25T15:09:28.044Z</time></trkpt><trkpt lat="45.1843227" lon="8.5622594"><ele>101.0</ele><time>2026-04-25T15:09:29.044Z</time></trkpt><trkpt lat="45.1841355" lon="8.5622572"><ele>101.0</ele><time>2026-04-25T15:09:30.044Z</time></trkpt><trkpt lat="45.1839649" lon="8.5622719"><ele>101.0</ele><time>2026-04-25T15:09:31.043Z</time></trkpt><trkpt lat="45.1838122" lon="8.5622791"><ele>101.0</ele><time>2026-04-25T15:09:32.045Z</time></trkpt><trkpt lat="45.1836733" lon="8.5622799"><ele>101.0</ele><time>2026-04-25T15:09:33.044Z</time></trkpt><trkpt lat="45.1835389" lon="8.5622538"><ele>101.0</ele><time>2026-04-25T15:09:34.045Z</time></trkpt><trkpt lat="45.1834058" lon="8.562195"><ele>101.0</ele><time>2026-04-25T15:09:35.044Z</time></trkpt><trkpt lat="45.1832746" lon="8.5620859"><ele>101.0</ele><time>2026-04-25T15:09:36.044Z</time></trkpt><trkpt lat="45.1831349" lon="8.5619497"><ele>101.0</ele><time>2026-04-25T15:09:37.045Z</time></trkpt><trkpt lat="45.182983" lon="8.5618123"><ele>101.0</ele><time>2026-04-25T15:09:38.044Z</time></trkpt><trkpt lat="45.1828235" lon="8.5616757"><ele>101.0</ele><time>2026-04-25T15:09:39.044Z</time></trkpt><trkpt lat="45.1826661" lon="8.5615554"><ele>101.0</ele><time>2026-04-25T15:09:40.044Z</time></trkpt><trkpt lat="45.1825249" lon="8.5614133"><ele>101.0</ele><time>2026-04-25T15:09:41.044Z</time></trkpt><trkpt lat="45.1824051" lon="8.561265"><ele>101.0</ele><time>2026-04-25T15:09:42.045Z</time></trkpt><trkpt lat="45.182309" lon="8.5611087"><ele>101.0</ele><time>2026-04-25T15:09:43.044Z</time></trkpt><trkpt lat="45.1822301" lon="8.5609697"><ele>101.0</ele><time>2026-04-25T15:09:44.043Z</time></trkpt><trkpt lat="45.1821429" lon="8.5608474"><ele>101.0</ele><time>2026-04-25T15:09:45.043Z</time></trkpt><trkpt lat="45.1820435" lon="8.5607535"><ele>101.0</ele><time>2026-04-25T15:09:46.042Z</time></trkpt><trkpt lat="45.1819245" lon="8.5606934"><ele>101.0</ele><time>2026-04-25T15:09:47.044Z</time></trkpt><trkpt lat="45.1817863" lon="8.5606665"><ele>101.0</ele><time>2026-04-25T15:09:48.044Z</time></trkpt><trkpt lat="45.1816395" lon="8.5606542"><ele>101.0</ele><time>2026-04-25T15:09:49.045Z</time></trkpt><trkpt lat="45.1814739" lon="8.5606732"><ele>101.0</ele><time>2026-04-25T15:09:50.043Z</time></trkpt><trkpt lat="45.1813042" lon="8.5607178"><ele>101.0</ele><time>2026-04-25T15:09:51.042Z</time></trkpt><trkpt lat="45.1811193" lon="8.5607528"><ele>101.0</ele><time>2026-04-25T15:09:52.042Z</time></trkpt><trkpt lat="45.1809339" lon="8.560785"><ele>101.0</ele><time>2026-04-25T15:09:53.044Z</time></trkpt><trkpt lat="45.1807465" lon="8.5608222"><ele>101.0</ele><time>2026-04-25T15:09:54.043Z</time></trkpt><trkpt lat="45.1805577" lon="8.5608462"><ele>101.0</ele><time>2026-04-25T15:09:55.043Z</time></trkpt><trkpt lat="45.1803671" lon="8.560859"><ele>101.0</ele><time>2026-04-25T15:09:56.043Z</time></trkpt><trkpt lat="45.1801978" lon="8.5608556"><ele>101.0</ele><time>2026-04-25T15:09:57.045Z</time></trkpt><trkpt lat="45.1800429" lon="8.5608579"><ele>101.0</ele><time>2026-04-25T15:09:58.044Z</time></trkpt><trkpt lat="45.179906" lon="8.560862"><ele>101.25</ele><time>2026-04-25T15:09:59.043Z</time></trkpt><trkpt lat="45.1797772" lon="8.5608474"><ele>101.5</ele><time>2026-04-25T15:10:00.045Z</time></trkpt><trkpt lat="45.1796588" lon="8.5608123"><ele>101.75</ele><time>2026-04-25T15:10:01.045Z</time></trkpt><trkpt lat="45.1795606" lon="8.5607575"><ele>102.0</ele><time>2026-04-25T15:10:02.044Z</time></trkpt><trkpt lat="45.1794711" lon="8.5606672"><ele>102.0</ele><time>2026-04-25T15:10:03.044Z</time></trkpt><trkpt lat="45.1794124" lon="8.5605295"><ele>102.0</ele><time>2026-04-25T15:10:04.044Z</time></trkpt><trkpt lat="45.1793681" lon="8.5603645"><ele>102.0</ele><time>2026-04-25T15:10:05.045Z</time></trkpt><trkpt lat="45.1793357" lon="8.5601809"><ele>102.0</ele><time>2026-04-25T15:10:06.043Z</time></trkpt><trkpt lat="45.1793096" lon="8.5599944"><ele>102.0</ele><time>2026-04-25T15:10:07.044Z</time></trkpt><trkpt lat="45.1792824" lon="8.5598071"><ele>102.0</ele><time>2026-04-25T15:10:08.044Z</time></trkpt><trkpt lat="45.1792521" lon="8.559641"><ele>102.0</ele><time>2026-04-25T15:10:09.044Z</time></trkpt><trkpt lat="45.1792238" lon="8.5595007"><ele>102.0</ele><time>2026-04-25T15:10:10.043Z</time></trkpt><trkpt lat="45.1791935" lon="8.5593916"><ele>102.0</ele><time>2026-04-25T15:10:11.044Z</time></trkpt><trkpt lat="45.1791559" lon="8.5592997"><ele>102.0</ele><time>2026-04-25T15:10:12.042Z</time></trkpt><trkpt lat="45.1790573" lon="8.5591927"><ele>102.0</ele><time>2026-04-25T15:10:14.045Z</time></trkpt><trkpt lat="45.1789889" lon="8.5591544"><ele>102.0</ele><time>2026-04-25T15:10:15.043Z</time></trkpt><trkpt lat="45.1789131" lon="8.5591091"><ele>102.0</ele><time>2026-04-25T15:10:16.044Z</time></trkpt><trkpt lat="45.1788399" lon="8.5590358"><ele>102.0</ele><time>2026-04-25T15:10:17.043Z</time></trkpt><trkpt lat="45.1787678" lon="8.5589222"><ele>102.0</ele><time>2026-04-25T15:10:18.043Z</time></trkpt><trkpt lat="45.1786899" lon="8.5587842"><ele>102.0</ele><time>2026-04-25T15:10:19.044Z</time></trkpt><trkpt lat="45.1786109" lon="8.5586335"><ele>102.0</ele><time>2026-04-25T15:10:20.044Z</time></trkpt><trkpt lat="45.17853" lon="8.5584929"><ele>102.0</ele><time>2026-04-25T15:10:21.043Z</time></trkpt><trkpt lat="45.1784349" lon="8.5583562"><ele>102.0</ele><time>2026-04-25T15:10:22.045Z</time></trkpt><trkpt lat="45.1783289" lon="8.5582276"><ele>102.0</ele><time>2026-04-25T15:10:23.043Z</time></trkpt><trkpt lat="45.1782136" lon="8.558103"><ele>102.0</ele><time>2026-04-25T15:10:24.044Z</time></trkpt><trkpt lat="45.1780939" lon="8.5579608"><ele>102.0</ele><time>2026-04-25T15:10:25.044Z</time></trkpt><trkpt lat="45.1779717" lon="8.5578132"><ele>102.0</ele><time>2026-04-25T15:10:26.044Z</time></trkpt><trkpt lat="45.1778439" lon="8.5576622"><ele>102.0</ele><time>2026-04-25T15:10:27.044Z</time></trkpt><trkpt lat="45.1777086" lon="8.5575133"><ele>102.0</ele><time>2026-04-25T15:10:28.044Z</time></trkpt><trkpt lat="45.1775762" lon="8.5573558"><ele>102.0</ele><time>2026-04-25T15:10:29.043Z</time></trkpt><trkpt lat="45.1774471" lon="8.5571965"><ele>102.0</ele><time>2026-04-25T15:10:30.043Z</time></trkpt><trkpt lat="45.1773264" lon="8.5570405"><ele>102.0</ele><time>2026-04-25T15:10:31.044Z</time></trkpt><trkpt lat="45.1772192" lon="8.5569164"><ele>102.0</ele><time>2026-04-25T15:10:32.044Z</time></trkpt><trkpt lat="45.1771192" lon="8.5567984"><ele>102.0</ele><time>2026-04-25T15:10:33.044Z</time></trkpt><trkpt lat="45.1770377" lon="8.5566994"><ele>102.0</ele><time>2026-04-25T15:10:34.044Z</time></trkpt><trkpt lat="45.176972" lon="8.5566181"><ele>102.0</ele><time>2026-04-25T15:10:35.042Z</time></trkpt><trkpt lat="45.1769076" lon="8.5565533"><ele>102.0</ele><time>2026-04-25T15:10:36.043Z</time></trkpt><trkpt lat="45.1768418" lon="8.5564834"><ele>102.0</ele><time>2026-04-25T15:10:38.044Z</time></trkpt><trkpt lat="45.1767837" lon="8.5564487"><ele>102.0</ele><time>2026-04-25T15:10:44.043Z</time></trkpt><trkpt lat="45.1767121" lon="8.5565082"><ele>102.0</ele><time>2026-04-25T15:10:47.044Z</time></trkpt><trkpt lat="45.1766804" lon="8.5565891"><ele>102.0</ele><time>2026-04-25T15:10:48.043Z</time></trkpt><trkpt lat="45.176654" lon="8.556707"><ele>102.0</ele><time>2026-04-25T15:10:49.044Z</time></trkpt><trkpt lat="45.1766252" lon="8.5568513"><ele>102.0</ele><time>2026-04-25T15:10:50.043Z</time></trkpt><trkpt lat="45.1765989" lon="8.5569855"><ele>102.19999999999999</ele><time>2026-04-25T15:10:51.043Z</time></trkpt><trkpt lat="45.1765766" lon="8.5571121"><ele>102.4</ele><time>2026-04-25T15:10:52.042Z</time></trkpt><trkpt lat="45.1765475" lon="8.5572417"><ele>102.6</ele><time>2026-04-25T15:10:53.044Z</time></trkpt><trkpt lat="45.1765223" lon="8.5573791"><ele>102.80000000000001</ele><time>2026-04-25T15:10:54.043Z</time></trkpt><trkpt lat="45.1765028" lon="8.5575177"><ele>103.0</ele><time>2026-04-25T15:10:55.044Z</time></trkpt><trkpt lat="45.1764747" lon="8.5576646"><ele>103.0</ele><time>2026-04-25T15:10:56.043Z</time></trkpt><trkpt lat="45.1764411" lon="8.5578215"><ele>103.0</ele><time>2026-04-25T15:10:57.044Z</time></trkpt><trkpt lat="45.1764038" lon="8.5579875"><ele>103.0</ele><time>2026-04-25T15:10:58.044Z</time></trkpt><trkpt lat="45.1763724" lon="8.5581583"><ele>103.0</ele><time>2026-04-25T15:10:59.043Z</time></trkpt><trkpt lat="45.1763423" lon="8.5583355"><ele>103.0</ele><time>2026-04-25T15:11:00.044Z</time></trkpt><trkpt lat="45.1763055" lon="8.5585211"><ele>103.0</ele><time>2026-04-25T15:11:01.044Z</time></trkpt><trkpt lat="45.1762668" lon="8.5587265"><ele>103.0</ele><time>2026-04-25T15:11:02.043Z</time></trkpt><trkpt lat="45.1762266" lon="8.558948"><ele>103.0</ele><time>2026-04-25T15:11:03.043Z</time></trkpt><trkpt lat="45.1761847" lon="8.5591715"><ele>103.0</ele><time>2026-04-25T15:11:04.044Z</time></trkpt><trkpt lat="45.1761381" lon="8.5593978"><ele>103.0</ele><time>2026-04-25T15:11:05.044Z</time></trkpt><trkpt lat="45.1760929" lon="8.559633"><ele>103.0</ele><time>2026-04-25T15:11:06.044Z</time></trkpt><trkpt lat="45.1760492" lon="8.5598682"><ele>102.66666666666667</ele><time>2026-04-25T15:11:07.043Z</time></trkpt><trkpt lat="45.1759993" lon="8.5601137"><ele>102.33333333333334</ele><time>2026-04-25T15:11:08.044Z</time></trkpt><trkpt lat="45.1759521" lon="8.5603495"><ele>102.0</ele><time>2026-04-25T15:11:09.042Z</time></trkpt><trkpt lat="45.1759049" lon="8.5605998"><ele>101.33333333333334</ele><time>2026-04-25T15:11:10.043Z</time></trkpt><trkpt lat="45.1758562" lon="8.5608724"><ele>100.66666666666667</ele><time>2026-04-25T15:11:11.044Z</time></trkpt><trkpt lat="45.175802" lon="8.5611483"><ele>100.0</ele><time>2026-04-25T15:11:12.044Z</time></trkpt><trkpt lat="45.1757455" lon="8.5614299"><ele>100.0</ele><time>2026-04-25T15:11:13.044Z</time></trkpt><trkpt lat="45.1756878" lon="8.5617207"><ele>100.0</ele><time>2026-04-25T15:11:14.044Z</time></trkpt><trkpt lat="45.1756253" lon="8.5620207"><ele>100.0</ele><time>2026-04-25T15:11:15.044Z</time></trkpt><trkpt lat="45.1755621" lon="8.5623284"><ele>101.0</ele><time>2026-04-25T15:11:16.042Z</time></trkpt><trkpt lat="45.1754977" lon="8.5626417"><ele>102.0</ele><time>2026-04-25T15:11:17.044Z</time></trkpt><trkpt lat="45.1754284" lon="8.5629645"><ele>102.5</ele><time>2026-04-25T15:11:18.044Z</time></trkpt><trkpt lat="45.1753661" lon="8.563293"><ele>103.0</ele><time>2026-04-25T15:11:19.043Z</time></trkpt><trkpt lat="45.1753117" lon="8.5636161"><ele>104.5</ele><time>2026-04-25T15:11:20.044Z</time></trkpt><trkpt lat="45.1752742" lon="8.5639528"><ele>106.0</ele><time>2026-04-25T15:11:21.043Z</time></trkpt><trkpt lat="45.1752441" lon="8.564285"><ele>106.0</ele><time>2026-04-25T15:11:22.043Z</time></trkpt><trkpt lat="45.17523" lon="8.5646229"><ele>106.0</ele><time>2026-04-25T15:11:23.044Z</time></trkpt><trkpt lat="45.1752204" lon="8.5649632"><ele>106.0</ele><time>2026-04-25T15:11:24.044Z</time></trkpt><trkpt lat="45.1752064" lon="8.5653057"><ele>106.0</ele><time>2026-04-25T15:11:25.042Z</time></trkpt><trkpt lat="45.1751948" lon="8.5656569"><ele>105.0</ele><time>2026-04-25T15:11:26.043Z</time></trkpt><trkpt lat="45.1751891" lon="8.5660321"><ele>104.0</ele><time>2026-04-25T15:11:27.044Z</time></trkpt><trkpt lat="45.1751805" lon="8.5664163"><ele>103.0</ele><time>2026-04-25T15:11:28.043Z</time></trkpt><trkpt lat="45.1751773" lon="8.5668037"><ele>102.0</ele><time>2026-04-25T15:11:29.044Z</time></trkpt><trkpt lat="45.1751703" lon="8.5672061"><ele>101.5</ele><time>2026-04-25T15:11:30.043Z</time></trkpt><trkpt lat="45.1751646" lon="8.5676066"><ele>101.0</ele><time>2026-04-25T15:11:31.043Z</time></trkpt><trkpt lat="45.1751676" lon="8.5680075"><ele>101.0</ele><time>2026-04-25T15:11:32.043Z</time></trkpt><trkpt lat="45.1751598" lon="8.5684176"><ele>101.0</ele><time>2026-04-25T15:11:33.044Z</time></trkpt><trkpt lat="45.1751496" lon="8.5688244"><ele>100.5</ele><time>2026-04-25T15:11:34.044Z</time></trkpt><trkpt lat="45.1751388" lon="8.569239"><ele>100.0</ele><time>2026-04-25T15:11:35.043Z</time></trkpt><trkpt lat="45.1751288" lon="8.5696507"><ele>100.0</ele><time>2026-04-25T15:11:36.044Z</time></trkpt><trkpt lat="45.1751253" lon="8.5700686"><ele>100.0</ele><time>2026-04-25T15:11:37.042Z</time></trkpt><trkpt lat="45.175115" lon="8.5704767"><ele>100.5</ele><time>2026-04-25T15:11:38.043Z</time></trkpt><trkpt lat="45.1751082" lon="8.570885"><ele>101.0</ele><time>2026-04-25T15:11:39.043Z</time></trkpt><trkpt lat="45.1751015" lon="8.5712909"><ele>101.0</ele><time>2026-04-25T15:11:40.044Z</time></trkpt><trkpt lat="45.1750959" lon="8.5716865"><ele>101.0</ele><time>2026-04-25T15:11:41.044Z</time></trkpt><trkpt lat="45.1750889" lon="8.5720759"><ele>100.0</ele><time>2026-04-25T15:11:42.042Z</time></trkpt><trkpt lat="45.17508" lon="8.5724447"><ele>99.0</ele><time>2026-04-25T15:11:43.043Z</time></trkpt><trkpt lat="45.1750676" lon="8.572796"><ele>99.5</ele><time>2026-04-25T15:11:44.044Z</time></trkpt><trkpt lat="45.1750631" lon="8.5731376"><ele>100.0</ele><time>2026-04-25T15:11:45.044Z</time></trkpt><trkpt lat="45.175059" lon="8.5734884"><ele>99.5</ele><time>2026-04-25T15:11:46.043Z</time></trkpt><trkpt lat="45.1750482" lon="8.573849"><ele>99.0</ele><time>2026-04-25T15:11:47.044Z</time></trkpt><trkpt lat="45.1750392" lon="8.5742105"><ele>98.5</ele><time>2026-04-25T15:11:48.043Z</time></trkpt><trkpt lat="45.1750333" lon="8.5745719"><ele>98.0</ele><time>2026-04-25T15:11:49.044Z</time></trkpt><trkpt lat="45.1750232" lon="8.5749378"><ele>98.0</ele><time>2026-04-25T15:11:50.043Z</time></trkpt><trkpt lat="45.1750141" lon="8.5753053"><ele>98.0</ele><time>2026-04-25T15:11:51.043Z</time></trkpt><trkpt lat="45.1750028" lon="8.5756782"><ele>98.0</ele><time>2026-04-25T15:11:52.043Z</time></trkpt><trkpt lat="45.1749871" lon="8.5760509"><ele>98.0</ele><time>2026-04-25T15:11:53.044Z</time></trkpt><trkpt lat="45.1749804" lon="8.5764031"><ele>98.5</ele><time>2026-04-25T15:11:54.044Z</time></trkpt><trkpt lat="45.1749694" lon="8.5767572"><ele>99.0</ele><time>2026-04-25T15:11:55.044Z</time></trkpt><trkpt lat="45.1749655" lon="8.5771148"><ele>99.0</ele><time>2026-04-25T15:11:56.043Z</time></trkpt><trkpt lat="45.1749566" lon="8.5774615"><ele>99.0</ele><time>2026-04-25T15:11:57.044Z</time></trkpt><trkpt lat="45.1749469" lon="8.5777886"><ele>99.33333333333334</ele><time>2026-04-25T15:11:58.044Z</time></trkpt><trkpt lat="45.1749432" lon="8.5780928"><ele>99.66666666666667</ele><time>2026-04-25T15:11:59.044Z</time></trkpt><trkpt lat="45.1749361" lon="8.5783716"><ele>100.0</ele><time>2026-04-25T15:12:00.044Z</time></trkpt><trkpt lat="45.17493" lon="8.5786369"><ele>100.0</ele><time>2026-04-25T15:12:01.043Z</time></trkpt><trkpt lat="45.1749186" lon="8.5788864"><ele>100.0</ele><time>2026-04-25T15:12:02.042Z</time></trkpt><trkpt lat="45.1749038" lon="8.5791251"><ele>100.0</ele><time>2026-04-25T15:12:03.043Z</time></trkpt><trkpt lat="45.1748879" lon="8.5793425"><ele>100.0</ele><time>2026-04-25T15:12:04.044Z</time></trkpt><trkpt lat="45.1748737" lon="8.5795541"><ele>100.0</ele><time>2026-04-25T15:12:05.043Z</time></trkpt><trkpt lat="45.1748461" lon="8.579765"><ele>100.0</ele><time>2026-04-25T15:12:06.044Z</time></trkpt><trkpt lat="45.1748108" lon="8.5799771"><ele>99.5</ele><time>2026-04-25T15:12:07.043Z</time></trkpt><trkpt lat="45.1747688" lon="8.5801834"><ele>99.0</ele><time>2026-04-25T15:12:08.044Z</time></trkpt><trkpt lat="45.1747265" lon="8.5803719"><ele>98.5</ele><time>2026-04-25T15:12:09.043Z</time></trkpt><trkpt lat="45.1746889" lon="8.5805307"><ele>98.0</ele><time>2026-04-25T15:12:10.043Z</time></trkpt><trkpt lat="45.1746541" lon="8.5806689"><ele>97.99999999999999</ele><time>2026-04-25T15:12:11.044Z</time></trkpt><trkpt lat="45.1746303" lon="8.5807921"><ele>98.0</ele><time>2026-04-25T15:12:12.044Z</time></trkpt><trkpt lat="45.1746223" lon="8.5809009"><ele>98.0</ele><time>2026-04-25T15:12:13.043Z</time></trkpt><trkpt lat="45.1746438" lon="8.5809962"><ele>98.0</ele><time>2026-04-25T15:12:14.042Z</time></trkpt><trkpt lat="45.1746888" lon="8.581089"><ele>97.99999999999999</ele><time>2026-04-25T15:12:15.044Z</time></trkpt><trkpt lat="45.1747535" lon="8.5811729"><ele>98.0</ele><time>2026-04-25T15:12:16.043Z</time></trkpt><trkpt lat="45.174814" lon="8.581306"><ele>98.0</ele><time>2026-04-25T15:12:17.044Z</time></trkpt><trkpt lat="45.1748408" lon="8.5814809"><ele>98.0</ele><time>2026-04-25T15:12:18.044Z</time></trkpt><trkpt lat="45.174843" lon="8.5816832"><ele>98.0</ele><time>2026-04-25T15:12:19.043Z</time></trkpt><trkpt lat="45.1748341" lon="8.5818988"><ele>98.0</ele><time>2026-04-25T15:12:20.042Z</time></trkpt><trkpt lat="45.1748268" lon="8.5821356"><ele>98.33333333333333</ele><time>2026-04-25T15:12:21.043Z</time></trkpt><trkpt lat="45.1748249" lon="8.5823595"><ele>98.66666666666666</ele><time>2026-04-25T15:12:22.044Z</time></trkpt><trkpt lat="45.174818" lon="8.5825751"><ele>99.0</ele><time>2026-04-25T15:12:23.043Z</time></trkpt><trkpt lat="45.1748114" lon="8.5827747"><ele>99.0</ele><time>2026-04-25T15:12:24.044Z</time></trkpt><trkpt lat="45.1748077" lon="8.5829643"><ele>99.0</ele><time>2026-04-25T15:12:25.044Z</time></trkpt><trkpt lat="45.1748036" lon="8.5831556"><ele>99.0</ele><time>2026-04-25T15:12:26.044Z</time></trkpt><trkpt lat="45.1747969" lon="8.5833485"><ele>99.0</ele><time>2026-04-25T15:12:27.043Z</time></trkpt><trkpt lat="45.1747963" lon="8.5835322"><ele>99.25</ele><time>2026-04-25T15:12:28.043Z</time></trkpt><trkpt lat="45.1747975" lon="8.5837067"><ele>99.5</ele><time>2026-04-25T15:12:29.043Z</time></trkpt><trkpt lat="45.1747972" lon="8.5838703"><ele>99.75</ele><time>2026-04-25T15:12:30.043Z</time></trkpt><trkpt lat="45.1747924" lon="8.5840281"><ele>100.0</ele><time>2026-04-25T15:12:31.043Z</time></trkpt><trkpt lat="45.1747885" lon="8.5841933"><ele>100.0</ele><time>2026-04-25T15:12:32.042Z</time></trkpt><trkpt lat="45.1747828" lon="8.5843658"><ele>100.0</ele><time>2026-04-25T15:12:33.044Z</time></trkpt><trkpt lat="45.1747785" lon="8.5845473"><ele>100.0</ele><time>2026-04-25T15:12:34.042Z</time></trkpt><trkpt lat="45.1747769" lon="8.5847353"><ele>100.0</ele><time>2026-04-25T15:12:35.042Z</time></trkpt><trkpt lat="45.174767" lon="8.5849333"><ele>100.33333333333334</ele><time>2026-04-25T15:12:36.043Z</time></trkpt><trkpt lat="45.1747567" lon="8.5851441"><ele>100.66666666666666</ele><time>2026-04-25T15:12:37.042Z</time></trkpt><trkpt lat="45.1747564" lon="8.5853618"><ele>101.0</ele><time>2026-04-25T15:12:38.042Z</time></trkpt><trkpt lat="45.1747504" lon="8.5855828"><ele>101.0</ele><time>2026-04-25T15:12:39.043Z</time></trkpt><trkpt lat="45.1747449" lon="8.585805"><ele>101.0</ele><time>2026-04-25T15:12:40.043Z</time></trkpt><trkpt lat="45.1747339" lon="8.5860405"><ele>101.0</ele><time>2026-04-25T15:12:41.043Z</time></trkpt><trkpt lat="45.1747305" lon="8.5862801"><ele>101.66666666666666</ele><time>2026-04-25T15:12:42.042Z</time></trkpt><trkpt lat="45.1747275" lon="8.5865277"><ele>102.33333333333334</ele><time>2026-04-25T15:12:43.043Z</time></trkpt><trkpt lat="45.17472" lon="8.5867707"><ele>103.0</ele><time>2026-04-25T15:12:44.043Z</time></trkpt><trkpt lat="45.1747138" lon="8.5869894"><ele>103.25</ele><time>2026-04-25T15:12:45.043Z</time></trkpt><trkpt lat="45.1747115" lon="8.5871955"><ele>103.5</ele><time>2026-04-25T15:12:46.042Z</time></trkpt><trkpt lat="45.1747118" lon="8.5873817"><ele>103.75</ele><time>2026-04-25T15:12:47.043Z</time></trkpt><trkpt lat="45.174707" lon="8.5875438"><ele>104.0</ele><time>2026-04-25T15:12:48.042Z</time></trkpt><trkpt lat="45.1747038" lon="8.58768"><ele>103.99999999999999</ele><time>2026-04-25T15:12:49.043Z</time></trkpt><trkpt lat="45.1747034" lon="8.5877971"><ele>104.0</ele><time>2026-04-25T15:12:50.043Z</time></trkpt><trkpt lat="45.1747002" lon="8.5879139"><ele>104.0</ele><time>2026-04-25T15:12:51.043Z</time></trkpt><trkpt lat="45.1746992" lon="8.5880222"><ele>104.0</ele><time>2026-04-25T15:12:52.043Z</time></trkpt><trkpt lat="45.1746985" lon="8.5881282"><ele>103.99999999999999</ele><time>2026-04-25T15:12:53.042Z</time></trkpt><trkpt lat="45.1746968" lon="8.588243"><ele>104.0</ele><time>2026-04-25T15:12:54.043Z</time></trkpt><trkpt lat="45.1746973" lon="8.5883627"><ele>103.75</ele><time>2026-04-25T15:12:55.043Z</time></trkpt><trkpt lat="45.1746939" lon="8.5885032"><ele>103.5</ele><time>2026-04-25T15:12:56.043Z</time></trkpt><trkpt lat="45.1746899" lon="8.5886579"><ele>103.25</ele><time>2026-04-25T15:12:57.042Z</time></trkpt><trkpt lat="45.1746811" lon="8.5888282"><ele>103.0</ele><time>2026-04-25T15:12:58.043Z</time></trkpt><trkpt lat="45.1746661" lon="8.589004"><ele>103.0</ele><time>2026-04-25T15:12:59.042Z</time></trkpt><trkpt lat="45.1746575" lon="8.5891837"><ele>103.0</ele><time>2026-04-25T15:13:00.044Z</time></trkpt><trkpt lat="45.174647" lon="8.5893423"><ele>103.0</ele><time>2026-04-25T15:13:01.043Z</time></trkpt><trkpt lat="45.1746365" lon="8.5894799"><ele>103.0</ele><time>2026-04-25T15:13:02.043Z</time></trkpt><trkpt lat="45.1746372" lon="8.5895926"><ele>103.0</ele><time>2026-04-25T15:13:03.042Z</time></trkpt><trkpt lat="45.1746604" lon="8.5897032"><ele>102.80000000000001</ele><time>2026-04-25T15:13:04.042Z</time></trkpt><trkpt lat="45.1747035" lon="8.5897976"><ele>102.6</ele><time>2026-04-25T15:13:05.042Z</time></trkpt><trkpt lat="45.1747658" lon="8.5898741"><ele>102.4</ele><time>2026-04-25T15:13:06.042Z</time></trkpt><trkpt lat="45.1748591" lon="8.5899264"><ele>102.19999999999999</ele><time>2026-04-25T15:13:07.042Z</time></trkpt><trkpt lat="45.1749606" lon="8.5899716"><ele>102.0</ele><time>2026-04-25T15:13:08.041Z</time></trkpt><trkpt lat="45.1750789" lon="8.590023"><ele>102.0</ele><time>2026-04-25T15:13:09.043Z</time></trkpt><trkpt lat="45.1752109" lon="8.5900826"><ele>102.0</ele><time>2026-04-25T15:13:10.042Z</time></trkpt><trkpt lat="45.1753489" lon="8.5901484"><ele>102.0</ele><time>2026-04-25T15:13:11.043Z</time></trkpt><trkpt lat="45.1754875" lon="8.5902143"><ele>102.0</ele><time>2026-04-25T15:13:12.044Z</time></trkpt><trkpt lat="45.1756403" lon="8.5902805"><ele>101.66666666666666</ele><time>2026-04-25T15:13:13.043Z</time></trkpt><trkpt lat="45.1757915" lon="8.5903463"><ele>101.33333333333333</ele><time>2026-04-25T15:13:14.043Z</time></trkpt><trkpt lat="45.1759469" lon="8.5904168"><ele>101.0</ele><time>2026-04-25T15:13:15.042Z</time></trkpt><trkpt lat="45.1760988" lon="8.5904838"><ele>101.0</ele><time>2026-04-25T15:13:16.043Z</time></trkpt><trkpt lat="45.176232" lon="8.5905489"><ele>101.0</ele><time>2026-04-25T15:13:17.043Z</time></trkpt><trkpt lat="45.176364" lon="8.5906093"><ele>101.0</ele><time>2026-04-25T15:13:18.043Z</time></trkpt><trkpt lat="45.1764921" lon="8.590662"><ele>101.0</ele><time>2026-04-25T15:13:19.043Z</time></trkpt><trkpt lat="45.1766213" lon="8.5907201"><ele>101.5</ele><time>2026-04-25T15:13:20.043Z</time></trkpt><trkpt lat="45.1767502" lon="8.5907836"><ele>102.0</ele><time>2026-04-25T15:13:21.043Z</time></trkpt><trkpt lat="45.1768805" lon="8.5908677"><ele>102.5</ele><time>2026-04-25T15:13:22.043Z</time></trkpt><trkpt lat="45.1770003" lon="8.5909622"><ele>103.0</ele><time>2026-04-25T15:13:23.042Z</time></trkpt><trkpt lat="45.1771167" lon="8.5910726"><ele>103.5</ele><time>2026-04-25T15:13:24.042Z</time></trkpt><trkpt lat="45.1772312" lon="8.5911925"><ele>104.0</ele><time>2026-04-25T15:13:25.043Z</time></trkpt><trkpt lat="45.1773401" lon="8.5913267"><ele>104.5</ele><time>2026-04-25T15:13:26.043Z</time></trkpt><trkpt lat="45.1774347" lon="8.591467"><ele>105.0</ele><time>2026-04-25T15:13:27.043Z</time></trkpt><trkpt lat="45.1775167" lon="8.5916102"><ele>105.0</ele><time>2026-04-25T15:13:28.043Z</time></trkpt><trkpt lat="45.1775799" lon="8.5917358"><ele>105.0</ele><time>2026-04-25T15:13:29.043Z</time></trkpt><trkpt lat="45.1776376" lon="8.5918454"><ele>105.0</ele><time>2026-04-25T15:13:30.042Z</time></trkpt><trkpt lat="45.1776874" lon="8.5919476"><ele>105.0</ele><time>2026-04-25T15:13:31.041Z</time></trkpt><trkpt lat="45.1777348" lon="8.592042"><ele>105.0</ele><time>2026-04-25T15:13:32.042Z</time></trkpt><trkpt lat="45.1777769" lon="8.5921464"><ele>105.0</ele><time>2026-04-25T15:13:33.043Z</time></trkpt><trkpt lat="45.1778289" lon="8.5922635"><ele>105.0</ele><time>2026-04-25T15:13:34.042Z</time></trkpt><trkpt lat="45.1778905" lon="8.5923918"><ele>105.0</ele><time>2026-04-25T15:13:35.042Z</time></trkpt><trkpt lat="45.1779475" lon="8.5925132"><ele>105.0</ele><time>2026-04-25T15:13:36.044Z</time></trkpt><trkpt lat="45.1779962" lon="8.5926276"><ele>105.0</ele><time>2026-04-25T15:13:37.042Z</time></trkpt><trkpt lat="45.1780371" lon="8.5927342"><ele>105.0</ele><time>2026-04-25T15:13:38.042Z</time></trkpt><trkpt lat="45.1780746" lon="8.5928424"><ele>105.0</ele><time>2026-04-25T15:13:39.042Z</time></trkpt><trkpt lat="45.178112" lon="8.5929493"><ele>105.0</ele><time>2026-04-25T15:13:40.043Z</time></trkpt><trkpt lat="45.1781546" lon="8.5930737"><ele>105.0</ele><time>2026-04-25T15:13:41.044Z</time></trkpt><trkpt lat="45.1781996" lon="8.5932029"><ele>105.0</ele><time>2026-04-25T15:13:42.043Z</time></trkpt><trkpt lat="45.1782448" lon="8.5933373"><ele>105.0</ele><time>2026-04-25T15:13:43.043Z</time></trkpt><trkpt lat="45.1782889" lon="8.5934665"><ele>105.0</ele><time>2026-04-25T15:13:44.043Z</time></trkpt><trkpt lat="45.1783278" lon="8.5935819"><ele>105.0</ele><time>2026-04-25T15:13:45.042Z</time></trkpt><trkpt lat="45.1783673" lon="8.5936936"><ele>105.0</ele><time>2026-04-25T15:13:46.043Z</time></trkpt><trkpt lat="45.1784029" lon="8.5938069"><ele>105.0</ele><time>2026-04-25T15:13:47.043Z</time></trkpt><trkpt lat="45.1784547" lon="8.5939018"><ele>105.0</ele><time>2026-04-25T15:13:48.043Z</time></trkpt><trkpt lat="45.1785211" lon="8.5939811"><ele>105.0</ele><time>2026-04-25T15:13:49.043Z</time></trkpt><trkpt lat="45.1786062" lon="8.5940382"><ele>105.0</ele><time>2026-04-25T15:13:50.042Z</time></trkpt><trkpt lat="45.1786866" lon="8.5941063"><ele>105.0</ele><time>2026-04-25T15:13:51.043Z</time></trkpt><trkpt lat="45.1787682" lon="8.5941918"><ele>105.0</ele><time>2026-04-25T15:13:52.042Z</time></trkpt><trkpt lat="45.178857" lon="8.5942997"><ele>105.0</ele><time>2026-04-25T15:13:53.043Z</time></trkpt><trkpt lat="45.1789547" lon="8.5944102"><ele>105.0</ele><time>2026-04-25T15:13:54.042Z</time></trkpt><trkpt lat="45.1790471" lon="8.5945275"><ele>105.0</ele><time>2026-04-25T15:13:55.042Z</time></trkpt><trkpt lat="45.1791346" lon="8.5946388"><ele>105.0</ele><time>2026-04-25T15:13:56.042Z</time></trkpt><trkpt lat="45.1792245" lon="8.5947519"><ele>104.5</ele><time>2026-04-25T15:13:57.043Z</time></trkpt><trkpt lat="45.1793216" lon="8.5948684"><ele>104.0</ele><time>2026-04-25T15:13:58.042Z</time></trkpt><trkpt lat="45.179418" lon="8.5949851"><ele>103.5</ele><time>2026-04-25T15:13:59.043Z</time></trkpt><trkpt lat="45.1795187" lon="8.5951102"><ele>103.0</ele><time>2026-04-25T15:14:00.043Z</time></trkpt><trkpt lat="45.1796272" lon="8.5952261"><ele>103.0</ele><time>2026-04-25T15:14:01.042Z</time></trkpt><trkpt lat="45.1797294" lon="8.5953387"><ele>103.0</ele><time>2026-04-25T15:14:02.043Z</time></trkpt><trkpt lat="45.1798337" lon="8.5954538"><ele>103.0</ele><time>2026-04-25T15:14:03.043Z</time></trkpt><trkpt lat="45.1799304" lon="8.5955719"><ele>103.0</ele><time>2026-04-25T15:14:04.043Z</time></trkpt><trkpt lat="45.1800277" lon="8.5956884"><ele>102.75</ele><time>2026-04-25T15:14:05.042Z</time></trkpt><trkpt lat="45.1801308" lon="8.5958083"><ele>102.5</ele><time>2026-04-25T15:14:06.041Z</time></trkpt><trkpt lat="45.1802367" lon="8.595931"><ele>102.25</ele><time>2026-04-25T15:14:07.042Z</time></trkpt><trkpt lat="45.1803338" lon="8.596065"><ele>102.0</ele><time>2026-04-25T15:14:08.042Z</time></trkpt><trkpt lat="45.1804496" lon="8.5961953"><ele>102.0</ele><time>2026-04-25T15:14:09.042Z</time></trkpt><trkpt lat="45.1805643" lon="8.5963228"><ele>102.0</ele><time>2026-04-25T15:14:10.042Z</time></trkpt><trkpt lat="45.1806843" lon="8.5964496"><ele>102.0</ele><time>2026-04-25T15:14:11.043Z</time></trkpt><trkpt lat="45.1807998" lon="8.5965859"><ele>102.0</ele><time>2026-04-25T15:14:12.043Z</time></trkpt><trkpt lat="45.1809212" lon="8.5967187"><ele>102.33333333333334</ele><time>2026-04-25T15:14:13.043Z</time></trkpt><trkpt lat="45.1810424" lon="8.5968534"><ele>102.66666666666667</ele><time>2026-04-25T15:14:14.043Z</time></trkpt><trkpt lat="45.1811624" lon="8.5969913"><ele>103.0</ele><time>2026-04-25T15:14:15.043Z</time></trkpt><trkpt lat="45.1812815" lon="8.5971207"><ele>103.0</ele><time>2026-04-25T15:14:16.043Z</time></trkpt><trkpt lat="45.1813988" lon="8.5972516"><ele>103.0</ele><time>2026-04-25T15:14:17.043Z</time></trkpt><trkpt lat="45.1815021" lon="8.5973808"><ele>103.0</ele><time>2026-04-25T15:14:18.043Z</time></trkpt><trkpt lat="45.1816083" lon="8.5975028"><ele>103.0</ele><time>2026-04-25T15:14:19.042Z</time></trkpt><trkpt lat="45.1817155" lon="8.5976223"><ele>103.0</ele><time>2026-04-25T15:14:20.043Z</time></trkpt><trkpt lat="45.1818303" lon="8.5977401"><ele>103.0</ele><time>2026-04-25T15:14:21.042Z</time></trkpt><trkpt lat="45.1819349" lon="8.5978681"><ele>103.0</ele><time>2026-04-25T15:14:22.043Z</time></trkpt><trkpt lat="45.1820434" lon="8.5980015"><ele>103.0</ele><time>2026-04-25T15:14:23.043Z</time></trkpt><trkpt lat="45.1821587" lon="8.5981334"><ele>103.0</ele><time>2026-04-25T15:14:24.043Z</time></trkpt><trkpt lat="45.1822708" lon="8.5982706"><ele>103.0</ele><time>2026-04-25T15:14:25.042Z</time></trkpt><trkpt lat="45.1823897" lon="8.5984098"><ele>103.0</ele><time>2026-04-25T15:14:26.043Z</time></trkpt><trkpt lat="45.1825101" lon="8.598556"><ele>103.33333333333334</ele><time>2026-04-25T15:14:27.043Z</time></trkpt><trkpt lat="45.1826358" lon="8.5986978"><ele>103.66666666666666</ele><time>2026-04-25T15:14:28.043Z</time></trkpt><trkpt lat="45.1827513" lon="8.5988517"><ele>104.0</ele><time>2026-04-25T15:14:29.043Z</time></trkpt><trkpt lat="45.1828802" lon="8.5990084"><ele>104.0</ele><time>2026-04-25T15:14:30.043Z</time></trkpt><trkpt lat="45.183011" lon="8.5991672"><ele>104.0</ele><time>2026-04-25T15:14:31.043Z</time></trkpt><trkpt lat="45.1831442" lon="8.5993266"><ele>104.0</ele><time>2026-04-25T15:14:32.043Z</time></trkpt><trkpt lat="45.1832774" lon="8.5994897"><ele>104.66666666666666</ele><time>2026-04-25T15:14:33.042Z</time></trkpt><trkpt lat="45.1834203" lon="8.5996434"><ele>105.33333333333334</ele><time>2026-04-25T15:14:34.043Z</time></trkpt><trkpt lat="45.1835654" lon="8.5998072"><ele>106.0</ele><time>2026-04-25T15:14:35.041Z</time></trkpt><trkpt lat="45.1837097" lon="8.5999782"><ele>106.0</ele><time>2026-04-25T15:14:36.043Z</time></trkpt><trkpt lat="45.1838553" lon="8.6001515"><ele>106.0</ele><time>2026-04-25T15:14:37.042Z</time></trkpt><trkpt lat="45.1840073" lon="8.600334"><ele>106.0</ele><time>2026-04-25T15:14:38.043Z</time></trkpt><trkpt lat="45.1841638" lon="8.6005134"><ele>105.33333333333334</ele><time>2026-04-25T15:14:39.043Z</time></trkpt><trkpt lat="45.1843157" lon="8.6006845"><ele>104.66666666666666</ele><time>2026-04-25T15:14:40.043Z</time></trkpt><trkpt lat="45.1844583" lon="8.6008464"><ele>104.0</ele><time>2026-04-25T15:14:41.043Z</time></trkpt><trkpt lat="45.1846044" lon="8.6010045"><ele>103.33333333333333</ele><time>2026-04-25T15:14:42.043Z</time></trkpt><trkpt lat="45.1847448" lon="8.6011739"><ele>102.66666666666666</ele><time>2026-04-25T15:14:43.043Z</time></trkpt><trkpt lat="45.1848848" lon="8.6013414"><ele>102.0</ele><time>2026-04-25T15:14:44.042Z</time></trkpt><trkpt lat="45.1850254" lon="8.6015039"><ele>102.0</ele><time>2026-04-25T15:14:45.043Z</time></trkpt><trkpt lat="45.1851664" lon="8.6016668"><ele>102.0</ele><time>2026-04-25T15:14:46.042Z</time></trkpt><trkpt lat="45.1853112" lon="8.6018334"><ele>102.0</ele><time>2026-04-25T15:14:47.042Z</time></trkpt><trkpt lat="45.1854571" lon="8.602006"><ele>102.0</ele><time>2026-04-25T15:14:48.043Z</time></trkpt><trkpt lat="45.1855955" lon="8.6021719"><ele>102.0</ele><time>2026-04-25T15:14:49.042Z</time></trkpt><trkpt lat="45.1857369" lon="8.6023351"><ele>102.0</ele><time>2026-04-25T15:14:50.042Z</time></trkpt><trkpt lat="45.1858677" lon="8.6024972"><ele>102.0</ele><time>2026-04-25T15:14:51.042Z</time></trkpt><trkpt lat="45.1859965" lon="8.6026525"><ele>102.0</ele><time>2026-04-25T15:14:52.042Z</time></trkpt><trkpt lat="45.1861184" lon="8.6027838"><ele>102.0</ele><time>2026-04-25T15:14:53.042Z</time></trkpt><trkpt lat="45.1862222" lon="8.6029095"><ele>102.0</ele><time>2026-04-25T15:14:54.042Z</time></trkpt><trkpt lat="45.1863155" lon="8.6030189"><ele>102.0</ele><time>2026-04-25T15:14:55.043Z</time></trkpt><trkpt lat="45.1863976" lon="8.6031308"><ele>102.0</ele><time>2026-04-25T15:14:56.04Z</time></trkpt><trkpt lat="45.186468" lon="8.603249"><ele>102.0</ele><time>2026-04-25T15:14:57.042Z</time></trkpt><trkpt lat="45.1865329" lon="8.6033678"><ele>102.0</ele><time>2026-04-25T15:14:58.043Z</time></trkpt><trkpt lat="45.186582" lon="8.603488"><ele>102.0</ele><time>2026-04-25T15:14:59.042Z</time></trkpt><trkpt lat="45.1866191" lon="8.6036044"><ele>102.0</ele><time>2026-04-25T15:15:00.043Z</time></trkpt><trkpt lat="45.1866644" lon="8.6037157"><ele>102.0</ele><time>2026-04-25T15:15:01.041Z</time></trkpt><trkpt lat="45.1867264" lon="8.60381"><ele>102.0</ele><time>2026-04-25T15:15:02.042Z</time></trkpt><trkpt lat="45.1868115" lon="8.6038754"><ele>101.5</ele><time>2026-04-25T15:15:03.042Z</time></trkpt><trkpt lat="45.1869113" lon="8.6039322"><ele>101.0</ele><time>2026-04-25T15:15:04.042Z</time></trkpt><trkpt lat="45.1870251" lon="8.6039851"><ele>100.5</ele><time>2026-04-25T15:15:05.043Z</time></trkpt><trkpt lat="45.1871379" lon="8.6040603"><ele>100.0</ele><time>2026-04-25T15:15:06.042Z</time></trkpt><trkpt lat="45.187243" lon="8.6041509"><ele>100.5</ele><time>2026-04-25T15:15:07.043Z</time></trkpt><trkpt lat="45.1873521" lon="8.6042543"><ele>101.0</ele><time>2026-04-25T15:15:08.043Z</time></trkpt><trkpt lat="45.1874625" lon="8.6043763"><ele>101.5</ele><time>2026-04-25T15:15:09.043Z</time></trkpt><trkpt lat="45.1875809" lon="8.6045075"><ele>102.0</ele><time>2026-04-25T15:15:10.043Z</time></trkpt><trkpt lat="45.1877007" lon="8.6046469"><ele>102.33333333333334</ele><time>2026-04-25T15:15:11.042Z</time></trkpt><trkpt lat="45.187821" lon="8.6047872"><ele>102.66666666666667</ele><time>2026-04-25T15:15:12.043Z</time></trkpt><trkpt lat="45.1879438" lon="8.604935"><ele>103.0</ele><time>2026-04-25T15:15:13.043Z</time></trkpt><trkpt lat="45.1880748" lon="8.6050811"><ele>102.33333333333334</ele><time>2026-04-25T15:15:14.042Z</time></trkpt><trkpt lat="45.1882002" lon="8.6052319"><ele>101.66666666666666</ele><time>2026-04-25T15:15:15.043Z</time></trkpt><trkpt lat="45.1883258" lon="8.6053766"><ele>101.0</ele><time>2026-04-25T15:15:16.043Z</time></trkpt><trkpt lat="45.188454" lon="8.6055173"><ele>101.0</ele><time>2026-04-25T15:15:17.042Z</time></trkpt><trkpt lat="45.1885795" lon="8.6056596"><ele>101.0</ele><time>2026-04-25T15:15:18.043Z</time></trkpt><trkpt lat="45.1887067" lon="8.6058035"><ele>101.0</ele><time>2026-04-25T15:15:19.042Z</time></trkpt><trkpt lat="45.1888241" lon="8.6059531"><ele>101.0</ele><time>2026-04-25T15:15:20.043Z</time></trkpt><trkpt lat="45.1889464" lon="8.6061014"><ele>101.0</ele><time>2026-04-25T15:15:21.043Z</time></trkpt><trkpt lat="45.1890743" lon="8.6062466"><ele>101.0</ele><time>2026-04-25T15:15:22.042Z</time></trkpt><trkpt lat="45.1891964" lon="8.6063985"><ele>101.33333333333333</ele><time>2026-04-25T15:15:23.042Z</time></trkpt><trkpt lat="45.1893198" lon="8.6065339"><ele>101.66666666666666</ele><time>2026-04-25T15:15:24.042Z</time></trkpt><trkpt lat="45.1894381" lon="8.6066695"><ele>102.0</ele><time>2026-04-25T15:15:25.043Z</time></trkpt><trkpt lat="45.1895504" lon="8.606803"><ele>102.0</ele><time>2026-04-25T15:15:26.042Z</time></trkpt><trkpt lat="45.1896592" lon="8.6069329"><ele>102.0</ele><time>2026-04-25T15:15:27.043Z</time></trkpt><trkpt lat="45.1897652" lon="8.6070605"><ele>102.0</ele><time>2026-04-25T15:15:28.042Z</time></trkpt><trkpt lat="45.189873" lon="8.6071887"><ele>102.0</ele><time>2026-04-25T15:15:29.042Z</time></trkpt><trkpt lat="45.1899842" lon="8.6073177"><ele>102.25</ele><time>2026-04-25T15:15:30.041Z</time></trkpt><trkpt lat="45.1900904" lon="8.6074478"><ele>102.5</ele><time>2026-04-25T15:15:31.042Z</time></trkpt><trkpt lat="45.1901961" lon="8.6075755"><ele>102.75</ele><time>2026-04-25T15:15:32.043Z</time></trkpt><trkpt lat="45.1903031" lon="8.6077038"><ele>103.0</ele><time>2026-04-25T15:15:33.042Z</time></trkpt><trkpt lat="45.1904029" lon="8.6078284"><ele>103.25</ele><time>2026-04-25T15:15:34.043Z</time></trkpt><trkpt lat="45.1905035" lon="8.607953"><ele>103.5</ele><time>2026-04-25T15:15:35.043Z</time></trkpt><trkpt lat="45.1905946" lon="8.6080687"><ele>103.75</ele><time>2026-04-25T15:15:36.042Z</time></trkpt><trkpt lat="45.1906751" lon="8.6081785"><ele>104.0</ele><time>2026-04-25T15:15:37.043Z</time></trkpt><trkpt lat="45.1907471" lon="8.6082907"><ele>104.0</ele><time>2026-04-25T15:15:38.042Z</time></trkpt><trkpt lat="45.1908153" lon="8.6084124"><ele>104.0</ele><time>2026-04-25T15:15:39.042Z</time></trkpt><trkpt lat="45.1908763" lon="8.6085362"><ele>104.0</ele><time>2026-04-25T15:15:40.042Z</time></trkpt><trkpt lat="45.1909339" lon="8.6086712"><ele>104.0</ele><time>2026-04-25T15:15:41.043Z</time></trkpt><trkpt lat="45.1909898" lon="8.6088025"><ele>104.0</ele><time>2026-04-25T15:15:42.042Z</time></trkpt><trkpt lat="45.1910444" lon="8.6089277"><ele>104.2</ele><time>2026-04-25T15:15:43.041Z</time></trkpt><trkpt lat="45.1910962" lon="8.6090596"><ele>104.4</ele><time>2026-04-25T15:15:44.04Z</time></trkpt><trkpt lat="45.1911494" lon="8.6091852"><ele>104.6</ele><time>2026-04-25T15:15:45.041Z</time></trkpt><trkpt lat="45.1911983" lon="8.6093024"><ele>104.8</ele><time>2026-04-25T15:15:46.041Z</time></trkpt><trkpt lat="45.1912454" lon="8.6094205"><ele>105.0</ele><time>2026-04-25T15:15:47.041Z</time></trkpt><trkpt lat="45.1912943" lon="8.6095371"><ele>105.0</ele><time>2026-04-25T15:15:48.042Z</time></trkpt><trkpt lat="45.1913449" lon="8.6096576"><ele>105.0</ele><time>2026-04-25T15:15:49.042Z</time></trkpt><trkpt lat="45.191398" lon="8.6097868"><ele>105.0</ele><time>2026-04-25T15:15:50.042Z</time></trkpt><trkpt lat="45.1914585" lon="8.6099231"><ele>105.0</ele><time>2026-04-25T15:15:51.042Z</time></trkpt><trkpt lat="45.1915168" lon="8.6100561"><ele>105.0</ele><time>2026-04-25T15:15:52.043Z</time></trkpt><trkpt lat="45.1915787" lon="8.6101942"><ele>105.0</ele><time>2026-04-25T15:15:53.042Z</time></trkpt><trkpt lat="45.1916409" lon="8.6103407"><ele>105.0</ele><time>2026-04-25T15:15:54.041Z</time></trkpt><trkpt lat="45.1917076" lon="8.6104872"><ele>105.0</ele><time>2026-04-25T15:15:55.04Z</time></trkpt><trkpt lat="45.1917681" lon="8.6106215"><ele>105.0</ele><time>2026-04-25T15:15:56.042Z</time></trkpt><trkpt lat="45.1918236" lon="8.6107629"><ele>105.0</ele><time>2026-04-25T15:15:57.043Z</time></trkpt><trkpt lat="45.1918802" lon="8.6109009"><ele>105.0</ele><time>2026-04-25T15:15:58.042Z</time></trkpt><trkpt lat="45.1919445" lon="8.61104"><ele>105.0</ele><time>2026-04-25T15:15:59.042Z</time></trkpt><trkpt lat="45.1920131" lon="8.6111786"><ele>105.0</ele><time>2026-04-25T15:16:00.04Z</time></trkpt><trkpt lat="45.1920827" lon="8.611321"><ele>105.0</ele><time>2026-04-25T15:16:01.042Z</time></trkpt><trkpt lat="45.1921581" lon="8.6114573"><ele>105.0</ele><time>2026-04-25T15:16:02.041Z</time></trkpt><trkpt lat="45.1922339" lon="8.6116017"><ele>105.0</ele><time>2026-04-25T15:16:03.04Z</time></trkpt><trkpt lat="45.1923102" lon="8.6117443"><ele>105.0</ele><time>2026-04-25T15:16:04.041Z</time></trkpt><trkpt lat="45.1923918" lon="8.6118903"><ele>105.0</ele><time>2026-04-25T15:16:05.043Z</time></trkpt><trkpt lat="45.1924717" lon="8.612046"><ele>105.0</ele><time>2026-04-25T15:16:06.042Z</time></trkpt><trkpt lat="45.1925504" lon="8.6121989"><ele>105.0</ele><time>2026-04-25T15:16:07.042Z</time></trkpt><trkpt lat="45.1926291" lon="8.6123605"><ele>105.0</ele><time>2026-04-25T15:16:08.041Z</time></trkpt><trkpt lat="45.1927029" lon="8.6125174"><ele>105.0</ele><time>2026-04-25T15:16:09.043Z</time></trkpt><trkpt lat="45.1927729" lon="8.6126774"><ele>105.0</ele><time>2026-04-25T15:16:10.042Z</time></trkpt><trkpt lat="45.1928421" lon="8.6128317"><ele>105.0</ele><time>2026-04-25T15:16:11.042Z</time></trkpt><trkpt lat="45.1929173" lon="8.6129875"><ele>105.0</ele><time>2026-04-25T15:16:12.043Z</time></trkpt><trkpt lat="45.192988" lon="8.6131482"><ele>105.0</ele><time>2026-04-25T15:16:13.043Z</time></trkpt><trkpt lat="45.1930576" lon="8.6133096"><ele>105.0</ele><time>2026-04-25T15:16:14.042Z</time></trkpt><trkpt lat="45.1931256" lon="8.6134729"><ele>105.0</ele><time>2026-04-25T15:16:15.042Z</time></trkpt><trkpt lat="45.1932004" lon="8.6136313"><ele>105.0</ele><time>2026-04-25T15:16:16.043Z</time></trkpt><trkpt lat="45.193273" lon="8.6137873"><ele>105.0</ele><time>2026-04-25T15:16:17.042Z</time></trkpt><trkpt lat="45.1933409" lon="8.6139461"><ele>105.0</ele><time>2026-04-25T15:16:18.042Z</time></trkpt><trkpt lat="45.1934116" lon="8.6141234"><ele>105.0</ele><time>2026-04-25T15:16:19.042Z</time></trkpt><trkpt lat="45.1934792" lon="8.614288"><ele>105.0</ele><time>2026-04-25T15:16:20.042Z</time></trkpt><trkpt lat="45.1935519" lon="8.614457"><ele>105.25</ele><time>2026-04-25T15:16:21.042Z</time></trkpt><trkpt lat="45.1936238" lon="8.6146254"><ele>105.5</ele><time>2026-04-25T15:16:22.042Z</time></trkpt><trkpt lat="45.1936982" lon="8.6147947"><ele>105.75</ele><time>2026-04-25T15:16:23.041Z</time></trkpt><trkpt lat="45.1937761" lon="8.6149702"><ele>106.0</ele><time>2026-04-25T15:16:24.042Z</time></trkpt><trkpt lat="45.1938494" lon="8.6151415"><ele>105.25</ele><time>2026-04-25T15:16:25.043Z</time></trkpt><trkpt lat="45.1939251" lon="8.6153208"><ele>104.5</ele><time>2026-04-25T15:16:26.041Z</time></trkpt><trkpt lat="45.1940033" lon="8.6154885"><ele>103.75</ele><time>2026-04-25T15:16:27.043Z</time></trkpt><trkpt lat="45.1940831" lon="8.615671"><ele>103.0</ele><time>2026-04-25T15:16:28.041Z</time></trkpt><trkpt lat="45.194163" lon="8.6158529"><ele>103.0</ele><time>2026-04-25T15:16:29.043Z</time></trkpt><trkpt lat="45.1942426" lon="8.6160372"><ele>103.0</ele><time>2026-04-25T15:16:30.042Z</time></trkpt><trkpt lat="45.1943192" lon="8.616225"><ele>103.0</ele><time>2026-04-25T15:16:31.043Z</time></trkpt><trkpt lat="45.1944018" lon="8.6164244"><ele>102.66666666666667</ele><time>2026-04-25T15:16:32.041Z</time></trkpt><trkpt lat="45.1944935" lon="8.616635"><ele>102.33333333333334</ele><time>2026-04-25T15:16:33.041Z</time></trkpt><trkpt lat="45.194591" lon="8.6168549"><ele>102.0</ele><time>2026-04-25T15:16:34.041Z</time></trkpt><trkpt lat="45.1946961" lon="8.6170933"><ele>102.0</ele><time>2026-04-25T15:16:35.042Z</time></trkpt><trkpt lat="45.1948063" lon="8.6173486"><ele>102.0</ele><time>2026-04-25T15:16:36.043Z</time></trkpt><trkpt lat="45.1949157" lon="8.617599"><ele>102.0</ele><time>2026-04-25T15:16:37.042Z</time></trkpt><trkpt lat="45.1950332" lon="8.6178735"><ele>102.5</ele><time>2026-04-25T15:16:38.042Z</time></trkpt><trkpt lat="45.1951598" lon="8.6181537"><ele>103.0</ele><time>2026-04-25T15:16:39.041Z</time></trkpt><trkpt lat="45.1952909" lon="8.6184501"><ele>103.0</ele><time>2026-04-25T15:16:40.042Z</time></trkpt><trkpt lat="45.1954223" lon="8.6187659"><ele>103.0</ele><time>2026-04-25T15:16:41.041Z</time></trkpt><trkpt lat="45.1955536" lon="8.6190861"><ele>103.0</ele><time>2026-04-25T15:16:42.042Z</time></trkpt><trkpt lat="45.195682" lon="8.6193962"><ele>103.0</ele><time>2026-04-25T15:16:43.043Z</time></trkpt><trkpt lat="45.1958127" lon="8.6197119"><ele>103.0</ele><time>2026-04-25T15:16:44.042Z</time></trkpt><trkpt lat="45.1959428" lon="8.6200241"><ele>103.0</ele><time>2026-04-25T15:16:45.041Z</time></trkpt><trkpt lat="45.1960765" lon="8.6203445"><ele>102.5</ele><time>2026-04-25T15:16:46.041Z</time></trkpt><trkpt lat="45.1962098" lon="8.6206649"><ele>102.0</ele><time>2026-04-25T15:16:47.042Z</time></trkpt><trkpt lat="45.1963465" lon="8.6209861"><ele>103.0</ele><time>2026-04-25T15:16:48.042Z</time></trkpt><trkpt lat="45.1964899" lon="8.6213077"><ele>104.0</ele><time>2026-04-25T15:16:49.042Z</time></trkpt><trkpt lat="45.1966223" lon="8.6216189"><ele>104.0</ele><time>2026-04-25T15:16:50.041Z</time></trkpt><trkpt lat="45.1967613" lon="8.6219442"><ele>104.0</ele><time>2026-04-25T15:16:51.041Z</time></trkpt><trkpt lat="45.1968939" lon="8.6222576"><ele>104.0</ele><time>2026-04-25T15:16:52.042Z</time></trkpt><trkpt lat="45.1970285" lon="8.6225617"><ele>104.0</ele><time>2026-04-25T15:16:53.042Z</time></trkpt><trkpt lat="45.1971612" lon="8.6228649"><ele>104.0</ele><time>2026-04-25T15:16:54.042Z</time></trkpt><trkpt lat="45.1972929" lon="8.6231673"><ele>104.0</ele><time>2026-04-25T15:16:55.042Z</time></trkpt><trkpt lat="45.1974246" lon="8.6234763"><ele>103.5</ele><time>2026-04-25T15:16:56.041Z</time></trkpt><trkpt lat="45.1975585" lon="8.6237899"><ele>103.0</ele><time>2026-04-25T15:16:57.041Z</time></trkpt><trkpt lat="45.1976935" lon="8.6241055"><ele>103.0</ele><time>2026-04-25T15:16:58.042Z</time></trkpt><trkpt lat="45.1978308" lon="8.6244237"><ele>103.0</ele><time>2026-04-25T15:16:59.043Z</time></trkpt><trkpt lat="45.1979726" lon="8.6247491"><ele>104.0</ele><time>2026-04-25T15:17:00.042Z</time></trkpt><trkpt lat="45.1981139" lon="8.6250828"><ele>105.0</ele><time>2026-04-25T15:17:01.042Z</time></trkpt><trkpt lat="45.1982523" lon="8.6254122"><ele>105.0</ele><time>2026-04-25T15:17:02.041Z</time></trkpt><trkpt lat="45.1983976" lon="8.625747"><ele>105.0</ele><time>2026-04-25T15:17:03.042Z</time></trkpt><trkpt lat="45.1985476" lon="8.6260838"><ele>104.5</ele><time>2026-04-25T15:17:04.042Z</time></trkpt><trkpt lat="45.1986947" lon="8.6264271"><ele>104.0</ele><time>2026-04-25T15:17:05.041Z</time></trkpt><trkpt lat="45.1988371" lon="8.6267672"><ele>104.0</ele><time>2026-04-25T15:17:06.042Z</time></trkpt><trkpt lat="45.1989883" lon="8.6271176"><ele>104.0</ele><time>2026-04-25T15:17:07.041Z</time></trkpt><trkpt lat="45.1991334" lon="8.6274634"><ele>104.0</ele><time>2026-04-25T15:17:08.041Z</time></trkpt><trkpt lat="45.1992775" lon="8.6278128"><ele>104.0</ele><time>2026-04-25T15:17:09.042Z</time></trkpt><trkpt lat="45.1994329" lon="8.6281665"><ele>104.0</ele><time>2026-04-25T15:17:10.042Z</time></trkpt><trkpt lat="45.1995835" lon="8.6285221"><ele>104.0</ele><time>2026-04-25T15:17:11.042Z</time></trkpt><trkpt lat="45.1997286" lon="8.6288812"><ele>104.0</ele><time>2026-04-25T15:17:12.042Z</time></trkpt><trkpt lat="45.1998833" lon="8.6292369"><ele>104.0</ele><time>2026-04-25T15:17:13.043Z</time></trkpt><trkpt lat="45.2000379" lon="8.6295952"><ele>104.0</ele><time>2026-04-25T15:17:14.042Z</time></trkpt><trkpt lat="45.2001899" lon="8.6299495"><ele>104.0</ele><time>2026-04-25T15:17:15.042Z</time></trkpt><trkpt lat="45.2003441" lon="8.6303053"><ele>104.5</ele><time>2026-04-25T15:17:16.042Z</time></trkpt><trkpt lat="45.2005039" lon="8.630668"><ele>105.0</ele><time>2026-04-25T15:17:17.042Z</time></trkpt><trkpt lat="45.200658" lon="8.6310236"><ele>105.5</ele><time>2026-04-25T15:17:18.042Z</time></trkpt><trkpt lat="45.2008058" lon="8.6313724"><ele>106.0</ele><time>2026-04-25T15:17:19.041Z</time></trkpt><trkpt lat="45.2009505" lon="8.6317164"><ele>105.0</ele><time>2026-04-25T15:17:20.042Z</time></trkpt><trkpt lat="45.2010983" lon="8.6320661"><ele>104.0</ele><time>2026-04-25T15:17:21.041Z</time></trkpt><trkpt lat="45.2012478" lon="8.6324111"><ele>104.0</ele><time>2026-04-25T15:17:22.042Z</time></trkpt><trkpt lat="45.2013915" lon="8.6327497"><ele>104.0</ele><time>2026-04-25T15:17:23.041Z</time></trkpt><trkpt lat="45.2015381" lon="8.6330874"><ele>104.0</ele><time>2026-04-25T15:17:24.042Z</time></trkpt><trkpt lat="45.201686" lon="8.6334272"><ele>104.0</ele><time>2026-04-25T15:17:25.041Z</time></trkpt><trkpt lat="45.2018324" lon="8.6337668"><ele>104.0</ele><time>2026-04-25T15:17:26.042Z</time></trkpt><trkpt lat="45.2019744" lon="8.6341089"><ele>104.0</ele><time>2026-04-25T15:17:27.041Z</time></trkpt><trkpt lat="45.2021133" lon="8.6344346"><ele>103.5</ele><time>2026-04-25T15:17:28.042Z</time></trkpt><trkpt lat="45.2022474" lon="8.6347499"><ele>103.0</ele><time>2026-04-25T15:17:29.042Z</time></trkpt><trkpt lat="45.2023822" lon="8.6350407"><ele>103.0</ele><time>2026-04-25T15:17:30.041Z</time></trkpt><trkpt lat="45.2025061" lon="8.6353211"><ele>103.0</ele><time>2026-04-25T15:17:31.041Z</time></trkpt><trkpt lat="45.2026252" lon="8.6355864"><ele>103.0</ele><time>2026-04-25T15:17:32.042Z</time></trkpt><trkpt lat="45.2027355" lon="8.6358359"><ele>103.0</ele><time>2026-04-25T15:17:33.041Z</time></trkpt><trkpt lat="45.2028492" lon="8.6360804"><ele>103.0</ele><time>2026-04-25T15:17:34.041Z</time></trkpt><trkpt lat="45.2029499" lon="8.6363084"><ele>103.0</ele><time>2026-04-25T15:17:35.042Z</time></trkpt><trkpt lat="45.2030473" lon="8.6365267"><ele>103.0</ele><time>2026-04-25T15:17:36.042Z</time></trkpt><trkpt lat="45.2031453" lon="8.636745"><ele>103.0</ele><time>2026-04-25T15:17:37.042Z</time></trkpt><trkpt lat="45.2032408" lon="8.636952"><ele>102.66666666666667</ele><time>2026-04-25T15:17:38.04Z</time></trkpt><trkpt lat="45.2033556" lon="8.6371415"><ele>102.33333333333334</ele><time>2026-04-25T15:17:39.042Z</time></trkpt><trkpt lat="45.2034902" lon="8.6373096"><ele>102.0</ele><time>2026-04-25T15:17:40.042Z</time></trkpt><trkpt lat="45.2036444" lon="8.6374631"><ele>102.0</ele><time>2026-04-25T15:17:41.042Z</time></trkpt><trkpt lat="45.2038128" lon="8.637608"><ele>102.0</ele><time>2026-04-25T15:17:42.042Z</time></trkpt><trkpt lat="45.2039892" lon="8.637755"><ele>102.0</ele><time>2026-04-25T15:17:43.042Z</time></trkpt><trkpt lat="45.204176" lon="8.6379074"><ele>102.0</ele><time>2026-04-25T15:17:44.042Z</time></trkpt><trkpt lat="45.2043629" lon="8.6380607"><ele>102.0</ele><time>2026-04-25T15:17:45.042Z</time></trkpt><trkpt lat="45.2045438" lon="8.6382129"><ele>102.0</ele><time>2026-04-25T15:17:46.042Z</time></trkpt><trkpt lat="45.2047157" lon="8.6383627"><ele>102.0</ele><time>2026-04-25T15:17:47.042Z</time></trkpt><trkpt lat="45.2048902" lon="8.6385285"><ele>102.0</ele><time>2026-04-25T15:17:48.041Z</time></trkpt><trkpt lat="45.2050578" lon="8.6387228"><ele>102.0</ele><time>2026-04-25T15:17:49.041Z</time></trkpt><trkpt lat="45.2052195" lon="8.6389494"><ele>101.5</ele><time>2026-04-25T15:17:50.042Z</time></trkpt><trkpt lat="45.2053817" lon="8.6391974"><ele>101.0</ele><time>2026-04-25T15:17:51.042Z</time></trkpt><trkpt lat="45.2055572" lon="8.6394525"><ele>101.0</ele><time>2026-04-25T15:17:52.042Z</time></trkpt><trkpt lat="45.205728" lon="8.6397156"><ele>101.0</ele><time>2026-04-25T15:17:53.042Z</time></trkpt><trkpt lat="45.2059054" lon="8.639988"><ele>101.0</ele><time>2026-04-25T15:17:54.042Z</time></trkpt><trkpt lat="45.2060846" lon="8.6402682"><ele>101.0</ele><time>2026-04-25T15:17:55.042Z</time></trkpt><trkpt lat="45.2062639" lon="8.6405518"><ele>100.5</ele><time>2026-04-25T15:17:56.041Z</time></trkpt><trkpt lat="45.2064476" lon="8.6408409"><ele>100.0</ele><time>2026-04-25T15:17:57.042Z</time></trkpt><trkpt lat="45.2066306" lon="8.6411396"><ele>100.0</ele><time>2026-04-25T15:17:58.042Z</time></trkpt><trkpt lat="45.2068214" lon="8.6414421"><ele>100.0</ele><time>2026-04-25T15:17:59.041Z</time></trkpt><trkpt lat="45.2070168" lon="8.6417454"><ele>100.0</ele><time>2026-04-25T15:18:00.041Z</time></trkpt><trkpt lat="45.2072016" lon="8.6420471"><ele>100.0</ele><time>2026-04-25T15:18:01.042Z</time></trkpt><trkpt lat="45.2073832" lon="8.6423297"><ele>100.5</ele><time>2026-04-25T15:18:02.042Z</time></trkpt><trkpt lat="45.207559" lon="8.6426068"><ele>101.0</ele><time>2026-04-25T15:18:03.042Z</time></trkpt><trkpt lat="45.2077385" lon="8.6428839"><ele>101.0</ele><time>2026-04-25T15:18:04.042Z</time></trkpt><trkpt lat="45.2079184" lon="8.6431666"><ele>101.0</ele><time>2026-04-25T15:18:05.042Z</time></trkpt><trkpt lat="45.2081004" lon="8.6434341"><ele>101.0</ele><time>2026-04-25T15:18:06.041Z</time></trkpt><trkpt lat="45.2082667" lon="8.6437104"><ele>101.0</ele><time>2026-04-25T15:18:07.042Z</time></trkpt><trkpt lat="45.2084345" lon="8.6439854"><ele>101.0</ele><time>2026-04-25T15:18:08.041Z</time></trkpt><trkpt lat="45.2086056" lon="8.644252"><ele>101.0</ele><time>2026-04-25T15:18:09.04Z</time></trkpt><trkpt lat="45.2087754" lon="8.6445177"><ele>101.5</ele><time>2026-04-25T15:18:10.041Z</time></trkpt><trkpt lat="45.2089433" lon="8.6447798"><ele>102.0</ele><time>2026-04-25T15:18:11.041Z</time></trkpt><trkpt lat="45.2091076" lon="8.6450471"><ele>102.0</ele><time>2026-04-25T15:18:12.042Z</time></trkpt><trkpt lat="45.2092716" lon="8.6453079"><ele>102.0</ele><time>2026-04-25T15:18:13.042Z</time></trkpt><trkpt lat="45.2094307" lon="8.6455671"><ele>102.0</ele><time>2026-04-25T15:18:14.042Z</time></trkpt><trkpt lat="45.2095901" lon="8.6458237"><ele>102.0</ele><time>2026-04-25T15:18:15.041Z</time></trkpt><trkpt lat="45.2097551" lon="8.6460842"><ele>102.5</ele><time>2026-04-25T15:18:16.042Z</time></trkpt><trkpt lat="45.2099223" lon="8.6463435"><ele>103.0</ele><time>2026-04-25T15:18:17.041Z</time></trkpt><trkpt lat="45.210083" lon="8.6466069"><ele>103.0</ele><time>2026-04-25T15:18:18.041Z</time></trkpt><trkpt lat="45.2102495" lon="8.6468686"><ele>103.0</ele><time>2026-04-25T15:18:19.041Z</time></trkpt><trkpt lat="45.2104113" lon="8.6471265"><ele>104.0</ele><time>2026-04-25T15:18:20.04Z</time></trkpt><trkpt lat="45.2105746" lon="8.647384"><ele>105.0</ele><time>2026-04-25T15:18:21.041Z</time></trkpt><trkpt lat="45.2107366" lon="8.647648"><ele>106.5</ele><time>2026-04-25T15:18:22.041Z</time></trkpt><trkpt lat="45.2109018" lon="8.647915"><ele>108.0</ele><time>2026-04-25T15:18:23.041Z</time></trkpt><trkpt lat="45.2110678" lon="8.64818"><ele>108.0</ele><time>2026-04-25T15:18:24.042Z</time></trkpt><trkpt lat="45.2112339" lon="8.6484474"><ele>108.0</ele><time>2026-04-25T15:18:25.041Z</time></trkpt><trkpt lat="45.211406" lon="8.6487184"><ele>106.5</ele><time>2026-04-25T15:18:26.041Z</time></trkpt><trkpt lat="45.2115786" lon="8.6489866"><ele>105.0</ele><time>2026-04-25T15:18:27.042Z</time></trkpt><trkpt lat="45.2117519" lon="8.649252"><ele>104.5</ele><time>2026-04-25T15:18:28.041Z</time></trkpt><trkpt lat="45.2119249" lon="8.6495162"><ele>104.0</ele><time>2026-04-25T15:18:29.042Z</time></trkpt><trkpt lat="45.212089" lon="8.6497827"><ele>104.0</ele><time>2026-04-25T15:18:30.041Z</time></trkpt><trkpt lat="45.2122601" lon="8.6500496"><ele>104.0</ele><time>2026-04-25T15:18:31.042Z</time></trkpt><trkpt lat="45.2124311" lon="8.6503177"><ele>104.0</ele><time>2026-04-25T15:18:32.042Z</time></trkpt><trkpt lat="45.2126" lon="8.6505864"><ele>104.0</ele><time>2026-04-25T15:18:33.04Z</time></trkpt><trkpt lat="45.2127855" lon="8.6508562"><ele>104.0</ele><time>2026-04-25T15:18:34.041Z</time></trkpt><trkpt lat="45.2129527" lon="8.6511364"><ele>104.0</ele><time>2026-04-25T15:18:35.04Z</time></trkpt><trkpt lat="45.2131268" lon="8.6514089"><ele>104.5</ele><time>2026-04-25T15:18:36.04Z</time></trkpt><trkpt lat="45.213299" lon="8.6516833"><ele>105.0</ele><time>2026-04-25T15:18:37.041Z</time></trkpt><trkpt lat="45.2134766" lon="8.6519578"><ele>105.5</ele><time>2026-04-25T15:18:38.041Z</time></trkpt><trkpt lat="45.2136588" lon="8.6522293"><ele>106.0</ele><time>2026-04-25T15:18:39.04Z</time></trkpt><trkpt lat="45.2138301" lon="8.6525018"><ele>106.0</ele><time>2026-04-25T15:18:40.041Z</time></trkpt><trkpt lat="45.2139995" lon="8.65278"><ele>106.0</ele><time>2026-04-25T15:18:41.042Z</time></trkpt><trkpt lat="45.2141742" lon="8.6530576"><ele>105.5</ele><time>2026-04-25T15:18:42.04Z</time></trkpt><trkpt lat="45.214346" lon="8.6533381"><ele>105.0</ele><time>2026-04-25T15:18:43.041Z</time></trkpt><trkpt lat="45.2145158" lon="8.6536092"><ele>105.0</ele><time>2026-04-25T15:18:44.04Z</time></trkpt><trkpt lat="45.2146938" lon="8.653881"><ele>105.0</ele><time>2026-04-25T15:18:45.042Z</time></trkpt><trkpt lat="45.214861" lon="8.6541561"><ele>105.0</ele><time>2026-04-25T15:18:46.042Z</time></trkpt><trkpt lat="45.2150335" lon="8.654428"><ele>105.0</ele><time>2026-04-25T15:18:47.041Z</time></trkpt><trkpt lat="45.2152022" lon="8.654699"><ele>105.0</ele><time>2026-04-25T15:18:48.042Z</time></trkpt><trkpt lat="45.2153732" lon="8.654968"><ele>105.0</ele><time>2026-04-25T15:18:49.041Z</time></trkpt><trkpt lat="45.2155405" lon="8.6552346"><ele>105.5</ele><time>2026-04-25T15:18:50.041Z</time></trkpt><trkpt lat="45.2157126" lon="8.6555056"><ele>106.0</ele><time>2026-04-25T15:18:51.041Z</time></trkpt><trkpt lat="45.2158828" lon="8.6557771"><ele>106.0</ele><time>2026-04-25T15:18:52.041Z</time></trkpt><trkpt lat="45.2160524" lon="8.6560518"><ele>106.0</ele><time>2026-04-25T15:18:53.041Z</time></trkpt><trkpt lat="45.2162251" lon="8.6563269"><ele>105.5</ele><time>2026-04-25T15:18:54.04Z</time></trkpt><trkpt lat="45.216397" lon="8.6566027"><ele>105.0</ele><time>2026-04-25T15:18:55.042Z</time></trkpt><trkpt lat="45.21657" lon="8.6568787"><ele>105.0</ele><time>2026-04-25T15:18:56.04Z</time></trkpt><trkpt lat="45.2167506" lon="8.6571507"><ele>105.0</ele><time>2026-04-25T15:18:57.041Z</time></trkpt><trkpt lat="45.216927" lon="8.6574275"><ele>105.0</ele><time>2026-04-25T15:18:58.041Z</time></trkpt><trkpt lat="45.2171052" lon="8.6577035"><ele>105.0</ele><time>2026-04-25T15:18:59.042Z</time></trkpt><trkpt lat="45.2172855" lon="8.6579785"><ele>107.5</ele><time>2026-04-25T15:19:00.041Z</time></trkpt><trkpt lat="45.2174604" lon="8.658257"><ele>110.0</ele><time>2026-04-25T15:19:01.041Z</time></trkpt><trkpt lat="45.2176424" lon="8.6585353"><ele>108.0</ele><time>2026-04-25T15:19:02.041Z</time></trkpt><trkpt lat="45.217824" lon="8.6588129"><ele>106.0</ele><time>2026-04-25T15:19:03.041Z</time></trkpt><trkpt lat="45.2179981" lon="8.6590912"><ele>107.5</ele><time>2026-04-25T15:19:04.042Z</time></trkpt><trkpt lat="45.218171" lon="8.659372"><ele>109.0</ele><time>2026-04-25T15:19:05.041Z</time></trkpt><trkpt lat="45.2183467" lon="8.6596488"><ele>109.0</ele><time>2026-04-25T15:19:06.041Z</time></trkpt><trkpt lat="45.2185194" lon="8.6599219"><ele>109.0</ele><time>2026-04-25T15:19:07.039Z</time></trkpt><trkpt lat="45.2186875" lon="8.6601899"><ele>107.5</ele><time>2026-04-25T15:19:08.042Z</time></trkpt><trkpt lat="45.218856" lon="8.6604573"><ele>106.0</ele><time>2026-04-25T15:19:09.04Z</time></trkpt><trkpt lat="45.2190212" lon="8.6607176"><ele>106.5</ele><time>2026-04-25T15:19:10.042Z</time></trkpt><trkpt lat="45.2191833" lon="8.6609775"><ele>107.0</ele><time>2026-04-25T15:19:11.042Z</time></trkpt><trkpt lat="45.2193464" lon="8.66123"><ele>107.0</ele><time>2026-04-25T15:19:12.042Z</time></trkpt><trkpt lat="45.2195068" lon="8.6614851"><ele>107.0</ele><time>2026-04-25T15:19:13.042Z</time></trkpt><trkpt lat="45.2196649" lon="8.66174"><ele>107.5</ele><time>2026-04-25T15:19:14.04Z</time></trkpt><trkpt lat="45.2198215" lon="8.6619936"><ele>108.0</ele><time>2026-04-25T15:19:15.041Z</time></trkpt><trkpt lat="45.2199769" lon="8.6622518"><ele>108.0</ele><time>2026-04-25T15:19:16.041Z</time></trkpt><trkpt lat="45.2201219" lon="8.662519"><ele>108.0</ele><time>2026-04-25T15:19:17.041Z</time></trkpt><trkpt lat="45.2202532" lon="8.6627941"><ele>107.5</ele><time>2026-04-25T15:19:18.04Z</time></trkpt><trkpt lat="45.220379" lon="8.6630842"><ele>107.0</ele><time>2026-04-25T15:19:19.042Z</time></trkpt><trkpt lat="45.2205071" lon="8.6633889"><ele>106.5</ele><time>2026-04-25T15:19:20.042Z</time></trkpt><trkpt lat="45.2206332" lon="8.6636869"><ele>106.0</ele><time>2026-04-25T15:19:21.042Z</time></trkpt><trkpt lat="45.2207613" lon="8.6639881"><ele>106.0</ele><time>2026-04-25T15:19:22.04Z</time></trkpt><trkpt lat="45.2208843" lon="8.6642948"><ele>106.0</ele><time>2026-04-25T15:19:23.04Z</time></trkpt><trkpt lat="45.2210135" lon="8.6646059"><ele>106.0</ele><time>2026-04-25T15:19:24.041Z</time></trkpt><trkpt lat="45.2211389" lon="8.6649102"><ele>106.0</ele><time>2026-04-25T15:19:25.041Z</time></trkpt><trkpt lat="45.2212671" lon="8.6652209"><ele>106.0</ele><time>2026-04-25T15:19:26.04Z</time></trkpt><trkpt lat="45.2214006" lon="8.6655307"><ele>106.0</ele><time>2026-04-25T15:19:27.042Z</time></trkpt><trkpt lat="45.2215432" lon="8.6658562"><ele>106.0</ele><time>2026-04-25T15:19:28.039Z</time></trkpt><trkpt lat="45.2216677" lon="8.6661679"><ele>106.0</ele><time>2026-04-25T15:19:29.04Z</time></trkpt><trkpt lat="45.2217981" lon="8.6664821"><ele>106.0</ele><time>2026-04-25T15:19:30.04Z</time></trkpt><trkpt lat="45.2219333" lon="8.6668079"><ele>106.0</ele><time>2026-04-25T15:19:31.041Z</time></trkpt><trkpt lat="45.2220704" lon="8.6671335"><ele>106.0</ele><time>2026-04-25T15:19:32.042Z</time></trkpt><trkpt lat="45.2222072" lon="8.6674626"><ele>106.0</ele><time>2026-04-25T15:19:33.041Z</time></trkpt><trkpt lat="45.2223441" lon="8.6677937"><ele>106.0</ele><time>2026-04-25T15:19:34.041Z</time></trkpt><trkpt lat="45.2224836" lon="8.6681262"><ele>106.0</ele><time>2026-04-25T15:19:35.042Z</time></trkpt><trkpt lat="45.2226202" lon="8.6684535"><ele>106.0</ele><time>2026-04-25T15:19:36.041Z</time></trkpt><trkpt lat="45.2227556" lon="8.6687851"><ele>106.0</ele><time>2026-04-25T15:19:37.041Z</time></trkpt><trkpt lat="45.2228937" lon="8.6691193"><ele>106.0</ele><time>2026-04-25T15:19:38.041Z</time></trkpt><trkpt lat="45.223035" lon="8.6694469"><ele>106.0</ele><time>2026-04-25T15:19:39.04Z</time></trkpt><trkpt lat="45.2231698" lon="8.6697721"><ele>106.0</ele><time>2026-04-25T15:19:40.04Z</time></trkpt><trkpt lat="45.2233101" lon="8.6700955"><ele>106.0</ele><time>2026-04-25T15:19:41.04Z</time></trkpt><trkpt lat="45.2234467" lon="8.670428"><ele>105.5</ele><time>2026-04-25T15:19:42.042Z</time></trkpt><trkpt lat="45.2235808" lon="8.670751"><ele>105.0</ele><time>2026-04-25T15:19:43.042Z</time></trkpt><trkpt lat="45.2237121" lon="8.6710588"><ele>105.5</ele><time>2026-04-25T15:19:44.041Z</time></trkpt><trkpt lat="45.223842" lon="8.6713715"><ele>106.0</ele><time>2026-04-25T15:19:45.039Z</time></trkpt><trkpt lat="45.2239652" lon="8.6716752"><ele>106.5</ele><time>2026-04-25T15:19:46.042Z</time></trkpt><trkpt lat="45.2240899" lon="8.6719759"><ele>107.0</ele><time>2026-04-25T15:19:47.041Z</time></trkpt><trkpt lat="45.2242098" lon="8.6722727"><ele>107.0</ele><time>2026-04-25T15:19:48.039Z</time></trkpt><trkpt lat="45.2243366" lon="8.6725739"><ele>107.0</ele><time>2026-04-25T15:19:49.042Z</time></trkpt><trkpt lat="45.2244637" lon="8.6728763"><ele>107.0</ele><time>2026-04-25T15:19:50.041Z</time></trkpt><trkpt lat="45.2245917" lon="8.6731853"><ele>107.0</ele><time>2026-04-25T15:19:51.04Z</time></trkpt><trkpt lat="45.2247226" lon="8.6734911"><ele>107.0</ele><time>2026-04-25T15:19:52.04Z</time></trkpt><trkpt lat="45.224849" lon="8.6738"><ele>107.0</ele><time>2026-04-25T15:19:53.04Z</time></trkpt><trkpt lat="45.2249809" lon="8.6741009"><ele>107.0</ele><time>2026-04-25T15:19:54.041Z</time></trkpt><trkpt lat="45.2251091" lon="8.6744051"><ele>107.0</ele><time>2026-04-25T15:19:55.041Z</time></trkpt><trkpt lat="45.2252318" lon="8.6746929"><ele>106.66666666666666</ele><time>2026-04-25T15:19:56.042Z</time></trkpt><trkpt lat="45.2253462" lon="8.674961"><ele>106.33333333333334</ele><time>2026-04-25T15:19:57.042Z</time></trkpt><trkpt lat="45.2254533" lon="8.6752154"><ele>106.0</ele><time>2026-04-25T15:19:58.042Z</time></trkpt><trkpt lat="45.2255551" lon="8.6754551"><ele>106.33333333333334</ele><time>2026-04-25T15:19:59.041Z</time></trkpt><trkpt lat="45.2256458" lon="8.6756754"><ele>106.66666666666666</ele><time>2026-04-25T15:20:00.041Z</time></trkpt><trkpt lat="45.22573" lon="8.675881"><ele>107.0</ele><time>2026-04-25T15:20:01.042Z</time></trkpt><trkpt lat="45.2258118" lon="8.6760728"><ele>107.0</ele><time>2026-04-25T15:20:02.04Z</time></trkpt><trkpt lat="45.2258869" lon="8.6762409"><ele>107.0</ele><time>2026-04-25T15:20:03.041Z</time></trkpt><trkpt lat="45.2259557" lon="8.6764069"><ele>107.0</ele><time>2026-04-25T15:20:04.041Z</time></trkpt><trkpt lat="45.2260184" lon="8.6765543"><ele>107.0</ele><time>2026-04-25T15:20:05.04Z</time></trkpt><trkpt lat="45.2260736" lon="8.6766892"><ele>106.99999999999999</ele><time>2026-04-25T15:20:06.041Z</time></trkpt><trkpt lat="45.226125" lon="8.6767995"><ele>107.0</ele><time>2026-04-25T15:20:07.041Z</time></trkpt><trkpt lat="45.2261658" lon="8.6769022"><ele>107.0</ele><time>2026-04-25T15:20:08.04Z</time></trkpt><trkpt lat="45.2261983" lon="8.6770075"><ele>107.0</ele><time>2026-04-25T15:20:09.041Z</time></trkpt><trkpt lat="45.2262132" lon="8.6771186"><ele>106.99999999999999</ele><time>2026-04-25T15:20:10.042Z</time></trkpt><trkpt lat="45.2262135" lon="8.6772222"><ele>107.0</ele><time>2026-04-25T15:20:11.041Z</time></trkpt><trkpt lat="45.2262266" lon="8.6773284"><ele>106.99999999999999</ele><time>2026-04-25T15:20:12.041Z</time></trkpt><trkpt lat="45.2262568" lon="8.6774188"><ele>107.0</ele><time>2026-04-25T15:20:13.041Z</time></trkpt><trkpt lat="45.2263132" lon="8.6774922"><ele>107.0</ele><time>2026-04-25T15:20:14.041Z</time></trkpt><trkpt lat="45.2263816" lon="8.6775375"><ele>107.0</ele><time>2026-04-25T15:20:15.04Z</time></trkpt><trkpt lat="45.2264675" lon="8.6775819"><ele>106.99999999999999</ele><time>2026-04-25T15:20:16.041Z</time></trkpt><trkpt lat="45.2265482" lon="8.6776371"><ele>107.0</ele><time>2026-04-25T15:20:17.04Z</time></trkpt><trkpt lat="45.2266251" lon="8.6777065"><ele>106.8</ele><time>2026-04-25T15:20:18.041Z</time></trkpt><trkpt lat="45.2266912" lon="8.6777762"><ele>106.6</ele><time>2026-04-25T15:20:19.041Z</time></trkpt><trkpt lat="45.2267574" lon="8.6778426"><ele>106.39999999999999</ele><time>2026-04-25T15:20:20.041Z</time></trkpt><trkpt lat="45.2268293" lon="8.6779232"><ele>106.19999999999999</ele><time>2026-04-25T15:20:21.041Z</time></trkpt><trkpt lat="45.2269148" lon="8.678021"><ele>106.0</ele><time>2026-04-25T15:20:22.041Z</time></trkpt><trkpt lat="45.2270128" lon="8.6781376"><ele>106.0</ele><time>2026-04-25T15:20:23.041Z</time></trkpt><trkpt lat="45.2271237" lon="8.6782611"><ele>106.0</ele><time>2026-04-25T15:20:24.041Z</time></trkpt><trkpt lat="45.227248" lon="8.6784011"><ele>106.0</ele><time>2026-04-25T15:20:25.041Z</time></trkpt><trkpt lat="45.2273898" lon="8.6785561"><ele>105.66666666666667</ele><time>2026-04-25T15:20:26.041Z</time></trkpt><trkpt lat="45.227545" lon="8.6787157"><ele>105.33333333333334</ele><time>2026-04-25T15:20:27.04Z</time></trkpt><trkpt lat="45.2277122" lon="8.6788944"><ele>105.0</ele><time>2026-04-25T15:20:28.042Z</time></trkpt><trkpt lat="45.2278882" lon="8.6790866"><ele>105.0</ele><time>2026-04-25T15:20:29.041Z</time></trkpt><trkpt lat="45.2280723" lon="8.6792908"><ele>105.0</ele><time>2026-04-25T15:20:30.04Z</time></trkpt><trkpt lat="45.2282579" lon="8.6794976"><ele>105.0</ele><time>2026-04-25T15:20:31.04Z</time></trkpt><trkpt lat="45.2284499" lon="8.6797009"><ele>105.0</ele><time>2026-04-25T15:20:32.04Z</time></trkpt><trkpt lat="45.2286433" lon="8.6799041"><ele>105.0</ele><time>2026-04-25T15:20:33.04Z</time></trkpt><trkpt lat="45.2288396" lon="8.6801145"><ele>105.0</ele><time>2026-04-25T15:20:34.041Z</time></trkpt><trkpt lat="45.2290312" lon="8.6803171"><ele>105.0</ele><time>2026-04-25T15:20:35.041Z</time></trkpt><trkpt lat="45.2292112" lon="8.6805159"><ele>105.0</ele><time>2026-04-25T15:20:36.041Z</time></trkpt><trkpt lat="45.2293855" lon="8.6807108"><ele>105.0</ele><time>2026-04-25T15:20:37.041Z</time></trkpt><trkpt lat="45.2295513" lon="8.6809187"><ele>105.0</ele><time>2026-04-25T15:20:38.041Z</time></trkpt><trkpt lat="45.2297015" lon="8.6811494"><ele>105.0</ele><time>2026-04-25T15:20:39.04Z</time></trkpt><trkpt lat="45.2298379" lon="8.6813981"><ele>104.66666666666666</ele><time>2026-04-25T15:20:40.041Z</time></trkpt><trkpt lat="45.2299656" lon="8.6816481"><ele>104.33333333333333</ele><time>2026-04-25T15:20:41.041Z</time></trkpt><trkpt lat="45.230084" lon="8.6818824"><ele>104.0</ele><time>2026-04-25T15:20:42.041Z</time></trkpt><trkpt lat="45.230191" lon="8.6821113"><ele>104.0</ele><time>2026-04-25T15:20:43.041Z</time></trkpt><trkpt lat="45.230295" lon="8.6823161"><ele>104.0</ele><time>2026-04-25T15:20:44.041Z</time></trkpt><trkpt lat="45.2303899" lon="8.6825043"><ele>104.0</ele><time>2026-04-25T15:20:45.041Z</time></trkpt><trkpt lat="45.230478" lon="8.6826804"><ele>104.0</ele><time>2026-04-25T15:20:46.041Z</time></trkpt><trkpt lat="45.2305583" lon="8.6828494"><ele>104.0</ele><time>2026-04-25T15:20:47.04Z</time></trkpt><trkpt lat="45.2306311" lon="8.683013"><ele>104.0</ele><time>2026-04-25T15:20:48.041Z</time></trkpt><trkpt lat="45.2307029" lon="8.6831579"><ele>104.0</ele><time>2026-04-25T15:20:49.041Z</time></trkpt><trkpt lat="45.2307684" lon="8.6832903"><ele>104.2</ele><time>2026-04-25T15:20:50.041Z</time></trkpt><trkpt lat="45.2308294" lon="8.6834181"><ele>104.4</ele><time>2026-04-25T15:20:51.041Z</time></trkpt><trkpt lat="45.2308897" lon="8.6835483"><ele>104.6</ele><time>2026-04-25T15:20:52.041Z</time></trkpt><trkpt lat="45.230947" lon="8.6836759"><ele>104.8</ele><time>2026-04-25T15:20:53.041Z</time></trkpt><trkpt lat="45.2310091" lon="8.6838119"><ele>105.0</ele><time>2026-04-25T15:20:54.041Z</time></trkpt><trkpt lat="45.2310761" lon="8.6839594"><ele>104.5</ele><time>2026-04-25T15:20:55.041Z</time></trkpt><trkpt lat="45.2311489" lon="8.6841131"><ele>104.0</ele><time>2026-04-25T15:20:56.041Z</time></trkpt><trkpt lat="45.2312138" lon="8.6842546"><ele>103.5</ele><time>2026-04-25T15:20:57.041Z</time></trkpt><trkpt lat="45.2312798" lon="8.6843937"><ele>103.0</ele><time>2026-04-25T15:20:58.041Z</time></trkpt><trkpt lat="45.2313465" lon="8.6845266"><ele>103.0</ele><time>2026-04-25T15:20:59.04Z</time></trkpt><trkpt lat="45.231409" lon="8.6846565"><ele>103.0</ele><time>2026-04-25T15:21:00.04Z</time></trkpt><trkpt lat="45.2314717" lon="8.6847836"><ele>103.0</ele><time>2026-04-25T15:21:01.041Z</time></trkpt><trkpt lat="45.2315311" lon="8.6849079"><ele>103.0</ele><time>2026-04-25T15:21:02.041Z</time></trkpt><trkpt lat="45.231594" lon="8.6850218"><ele>103.0</ele><time>2026-04-25T15:21:03.041Z</time></trkpt><trkpt lat="45.2316551" lon="8.6851405"><ele>103.4</ele><time>2026-04-25T15:21:04.04Z</time></trkpt><trkpt lat="45.2317162" lon="8.6852541"><ele>103.80000000000001</ele><time>2026-04-25T15:21:05.041Z</time></trkpt><trkpt lat="45.2317731" lon="8.6853602"><ele>104.2</ele><time>2026-04-25T15:21:06.041Z</time></trkpt><trkpt lat="45.2318283" lon="8.6854614"><ele>104.6</ele><time>2026-04-25T15:21:07.041Z</time></trkpt><trkpt lat="45.2318906" lon="8.6855666"><ele>105.0</ele><time>2026-04-25T15:21:08.039Z</time></trkpt><trkpt lat="45.2319549" lon="8.6856694"><ele>105.0</ele><time>2026-04-25T15:21:09.041Z</time></trkpt><trkpt lat="45.2320205" lon="8.6857861"><ele>105.0</ele><time>2026-04-25T15:21:10.04Z</time></trkpt><trkpt lat="45.2320863" lon="8.6859186"><ele>105.0</ele><time>2026-04-25T15:21:11.039Z</time></trkpt><trkpt lat="45.2321531" lon="8.6860694"><ele>105.0</ele><time>2026-04-25T15:21:12.04Z</time></trkpt><trkpt lat="45.2322171" lon="8.6862181"><ele>105.25</ele><time>2026-04-25T15:21:13.041Z</time></trkpt><trkpt lat="45.2322834" lon="8.6863772"><ele>105.5</ele><time>2026-04-25T15:21:14.039Z</time></trkpt><trkpt lat="45.2323567" lon="8.6865261"><ele>105.75</ele><time>2026-04-25T15:21:15.041Z</time></trkpt><trkpt lat="45.232431" lon="8.6866767"><ele>106.0</ele><time>2026-04-25T15:21:16.041Z</time></trkpt><trkpt lat="45.2325001" lon="8.6868236"><ele>106.0</ele><time>2026-04-25T15:21:17.04Z</time></trkpt><trkpt lat="45.2325716" lon="8.6869732"><ele>106.0</ele><time>2026-04-25T15:21:18.039Z</time></trkpt><trkpt lat="45.2326526" lon="8.6871422"><ele>106.0</ele><time>2026-04-25T15:21:19.041Z</time></trkpt><trkpt lat="45.2327341" lon="8.687308"><ele>106.0</ele><time>2026-04-25T15:21:20.041Z</time></trkpt><trkpt lat="45.2328196" lon="8.6874813"><ele>106.0</ele><time>2026-04-25T15:21:21.039Z</time></trkpt><trkpt lat="45.232905" lon="8.687661"><ele>106.0</ele><time>2026-04-25T15:21:22.041Z</time></trkpt><trkpt lat="45.2329863" lon="8.6878303"><ele>106.0</ele><time>2026-04-25T15:21:23.04Z</time></trkpt><trkpt lat="45.2330737" lon="8.6880107"><ele>106.25</ele><time>2026-04-25T15:21:24.041Z</time></trkpt><trkpt lat="45.233159" lon="8.6881852"><ele>106.5</ele><time>2026-04-25T15:21:25.041Z</time></trkpt><trkpt lat="45.2332423" lon="8.688349"><ele>106.75</ele><time>2026-04-25T15:21:26.04Z</time></trkpt><trkpt lat="45.2333213" lon="8.6885188"><ele>107.0</ele><time>2026-04-25T15:21:27.04Z</time></trkpt><trkpt lat="45.2334068" lon="8.6886907"><ele>107.0</ele><time>2026-04-25T15:21:28.041Z</time></trkpt><trkpt lat="45.233487" lon="8.6888542"><ele>107.0</ele><time>2026-04-25T15:21:29.041Z</time></trkpt><trkpt lat="45.233565" lon="8.6890205"><ele>107.0</ele><time>2026-04-25T15:21:30.041Z</time></trkpt><trkpt lat="45.233644" lon="8.6891901"><ele>107.0</ele><time>2026-04-25T15:21:31.041Z</time></trkpt><trkpt lat="45.2337292" lon="8.68936"><ele>107.25</ele><time>2026-04-25T15:21:32.038Z</time></trkpt><trkpt lat="45.2338135" lon="8.6895148"><ele>107.5</ele><time>2026-04-25T15:21:33.041Z</time></trkpt><trkpt lat="45.2338932" lon="8.6896635"><ele>107.75</ele><time>2026-04-25T15:21:34.04Z</time></trkpt><trkpt lat="45.2339765" lon="8.6898198"><ele>108.0</ele><time>2026-04-25T15:21:35.04Z</time></trkpt><trkpt lat="45.2340627" lon="8.6899661"><ele>108.0</ele><time>2026-04-25T15:21:36.04Z</time></trkpt><trkpt lat="45.2341501" lon="8.6901149"><ele>108.0</ele><time>2026-04-25T15:21:37.04Z</time></trkpt><trkpt lat="45.2342372" lon="8.6902757"><ele>108.0</ele><time>2026-04-25T15:21:38.04Z</time></trkpt><trkpt lat="45.234325" lon="8.6904339"><ele>108.0</ele><time>2026-04-25T15:21:39.041Z</time></trkpt><trkpt lat="45.2344148" lon="8.6905915"><ele>108.5</ele><time>2026-04-25T15:21:40.041Z</time></trkpt><trkpt lat="45.2345017" lon="8.6907441"><ele>109.0</ele><time>2026-04-25T15:21:41.04Z</time></trkpt><trkpt lat="45.2345915" lon="8.6908946"><ele>109.5</ele><time>2026-04-25T15:21:42.041Z</time></trkpt><trkpt lat="45.2346853" lon="8.6910438"><ele>110.0</ele><time>2026-04-25T15:21:43.041Z</time></trkpt><trkpt lat="45.2347843" lon="8.6911916"><ele>109.25</ele><time>2026-04-25T15:21:44.041Z</time></trkpt><trkpt lat="45.2348894" lon="8.6913337"><ele>108.5</ele><time>2026-04-25T15:21:45.039Z</time></trkpt><trkpt lat="45.2350035" lon="8.6914787"><ele>107.75</ele><time>2026-04-25T15:21:46.04Z</time></trkpt><trkpt lat="45.2351178" lon="8.6916194"><ele>107.0</ele><time>2026-04-25T15:21:47.04Z</time></trkpt><trkpt lat="45.2352351" lon="8.6917681"><ele>107.0</ele><time>2026-04-25T15:21:48.039Z</time></trkpt><trkpt lat="45.2353499" lon="8.6919122"><ele>107.0</ele><time>2026-04-25T15:21:49.041Z</time></trkpt><trkpt lat="45.2354769" lon="8.6920683"><ele>107.0</ele><time>2026-04-25T15:21:50.04Z</time></trkpt><trkpt lat="45.2355977" lon="8.6922137"><ele>107.25</ele><time>2026-04-25T15:21:51.041Z</time></trkpt><trkpt lat="45.2357148" lon="8.6923561"><ele>107.5</ele><time>2026-04-25T15:21:52.041Z</time></trkpt><trkpt lat="45.2358316" lon="8.6924898"><ele>107.75</ele><time>2026-04-25T15:21:53.041Z</time></trkpt><trkpt lat="45.2359259" lon="8.6926126"><ele>108.0</ele><time>2026-04-25T15:21:54.041Z</time></trkpt><trkpt lat="45.2360249" lon="8.6927327"><ele>107.75</ele><time>2026-04-25T15:21:55.041Z</time></trkpt><trkpt lat="45.2361223" lon="8.6928465"><ele>107.5</ele><time>2026-04-25T15:21:56.039Z</time></trkpt><trkpt lat="45.2362263" lon="8.6929793"><ele>107.25</ele><time>2026-04-25T15:21:57.04Z</time></trkpt><trkpt lat="45.2363299" lon="8.6931097"><ele>107.0</ele><time>2026-04-25T15:21:58.041Z</time></trkpt><trkpt lat="45.2364248" lon="8.6932305"><ele>107.25</ele><time>2026-04-25T15:21:59.04Z</time></trkpt><trkpt lat="45.2365285" lon="8.6933481"><ele>107.5</ele><time>2026-04-25T15:22:00.041Z</time></trkpt><trkpt lat="45.2366343" lon="8.6934766"><ele>107.75</ele><time>2026-04-25T15:22:01.041Z</time></trkpt><trkpt lat="45.2367415" lon="8.693602"><ele>108.0</ele><time>2026-04-25T15:22:02.041Z</time></trkpt><trkpt lat="45.236845" lon="8.693732"><ele>108.0</ele><time>2026-04-25T15:22:03.04Z</time></trkpt><trkpt lat="45.2369498" lon="8.6938535"><ele>108.0</ele><time>2026-04-25T15:22:04.041Z</time></trkpt><trkpt lat="45.237053" lon="8.6939786"><ele>108.0</ele><time>2026-04-25T15:22:05.041Z</time></trkpt><trkpt lat="45.2371552" lon="8.6940993"><ele>108.0</ele><time>2026-04-25T15:22:06.04Z</time></trkpt><trkpt lat="45.2372513" lon="8.6942117"><ele>108.25</ele><time>2026-04-25T15:22:07.041Z</time></trkpt><trkpt lat="45.2373474" lon="8.6943253"><ele>108.5</ele><time>2026-04-25T15:22:08.04Z</time></trkpt><trkpt lat="45.2374331" lon="8.6944367"><ele>108.75</ele><time>2026-04-25T15:22:09.041Z</time></trkpt><trkpt lat="45.2375159" lon="8.6945436"><ele>109.0</ele><time>2026-04-25T15:22:10.04Z</time></trkpt><trkpt lat="45.2375975" lon="8.6946512"><ele>108.25</ele><time>2026-04-25T15:22:11.041Z</time></trkpt><trkpt lat="45.2376831" lon="8.694758"><ele>107.5</ele><time>2026-04-25T15:22:12.04Z</time></trkpt><trkpt lat="45.2377737" lon="8.6948695"><ele>106.75</ele><time>2026-04-25T15:22:13.041Z</time></trkpt><trkpt lat="45.2378682" lon="8.6949866"><ele>106.0</ele><time>2026-04-25T15:22:14.041Z</time></trkpt><trkpt lat="45.2379643" lon="8.6951073"><ele>106.0</ele><time>2026-04-25T15:22:15.041Z</time></trkpt><trkpt lat="45.238068" lon="8.695242"><ele>106.0</ele><time>2026-04-25T15:22:16.041Z</time></trkpt><trkpt lat="45.2381869" lon="8.6953929"><ele>106.0</ele><time>2026-04-25T15:22:17.04Z</time></trkpt><trkpt lat="45.2383244" lon="8.6955644"><ele>106.33333333333334</ele><time>2026-04-25T15:22:18.041Z</time></trkpt><trkpt lat="45.2384574" lon="8.695738"><ele>106.66666666666666</ele><time>2026-04-25T15:22:19.039Z</time></trkpt><trkpt lat="45.2386005" lon="8.6959202"><ele>107.0</ele><time>2026-04-25T15:22:20.041Z</time></trkpt><trkpt lat="45.2387598" lon="8.696117"><ele>107.0</ele><time>2026-04-25T15:22:21.04Z</time></trkpt><trkpt lat="45.2389276" lon="8.6963233"><ele>107.0</ele><time>2026-04-25T15:22:22.039Z</time></trkpt><trkpt lat="45.2390968" lon="8.6965364"><ele>107.0</ele><time>2026-04-25T15:22:23.041Z</time></trkpt><trkpt lat="45.2392679" lon="8.6967538"><ele>107.0</ele><time>2026-04-25T15:22:24.04Z</time></trkpt><trkpt lat="45.2394488" lon="8.6969789"><ele>107.0</ele><time>2026-04-25T15:22:25.04Z</time></trkpt><trkpt lat="45.2396389" lon="8.6972077"><ele>107.0</ele><time>2026-04-25T15:22:26.038Z</time></trkpt><trkpt lat="45.2398237" lon="8.6974363"><ele>107.0</ele><time>2026-04-25T15:22:27.041Z</time></trkpt><trkpt lat="45.2399999" lon="8.6976665"><ele>107.0</ele><time>2026-04-25T15:22:28.041Z</time></trkpt><trkpt lat="45.2401861" lon="8.6978924"><ele>107.0</ele><time>2026-04-25T15:22:29.041Z</time></trkpt><trkpt lat="45.2403682" lon="8.6981248"><ele>107.0</ele><time>2026-04-25T15:22:30.038Z</time></trkpt><trkpt lat="45.2405482" lon="8.6983506"><ele>107.0</ele><time>2026-04-25T15:22:31.04Z</time></trkpt><trkpt lat="45.2407257" lon="8.6985705"><ele>107.0</ele><time>2026-04-25T15:22:32.039Z</time></trkpt><trkpt lat="45.2408987" lon="8.6987778"><ele>107.0</ele><time>2026-04-25T15:22:33.039Z</time></trkpt><trkpt lat="45.241063" lon="8.698988"><ele>107.0</ele><time>2026-04-25T15:22:34.04Z</time></trkpt><trkpt lat="45.2412303" lon="8.6991975"><ele>107.0</ele><time>2026-04-25T15:22:35.039Z</time></trkpt><trkpt lat="45.2413832" lon="8.6993902"><ele>107.0</ele><time>2026-04-25T15:22:36.04Z</time></trkpt><trkpt lat="45.2415395" lon="8.699591"><ele>107.0</ele><time>2026-04-25T15:22:37.04Z</time></trkpt><trkpt lat="45.2416938" lon="8.6997822"><ele>106.66666666666666</ele><time>2026-04-25T15:22:38.041Z</time></trkpt><trkpt lat="45.2418317" lon="8.6999708"><ele>106.33333333333334</ele><time>2026-04-25T15:22:39.039Z</time></trkpt><trkpt lat="45.2419761" lon="8.7001544"><ele>106.0</ele><time>2026-04-25T15:22:40.04Z</time></trkpt><trkpt lat="45.2421297" lon="8.7003423"><ele>105.66666666666667</ele><time>2026-04-25T15:22:41.039Z</time></trkpt><trkpt lat="45.2422782" lon="8.7005278"><ele>105.33333333333334</ele><time>2026-04-25T15:22:42.039Z</time></trkpt><trkpt lat="45.2424217" lon="8.7007196"><ele>105.0</ele><time>2026-04-25T15:22:43.041Z</time></trkpt><trkpt lat="45.2425587" lon="8.7009323"><ele>105.0</ele><time>2026-04-25T15:22:44.04Z</time></trkpt><trkpt lat="45.2426786" lon="8.7011763"><ele>105.0</ele><time>2026-04-25T15:22:45.04Z</time></trkpt><trkpt lat="45.2427773" lon="8.7014302"><ele>105.0</ele><time>2026-04-25T15:22:46.04Z</time></trkpt><trkpt lat="45.2428699" lon="8.7016979"><ele>104.66666666666666</ele><time>2026-04-25T15:22:47.041Z</time></trkpt><trkpt lat="45.242967" lon="8.7019578"><ele>104.33333333333333</ele><time>2026-04-25T15:22:48.039Z</time></trkpt><trkpt lat="45.2430727" lon="8.7022242"><ele>104.0</ele><time>2026-04-25T15:22:49.04Z</time></trkpt><trkpt lat="45.2431879" lon="8.7024922"><ele>104.0</ele><time>2026-04-25T15:22:50.041Z</time></trkpt><trkpt lat="45.2432998" lon="8.70275"><ele>104.0</ele><time>2026-04-25T15:22:51.04Z</time></trkpt><trkpt lat="45.2434136" lon="8.7030052"><ele>104.0</ele><time>2026-04-25T15:22:52.04Z</time></trkpt><trkpt lat="45.2435331" lon="8.7032523"><ele>104.0</ele><time>2026-04-25T15:22:53.039Z</time></trkpt><trkpt lat="45.2436518" lon="8.7034945"><ele>104.0</ele><time>2026-04-25T15:22:54.039Z</time></trkpt><trkpt lat="45.2437659" lon="8.7037406"><ele>104.0</ele><time>2026-04-25T15:22:55.038Z</time></trkpt><trkpt lat="45.2438788" lon="8.7039721"><ele>104.66666666666666</ele><time>2026-04-25T15:22:56.039Z</time></trkpt><trkpt lat="45.2439918" lon="8.7042026"><ele>105.33333333333334</ele><time>2026-04-25T15:22:57.041Z</time></trkpt><trkpt lat="45.2441074" lon="8.7044431"><ele>106.0</ele><time>2026-04-25T15:22:58.041Z</time></trkpt><trkpt lat="45.2442262" lon="8.704687"><ele>106.0</ele><time>2026-04-25T15:22:59.041Z</time></trkpt><trkpt lat="45.2443484" lon="8.7049408"><ele>106.0</ele><time>2026-04-25T15:23:00.04Z</time></trkpt><trkpt lat="45.2444619" lon="8.7051911"><ele>106.0</ele><time>2026-04-25T15:23:01.04Z</time></trkpt><trkpt lat="45.2445802" lon="8.7054326"><ele>106.0</ele><time>2026-04-25T15:23:02.04Z</time></trkpt><trkpt lat="45.2447021" lon="8.7056804"><ele>106.0</ele><time>2026-04-25T15:23:03.04Z</time></trkpt><trkpt lat="45.2448237" lon="8.7059292"><ele>106.0</ele><time>2026-04-25T15:23:04.04Z</time></trkpt><trkpt lat="45.2449518" lon="8.7061745"><ele>107.0</ele><time>2026-04-25T15:23:05.04Z</time></trkpt><trkpt lat="45.2450746" lon="8.7064213"><ele>108.0</ele><time>2026-04-25T15:23:06.04Z</time></trkpt><trkpt lat="45.2451928" lon="8.7066683"><ele>109.0</ele><time>2026-04-25T15:23:07.041Z</time></trkpt><trkpt lat="45.2453153" lon="8.7069192"><ele>109.0</ele><time>2026-04-25T15:23:08.041Z</time></trkpt><trkpt lat="45.2454369" lon="8.7071738"><ele>109.0</ele><time>2026-04-25T15:23:09.039Z</time></trkpt><trkpt lat="45.2455588" lon="8.7074347"><ele>109.0</ele><time>2026-04-25T15:23:10.04Z</time></trkpt><trkpt lat="45.2456834" lon="8.7076907"><ele>109.0</ele><time>2026-04-25T15:23:11.039Z</time></trkpt><trkpt lat="45.2458056" lon="8.7079445"><ele>109.0</ele><time>2026-04-25T15:23:12.04Z</time></trkpt><trkpt lat="45.2459298" lon="8.7081945"><ele>109.0</ele><time>2026-04-25T15:23:13.039Z</time></trkpt><trkpt lat="45.2460495" lon="8.7084444"><ele>108.33333333333334</ele><time>2026-04-25T15:23:14.04Z</time></trkpt><trkpt lat="45.246167" lon="8.7086948"><ele>107.66666666666666</ele><time>2026-04-25T15:23:15.04Z</time></trkpt><trkpt lat="45.2462857" lon="8.7089475"><ele>107.0</ele><time>2026-04-25T15:23:16.041Z</time></trkpt><trkpt lat="45.2464066" lon="8.7092016"><ele>106.33333333333333</ele><time>2026-04-25T15:23:17.039Z</time></trkpt><trkpt lat="45.2465303" lon="8.7094513"><ele>105.66666666666666</ele><time>2026-04-25T15:23:18.04Z</time></trkpt><trkpt lat="45.2466465" lon="8.7096904"><ele>105.0</ele><time>2026-04-25T15:23:19.039Z</time></trkpt><trkpt lat="45.24676" lon="8.7099391"><ele>105.0</ele><time>2026-04-25T15:23:20.04Z</time></trkpt><trkpt lat="45.2468769" lon="8.7101802"><ele>105.0</ele><time>2026-04-25T15:23:21.039Z</time></trkpt><trkpt lat="45.2469923" lon="8.7104145"><ele>105.0</ele><time>2026-04-25T15:23:22.04Z</time></trkpt><trkpt lat="45.2471122" lon="8.7106498"><ele>105.33333333333334</ele><time>2026-04-25T15:23:23.041Z</time></trkpt><trkpt lat="45.2472114" lon="8.7108609"><ele>105.66666666666667</ele><time>2026-04-25T15:23:24.04Z</time></trkpt><trkpt lat="45.2473077" lon="8.7110616"><ele>106.0</ele><time>2026-04-25T15:23:25.04Z</time></trkpt><trkpt lat="45.2474056" lon="8.7112588"><ele>106.66666666666667</ele><time>2026-04-25T15:23:26.04Z</time></trkpt><trkpt lat="45.2475028" lon="8.7114465"><ele>107.33333333333334</ele><time>2026-04-25T15:23:27.04Z</time></trkpt><trkpt lat="45.2475926" lon="8.7116267"><ele>108.0</ele><time>2026-04-25T15:23:28.041Z</time></trkpt><trkpt lat="45.247685" lon="8.7118088"><ele>107.66666666666666</ele><time>2026-04-25T15:23:29.041Z</time></trkpt><trkpt lat="45.2477751" lon="8.7119846"><ele>107.33333333333333</ele><time>2026-04-25T15:23:30.04Z</time></trkpt><trkpt lat="45.2478666" lon="8.712165"><ele>107.0</ele><time>2026-04-25T15:23:31.04Z</time></trkpt><trkpt lat="45.2479514" lon="8.7123433"><ele>107.0</ele><time>2026-04-25T15:23:32.039Z</time></trkpt><trkpt lat="45.2480362" lon="8.7125247"><ele>107.0</ele><time>2026-04-25T15:23:33.04Z</time></trkpt><trkpt lat="45.2481165" lon="8.7127118"><ele>107.0</ele><time>2026-04-25T15:23:34.041Z</time></trkpt><trkpt lat="45.2481865" lon="8.7129137"><ele>107.5</ele><time>2026-04-25T15:23:35.04Z</time></trkpt><trkpt lat="45.2482341" lon="8.7131139"><ele>108.0</ele><time>2026-04-25T15:23:36.04Z</time></trkpt><trkpt lat="45.2482752" lon="8.7132981"><ele>108.5</ele><time>2026-04-25T15:23:37.04Z</time></trkpt><trkpt lat="45.2483039" lon="8.7134574"><ele>109.0</ele><time>2026-04-25T15:23:38.039Z</time></trkpt><trkpt lat="45.248322" lon="8.7135796"><ele>109.00000000000001</ele><time>2026-04-25T15:23:39.04Z</time></trkpt><trkpt lat="45.2483235" lon="8.7136759"><ele>109.0</ele><time>2026-04-25T15:23:40.04Z</time></trkpt><trkpt lat="45.2483263" lon="8.713767"><ele>109.0</ele><time>2026-04-25T15:23:41.039Z</time></trkpt><trkpt lat="45.2483156" lon="8.7138721"><ele>109.0</ele><time>2026-04-25T15:23:43.04Z</time></trkpt><trkpt lat="45.2482854" lon="8.713965"><ele>109.00000000000001</ele><time>2026-04-25T15:23:45.04Z</time></trkpt><trkpt lat="45.2482179" lon="8.7141131"><ele>109.0</ele><time>2026-04-25T15:23:47.04Z</time></trkpt><trkpt lat="45.2481877" lon="8.7142247"><ele>109.0</ele><time>2026-04-25T15:23:48.04Z</time></trkpt><trkpt lat="45.2481664" lon="8.7143529"><ele>109.0</ele><time>2026-04-25T15:23:49.04Z</time></trkpt><trkpt lat="45.2481766" lon="8.7144856"><ele>109.0</ele><time>2026-04-25T15:23:50.041Z</time></trkpt><trkpt lat="45.2482027" lon="8.714611"><ele>109.0</ele><time>2026-04-25T15:23:51.041Z</time></trkpt><trkpt lat="45.2482594" lon="8.7147146"><ele>109.0</ele><time>2026-04-25T15:23:52.04Z</time></trkpt><trkpt lat="45.2483467" lon="8.7148145"><ele>108.80000000000001</ele><time>2026-04-25T15:23:53.04Z</time></trkpt><trkpt lat="45.2484329" lon="8.7148933"><ele>108.60000000000001</ele><time>2026-04-25T15:23:54.041Z</time></trkpt><trkpt lat="45.2485185" lon="8.7149843"><ele>108.4</ele><time>2026-04-25T15:23:55.041Z</time></trkpt><trkpt lat="45.2485883" lon="8.7150928"><ele>108.2</ele><time>2026-04-25T15:23:56.04Z</time></trkpt><trkpt lat="45.2486361" lon="8.715208"><ele>108.0</ele><time>2026-04-25T15:23:57.039Z</time></trkpt><trkpt lat="45.2486685" lon="8.7153328"><ele>107.60000000000001</ele><time>2026-04-25T15:23:58.039Z</time></trkpt><trkpt lat="45.2486941" lon="8.7154588"><ele>107.20000000000002</ele><time>2026-04-25T15:23:59.04Z</time></trkpt><trkpt lat="45.2487183" lon="8.7155916"><ele>106.8</ele><time>2026-04-25T15:24:00.04Z</time></trkpt><trkpt lat="45.2487415" lon="8.7157299"><ele>106.4</ele><time>2026-04-25T15:24:01.04Z</time></trkpt><trkpt lat="45.2487646" lon="8.7158686"><ele>106.0</ele><time>2026-04-25T15:24:02.04Z</time></trkpt><trkpt lat="45.248794" lon="8.7160139"><ele>107.0</ele><time>2026-04-25T15:24:03.04Z</time></trkpt><trkpt lat="45.2488224" lon="8.7161631"><ele>108.0</ele><time>2026-04-25T15:24:04.038Z</time></trkpt><trkpt lat="45.2488473" lon="8.7163131"><ele>109.0</ele><time>2026-04-25T15:24:05.039Z</time></trkpt><trkpt lat="45.2488775" lon="8.7164769"><ele>110.0</ele><time>2026-04-25T15:24:06.04Z</time></trkpt><trkpt lat="45.2489112" lon="8.7166428"><ele>110.0</ele><time>2026-04-25T15:24:07.039Z</time></trkpt><trkpt lat="45.2489459" lon="8.7168133"><ele>110.0</ele><time>2026-04-25T15:24:08.04Z</time></trkpt><trkpt lat="45.2489764" lon="8.7169803"><ele>110.0</ele><time>2026-04-25T15:24:09.039Z</time></trkpt><trkpt lat="45.2490098" lon="8.7171665"><ele>110.0</ele><time>2026-04-25T15:24:10.039Z</time></trkpt><trkpt lat="45.2490456" lon="8.717355"><ele>109.75</ele><time>2026-04-25T15:24:11.04Z</time></trkpt><trkpt lat="45.2490814" lon="8.7175351"><ele>109.5</ele><time>2026-04-25T15:24:12.041Z</time></trkpt><trkpt lat="45.2491184" lon="8.7177167"><ele>109.25</ele><time>2026-04-25T15:24:13.039Z</time></trkpt><trkpt lat="45.2491511" lon="8.7178998"><ele>109.0</ele><time>2026-04-25T15:24:14.039Z</time></trkpt><trkpt lat="45.2491869" lon="8.7180864"><ele>109.0</ele><time>2026-04-25T15:24:15.04Z</time></trkpt><trkpt lat="45.2492201" lon="8.7182649"><ele>109.0</ele><time>2026-04-25T15:24:16.041Z</time></trkpt><trkpt lat="45.2492517" lon="8.7184568"><ele>109.0</ele><time>2026-04-25T15:24:17.04Z</time></trkpt><trkpt lat="45.2492832" lon="8.7186238"><ele>109.0</ele><time>2026-04-25T15:24:18.04Z</time></trkpt><trkpt lat="45.24931" lon="8.7187739"><ele>108.80000000000001</ele><time>2026-04-25T15:24:19.04Z</time></trkpt><trkpt lat="45.2493328" lon="8.7189013"><ele>108.60000000000001</ele><time>2026-04-25T15:24:20.039Z</time></trkpt><trkpt lat="45.2493486" lon="8.7190081"><ele>108.4</ele><time>2026-04-25T15:24:21.04Z</time></trkpt><trkpt lat="45.2493536" lon="8.7191386"><ele>108.2</ele><time>2026-04-25T15:24:23.04Z</time></trkpt><trkpt lat="45.249333" lon="8.7192705"><ele>108.0</ele><time>2026-04-25T15:24:25.04Z</time></trkpt><trkpt lat="45.2493088" lon="8.7194559"><ele>108.0</ele><time>2026-04-25T15:24:27.04Z</time></trkpt><trkpt lat="45.2493031" lon="8.7195834"><ele>108.00000000000001</ele><time>2026-04-25T15:24:28.039Z</time></trkpt><trkpt lat="45.2492927" lon="8.7197278"><ele>108.00000000000001</ele><time>2026-04-25T15:24:29.039Z</time></trkpt><trkpt lat="45.2492776" lon="8.7198935"><ele>108.0</ele><time>2026-04-25T15:24:30.041Z</time></trkpt><trkpt lat="45.2492449" lon="8.7200584"><ele>108.0</ele><time>2026-04-25T15:24:31.039Z</time></trkpt><trkpt lat="45.2491911" lon="8.7202347"><ele>108.25</ele><time>2026-04-25T15:24:32.04Z</time></trkpt><trkpt lat="45.2491303" lon="8.7204122"><ele>108.5</ele><time>2026-04-25T15:24:33.04Z</time></trkpt><trkpt lat="45.249063" lon="8.7205933"><ele>108.75</ele><time>2026-04-25T15:24:34.04Z</time></trkpt><trkpt lat="45.2489935" lon="8.7207755"><ele>109.0</ele><time>2026-04-25T15:24:35.04Z</time></trkpt><trkpt lat="45.24892" lon="8.7209596"><ele>108.75</ele><time>2026-04-25T15:24:36.04Z</time></trkpt><trkpt lat="45.2488461" lon="8.7211438"><ele>108.5</ele><time>2026-04-25T15:24:37.04Z</time></trkpt><trkpt lat="45.2487802" lon="8.7213155"><ele>108.25</ele><time>2026-04-25T15:24:38.039Z</time></trkpt><trkpt lat="45.2487172" lon="8.7214853"><ele>108.0</ele><time>2026-04-25T15:24:39.04Z</time></trkpt><trkpt lat="45.2486544" lon="8.7216502"><ele>108.0</ele><time>2026-04-25T15:24:40.039Z</time></trkpt><trkpt lat="45.2485985" lon="8.7218083"><ele>108.0</ele><time>2026-04-25T15:24:41.04Z</time></trkpt><trkpt lat="45.2485424" lon="8.7219648"><ele>108.0</ele><time>2026-04-25T15:24:42.04Z</time></trkpt><trkpt lat="45.2484872" lon="8.7221184"><ele>108.0</ele><time>2026-04-25T15:24:43.04Z</time></trkpt><trkpt lat="45.248434" lon="8.7222786"><ele>108.0</ele><time>2026-04-25T15:24:44.04Z</time></trkpt><trkpt lat="45.2483791" lon="8.7224405"><ele>108.0</ele><time>2026-04-25T15:24:45.038Z</time></trkpt><trkpt lat="45.2483262" lon="8.7226154"><ele>108.0</ele><time>2026-04-25T15:24:46.04Z</time></trkpt><trkpt lat="45.2482713" lon="8.7227964"><ele>108.0</ele><time>2026-04-25T15:24:47.039Z</time></trkpt><trkpt lat="45.2482104" lon="8.7229764"><ele>108.66666666666666</ele><time>2026-04-25T15:24:48.04Z</time></trkpt><trkpt lat="45.2481504" lon="8.7231757"><ele>109.33333333333333</ele><time>2026-04-25T15:24:49.04Z</time></trkpt><trkpt lat="45.2480969" lon="8.7233958"><ele>110.0</ele><time>2026-04-25T15:24:50.04Z</time></trkpt><trkpt lat="45.2480274" lon="8.7236242"><ele>110.0</ele><time>2026-04-25T15:24:51.04Z</time></trkpt><trkpt lat="45.2479478" lon="8.7238605"><ele>110.0</ele><time>2026-04-25T15:24:52.04Z</time></trkpt><trkpt lat="45.2478666" lon="8.7241219"><ele>110.0</ele><time>2026-04-25T15:24:53.04Z</time></trkpt><trkpt lat="45.2477786" lon="8.7243847"><ele>109.66666666666666</ele><time>2026-04-25T15:24:54.04Z</time></trkpt><trkpt lat="45.2477006" lon="8.7246499"><ele>109.33333333333334</ele><time>2026-04-25T15:24:55.04Z</time></trkpt><trkpt lat="45.2476186" lon="8.7249197"><ele>109.0</ele><time>2026-04-25T15:24:56.039Z</time></trkpt><trkpt lat="45.2475368" lon="8.7251922"><ele>108.66666666666667</ele><time>2026-04-25T15:24:57.04Z</time></trkpt><trkpt lat="45.2474537" lon="8.7254823"><ele>108.33333333333334</ele><time>2026-04-25T15:24:58.04Z</time></trkpt><trkpt lat="45.2473666" lon="8.7257735"><ele>108.0</ele><time>2026-04-25T15:24:59.04Z</time></trkpt><trkpt lat="45.2472682" lon="8.726065"><ele>108.0</ele><time>2026-04-25T15:25:00.039Z</time></trkpt><trkpt lat="45.2471727" lon="8.7263465"><ele>108.0</ele><time>2026-04-25T15:25:01.039Z</time></trkpt><trkpt lat="45.2470859" lon="8.7266146"><ele>108.0</ele><time>2026-04-25T15:25:02.039Z</time></trkpt><trkpt lat="45.2470016" lon="8.7268712"><ele>108.0</ele><time>2026-04-25T15:25:03.04Z</time></trkpt><trkpt lat="45.2469203" lon="8.7271301"><ele>108.0</ele><time>2026-04-25T15:25:04.04Z</time></trkpt><trkpt lat="45.2468395" lon="8.7273975"><ele>108.0</ele><time>2026-04-25T15:25:05.04Z</time></trkpt><trkpt lat="45.2467517" lon="8.7276682"><ele>108.33333333333334</ele><time>2026-04-25T15:25:06.04Z</time></trkpt><trkpt lat="45.246665" lon="8.7279398"><ele>108.66666666666667</ele><time>2026-04-25T15:25:07.039Z</time></trkpt><trkpt lat="45.246579" lon="8.7282201"><ele>109.0</ele><time>2026-04-25T15:25:08.039Z</time></trkpt><trkpt lat="45.2465001" lon="8.7284929"><ele>108.33333333333334</ele><time>2026-04-25T15:25:09.039Z</time></trkpt><trkpt lat="45.2464205" lon="8.7287473"><ele>107.66666666666666</ele><time>2026-04-25T15:25:10.039Z</time></trkpt><trkpt lat="45.2463475" lon="8.7289897"><ele>107.0</ele><time>2026-04-25T15:25:11.04Z</time></trkpt><trkpt lat="45.2462714" lon="8.7292325"><ele>107.66666666666666</ele><time>2026-04-25T15:25:12.04Z</time></trkpt><trkpt lat="45.2461987" lon="8.7294776"><ele>108.33333333333334</ele><time>2026-04-25T15:25:13.04Z</time></trkpt><trkpt lat="45.2461218" lon="8.7297214"><ele>109.0</ele><time>2026-04-25T15:25:14.04Z</time></trkpt><trkpt lat="45.2460466" lon="8.7299754"><ele>109.0</ele><time>2026-04-25T15:25:15.04Z</time></trkpt><trkpt lat="45.2459717" lon="8.7302222"><ele>109.0</ele><time>2026-04-25T15:25:16.04Z</time></trkpt><trkpt lat="45.2458953" lon="8.7304713"><ele>109.0</ele><time>2026-04-25T15:25:17.038Z</time></trkpt><trkpt lat="45.2458194" lon="8.7307107"><ele>109.0</ele><time>2026-04-25T15:25:18.04Z</time></trkpt><trkpt lat="45.2457439" lon="8.7309499"><ele>109.0</ele><time>2026-04-25T15:25:19.04Z</time></trkpt><trkpt lat="45.2456727" lon="8.7311813"><ele>109.0</ele><time>2026-04-25T15:25:20.039Z</time></trkpt><trkpt lat="45.2456051" lon="8.7314021"><ele>108.5</ele><time>2026-04-25T15:25:21.04Z</time></trkpt><trkpt lat="45.2455392" lon="8.7316161"><ele>108.0</ele><time>2026-04-25T15:25:22.039Z</time></trkpt><trkpt lat="45.2454821" lon="8.7318133"><ele>107.5</ele><time>2026-04-25T15:25:23.039Z</time></trkpt><trkpt lat="45.2454284" lon="8.731985"><ele>107.0</ele><time>2026-04-25T15:25:24.039Z</time></trkpt><trkpt lat="45.2453714" lon="8.7321579"><ele>107.0</ele><time>2026-04-25T15:25:25.04Z</time></trkpt><trkpt lat="45.2453184" lon="8.7323244"><ele>107.0</ele><time>2026-04-25T15:25:26.04Z</time></trkpt><trkpt lat="45.2452672" lon="8.73248"><ele>107.0</ele><time>2026-04-25T15:25:27.04Z</time></trkpt><trkpt lat="45.2452198" lon="8.7326374"><ele>107.0</ele><time>2026-04-25T15:25:28.039Z</time></trkpt><trkpt lat="45.245169" lon="8.7327922"><ele>107.0</ele><time>2026-04-25T15:25:29.039Z</time></trkpt><trkpt lat="45.2451219" lon="8.7329501"><ele>107.0</ele><time>2026-04-25T15:25:30.039Z</time></trkpt><trkpt lat="45.2450759" lon="8.7331064"><ele>107.0</ele><time>2026-04-25T15:25:31.04Z</time></trkpt><trkpt lat="45.2450293" lon="8.7332665"><ele>107.0</ele><time>2026-04-25T15:25:32.04Z</time></trkpt><trkpt lat="45.2449851" lon="8.7334308"><ele>107.25</ele><time>2026-04-25T15:25:33.039Z</time></trkpt><trkpt lat="45.2449368" lon="8.7336024"><ele>107.5</ele><time>2026-04-25T15:25:34.039Z</time></trkpt><trkpt lat="45.2448821" lon="8.7337692"><ele>107.75</ele><time>2026-04-25T15:25:35.039Z</time></trkpt><trkpt lat="45.2448278" lon="8.733947"><ele>108.0</ele><time>2026-04-25T15:25:36.04Z</time></trkpt><trkpt lat="45.2447686" lon="8.7341357"><ele>108.33333333333334</ele><time>2026-04-25T15:25:37.04Z</time></trkpt><trkpt lat="45.244704" lon="8.7343349"><ele>108.66666666666667</ele><time>2026-04-25T15:25:38.039Z</time></trkpt><trkpt lat="45.2446431" lon="8.7345292"><ele>109.0</ele><time>2026-04-25T15:25:39.038Z</time></trkpt><trkpt lat="45.2445826" lon="8.7347226"><ele>108.0</ele><time>2026-04-25T15:25:40.039Z</time></trkpt><trkpt lat="45.244525" lon="8.7349196"><ele>107.0</ele><time>2026-04-25T15:25:41.039Z</time></trkpt><trkpt lat="45.2444633" lon="8.7351141"><ele>106.0</ele><time>2026-04-25T15:25:42.04Z</time></trkpt><trkpt lat="45.2443977" lon="8.7353121"><ele>106.0</ele><time>2026-04-25T15:25:43.039Z</time></trkpt><trkpt lat="45.2443425" lon="8.735508"><ele>106.0</ele><time>2026-04-25T15:25:44.04Z</time></trkpt><trkpt lat="45.2442834" lon="8.7357025"><ele>106.0</ele><time>2026-04-25T15:25:45.039Z</time></trkpt><trkpt lat="45.244224" lon="8.7358966"><ele>106.0</ele><time>2026-04-25T15:25:46.039Z</time></trkpt><trkpt lat="45.2441611" lon="8.7360889"><ele>106.33333333333334</ele><time>2026-04-25T15:25:47.039Z</time></trkpt><trkpt lat="45.2441002" lon="8.7362853"><ele>106.66666666666666</ele><time>2026-04-25T15:25:48.04Z</time></trkpt><trkpt lat="45.2440392" lon="8.7364832"><ele>107.0</ele><time>2026-04-25T15:25:49.039Z</time></trkpt><trkpt lat="45.2439796" lon="8.736677"><ele>106.5</ele><time>2026-04-25T15:25:50.039Z</time></trkpt><trkpt lat="45.2439185" lon="8.7368573"><ele>106.0</ele><time>2026-04-25T15:25:51.039Z</time></trkpt><trkpt lat="45.2438629" lon="8.7370441"><ele>105.5</ele><time>2026-04-25T15:25:52.038Z</time></trkpt><trkpt lat="45.2438074" lon="8.7372158"><ele>105.0</ele><time>2026-04-25T15:25:53.039Z</time></trkpt><trkpt lat="45.2437539" lon="8.7373777"><ele>105.0</ele><time>2026-04-25T15:25:54.039Z</time></trkpt><trkpt lat="45.2437019" lon="8.7375366"><ele>105.0</ele><time>2026-04-25T15:25:55.039Z</time></trkpt><trkpt lat="45.2436496" lon="8.7376901"><ele>105.0</ele><time>2026-04-25T15:25:56.039Z</time></trkpt><trkpt lat="45.2435937" lon="8.737851"><ele>105.0</ele><time>2026-04-25T15:25:57.04Z</time></trkpt><trkpt lat="45.2435413" lon="8.7380145"><ele>104.8</ele><time>2026-04-25T15:25:58.04Z</time></trkpt><trkpt lat="45.2434935" lon="8.738173"><ele>104.6</ele><time>2026-04-25T15:25:59.039Z</time></trkpt><trkpt lat="45.2434508" lon="8.738316"><ele>104.4</ele><time>2026-04-25T15:26:00.039Z</time></trkpt><trkpt lat="45.243411" lon="8.7384449"><ele>104.2</ele><time>2026-04-25T15:26:01.04Z</time></trkpt><trkpt lat="45.243384" lon="8.7385713"><ele>104.0</ele><time>2026-04-25T15:26:02.039Z</time></trkpt><trkpt lat="45.2433622" lon="8.7386906"><ele>103.99999999999999</ele><time>2026-04-25T15:26:03.039Z</time></trkpt><trkpt lat="45.2433518" lon="8.7387988"><ele>104.0</ele><time>2026-04-25T15:26:04.039Z</time></trkpt><trkpt lat="45.2433434" lon="8.7389054"><ele>104.0</ele><time>2026-04-25T15:26:05.039Z</time></trkpt><trkpt lat="45.2433267" lon="8.7389944"><ele>104.0</ele><time>2026-04-25T15:26:06.04Z</time></trkpt><trkpt lat="45.2433018" lon="8.7390913"><ele>103.99999999999999</ele><time>2026-04-25T15:26:07.039Z</time></trkpt><trkpt lat="45.2432635" lon="8.7391929"><ele>104.0</ele><time>2026-04-25T15:26:08.04Z</time></trkpt><trkpt lat="45.2432222" lon="8.7393071"><ele>104.2</ele><time>2026-04-25T15:26:09.04Z</time></trkpt><trkpt lat="45.2431884" lon="8.7394295"><ele>104.4</ele><time>2026-04-25T15:26:10.04Z</time></trkpt><trkpt lat="45.2431442" lon="8.7395559"><ele>104.6</ele><time>2026-04-25T15:26:11.04Z</time></trkpt><trkpt lat="45.2430972" lon="8.7396725"><ele>104.8</ele><time>2026-04-25T15:26:12.038Z</time></trkpt><trkpt lat="45.2430471" lon="8.7397821"><ele>105.0</ele><time>2026-04-25T15:26:13.038Z</time></trkpt><trkpt lat="45.2429877" lon="8.7399037"><ele>104.5</ele><time>2026-04-25T15:26:14.04Z</time></trkpt><trkpt lat="45.2429288" lon="8.7400408"><ele>104.0</ele><time>2026-04-25T15:26:15.039Z</time></trkpt><trkpt lat="45.2428756" lon="8.740184"><ele>103.5</ele><time>2026-04-25T15:26:16.04Z</time></trkpt><trkpt lat="45.2428301" lon="8.7403402"><ele>103.0</ele><time>2026-04-25T15:26:17.037Z</time></trkpt><trkpt lat="45.2427809" lon="8.7404913"><ele>103.0</ele><time>2026-04-25T15:26:18.04Z</time></trkpt><trkpt lat="45.2427327" lon="8.7406384"><ele>103.0</ele><time>2026-04-25T15:26:19.038Z</time></trkpt><trkpt lat="45.2426855" lon="8.7407829"><ele>103.0</ele><time>2026-04-25T15:26:20.039Z</time></trkpt><trkpt lat="45.242639" lon="8.740934"><ele>103.0</ele><time>2026-04-25T15:26:21.04Z</time></trkpt><trkpt lat="45.2425908" lon="8.741097"><ele>103.75</ele><time>2026-04-25T15:26:22.04Z</time></trkpt><trkpt lat="45.2425386" lon="8.741256"><ele>104.5</ele><time>2026-04-25T15:26:23.04Z</time></trkpt><trkpt lat="45.2424864" lon="8.7414212"><ele>105.25</ele><time>2026-04-25T15:26:24.039Z</time></trkpt><trkpt lat="45.2424306" lon="8.7415921"><ele>106.0</ele><time>2026-04-25T15:26:25.04Z</time></trkpt><trkpt lat="45.2423733" lon="8.7417636"><ele>106.0</ele><time>2026-04-25T15:26:26.039Z</time></trkpt><trkpt lat="45.2423085" lon="8.7419303"><ele>106.0</ele><time>2026-04-25T15:26:27.04Z</time></trkpt><trkpt lat="45.2422502" lon="8.7421048"><ele>106.0</ele><time>2026-04-25T15:26:28.039Z</time></trkpt><trkpt lat="45.2421993" lon="8.7422762"><ele>106.0</ele><time>2026-04-25T15:26:29.039Z</time></trkpt><trkpt lat="45.2421476" lon="8.7424435"><ele>106.0</ele><time>2026-04-25T15:26:30.04Z</time></trkpt><trkpt lat="45.2420913" lon="8.742601"><ele>106.0</ele><time>2026-04-25T15:26:31.04Z</time></trkpt><trkpt lat="45.2420226" lon="8.7427508"><ele>106.0</ele><time>2026-04-25T15:26:32.039Z</time></trkpt><trkpt lat="45.2419335" lon="8.7428675"><ele>106.0</ele><time>2026-04-25T15:26:33.039Z</time></trkpt><trkpt lat="45.2418283" lon="8.7429526"><ele>106.0</ele><time>2026-04-25T15:26:34.039Z</time></trkpt><trkpt lat="45.2417048" lon="8.7430045"><ele>106.0</ele><time>2026-04-25T15:26:35.039Z</time></trkpt><trkpt lat="45.241586" lon="8.7430432"><ele>106.0</ele><time>2026-04-25T15:26:36.038Z</time></trkpt><trkpt lat="45.2414632" lon="8.743078"><ele>106.0</ele><time>2026-04-25T15:26:37.038Z</time></trkpt><trkpt lat="45.241337" lon="8.7431094"><ele>106.0</ele><time>2026-04-25T15:26:38.039Z</time></trkpt><trkpt lat="45.241213" lon="8.7431377"><ele>106.0</ele><time>2026-04-25T15:26:39.04Z</time></trkpt><trkpt lat="45.241098" lon="8.7431543"><ele>106.0</ele><time>2026-04-25T15:26:40.039Z</time></trkpt><trkpt lat="45.2409746" lon="8.7431817"><ele>106.0</ele><time>2026-04-25T15:26:41.039Z</time></trkpt><trkpt lat="45.2408544" lon="8.7432062"><ele>106.00000000000001</ele><time>2026-04-25T15:26:42.039Z</time></trkpt><trkpt lat="45.2407584" lon="8.7432141"><ele>106.0</ele><time>2026-04-25T15:26:43.039Z</time></trkpt><trkpt lat="45.2406687" lon="8.7432281"><ele>106.0</ele><time>2026-04-25T15:26:44.039Z</time></trkpt><trkpt lat="45.240601" lon="8.7432101"><ele>106.0</ele><time>2026-04-25T15:26:45.037Z</time></trkpt><trkpt lat="45.240545" lon="8.7431603"><ele>106.00000000000001</ele><time>2026-04-25T15:26:46.039Z</time></trkpt><trkpt lat="45.2405036" lon="8.7430725"><ele>106.0</ele><time>2026-04-25T15:26:47.04Z</time></trkpt><trkpt lat="45.240491" lon="8.7429582"><ele>106.0</ele><time>2026-04-25T15:26:48.038Z</time></trkpt><trkpt lat="45.2404752" lon="8.7428269"><ele>106.0</ele><time>2026-04-25T15:26:49.038Z</time></trkpt><trkpt lat="45.2404564" lon="8.7426724"><ele>106.0</ele><time>2026-04-25T15:26:50.037Z</time></trkpt><trkpt lat="45.2404381" lon="8.7425048"><ele>106.0</ele><time>2026-04-25T15:26:51.04Z</time></trkpt><trkpt lat="45.2404116" lon="8.7423121"><ele>106.0</ele><time>2026-04-25T15:26:52.038Z</time></trkpt><trkpt lat="45.2403871" lon="8.7421155"><ele>106.0</ele><time>2026-04-25T15:26:53.04Z</time></trkpt><trkpt lat="45.2403621" lon="8.7419175"><ele>106.0</ele><time>2026-04-25T15:26:54.039Z</time></trkpt><trkpt lat="45.2403369" lon="8.7417137"><ele>106.0</ele><time>2026-04-25T15:26:55.037Z</time></trkpt><trkpt lat="45.2403121" lon="8.7415149"><ele>106.0</ele><time>2026-04-25T15:26:56.039Z</time></trkpt><trkpt lat="45.2402851" lon="8.7413178"><ele>106.0</ele><time>2026-04-25T15:26:57.04Z</time></trkpt><trkpt lat="45.2402604" lon="8.7411399"><ele>106.0</ele><time>2026-04-25T15:26:58.039Z</time></trkpt><trkpt lat="45.2402364" lon="8.7409748"><ele>106.0</ele><time>2026-04-25T15:26:59.04Z</time></trkpt><trkpt lat="45.2402151" lon="8.7408235"><ele>105.83333333333334</ele><time>2026-04-25T15:27:00.039Z</time></trkpt><trkpt lat="45.2401946" lon="8.7406811"><ele>105.66666666666667</ele><time>2026-04-25T15:27:01.038Z</time></trkpt><trkpt lat="45.2401812" lon="8.7405534"><ele>105.5</ele><time>2026-04-25T15:27:02.039Z</time></trkpt><trkpt lat="45.2401663" lon="8.7404511"><ele>105.33333333333334</ele><time>2026-04-25T15:27:03.04Z</time></trkpt><trkpt lat="45.2401509" lon="8.7403273"><ele>105.16666666666667</ele><time>2026-04-25T15:27:05.038Z</time></trkpt><trkpt lat="45.2401344" lon="8.7402372"><ele>105.0</ele><time>2026-04-25T15:27:35.039Z</time></trkpt><trkpt lat="45.2401177" lon="8.7401052"><ele>105.0</ele><time>2026-04-25T15:27:37.038Z</time></trkpt><trkpt lat="45.2400975" lon="8.7400042"><ele>105.0</ele><time>2026-04-25T15:27:38.039Z</time></trkpt><trkpt lat="45.240087" lon="8.7398999"><ele>105.0</ele><time>2026-04-25T15:27:39.039Z</time></trkpt><trkpt lat="45.2400718" lon="8.7397627"><ele>105.0</ele><time>2026-04-25T15:27:40.038Z</time></trkpt><trkpt lat="45.2400612" lon="8.7396291"><ele>105.0</ele><time>2026-04-25T15:27:41.039Z</time></trkpt><trkpt lat="45.240046" lon="8.7395086"><ele>105.0</ele><time>2026-04-25T15:27:42.039Z</time></trkpt><trkpt lat="45.2400362" lon="8.7394011"><ele>104.8</ele><time>2026-04-25T15:27:43.038Z</time></trkpt><trkpt lat="45.2400181" lon="8.7393009"><ele>104.6</ele><time>2026-04-25T15:27:44.038Z</time></trkpt><trkpt lat="45.2399689" lon="8.7391563"><ele>104.4</ele><time>2026-04-25T15:27:46.038Z</time></trkpt><trkpt lat="45.2398747" lon="8.7390981"><ele>104.2</ele><time>2026-04-25T15:27:48.038Z</time></trkpt><trkpt lat="45.2397684" lon="8.7391155"><ele>104.0</ele><time>2026-04-25T15:27:50.039Z</time></trkpt><trkpt lat="45.2396803" lon="8.7391948"><ele>104.0</ele><time>2026-04-25T15:27:52.04Z</time></trkpt><trkpt lat="45.2396462" lon="8.7393277"><ele>104.0</ele><time>2026-04-25T15:27:54.038Z</time></trkpt><trkpt lat="45.2396375" lon="8.7394946"><ele>104.0</ele><time>2026-04-25T15:27:56.037Z</time></trkpt><trkpt lat="45.2396369" lon="8.7396913"><ele>104.0</ele><time>2026-04-25T15:27:58.039Z</time></trkpt><trkpt lat="45.2396552" lon="8.7397903"><ele>104.0</ele><time>2026-04-25T15:27:59.039Z</time></trkpt><trkpt lat="45.2396702" lon="8.739881"><ele>103.99999999999999</ele><time>2026-04-25T15:28:00.039Z</time></trkpt><trkpt lat="45.2396897" lon="8.7399784"><ele>104.0</ele><time>2026-04-25T15:28:01.039Z</time></trkpt><trkpt lat="45.2397364" lon="8.740131"><ele>104.0</ele><time>2026-04-25T15:28:03.039Z</time></trkpt><trkpt lat="45.2397914" lon="8.740219"><ele>104.0</ele><time>2026-04-25T15:28:05.039Z</time></trkpt><trkpt lat="45.2398753" lon="8.7402305"><ele>103.99999999999999</ele><time>2026-04-25T15:28:07.039Z</time></trkpt><trkpt lat="45.2399325" lon="8.7401917"><ele>104.0</ele><time>2026-04-25T15:28:09.039Z</time></trkpt><trkpt lat="45.2400092" lon="8.7401915"><ele>104.14285714285714</ele><time>2026-04-25T15:41:05.035Z</time></trkpt><trkpt lat="45.240082" lon="8.7401925"><ele>104.28571428571429</ele><time>2026-04-25T15:41:09.035Z</time></trkpt><trkpt lat="45.2401257" lon="8.7402624"><ele>104.42857142857143</ele><time>2026-04-25T15:41:43.035Z</time></trkpt><trkpt lat="45.2401373" lon="8.7403581"><ele>104.57142857142857</ele><time>2026-04-25T15:41:46.036Z</time></trkpt><trkpt lat="45.2401379" lon="8.7404735"><ele>104.71428571428572</ele><time>2026-04-25T15:41:49.036Z</time></trkpt><trkpt lat="45.2401381" lon="8.7405646"><ele>104.85714285714286</ele><time>2026-04-25T15:41:51.036Z</time></trkpt><trkpt lat="45.2401508" lon="8.7406834"><ele>105.0</ele><time>2026-04-25T15:41:53.036Z</time></trkpt><trkpt lat="45.2401712" lon="8.7408302"><ele>105.0</ele><time>2026-04-25T15:41:55.035Z</time></trkpt><trkpt lat="45.2401851" lon="8.7409739"><ele>105.0</ele><time>2026-04-25T15:41:57.035Z</time></trkpt><trkpt lat="45.2401992" lon="8.7411054"><ele>105.0</ele><time>2026-04-25T15:41:59.036Z</time></trkpt><trkpt lat="45.2402132" lon="8.7412231"><ele>105.0</ele><time>2026-04-25T15:42:01.035Z</time></trkpt><trkpt lat="45.2402251" lon="8.7413251"><ele>105.0</ele><time>2026-04-25T15:42:03.035Z</time></trkpt><trkpt lat="45.2402397" lon="8.7414369"><ele>105.0</ele><time>2026-04-25T15:42:20.035Z</time></trkpt><trkpt lat="45.2402555" lon="8.741524"><ele>105.0</ele><time>2026-04-25T15:42:22.036Z</time></trkpt><trkpt lat="45.2402706" lon="8.7416584"><ele>105.0</ele><time>2026-04-25T15:42:24.036Z</time></trkpt><trkpt lat="45.2402964" lon="8.7418234"><ele>105.0</ele><time>2026-04-25T15:42:26.035Z</time></trkpt><trkpt lat="45.2403122" lon="8.7419849"><ele>105.0</ele><time>2026-04-25T15:42:28.035Z</time></trkpt><trkpt lat="45.2403314" lon="8.7421398"><ele>105.0</ele><time>2026-04-25T15:42:30.034Z</time></trkpt><trkpt lat="45.2403393" lon="8.7422301"><ele>105.0</ele><time>2026-04-25T15:42:31.034Z</time></trkpt><trkpt lat="45.240347" lon="8.7423248"><ele>105.0</ele><time>2026-04-25T15:42:32.036Z</time></trkpt><trkpt lat="45.2403622" lon="8.7424255"><ele>105.0</ele><time>2026-04-25T15:42:33.034Z</time></trkpt><trkpt lat="45.2403738" lon="8.7425419"><ele>105.0</ele><time>2026-04-25T15:42:34.033Z</time></trkpt><trkpt lat="45.2403888" lon="8.7426533"><ele>105.0</ele><time>2026-04-25T15:42:35.034Z</time></trkpt><trkpt lat="45.2404001" lon="8.7427581"><ele>105.0</ele><time>2026-04-25T15:42:36.035Z</time></trkpt><trkpt lat="45.2404145" lon="8.7428488"><ele>105.0</ele><time>2026-04-25T15:42:37.036Z</time></trkpt><trkpt lat="45.2404281" lon="8.742945"><ele>105.2</ele><time>2026-04-25T15:42:38.035Z</time></trkpt><trkpt lat="45.2404408" lon="8.7430941"><ele>105.4</ele><time>2026-04-25T15:42:40.035Z</time></trkpt><trkpt lat="45.2404844" lon="8.7432125"><ele>105.6</ele><time>2026-04-25T15:42:42.035Z</time></trkpt><trkpt lat="45.2405595" lon="8.7432879"><ele>105.8</ele><time>2026-04-25T15:42:44.035Z</time></trkpt><trkpt lat="45.2406824" lon="8.7432919"><ele>106.0</ele><time>2026-04-25T15:42:46.035Z</time></trkpt><trkpt lat="45.2407506" lon="8.743275"><ele>106.00000000000001</ele><time>2026-04-25T15:42:47.036Z</time></trkpt><trkpt lat="45.2408286" lon="8.7432623"><ele>106.0</ele><time>2026-04-25T15:42:48.034Z</time></trkpt><trkpt lat="45.2409132" lon="8.7432407"><ele>106.0</ele><time>2026-04-25T15:42:49.036Z</time></trkpt><trkpt lat="45.2410036" lon="8.7432196"><ele>106.0</ele><time>2026-04-25T15:42:50.035Z</time></trkpt><trkpt lat="45.2410826" lon="8.7431939"><ele>106.00000000000001</ele><time>2026-04-25T15:42:51.034Z</time></trkpt><trkpt lat="45.2411659" lon="8.743176"><ele>106.0</ele><time>2026-04-25T15:42:52.035Z</time></trkpt><trkpt lat="45.2412481" lon="8.7431459"><ele>106.0</ele><time>2026-04-25T15:42:53.035Z</time></trkpt><trkpt lat="45.2413271" lon="8.7431218"><ele>106.0</ele><time>2026-04-25T15:42:54.035Z</time></trkpt><trkpt lat="45.2413948" lon="8.7431064"><ele>106.0</ele><time>2026-04-25T15:42:55.034Z</time></trkpt><trkpt lat="45.241519" lon="8.7430686"><ele>106.0</ele><time>2026-04-25T15:42:57.034Z</time></trkpt><trkpt lat="45.2415897" lon="8.7430485"><ele>106.0</ele><time>2026-04-25T15:42:58.035Z</time></trkpt><trkpt lat="45.2416915" lon="8.7430282"><ele>106.00000000000001</ele><time>2026-04-25T15:43:00.035Z</time></trkpt><trkpt lat="45.2417817" lon="8.7430504"><ele>106.0</ele><time>2026-04-25T15:43:02.036Z</time></trkpt><trkpt lat="45.2418778" lon="8.7430918"><ele>106.0</ele><time>2026-04-25T15:43:04.035Z</time></trkpt><trkpt lat="45.2419656" lon="8.743189"><ele>106.0</ele><time>2026-04-25T15:43:06.033Z</time></trkpt><trkpt lat="45.2420058" lon="8.7432707"><ele>106.00000000000001</ele><time>2026-04-25T15:43:07.035Z</time></trkpt><trkpt lat="45.2420347" lon="8.7433562"><ele>106.0</ele><time>2026-04-25T15:43:08.036Z</time></trkpt><trkpt lat="45.2420573" lon="8.7434637"><ele>106.00000000000001</ele><time>2026-04-25T15:43:09.035Z</time></trkpt><trkpt lat="45.2420704" lon="8.7435816"><ele>106.0</ele><time>2026-04-25T15:43:10.035Z</time></trkpt><trkpt lat="45.2420707" lon="8.7437061"><ele>106.0</ele><time>2026-04-25T15:43:11.036Z</time></trkpt><trkpt lat="45.2420841" lon="8.7438296"><ele>106.0</ele><time>2026-04-25T15:43:12.034Z</time></trkpt><trkpt lat="45.2420931" lon="8.7439588"><ele>106.00000000000001</ele><time>2026-04-25T15:43:13.035Z</time></trkpt><trkpt lat="45.2421044" lon="8.7440834"><ele>106.0</ele><time>2026-04-25T15:43:14.036Z</time></trkpt><trkpt lat="45.2421216" lon="8.7442083"><ele>106.0</ele><time>2026-04-25T15:43:15.036Z</time></trkpt><trkpt lat="45.2421399" lon="8.7443513"><ele>106.0</ele><time>2026-04-25T15:43:16.035Z</time></trkpt><trkpt lat="45.2421554" lon="8.7444945"><ele>106.0</ele><time>2026-04-25T15:43:17.034Z</time></trkpt><trkpt lat="45.2421789" lon="8.7446364"><ele>106.0</ele><time>2026-04-25T15:43:18.036Z</time></trkpt><trkpt lat="45.2422004" lon="8.7447856"><ele>106.0</ele><time>2026-04-25T15:43:19.034Z</time></trkpt><trkpt lat="45.242226" lon="8.74494"><ele>106.00000000000001</ele><time>2026-04-25T15:43:20.034Z</time></trkpt><trkpt lat="45.2422417" lon="8.7450884"><ele>106.0</ele><time>2026-04-25T15:43:21.035Z</time></trkpt><trkpt lat="45.2422532" lon="8.7452192"><ele>106.0</ele><time>2026-04-25T15:43:22.035Z</time></trkpt><trkpt lat="45.242267" lon="8.745327"><ele>106.0</ele><time>2026-04-25T15:43:23.034Z</time></trkpt><trkpt lat="45.2422787" lon="8.7454176"><ele>106.00000000000001</ele><time>2026-04-25T15:43:24.035Z</time></trkpt><trkpt lat="45.242276" lon="8.7455084"><ele>106.0</ele><time>2026-04-25T15:43:25.036Z</time></trkpt><trkpt lat="45.2422596" lon="8.74564"><ele>106.00000000000001</ele><time>2026-04-25T15:43:27.035Z</time></trkpt><trkpt lat="45.2422482" lon="8.7457497"><ele>106.0</ele><time>2026-04-25T15:43:29.034Z</time></trkpt><trkpt lat="45.2421984" lon="8.7458813"><ele>106.0</ele><time>2026-04-25T15:43:31.033Z</time></trkpt><trkpt lat="45.24216" lon="8.7459575"><ele>106.0</ele><time>2026-04-25T15:43:32.034Z</time></trkpt><trkpt lat="45.2421126" lon="8.7460576"><ele>106.00000000000001</ele><time>2026-04-25T15:43:33.036Z</time></trkpt><trkpt lat="45.2420798" lon="8.746174"><ele>106.0</ele><time>2026-04-25T15:43:34.035Z</time></trkpt><trkpt lat="45.2420719" lon="8.7462907"><ele>105.85714285714286</ele><time>2026-04-25T15:43:35.034Z</time></trkpt><trkpt lat="45.2420857" lon="8.7463951"><ele>105.71428571428571</ele><time>2026-04-25T15:43:36.035Z</time></trkpt><trkpt lat="45.2421247" lon="8.7464824"><ele>105.57142857142857</ele><time>2026-04-25T15:43:37.035Z</time></trkpt><trkpt lat="45.2421844" lon="8.7465554"><ele>105.42857142857143</ele><time>2026-04-25T15:43:38.035Z</time></trkpt><trkpt lat="45.2422502" lon="8.7465955"><ele>105.28571428571428</ele><time>2026-04-25T15:43:39.035Z</time></trkpt><trkpt lat="45.2423192" lon="8.746599"><ele>105.14285714285714</ele><time>2026-04-25T15:43:40.036Z</time></trkpt><trkpt lat="45.242397" lon="8.7465876"><ele>105.0</ele><time>2026-04-25T15:43:41.035Z</time></trkpt><trkpt lat="45.242453" lon="8.7465222"><ele>104.83333333333333</ele><time>2026-04-25T15:43:42.035Z</time></trkpt><trkpt lat="45.2425089" lon="8.7464254"><ele>104.66666666666666</ele><time>2026-04-25T15:43:43.034Z</time></trkpt><trkpt lat="45.2425599" lon="8.746333"><ele>104.5</ele><time>2026-04-25T15:43:44.034Z</time></trkpt><trkpt lat="45.2426251" lon="8.7462334"><ele>104.33333333333333</ele><time>2026-04-25T15:43:45.034Z</time></trkpt><trkpt lat="45.2426941" lon="8.7461616"><ele>104.16666666666666</ele><time>2026-04-25T15:43:46.034Z</time></trkpt><trkpt lat="45.2427727" lon="8.7461066"><ele>104.0</ele><time>2026-04-25T15:43:47.035Z</time></trkpt><trkpt lat="45.2428612" lon="8.7460516"><ele>104.4</ele><time>2026-04-25T15:43:48.035Z</time></trkpt><trkpt lat="45.2429464" lon="8.7460163"><ele>104.80000000000001</ele><time>2026-04-25T15:43:49.035Z</time></trkpt><trkpt lat="45.2430358" lon="8.7459796"><ele>105.19999999999999</ele><time>2026-04-25T15:43:50.035Z</time></trkpt><trkpt lat="45.2431315" lon="8.7459378"><ele>105.6</ele><time>2026-04-25T15:43:51.035Z</time></trkpt><trkpt lat="45.2432242" lon="8.7458953"><ele>106.0</ele><time>2026-04-25T15:43:52.036Z</time></trkpt><trkpt lat="45.2433124" lon="8.7458606"><ele>106.19999999999999</ele><time>2026-04-25T15:43:53.036Z</time></trkpt><trkpt lat="45.243405" lon="8.7458223"><ele>106.39999999999999</ele><time>2026-04-25T15:43:54.035Z</time></trkpt><trkpt lat="45.2434973" lon="8.7457835"><ele>106.6</ele><time>2026-04-25T15:43:55.035Z</time></trkpt><trkpt lat="45.2435929" lon="8.7457403"><ele>106.8</ele><time>2026-04-25T15:43:56.034Z</time></trkpt><trkpt lat="45.2436952" lon="8.745687"><ele>107.0</ele><time>2026-04-25T15:43:57.034Z</time></trkpt><trkpt lat="45.2437922" lon="8.7456457"><ele>106.99999999999999</ele><time>2026-04-25T15:43:58.036Z</time></trkpt><trkpt lat="45.2438818" lon="8.7456115"><ele>107.0</ele><time>2026-04-25T15:43:59.034Z</time></trkpt><trkpt lat="45.243969" lon="8.7455917"><ele>107.0</ele><time>2026-04-25T15:44:00.034Z</time></trkpt><trkpt lat="45.2440512" lon="8.7455557"><ele>107.0</ele><time>2026-04-25T15:44:01.035Z</time></trkpt><trkpt lat="45.2441182" lon="8.745516"><ele>106.99999999999999</ele><time>2026-04-25T15:44:02.035Z</time></trkpt><trkpt lat="45.2441968" lon="8.745481"><ele>107.0</ele><time>2026-04-25T15:44:03.034Z</time></trkpt><trkpt lat="45.2442783" lon="8.7454622"><ele>106.66666666666666</ele><time>2026-04-25T15:44:04.035Z</time></trkpt><trkpt lat="45.2443524" lon="8.7454264"><ele>106.33333333333333</ele><time>2026-04-25T15:44:05.035Z</time></trkpt><trkpt lat="45.2444295" lon="8.7453927"><ele>106.0</ele><time>2026-04-25T15:44:06.034Z</time></trkpt><trkpt lat="45.2445095" lon="8.7453594"><ele>105.66666666666666</ele><time>2026-04-25T15:44:07.035Z</time></trkpt><trkpt lat="45.2445932" lon="8.7453222"><ele>105.33333333333333</ele><time>2026-04-25T15:44:08.035Z</time></trkpt><trkpt lat="45.2446849" lon="8.745283"><ele>105.0</ele><time>2026-04-25T15:44:09.035Z</time></trkpt><trkpt lat="45.2447877" lon="8.7452409"><ele>105.2</ele><time>2026-04-25T15:44:10.036Z</time></trkpt><trkpt lat="45.2448888" lon="8.7451982"><ele>105.4</ele><time>2026-04-25T15:44:11.036Z</time></trkpt><trkpt lat="45.2449849" lon="8.7451505"><ele>105.6</ele><time>2026-04-25T15:44:12.034Z</time></trkpt><trkpt lat="45.2450915" lon="8.7451072"><ele>105.8</ele><time>2026-04-25T15:44:13.035Z</time></trkpt><trkpt lat="45.2451932" lon="8.7450609"><ele>106.0</ele><time>2026-04-25T15:44:14.034Z</time></trkpt><trkpt lat="45.2452986" lon="8.7450184"><ele>106.0</ele><time>2026-04-25T15:44:15.034Z</time></trkpt><trkpt lat="45.2454026" lon="8.7449789"><ele>106.0</ele><time>2026-04-25T15:44:16.036Z</time></trkpt><trkpt lat="45.2455071" lon="8.7449284"><ele>106.0</ele><time>2026-04-25T15:44:17.034Z</time></trkpt><trkpt lat="45.2456084" lon="8.7448839"><ele>106.0</ele><time>2026-04-25T15:44:18.034Z</time></trkpt><trkpt lat="45.2457087" lon="8.7448413"><ele>106.0</ele><time>2026-04-25T15:44:19.034Z</time></trkpt><trkpt lat="45.2458052" lon="8.7447991"><ele>106.4</ele><time>2026-04-25T15:44:20.035Z</time></trkpt><trkpt lat="45.245904" lon="8.744762"><ele>106.8</ele><time>2026-04-25T15:44:21.035Z</time></trkpt><trkpt lat="45.246002" lon="8.7447242"><ele>107.20000000000002</ele><time>2026-04-25T15:44:22.035Z</time></trkpt><trkpt lat="45.2461014" lon="8.7446779"><ele>107.60000000000001</ele><time>2026-04-25T15:44:23.035Z</time></trkpt><trkpt lat="45.2462009" lon="8.744644"><ele>108.0</ele><time>2026-04-25T15:44:24.035Z</time></trkpt><trkpt lat="45.2463001" lon="8.7446015"><ele>108.0</ele><time>2026-04-25T15:44:25.036Z</time></trkpt><trkpt lat="45.2463912" lon="8.7445659"><ele>108.00000000000001</ele><time>2026-04-25T15:44:26.034Z</time></trkpt><trkpt lat="45.2464682" lon="8.7445359"><ele>108.00000000000001</ele><time>2026-04-25T15:44:27.035Z</time></trkpt><trkpt lat="45.2465393" lon="8.7445074"><ele>108.0</ele><time>2026-04-25T15:44:28.035Z</time></trkpt><trkpt lat="45.2466476" lon="8.7444576"><ele>108.0</ele><time>2026-04-25T15:44:30.034Z</time></trkpt><trkpt lat="45.2467537" lon="8.7444103"><ele>108.4</ele><time>2026-04-25T15:44:32.034Z</time></trkpt><trkpt lat="45.2468229" lon="8.7443844"><ele>108.80000000000001</ele><time>2026-04-25T15:44:33.034Z</time></trkpt><trkpt lat="45.2469077" lon="8.7443583"><ele>109.2</ele><time>2026-04-25T15:44:34.035Z</time></trkpt><trkpt lat="45.2470012" lon="8.7443229"><ele>109.6</ele><time>2026-04-25T15:44:35.034Z</time></trkpt><trkpt lat="45.2471" lon="8.7442843"><ele>110.0</ele><time>2026-04-25T15:44:36.034Z</time></trkpt><trkpt lat="45.2472016" lon="8.7442384"><ele>110.4</ele><time>2026-04-25T15:44:37.035Z</time></trkpt><trkpt lat="45.2473035" lon="8.7441964"><ele>110.8</ele><time>2026-04-25T15:44:38.033Z</time></trkpt><trkpt lat="45.2474021" lon="8.744161"><ele>111.19999999999999</ele><time>2026-04-25T15:44:39.035Z</time></trkpt><trkpt lat="45.2474955" lon="8.7441175"><ele>111.6</ele><time>2026-04-25T15:44:40.035Z</time></trkpt><trkpt lat="45.2475991" lon="8.7440694"><ele>112.0</ele><time>2026-04-25T15:44:41.035Z</time></trkpt><trkpt lat="45.2477038" lon="8.7440224"><ele>112.0</ele><time>2026-04-25T15:44:42.035Z</time></trkpt><trkpt lat="45.2478068" lon="8.7439792"><ele>111.99999999999999</ele><time>2026-04-25T15:44:43.034Z</time></trkpt><trkpt lat="45.2479099" lon="8.7439433"><ele>111.99999999999999</ele><time>2026-04-25T15:44:44.035Z</time></trkpt><trkpt lat="45.2480153" lon="8.7438982"><ele>112.0</ele><time>2026-04-25T15:44:45.034Z</time></trkpt><trkpt lat="45.2481132" lon="8.7438552"><ele>112.0</ele><time>2026-04-25T15:44:46.035Z</time></trkpt><trkpt lat="45.2482108" lon="8.7438204"><ele>111.6</ele><time>2026-04-25T15:44:47.034Z</time></trkpt><trkpt lat="45.2483103" lon="8.7437757"><ele>111.19999999999999</ele><time>2026-04-25T15:44:48.034Z</time></trkpt><trkpt lat="45.2484032" lon="8.7437214"><ele>110.8</ele><time>2026-04-25T15:44:49.035Z</time></trkpt><trkpt lat="45.2484941" lon="8.7436841"><ele>110.4</ele><time>2026-04-25T15:44:50.035Z</time></trkpt><trkpt lat="45.2485901" lon="8.7436461"><ele>110.0</ele><time>2026-04-25T15:44:51.034Z</time></trkpt><trkpt lat="45.2486841" lon="8.7436039"><ele>110.0</ele><time>2026-04-25T15:44:52.034Z</time></trkpt><trkpt lat="45.2487613" lon="8.7435676"><ele>110.0</ele><time>2026-04-25T15:44:53.034Z</time></trkpt><trkpt lat="45.2488372" lon="8.7435402"><ele>110.0</ele><time>2026-04-25T15:44:54.034Z</time></trkpt><trkpt lat="45.2489442" lon="8.743488"><ele>110.0</ele><time>2026-04-25T15:44:56.034Z</time></trkpt><trkpt lat="45.2490356" lon="8.7434527"><ele>110.0</ele><time>2026-04-25T15:44:58.035Z</time></trkpt><trkpt lat="45.2491442" lon="8.7434568"><ele>109.6</ele><time>2026-04-25T15:45:00.035Z</time></trkpt><trkpt lat="45.2492589" lon="8.7434938"><ele>109.2</ele><time>2026-04-25T15:45:02.034Z</time></trkpt><trkpt lat="45.2493704" lon="8.743432"><ele>108.80000000000001</ele><time>2026-04-25T15:45:04.035Z</time></trkpt><trkpt lat="45.2494119" lon="8.743356"><ele>108.4</ele><time>2026-04-25T15:45:05.035Z</time></trkpt><trkpt lat="45.2494573" lon="8.7432854"><ele>108.0</ele><time>2026-04-25T15:45:06.034Z</time></trkpt><trkpt lat="45.2495562" lon="8.7431843"><ele>108.0</ele><time>2026-04-25T15:45:08.034Z</time></trkpt><trkpt lat="45.2496706" lon="8.7431357"><ele>108.0</ele><time>2026-04-25T15:45:10.035Z</time></trkpt><trkpt lat="45.2497397" lon="8.7431208"><ele>108.0</ele><time>2026-04-25T15:45:11.035Z</time></trkpt><trkpt lat="45.2498187" lon="8.7431096"><ele>108.0</ele><time>2026-04-25T15:45:12.035Z</time></trkpt><trkpt lat="45.2498931" lon="8.7430997"><ele>108.0</ele><time>2026-04-25T15:45:13.035Z</time></trkpt><trkpt lat="45.2499826" lon="8.7430988"><ele>108.0</ele><time>2026-04-25T15:45:14.035Z</time></trkpt><trkpt lat="45.2500683" lon="8.7430975"><ele>107.83333333333333</ele><time>2026-04-25T15:45:15.033Z</time></trkpt><trkpt lat="45.2501546" lon="8.7430818"><ele>107.66666666666666</ele><time>2026-04-25T15:45:16.035Z</time></trkpt><trkpt lat="45.2502486" lon="8.7430703"><ele>107.5</ele><time>2026-04-25T15:45:17.034Z</time></trkpt><trkpt lat="45.2503358" lon="8.7430683"><ele>107.33333333333333</ele><time>2026-04-25T15:45:18.035Z</time></trkpt><trkpt lat="45.250419" lon="8.7430677"><ele>107.16666666666666</ele><time>2026-04-25T15:45:19.035Z</time></trkpt><trkpt lat="45.2505007" lon="8.7430558"><ele>107.0</ele><time>2026-04-25T15:45:20.035Z</time></trkpt><trkpt lat="45.2505755" lon="8.7430473"><ele>106.83333333333333</ele><time>2026-04-25T15:45:21.034Z</time></trkpt><trkpt lat="45.2506494" lon="8.7430265"><ele>106.66666666666666</ele><time>2026-04-25T15:45:22.033Z</time></trkpt><trkpt lat="45.2507184" lon="8.7429839"><ele>106.5</ele><time>2026-04-25T15:45:23.035Z</time></trkpt><trkpt lat="45.2507789" lon="8.742927"><ele>106.33333333333334</ele><time>2026-04-25T15:45:24.034Z</time></trkpt><trkpt lat="45.2508459" lon="8.7428898"><ele>106.16666666666667</ele><time>2026-04-25T15:45:25.034Z</time></trkpt><trkpt lat="45.2509171" lon="8.7428495"><ele>106.0</ele><time>2026-04-25T15:45:26.035Z</time></trkpt><trkpt lat="45.2509962" lon="8.7428008"><ele>106.0</ele><time>2026-04-25T15:45:27.034Z</time></trkpt><trkpt lat="45.2511749" lon="8.7427402"><ele>106.0</ele><time>2026-04-25T15:45:29.034Z</time></trkpt><trkpt lat="45.2512658" lon="8.7427059"><ele>106.0</ele><time>2026-04-25T15:45:30.035Z</time></trkpt><trkpt lat="45.2513713" lon="8.7426953"><ele>106.0</ele><time>2026-04-25T15:45:31.034Z</time></trkpt><trkpt lat="45.2514786" lon="8.7426812"><ele>106.4</ele><time>2026-04-25T15:45:32.034Z</time></trkpt><trkpt lat="45.2515858" lon="8.7426716"><ele>106.8</ele><time>2026-04-25T15:45:33.033Z</time></trkpt><trkpt lat="45.2517041" lon="8.7426655"><ele>107.20000000000002</ele><time>2026-04-25T15:45:34.034Z</time></trkpt><trkpt lat="45.251812" lon="8.7426583"><ele>107.60000000000001</ele><time>2026-04-25T15:45:35.034Z</time></trkpt><trkpt lat="45.2519149" lon="8.7426464"><ele>108.0</ele><time>2026-04-25T15:45:36.035Z</time></trkpt><trkpt lat="45.2520186" lon="8.7426307"><ele>108.0</ele><time>2026-04-25T15:45:37.034Z</time></trkpt><trkpt lat="45.2521315" lon="8.7426074"><ele>108.00000000000001</ele><time>2026-04-25T15:45:38.033Z</time></trkpt><trkpt lat="45.2522273" lon="8.7425903"><ele>108.00000000000001</ele><time>2026-04-25T15:45:39.034Z</time></trkpt><trkpt lat="45.2523357" lon="8.7425754"><ele>108.0</ele><time>2026-04-25T15:45:40.033Z</time></trkpt><trkpt lat="45.2524384" lon="8.7425527"><ele>108.0</ele><time>2026-04-25T15:45:41.035Z</time></trkpt><trkpt lat="45.2525634" lon="8.7425269"><ele>108.16666666666667</ele><time>2026-04-25T15:45:42.034Z</time></trkpt><trkpt lat="45.2526667" lon="8.7425175"><ele>108.33333333333334</ele><time>2026-04-25T15:45:43.033Z</time></trkpt><trkpt lat="45.2527729" lon="8.7425075"><ele>108.5</ele><time>2026-04-25T15:45:44.035Z</time></trkpt><trkpt lat="45.2528427" lon="8.7425028"><ele>108.66666666666667</ele><time>2026-04-25T15:45:45.035Z</time></trkpt><trkpt lat="45.2529303" lon="8.7425043"><ele>108.83333333333334</ele><time>2026-04-25T15:45:46.034Z</time></trkpt><trkpt lat="45.2529938" lon="8.7424965"><ele>109.0</ele><time>2026-04-25T15:45:47.034Z</time></trkpt><trkpt lat="45.2530874" lon="8.7425064"><ele>108.83333333333334</ele><time>2026-04-25T15:45:49.034Z</time></trkpt><trkpt lat="45.2531685" lon="8.7425357"><ele>108.66666666666667</ele><time>2026-04-25T15:45:51.035Z</time></trkpt><trkpt lat="45.2532296" lon="8.7425577"><ele>108.5</ele><time>2026-04-25T15:45:53.035Z</time></trkpt><trkpt lat="45.2533012" lon="8.7425849"><ele>108.33333333333334</ele><time>2026-04-25T15:45:56.034Z</time></trkpt><trkpt lat="45.253356" lon="8.7426376"><ele>108.16666666666667</ele><time>2026-04-25T15:45:59.035Z</time></trkpt><trkpt lat="45.2534307" lon="8.7427144"><ele>108.0</ele><time>2026-04-25T15:46:02.033Z</time></trkpt><trkpt lat="45.2534818" lon="8.7427882"><ele>108.0</ele><time>2026-04-25T15:46:04.035Z</time></trkpt><trkpt lat="45.2535533" lon="8.7428684"><ele>108.00000000000001</ele><time>2026-04-25T15:46:06.033Z</time></trkpt><trkpt lat="45.2536311" lon="8.7428418"><ele>108.00000000000001</ele><time>2026-04-25T15:46:08.034Z</time></trkpt><trkpt lat="45.253637" lon="8.7427027"><ele>108.0</ele><time>2026-04-25T15:46:10.035Z</time></trkpt><trkpt lat="45.2535809" lon="8.7425511"><ele>108.0</ele><time>2026-04-25T15:46:12.034Z</time></trkpt><trkpt lat="45.2535587" lon="8.7424545"><ele>108.0</ele><time>2026-04-25T15:46:13.032Z</time></trkpt><trkpt lat="45.2535328" lon="8.7423429"><ele>108.0</ele><time>2026-04-25T15:46:14.034Z</time></trkpt><trkpt lat="45.253516" lon="8.7422288"><ele>108.0</ele><time>2026-04-25T15:46:15.032Z</time></trkpt><trkpt lat="45.2534963" lon="8.7421173"><ele>108.0</ele><time>2026-04-25T15:46:16.035Z</time></trkpt><trkpt lat="45.2534724" lon="8.7419981"><ele>108.0</ele><time>2026-04-25T15:46:17.034Z</time></trkpt><trkpt lat="45.2534508" lon="8.7418727"><ele>108.0</ele><time>2026-04-25T15:46:18.033Z</time></trkpt><trkpt lat="45.2534347" lon="8.7417411"><ele>107.83333333333333</ele><time>2026-04-25T15:46:19.035Z</time></trkpt><trkpt lat="45.2534128" lon="8.7416189"><ele>107.66666666666666</ele><time>2026-04-25T15:46:20.033Z</time></trkpt><trkpt lat="45.2533883" lon="8.7414929"><ele>107.5</ele><time>2026-04-25T15:46:21.033Z</time></trkpt><trkpt lat="45.2533655" lon="8.7413694"><ele>107.33333333333333</ele><time>2026-04-25T15:46:22.034Z</time></trkpt><trkpt lat="45.25335" lon="8.741247"><ele>107.16666666666666</ele><time>2026-04-25T15:46:23.032Z</time></trkpt><trkpt lat="45.2533371" lon="8.7411412"><ele>107.0</ele><time>2026-04-25T15:46:24.035Z</time></trkpt><trkpt lat="45.2533211" lon="8.7410387"><ele>107.39999999999999</ele><time>2026-04-25T15:46:25.033Z</time></trkpt><trkpt lat="45.2533066" lon="8.7409433"><ele>107.79999999999998</ele><time>2026-04-25T15:46:26.034Z</time></trkpt><trkpt lat="45.2532991" lon="8.7408504"><ele>108.2</ele><time>2026-04-25T15:46:27.033Z</time></trkpt><trkpt lat="45.2532697" lon="8.7406843"><ele>108.6</ele><time>2026-04-25T15:46:29.034Z</time></trkpt><trkpt lat="45.2532417" lon="8.7405446"><ele>109.0</ele><time>2026-04-25T15:46:31.034Z</time></trkpt><trkpt lat="45.253224" lon="8.7404146"><ele>109.0</ele><time>2026-04-25T15:46:33.034Z</time></trkpt><trkpt lat="45.2531935" lon="8.7402633"><ele>109.0</ele><time>2026-04-25T15:46:35.035Z</time></trkpt><trkpt lat="45.2531607" lon="8.7401065"><ele>109.0</ele><time>2026-04-25T15:46:37.033Z</time></trkpt><trkpt lat="45.2531258" lon="8.7399342"><ele>109.0</ele><time>2026-04-25T15:46:39.035Z</time></trkpt><trkpt lat="45.2531064" lon="8.7398482"><ele>109.0</ele><time>2026-04-25T15:46:40.034Z</time></trkpt><trkpt lat="45.2530692" lon="8.739716"><ele>109.80000000000001</ele><time>2026-04-25T15:46:42.035Z</time></trkpt><trkpt lat="45.2530414" lon="8.7395869"><ele>110.60000000000001</ele><time>2026-04-25T15:46:44.034Z</time></trkpt><trkpt lat="45.2530145" lon="8.7394252"><ele>111.4</ele><time>2026-04-25T15:46:46.035Z</time></trkpt><trkpt lat="45.2530006" lon="8.739274"><ele>112.2</ele><time>2026-04-25T15:46:48.035Z</time></trkpt><trkpt lat="45.2529815" lon="8.7391087"><ele>113.0</ele><time>2026-04-25T15:46:50.035Z</time></trkpt><trkpt lat="45.2529566" lon="8.7389462"><ele>113.0</ele><time>2026-04-25T15:46:52.035Z</time></trkpt><trkpt lat="45.2529338" lon="8.7388059"><ele>113.00000000000001</ele><time>2026-04-25T15:46:54.035Z</time></trkpt><trkpt lat="45.2529067" lon="8.7386706"><ele>113.00000000000001</ele><time>2026-04-25T15:46:56.035Z</time></trkpt><trkpt lat="45.2528779" lon="8.7385275"><ele>113.0</ele><time>2026-04-25T15:46:58.035Z</time></trkpt><trkpt lat="45.2528524" lon="8.7383663"><ele>113.0</ele><time>2026-04-25T15:47:00.035Z</time></trkpt><trkpt lat="45.2528349" lon="8.7382795"><ele>112.83333333333333</ele><time>2026-04-25T15:47:01.034Z</time></trkpt><trkpt lat="45.2528189" lon="8.7381907"><ele>112.66666666666666</ele><time>2026-04-25T15:47:02.035Z</time></trkpt><trkpt lat="45.2528033" lon="8.738099"><ele>112.5</ele><time>2026-04-25T15:47:03.034Z</time></trkpt><trkpt lat="45.2527871" lon="8.7380029"><ele>112.33333333333334</ele><time>2026-04-25T15:47:04.035Z</time></trkpt><trkpt lat="45.2527485" lon="8.7378622"><ele>112.16666666666667</ele><time>2026-04-25T15:47:06.034Z</time></trkpt><trkpt lat="45.2527177" lon="8.7377637"><ele>112.0</ele><time>2026-04-25T15:47:08.035Z</time></trkpt><trkpt lat="45.2527145" lon="8.7376598"><ele>112.0</ele><time>2026-04-25T15:47:10.035Z</time></trkpt><trkpt lat="45.252727" lon="8.7375413"><ele>111.99999999999999</ele><time>2026-04-25T15:47:12.035Z</time></trkpt><trkpt lat="45.2526931" lon="8.7373952"><ele>111.99999999999999</ele><time>2026-04-25T15:47:14.034Z</time></trkpt><trkpt lat="45.2526732" lon="8.737234"><ele>112.0</ele><time>2026-04-25T15:47:16.035Z</time></trkpt><trkpt lat="45.2526535" lon="8.7370672"><ele>112.0</ele><time>2026-04-25T15:47:18.034Z</time></trkpt><trkpt lat="45.2526365" lon="8.7369135"><ele>112.19999999999999</ele><time>2026-04-25T15:47:20.034Z</time></trkpt><trkpt lat="45.2526149" lon="8.736828"><ele>112.39999999999999</ele><time>2026-04-25T15:47:21.034Z</time></trkpt><trkpt lat="45.2525858" lon="8.736675"><ele>112.60000000000001</ele><time>2026-04-25T15:47:23.035Z</time></trkpt><trkpt lat="45.2525579" lon="8.736517"><ele>112.80000000000001</ele><time>2026-04-25T15:47:25.035Z</time></trkpt><trkpt lat="45.2525284" lon="8.7363563"><ele>113.0</ele><time>2026-04-25T15:47:27.033Z</time></trkpt><trkpt lat="45.2525391" lon="8.7362035"><ele>113.0</ele><time>2026-04-25T15:47:29.035Z</time></trkpt><trkpt lat="45.252514" lon="8.7360567"><ele>113.00000000000001</ele><time>2026-04-25T15:47:31.035Z</time></trkpt><trkpt lat="45.2524931" lon="8.7359631"><ele>113.00000000000001</ele><time>2026-04-25T15:47:32.034Z</time></trkpt><trkpt lat="45.2524395" lon="8.7358383"><ele>113.0</ele><time>2026-04-25T15:47:34.035Z</time></trkpt><trkpt lat="45.2523589" lon="8.7357197"><ele>113.0</ele><time>2026-04-25T15:47:36.034Z</time></trkpt><trkpt lat="45.2523008" lon="8.735671"><ele>112.4</ele><time>2026-04-25T15:47:37.034Z</time></trkpt><trkpt lat="45.2521812" lon="8.7355522"><ele>111.80000000000001</ele><time>2026-04-25T15:47:39.033Z</time></trkpt><trkpt lat="45.2521208" lon="8.7354511"><ele>111.2</ele><time>2026-04-25T15:47:41.034Z</time></trkpt><trkpt lat="45.252042" lon="8.7354075"><ele>110.6</ele><time>2026-04-25T15:47:43.034Z</time></trkpt><trkpt lat="45.2519776" lon="8.7353772"><ele>110.0</ele><time>2026-04-25T15:47:54.034Z</time></trkpt><trkpt lat="45.2519214" lon="8.7354197"><ele>109.99999999999999</ele><time>2026-04-25T15:47:56.034Z</time></trkpt><trkpt lat="45.2519071" lon="8.7355093"><ele>110.0</ele><time>2026-04-25T15:47:57.035Z</time></trkpt><trkpt lat="45.2518713" lon="8.7356593"><ele>110.0</ele><time>2026-04-25T15:47:59.034Z</time></trkpt><trkpt lat="45.2518311" lon="8.7357939"><ele>110.0</ele><time>2026-04-25T15:48:01.035Z</time></trkpt><trkpt lat="45.2518432" lon="8.7358851"><ele>109.99999999999999</ele><time>2026-04-25T15:48:02.034Z</time></trkpt><trkpt lat="45.2518275" lon="8.7360308"><ele>110.0</ele><time>2026-04-25T15:48:04.034Z</time></trkpt><trkpt lat="45.2518088" lon="8.7361675"><ele>110.2</ele><time>2026-04-25T15:48:06.034Z</time></trkpt><trkpt lat="45.2518068" lon="8.7363175"><ele>110.4</ele><time>2026-04-25T15:48:08.034Z</time></trkpt><trkpt lat="45.251803" lon="8.7364734"><ele>110.6</ele><time>2026-04-25T15:48:10.034Z</time></trkpt><trkpt lat="45.2518059" lon="8.7366481"><ele>110.8</ele><time>2026-04-25T15:48:12.034Z</time></trkpt><trkpt lat="45.2518168" lon="8.7367474"><ele>111.0</ele><time>2026-04-25T15:48:13.033Z</time></trkpt><trkpt lat="45.2518203" lon="8.7369163"><ele>111.0</ele><time>2026-04-25T15:48:15.033Z</time></trkpt><trkpt lat="45.2518168" lon="8.737067"><ele>111.0</ele><time>2026-04-25T15:48:17.034Z</time></trkpt><trkpt lat="45.2518276" lon="8.7372336"><ele>111.0</ele><time>2026-04-25T15:48:19.034Z</time></trkpt><trkpt lat="45.251813" lon="8.7373854"><ele>111.0</ele><time>2026-04-25T15:48:21.034Z</time></trkpt><trkpt lat="45.2517708" lon="8.7375223"><ele>111.0</ele><time>2026-04-25T15:48:23.034Z</time></trkpt><trkpt lat="45.2517302" lon="8.7376314"><ele>111.0</ele><time>2026-04-25T15:48:25.035Z</time></trkpt><trkpt lat="45.2516976" lon="8.7377723"><ele>111.0</ele><time>2026-04-25T15:48:27.034Z</time></trkpt><trkpt lat="45.2516457" lon="8.737892"><ele>111.0</ele><time>2026-04-25T15:48:29.032Z</time></trkpt><trkpt lat="45.2516128" lon="8.7379895"><ele>111.0</ele><time>2026-04-25T15:48:31.033Z</time></trkpt><trkpt lat="45.2515753" lon="8.738071"><ele>111.0</ele><time>2026-04-25T15:48:33.033Z</time></trkpt><trkpt lat="45.2515245" lon="8.7381467"><ele>111.0</ele><time>2026-04-25T15:48:36.034Z</time></trkpt><trkpt lat="45.2514664" lon="8.7382059"><ele>111.0</ele><time>2026-04-25T15:48:41.034Z</time></trkpt><trkpt lat="45.2514173" lon="8.7381039"><ele>111.0</ele><time>2026-04-25T15:48:58.041Z</time></trkpt><trkpt lat="45.2515751" lon="8.7380537"><ele>111.0</ele><time>2026-04-25T15:48:59.041Z</time></trkpt><trkpt lat="45.2514547" lon="8.7382098"><ele>111.0</ele><time>2026-04-25T15:49:02.041Z</time></trkpt><trkpt lat="45.2513998" lon="8.7382633"><ele>111.0</ele><time>2026-04-25T15:50:59.034Z</time></trkpt><trkpt lat="45.2513676" lon="8.7383429"><ele>111.0</ele><time>2026-04-25T15:51:07.034Z</time></trkpt><trkpt lat="45.2513108" lon="8.7383897"><ele>111.0</ele><time>2026-04-25T15:51:15.033Z</time></trkpt><trkpt lat="45.2512933" lon="8.7383026"><ele>111.0</ele><time>2026-04-25T15:55:32.031Z</time></trkpt><trkpt lat="45.251338" lon="8.7382289"><ele>111.0</ele><time>2026-04-25T15:55:37.031Z</time></trkpt><trkpt lat="45.2513157" lon="8.7381379"><ele>111.0</ele><time>2026-04-25T15:55:42.032Z</time></trkpt><trkpt lat="45.2513704" lon="8.7380752"><ele>111.0</ele><time>2026-04-25T15:55:50.031Z</time></trkpt><trkpt lat="45.2514547" lon="8.7381085"><ele>111.0</ele><time>2026-04-25T15:55:57.032Z</time></trkpt><trkpt lat="45.2515111" lon="8.7380524"><ele>111.0</ele><time>2026-04-25T15:56:24.031Z</time></trkpt><trkpt lat="45.2515587" lon="8.7379663"><ele>111.0</ele><time>2026-04-25T15:56:28.032Z</time></trkpt><trkpt lat="45.2515984" lon="8.7378766"><ele>111.0</ele><time>2026-04-25T15:56:33.081Z</time></trkpt><trkpt lat="45.2516429" lon="8.7377879"><ele>111.0</ele><time>2026-04-25T15:56:37.026Z</time></trkpt><trkpt lat="45.2517025" lon="8.7378171"><ele>111.0</ele><time>2026-04-25T15:56:43.032Z</time></trkpt><trkpt lat="45.2517629" lon="8.7378684"><ele>111.0</ele><time>2026-04-25T15:56:50.032Z</time></trkpt><trkpt lat="45.2518197" lon="8.7379209"><ele>111.0</ele><time>2026-04-25T15:56:57.033Z</time></trkpt><trkpt lat="45.2518887" lon="8.7379258"><ele>111.0</ele><time>2026-04-25T15:57:05.032Z</time></trkpt><trkpt lat="45.2519589" lon="8.7379148"><ele>111.0</ele><time>2026-04-25T15:57:12.031Z</time></trkpt><trkpt lat="45.2520325" lon="8.7379003"><ele>111.0</ele><time>2026-04-25T15:57:17.032Z</time></trkpt><trkpt lat="45.2520856" lon="8.737973"><ele>111.0</ele><time>2026-04-25T15:57:22.027Z</time></trkpt><trkpt lat="45.2521102" lon="8.7380598"><ele>111.0</ele><time>2026-04-25T15:57:23.934Z</time></trkpt><trkpt lat="45.2521207" lon="8.7381591"><ele>111.0</ele><time>2026-04-25T15:57:31.031Z</time></trkpt><trkpt lat="45.2521391" lon="8.7382478"><ele>111.0</ele><time>2026-04-25T15:57:37.03Z</time></trkpt><trkpt lat="45.2520705" lon="8.7382469"><ele>111.0</ele><time>2026-04-25T15:57:46.031Z</time></trkpt><trkpt lat="45.251996" lon="8.7382765"><ele>111.0</ele><time>2026-04-25T15:57:53.032Z</time></trkpt><trkpt lat="45.2519212" lon="8.7382833"><ele>111.0</ele><time>2026-04-25T15:57:57.037Z</time></trkpt><trkpt lat="45.2518568" lon="8.7382546"><ele>111.0</ele><time>2026-04-25T15:58:04.081Z</time></trkpt><trkpt lat="45.2517987" lon="8.7383075"><ele>111.0</ele><time>2026-04-25T16:09:53.028Z</time></trkpt><trkpt lat="45.2517225" lon="8.7383105"><ele>111.0</ele><time>2026-04-25T16:09:57.028Z</time></trkpt><trkpt lat="45.2516606" lon="8.7382806"><ele>111.0</ele><time>2026-04-25T16:10:00.028Z</time></trkpt><trkpt lat="45.2516439" lon="8.7383787"><ele>111.0</ele><time>2026-04-25T16:10:10.028Z</time></trkpt><trkpt lat="45.2516596" lon="8.738473"><ele>111.0</ele><time>2026-04-25T16:10:15.027Z</time></trkpt><trkpt lat="45.2516557" lon="8.7386007"><ele>111.0</ele><time>2026-04-25T16:10:21.027Z</time></trkpt><trkpt lat="45.2516623" lon="8.7387034"><ele>111.0</ele><time>2026-04-25T16:10:29.026Z</time></trkpt><trkpt lat="45.2516781" lon="8.7387925"><ele>111.0</ele><time>2026-04-25T16:10:36.028Z</time></trkpt><trkpt lat="45.2516942" lon="8.7388841"><ele>111.0</ele><time>2026-04-25T16:10:43.027Z</time></trkpt><trkpt lat="45.2516521" lon="8.7389533"><ele>111.14285714285714</ele><time>2026-04-25T16:10:52.998Z</time></trkpt><trkpt lat="45.2515734" lon="8.738934"><ele>111.28571428571429</ele><time>2026-04-25T16:11:02.027Z</time></trkpt><trkpt lat="45.2515063" lon="8.7389093"><ele>111.42857142857143</ele><time>2026-04-25T16:11:07.027Z</time></trkpt><trkpt lat="45.2514457" lon="8.7388815"><ele>111.57142857142857</ele><time>2026-04-25T16:11:13.027Z</time></trkpt><trkpt lat="45.2513796" lon="8.7388557"><ele>111.71428571428572</ele><time>2026-04-25T16:11:22.028Z</time></trkpt><trkpt lat="45.2513178" lon="8.7388296"><ele>111.85714285714286</ele><time>2026-04-25T16:11:30.026Z</time></trkpt><trkpt lat="45.2512617" lon="8.7387792"><ele>112.0</ele><time>2026-04-25T16:11:36.027Z</time></trkpt><trkpt lat="45.2512606" lon="8.7386837"><ele>112.0</ele><time>2026-04-25T16:11:43.027Z</time></trkpt><trkpt lat="45.2513012" lon="8.7385913"><ele>112.0</ele><time>2026-04-25T16:11:52.026Z</time></trkpt><trkpt lat="45.2513399" lon="8.7385132"><ele>112.0</ele><time>2026-04-25T16:11:57.027Z</time></trkpt><trkpt lat="45.2513769" lon="8.7384365"><ele>112.0</ele><time>2026-04-25T16:12:03.985Z</time></trkpt><trkpt lat="45.251401" lon="8.7383433"><ele>112.0</ele><time>2026-04-25T16:12:10.986Z</time></trkpt><trkpt lat="45.2513931" lon="8.7382529"><ele>112.0</ele><time>2026-04-25T16:12:18.027Z</time></trkpt><trkpt lat="45.2514398" lon="8.73817"><ele>112.0</ele><time>2026-04-25T16:14:33.026Z</time></trkpt><trkpt lat="45.251411" lon="8.7382842"><ele>112.00000000000001</ele><time>2026-04-25T16:17:02.026Z</time></trkpt><trkpt lat="45.2513442" lon="8.7383982"><ele>112.0</ele><time>2026-04-25T16:17:04.026Z</time></trkpt><trkpt lat="45.2513208" lon="8.7385023"><ele>112.0</ele><time>2026-04-25T16:17:05.024Z</time></trkpt><trkpt lat="45.2512968" lon="8.7385861"><ele>112.0</ele><time>2026-04-25T16:17:06.025Z</time></trkpt><trkpt lat="45.2512483" lon="8.7387049"><ele>112.00000000000001</ele><time>2026-04-25T16:17:08.024Z</time></trkpt><trkpt lat="45.2511978" lon="8.7388024"><ele>112.0</ele><time>2026-04-25T16:17:10.026Z</time></trkpt><trkpt lat="45.2511437" lon="8.7389036"><ele>112.0</ele><time>2026-04-25T16:17:12.026Z</time></trkpt><trkpt lat="45.2510912" lon="8.7389991"><ele>111.99999999999999</ele><time>2026-04-25T16:17:14.026Z</time></trkpt><trkpt lat="45.2510263" lon="8.7390949"><ele>111.99999999999999</ele><time>2026-04-25T16:17:16.025Z</time></trkpt><trkpt lat="45.250964" lon="8.7392194"><ele>112.0</ele><time>2026-04-25T16:17:18.025Z</time></trkpt><trkpt lat="45.2509007" lon="8.7393457"><ele>112.0</ele><time>2026-04-25T16:17:20.025Z</time></trkpt><trkpt lat="45.2508436" lon="8.7394548"><ele>111.8</ele><time>2026-04-25T16:17:22.025Z</time></trkpt><trkpt lat="45.2507911" lon="8.7395756"><ele>111.6</ele><time>2026-04-25T16:17:24.026Z</time></trkpt><trkpt lat="45.2507526" lon="8.7397324"><ele>111.39999999999999</ele><time>2026-04-25T16:17:26.026Z</time></trkpt><trkpt lat="45.2507002" lon="8.7398676"><ele>111.19999999999999</ele><time>2026-04-25T16:17:28.024Z</time></trkpt><trkpt lat="45.2506593" lon="8.7400086"><ele>111.0</ele><time>2026-04-25T16:17:30.026Z</time></trkpt><trkpt lat="45.2506179" lon="8.7401218"><ele>111.19999999999999</ele><time>2026-04-25T16:17:32.026Z</time></trkpt><trkpt lat="45.2505592" lon="8.7402472"><ele>111.39999999999999</ele><time>2026-04-25T16:17:34.026Z</time></trkpt><trkpt lat="45.2504941" lon="8.7404228"><ele>111.6</ele><time>2026-04-25T16:17:36.026Z</time></trkpt><trkpt lat="45.2504538" lon="8.7405149"><ele>111.8</ele><time>2026-04-25T16:17:37.026Z</time></trkpt><trkpt lat="45.2504094" lon="8.7406134"><ele>112.0</ele><time>2026-04-25T16:17:38.025Z</time></trkpt><trkpt lat="45.250359" lon="8.7407205"><ele>112.0</ele><time>2026-04-25T16:17:39.026Z</time></trkpt><trkpt lat="45.2503204" lon="8.7408232"><ele>111.99999999999999</ele><time>2026-04-25T16:17:40.026Z</time></trkpt><trkpt lat="45.2502837" lon="8.7409036"><ele>111.99999999999999</ele><time>2026-04-25T16:17:41.026Z</time></trkpt><trkpt lat="45.2502371" lon="8.741029"><ele>112.0</ele><time>2026-04-25T16:17:43.026Z</time></trkpt><trkpt lat="45.2501735" lon="8.741139"><ele>112.0</ele><time>2026-04-25T16:17:45.026Z</time></trkpt><trkpt lat="45.2501249" lon="8.7412717"><ele>112.16666666666667</ele><time>2026-04-25T16:17:47.026Z</time></trkpt><trkpt lat="45.2500689" lon="8.7413829"><ele>112.33333333333334</ele><time>2026-04-25T16:17:49.026Z</time></trkpt><trkpt lat="45.2500204" lon="8.7414732"><ele>112.5</ele><time>2026-04-25T16:17:50.026Z</time></trkpt><trkpt lat="45.2499716" lon="8.7415586"><ele>112.66666666666666</ele><time>2026-04-25T16:17:51.025Z</time></trkpt><trkpt lat="45.2499157" lon="8.7416487"><ele>112.83333333333333</ele><time>2026-04-25T16:17:52.026Z</time></trkpt><trkpt lat="45.2498558" lon="8.7417327"><ele>113.0</ele><time>2026-04-25T16:17:53.026Z</time></trkpt><trkpt lat="45.2498132" lon="8.7418451"><ele>112.66666666666666</ele><time>2026-04-25T16:17:54.025Z</time></trkpt><trkpt lat="45.2497725" lon="8.7419653"><ele>112.33333333333333</ele><time>2026-04-25T16:17:55.026Z</time></trkpt><trkpt lat="45.2497278" lon="8.7420695"><ele>112.0</ele><time>2026-04-25T16:17:56.026Z</time></trkpt><trkpt lat="45.2497024" lon="8.7421895"><ele>111.66666666666666</ele><time>2026-04-25T16:17:57.026Z</time></trkpt><trkpt lat="45.2496502" lon="8.7422551"><ele>111.33333333333333</ele><time>2026-04-25T16:17:58.025Z</time></trkpt><trkpt lat="45.2496225" lon="8.7423381"><ele>111.0</ele><time>2026-04-25T16:17:59.025Z</time></trkpt><trkpt lat="45.2495818" lon="8.7424167"><ele>111.0</ele><time>2026-04-25T16:18:00.026Z</time></trkpt><trkpt lat="45.2495692" lon="8.7425237"><ele>111.0</ele><time>2026-04-25T16:18:01.025Z</time></trkpt><trkpt lat="45.2495209" lon="8.742597"><ele>111.0</ele><time>2026-04-25T16:18:02.026Z</time></trkpt><trkpt lat="45.2494312" lon="8.7427257"><ele>111.0</ele><time>2026-04-25T16:18:04.024Z</time></trkpt><trkpt lat="45.2493792" lon="8.7428495"><ele>111.0</ele><time>2026-04-25T16:18:06.024Z</time></trkpt><trkpt lat="45.2493485" lon="8.7429597"><ele>110.5</ele><time>2026-04-25T16:18:08.024Z</time></trkpt><trkpt lat="45.2492788" lon="8.7430533"><ele>110.0</ele><time>2026-04-25T16:18:10.026Z</time></trkpt><trkpt lat="45.2492301" lon="8.7431214"><ele>109.5</ele><time>2026-04-25T16:18:11.026Z</time></trkpt><trkpt lat="45.2491672" lon="8.7432035"><ele>109.0</ele><time>2026-04-25T16:18:12.025Z</time></trkpt><trkpt lat="45.2490989" lon="8.7432835"><ele>108.5</ele><time>2026-04-25T16:18:13.026Z</time></trkpt><trkpt lat="45.2490162" lon="8.7433587"><ele>108.0</ele><time>2026-04-25T16:18:14.026Z</time></trkpt><trkpt lat="45.2489246" lon="8.7434112"><ele>108.0</ele><time>2026-04-25T16:18:15.025Z</time></trkpt><trkpt lat="45.2488345" lon="8.7434557"><ele>108.00000000000001</ele><time>2026-04-25T16:18:16.026Z</time></trkpt><trkpt lat="45.248739" lon="8.7434948"><ele>108.00000000000001</ele><time>2026-04-25T16:18:17.025Z</time></trkpt><trkpt lat="45.2486368" lon="8.7435409"><ele>108.0</ele><time>2026-04-25T16:18:18.023Z</time></trkpt><trkpt lat="45.2485367" lon="8.7435997"><ele>108.0</ele><time>2026-04-25T16:18:19.025Z</time></trkpt><trkpt lat="45.2484328" lon="8.7436482"><ele>108.4</ele><time>2026-04-25T16:18:20.024Z</time></trkpt><trkpt lat="45.2483257" lon="8.7436999"><ele>108.80000000000001</ele><time>2026-04-25T16:18:21.026Z</time></trkpt><trkpt lat="45.2482255" lon="8.7437276"><ele>109.2</ele><time>2026-04-25T16:18:22.024Z</time></trkpt><trkpt lat="45.2481284" lon="8.7437729"><ele>109.6</ele><time>2026-04-25T16:18:23.024Z</time></trkpt><trkpt lat="45.2480325" lon="8.7438222"><ele>110.0</ele><time>2026-04-25T16:18:24.026Z</time></trkpt><trkpt lat="45.2479298" lon="8.7438641"><ele>110.4</ele><time>2026-04-25T16:18:25.026Z</time></trkpt><trkpt lat="45.2478359" lon="8.7438942"><ele>110.8</ele><time>2026-04-25T16:18:26.024Z</time></trkpt><trkpt lat="45.2477351" lon="8.7439445"><ele>111.19999999999999</ele><time>2026-04-25T16:18:27.026Z</time></trkpt><trkpt lat="45.2476348" lon="8.7439906"><ele>111.6</ele><time>2026-04-25T16:18:28.025Z</time></trkpt><trkpt lat="45.2475433" lon="8.7440272"><ele>112.0</ele><time>2026-04-25T16:18:29.025Z</time></trkpt><trkpt lat="45.2474392" lon="8.7440718"><ele>112.0</ele><time>2026-04-25T16:18:30.025Z</time></trkpt><trkpt lat="45.2473312" lon="8.7441053"><ele>111.99999999999999</ele><time>2026-04-25T16:18:31.025Z</time></trkpt><trkpt lat="45.2472389" lon="8.7441489"><ele>111.99999999999999</ele><time>2026-04-25T16:18:32.025Z</time></trkpt><trkpt lat="45.247129" lon="8.7442007"><ele>112.0</ele><time>2026-04-25T16:18:33.025Z</time></trkpt><trkpt lat="45.2470269" lon="8.7442424"><ele>112.0</ele><time>2026-04-25T16:18:34.026Z</time></trkpt><trkpt lat="45.2469364" lon="8.7442835"><ele>111.83333333333334</ele><time>2026-04-25T16:18:35.026Z</time></trkpt><trkpt lat="45.2468504" lon="8.744316"><ele>111.66666666666667</ele><time>2026-04-25T16:18:36.026Z</time></trkpt><trkpt lat="45.2467672" lon="8.7443403"><ele>111.5</ele><time>2026-04-25T16:18:37.026Z</time></trkpt><trkpt lat="45.2466951" lon="8.744379"><ele>111.33333333333334</ele><time>2026-04-25T16:18:38.024Z</time></trkpt><trkpt lat="45.2466202" lon="8.7444077"><ele>111.16666666666667</ele><time>2026-04-25T16:18:39.026Z</time></trkpt><trkpt lat="45.2465587" lon="8.7444343"><ele>111.0</ele><time>2026-04-25T16:18:40.026Z</time></trkpt><trkpt lat="45.2464881" lon="8.7444499"><ele>110.4</ele><time>2026-04-25T16:18:41.026Z</time></trkpt><trkpt lat="45.2464102" lon="8.7444874"><ele>109.8</ele><time>2026-04-25T16:18:42.025Z</time></trkpt><trkpt lat="45.24633" lon="8.7445221"><ele>109.20000000000002</ele><time>2026-04-25T16:18:43.026Z</time></trkpt><trkpt lat="45.2462387" lon="8.7445603"><ele>108.60000000000001</ele><time>2026-04-25T16:18:44.026Z</time></trkpt><trkpt lat="45.246139" lon="8.7446094"><ele>108.0</ele><time>2026-04-25T16:18:45.024Z</time></trkpt><trkpt lat="45.2460444" lon="8.7446468"><ele>108.0</ele><time>2026-04-25T16:18:46.025Z</time></trkpt><trkpt lat="45.2459353" lon="8.7446991"><ele>108.0</ele><time>2026-04-25T16:18:47.025Z</time></trkpt><trkpt lat="45.245817" lon="8.7447423"><ele>108.0</ele><time>2026-04-25T16:18:48.025Z</time></trkpt><trkpt lat="45.2457022" lon="8.7447806"><ele>108.0</ele><time>2026-04-25T16:18:49.024Z</time></trkpt><trkpt lat="45.2455797" lon="8.7448252"><ele>107.5</ele><time>2026-04-25T16:18:50.025Z</time></trkpt><trkpt lat="45.245456" lon="8.7448775"><ele>107.0</ele><time>2026-04-25T16:18:51.024Z</time></trkpt><trkpt lat="45.2453332" lon="8.7449242"><ele>106.5</ele><time>2026-04-25T16:18:52.026Z</time></trkpt><trkpt lat="45.2452098" lon="8.744981"><ele>106.0</ele><time>2026-04-25T16:18:53.024Z</time></trkpt><trkpt lat="45.2450806" lon="8.7450425"><ele>106.0</ele><time>2026-04-25T16:18:54.025Z</time></trkpt><trkpt lat="45.2449636" lon="8.7450906"><ele>106.0</ele><time>2026-04-25T16:18:55.025Z</time></trkpt><trkpt lat="45.2448596" lon="8.7451328"><ele>106.0</ele><time>2026-04-25T16:18:56.024Z</time></trkpt><trkpt lat="45.2447559" lon="8.7451883"><ele>106.0</ele><time>2026-04-25T16:18:57.025Z</time></trkpt><trkpt lat="45.2446543" lon="8.7452227"><ele>106.0</ele><time>2026-04-25T16:18:58.024Z</time></trkpt><trkpt lat="45.2445715" lon="8.7452506"><ele>105.8</ele><time>2026-04-25T16:18:59.026Z</time></trkpt><trkpt lat="45.2444995" lon="8.745291"><ele>105.6</ele><time>2026-04-25T16:19:00.025Z</time></trkpt><trkpt lat="45.2444108" lon="8.7453305"><ele>105.4</ele><time>2026-04-25T16:19:01.025Z</time></trkpt><trkpt lat="45.2442562" lon="8.7453825"><ele>105.2</ele><time>2026-04-25T16:19:03.025Z</time></trkpt><trkpt lat="45.2441596" lon="8.7454045"><ele>105.0</ele><time>2026-04-25T16:19:04.025Z</time></trkpt><trkpt lat="45.2440688" lon="8.7454424"><ele>105.0</ele><time>2026-04-25T16:19:05.025Z</time></trkpt><trkpt lat="45.2439935" lon="8.7454793"><ele>105.0</ele><time>2026-04-25T16:19:06.026Z</time></trkpt><trkpt lat="45.2439038" lon="8.7455206"><ele>105.0</ele><time>2026-04-25T16:19:07.024Z</time></trkpt><trkpt lat="45.2438196" lon="8.7455548"><ele>105.0</ele><time>2026-04-25T16:19:08.026Z</time></trkpt><trkpt lat="45.2437353" lon="8.7455948"><ele>105.0</ele><time>2026-04-25T16:19:09.025Z</time></trkpt><trkpt lat="45.2436414" lon="8.7456359"><ele>105.0</ele><time>2026-04-25T16:19:10.025Z</time></trkpt><trkpt lat="45.2435476" lon="8.745671"><ele>105.2</ele><time>2026-04-25T16:19:11.024Z</time></trkpt><trkpt lat="45.2434463" lon="8.7457134"><ele>105.4</ele><time>2026-04-25T16:19:12.024Z</time></trkpt><trkpt lat="45.2433372" lon="8.7457546"><ele>105.6</ele><time>2026-04-25T16:19:13.025Z</time></trkpt><trkpt lat="45.2432266" lon="8.7458135"><ele>105.8</ele><time>2026-04-25T16:19:14.026Z</time></trkpt><trkpt lat="45.2431213" lon="8.745858"><ele>106.0</ele><time>2026-04-25T16:19:15.025Z</time></trkpt><trkpt lat="45.2430293" lon="8.7458752"><ele>106.00000000000001</ele><time>2026-04-25T16:19:16.025Z</time></trkpt><trkpt lat="45.2429284" lon="8.7459096"><ele>106.0</ele><time>2026-04-25T16:19:17.025Z</time></trkpt><trkpt lat="45.2428426" lon="8.745931"><ele>106.0</ele><time>2026-04-25T16:19:18.025Z</time></trkpt><trkpt lat="45.2427754" lon="8.7459333"><ele>106.0</ele><time>2026-04-25T16:19:19.025Z</time></trkpt><trkpt lat="45.2426932" lon="8.7459393"><ele>106.00000000000001</ele><time>2026-04-25T16:19:21.024Z</time></trkpt><trkpt lat="45.2426286" lon="8.7459341"><ele>106.0</ele><time>2026-04-25T16:19:23.024Z</time></trkpt><trkpt lat="45.2425204" lon="8.7458798"><ele>106.00000000000001</ele><time>2026-04-25T16:19:25.024Z</time></trkpt><trkpt lat="45.2424527" lon="8.7458372"><ele>106.0</ele><time>2026-04-25T16:19:26.025Z</time></trkpt><trkpt lat="45.2423889" lon="8.7457668"><ele>106.0</ele><time>2026-04-25T16:19:27.025Z</time></trkpt><trkpt lat="45.2423507" lon="8.7456625"><ele>106.0</ele><time>2026-04-25T16:19:28.026Z</time></trkpt><trkpt lat="45.2423375" lon="8.7455323"><ele>106.00000000000001</ele><time>2026-04-25T16:19:29.026Z</time></trkpt><trkpt lat="45.2423255" lon="8.7454011"><ele>106.0</ele><time>2026-04-25T16:19:30.025Z</time></trkpt><trkpt lat="45.2423126" lon="8.7452685"><ele>106.19999999999999</ele><time>2026-04-25T16:19:31.026Z</time></trkpt><trkpt lat="45.2422904" lon="8.7451234"><ele>106.39999999999999</ele><time>2026-04-25T16:19:32.026Z</time></trkpt><trkpt lat="45.2422759" lon="8.7449899"><ele>106.6</ele><time>2026-04-25T16:19:33.025Z</time></trkpt><trkpt lat="45.2422519" lon="8.7448466"><ele>106.8</ele><time>2026-04-25T16:19:34.025Z</time></trkpt><trkpt lat="45.2422334" lon="8.7447036"><ele>107.0</ele><time>2026-04-25T16:19:35.026Z</time></trkpt><trkpt lat="45.242215" lon="8.7445485"><ele>107.0</ele><time>2026-04-25T16:19:36.024Z</time></trkpt><trkpt lat="45.242201" lon="8.7443993"><ele>107.0</ele><time>2026-04-25T16:19:37.025Z</time></trkpt><trkpt lat="45.2421838" lon="8.7442421"><ele>107.0</ele><time>2026-04-25T16:19:38.024Z</time></trkpt><trkpt lat="45.2421635" lon="8.7440782"><ele>107.0</ele><time>2026-04-25T16:19:39.025Z</time></trkpt><trkpt lat="45.2421477" lon="8.7439045"><ele>106.75</ele><time>2026-04-25T16:19:40.026Z</time></trkpt><trkpt lat="45.2421327" lon="8.7437307"><ele>106.5</ele><time>2026-04-25T16:19:41.025Z</time></trkpt><trkpt lat="45.2421169" lon="8.7435589"><ele>106.25</ele><time>2026-04-25T16:19:42.025Z</time></trkpt><trkpt lat="45.2421183" lon="8.7433748"><ele>106.0</ele><time>2026-04-25T16:19:43.024Z</time></trkpt><trkpt lat="45.242121" lon="8.7431885"><ele>106.0</ele><time>2026-04-25T16:19:44.026Z</time></trkpt><trkpt lat="45.2421372" lon="8.7430082"><ele>106.0</ele><time>2026-04-25T16:19:45.024Z</time></trkpt><trkpt lat="45.2421595" lon="8.7428296"><ele>106.0</ele><time>2026-04-25T16:19:46.023Z</time></trkpt><trkpt lat="45.2422021" lon="8.742661"><ele>106.0</ele><time>2026-04-25T16:19:47.025Z</time></trkpt><trkpt lat="45.2422426" lon="8.7424795"><ele>106.0</ele><time>2026-04-25T16:19:48.024Z</time></trkpt><trkpt lat="45.2422816" lon="8.7423038"><ele>106.0</ele><time>2026-04-25T16:19:49.026Z</time></trkpt><trkpt lat="45.2423245" lon="8.7421257"><ele>106.0</ele><time>2026-04-25T16:19:50.026Z</time></trkpt><trkpt lat="45.2423748" lon="8.7419563"><ele>106.0</ele><time>2026-04-25T16:19:51.025Z</time></trkpt><trkpt lat="45.2424317" lon="8.7417978"><ele>106.0</ele><time>2026-04-25T16:19:52.025Z</time></trkpt><trkpt lat="45.2424849" lon="8.7416319"><ele>106.0</ele><time>2026-04-25T16:19:53.025Z</time></trkpt><trkpt lat="45.2425439" lon="8.7414704"><ele>106.0</ele><time>2026-04-25T16:19:54.024Z</time></trkpt><trkpt lat="45.2425981" lon="8.7412969"><ele>106.0</ele><time>2026-04-25T16:19:55.025Z</time></trkpt><trkpt lat="45.2426514" lon="8.7411151"><ele>105.25</ele><time>2026-04-25T16:19:56.026Z</time></trkpt><trkpt lat="45.2427134" lon="8.7409496"><ele>104.5</ele><time>2026-04-25T16:19:57.025Z</time></trkpt><trkpt lat="45.2427769" lon="8.7407858"><ele>103.75</ele><time>2026-04-25T16:19:58.025Z</time></trkpt><trkpt lat="45.2428436" lon="8.74063"><ele>103.0</ele><time>2026-04-25T16:19:59.025Z</time></trkpt><trkpt lat="45.242903" lon="8.7404735"><ele>103.00000000000001</ele><time>2026-04-25T16:20:00.025Z</time></trkpt><trkpt lat="45.2429484" lon="8.7403288"><ele>103.0</ele><time>2026-04-25T16:20:01.024Z</time></trkpt><trkpt lat="45.2429898" lon="8.7402078"><ele>103.0</ele><time>2026-04-25T16:20:02.024Z</time></trkpt><trkpt lat="45.2430336" lon="8.7401158"><ele>103.0</ele><time>2026-04-25T16:20:03.025Z</time></trkpt><trkpt lat="45.243069" lon="8.740014"><ele>103.00000000000001</ele><time>2026-04-25T16:20:04.024Z</time></trkpt><trkpt lat="45.2431134" lon="8.7399293"><ele>103.0</ele><time>2026-04-25T16:20:05.024Z</time></trkpt><trkpt lat="45.2431566" lon="8.7398459"><ele>103.28571428571428</ele><time>2026-04-25T16:20:06.026Z</time></trkpt><trkpt lat="45.2432025" lon="8.739762"><ele>103.57142857142857</ele><time>2026-04-25T16:20:07.025Z</time></trkpt><trkpt lat="45.2432582" lon="8.7396893"><ele>103.85714285714286</ele><time>2026-04-25T16:20:08.026Z</time></trkpt><trkpt lat="45.2433259" lon="8.7396631"><ele>104.14285714285714</ele><time>2026-04-25T16:20:09.025Z</time></trkpt><trkpt lat="45.2433898" lon="8.7396318"><ele>104.42857142857143</ele><time>2026-04-25T16:20:10.025Z</time></trkpt><trkpt lat="45.243449" lon="8.7395953"><ele>104.71428571428571</ele><time>2026-04-25T16:20:11.025Z</time></trkpt><trkpt lat="45.243517" lon="8.7395873"><ele>105.0</ele><time>2026-04-25T16:20:12.025Z</time></trkpt><trkpt lat="45.2435466" lon="8.7394587"><ele>105.0</ele><time>2026-04-25T16:20:14.025Z</time></trkpt><trkpt lat="45.2435171" lon="8.7393565"><ele>105.0</ele><time>2026-04-25T16:20:16.025Z</time></trkpt><trkpt lat="45.2434286" lon="8.7392593"><ele>105.0</ele><time>2026-04-25T16:20:18.025Z</time></trkpt><trkpt lat="45.243321" lon="8.7392593"><ele>105.0</ele><time>2026-04-25T16:20:20.025Z</time></trkpt><trkpt lat="45.2432425" lon="8.7393786"><ele>105.0</ele><time>2026-04-25T16:20:22.024Z</time></trkpt><trkpt lat="45.2432085" lon="8.739478"><ele>105.0</ele><time>2026-04-25T16:20:23.025Z</time></trkpt><trkpt lat="45.2431747" lon="8.7395821"><ele>105.0</ele><time>2026-04-25T16:20:24.025Z</time></trkpt><trkpt lat="45.2431265" lon="8.739699"><ele>105.0</ele><time>2026-04-25T16:20:25.025Z</time></trkpt><trkpt lat="45.24306" lon="8.7398155"><ele>105.0</ele><time>2026-04-25T16:20:26.025Z</time></trkpt><trkpt lat="45.2429901" lon="8.7399488"><ele>105.0</ele><time>2026-04-25T16:20:27.024Z</time></trkpt><trkpt lat="45.2429221" lon="8.7400982"><ele>104.5</ele><time>2026-04-25T16:20:28.025Z</time></trkpt><trkpt lat="45.242854" lon="8.7402576"><ele>104.0</ele><time>2026-04-25T16:20:29.026Z</time></trkpt><trkpt lat="45.2427931" lon="8.7404262"><ele>103.5</ele><time>2026-04-25T16:20:30.023Z</time></trkpt><trkpt lat="45.2427283" lon="8.7406198"><ele>103.0</ele><time>2026-04-25T16:20:31.024Z</time></trkpt><trkpt lat="45.2426654" lon="8.7408161"><ele>103.0</ele><time>2026-04-25T16:20:32.025Z</time></trkpt><trkpt lat="45.2425988" lon="8.7410168"><ele>103.0</ele><time>2026-04-25T16:20:33.025Z</time></trkpt><trkpt lat="45.2425375" lon="8.7412089"><ele>103.0</ele><time>2026-04-25T16:20:34.025Z</time></trkpt><trkpt lat="45.2424734" lon="8.7413899"><ele>103.0</ele><time>2026-04-25T16:20:35.025Z</time></trkpt><trkpt lat="45.2424171" lon="8.7415488"><ele>103.60000000000001</ele><time>2026-04-25T16:20:36.024Z</time></trkpt><trkpt lat="45.2423618" lon="8.7416879"><ele>104.2</ele><time>2026-04-25T16:20:37.025Z</time></trkpt><trkpt lat="45.2423084" lon="8.7418229"><ele>104.8</ele><time>2026-04-25T16:20:38.025Z</time></trkpt><trkpt lat="45.2422664" lon="8.7419658"><ele>105.4</ele><time>2026-04-25T16:20:39.025Z</time></trkpt><trkpt lat="45.2422258" lon="8.7421068"><ele>106.0</ele><time>2026-04-25T16:20:40.024Z</time></trkpt><trkpt lat="45.2421896" lon="8.7422384"><ele>106.00000000000001</ele><time>2026-04-25T16:20:41.024Z</time></trkpt><trkpt lat="45.2421561" lon="8.7423579"><ele>106.0</ele><time>2026-04-25T16:20:42.025Z</time></trkpt><trkpt lat="45.2421274" lon="8.7424733"><ele>106.0</ele><time>2026-04-25T16:20:43.024Z</time></trkpt><trkpt lat="45.2420915" lon="8.7425888"><ele>106.0</ele><time>2026-04-25T16:20:44.024Z</time></trkpt><trkpt lat="45.2420518" lon="8.7426904"><ele>106.00000000000001</ele><time>2026-04-25T16:20:45.024Z</time></trkpt><trkpt lat="45.2419975" lon="8.7427792"><ele>106.0</ele><time>2026-04-25T16:20:46.025Z</time></trkpt><trkpt lat="45.2419283" lon="8.7428466"><ele>106.00000000000001</ele><time>2026-04-25T16:20:47.025Z</time></trkpt><trkpt lat="45.2418545" lon="8.7429077"><ele>106.0</ele><time>2026-04-25T16:20:48.025Z</time></trkpt><trkpt lat="45.2417746" lon="8.7429483"><ele>106.0</ele><time>2026-04-25T16:20:49.025Z</time></trkpt><trkpt lat="45.2416895" lon="8.7429828"><ele>106.0</ele><time>2026-04-25T16:20:50.024Z</time></trkpt><trkpt lat="45.2416028" lon="8.7430043"><ele>106.00000000000001</ele><time>2026-04-25T16:20:51.023Z</time></trkpt><trkpt lat="45.241523" lon="8.7430232"><ele>106.0</ele><time>2026-04-25T16:20:52.025Z</time></trkpt><trkpt lat="45.2414422" lon="8.7430486"><ele>106.00000000000001</ele><time>2026-04-25T16:20:53.023Z</time></trkpt><trkpt lat="45.2413625" lon="8.7430638"><ele>106.0</ele><time>2026-04-25T16:20:54.025Z</time></trkpt><trkpt lat="45.2412789" lon="8.7430931"><ele>106.0</ele><time>2026-04-25T16:20:55.024Z</time></trkpt><trkpt lat="45.2411958" lon="8.7431152"><ele>106.0</ele><time>2026-04-25T16:20:56.024Z</time></trkpt><trkpt lat="45.2411074" lon="8.7431132"><ele>106.00000000000001</ele><time>2026-04-25T16:20:57.025Z</time></trkpt><trkpt lat="45.2410275" lon="8.7431267"><ele>106.0</ele><time>2026-04-25T16:20:58.025Z</time></trkpt><trkpt lat="45.2409433" lon="8.7431488"><ele>106.0</ele><time>2026-04-25T16:20:59.024Z</time></trkpt><trkpt lat="45.2408529" lon="8.7431733"><ele>106.0</ele><time>2026-04-25T16:21:00.024Z</time></trkpt><trkpt lat="45.2407661" lon="8.7431959"><ele>106.0</ele><time>2026-04-25T16:21:01.025Z</time></trkpt><trkpt lat="45.2406484" lon="8.7432156"><ele>106.0</ele><time>2026-04-25T16:21:03.024Z</time></trkpt><trkpt lat="45.2405502" lon="8.7431736"><ele>106.0</ele><time>2026-04-25T16:21:05.024Z</time></trkpt><trkpt lat="45.2404904" lon="8.743048"><ele>106.00000000000001</ele><time>2026-04-25T16:21:07.025Z</time></trkpt><trkpt lat="45.2404676" lon="8.7429032"><ele>106.0</ele><time>2026-04-25T16:21:09.025Z</time></trkpt><trkpt lat="45.2404535" lon="8.7428153"><ele>106.0</ele><time>2026-04-25T16:21:10.025Z</time></trkpt><trkpt lat="45.2404342" lon="8.7427232"><ele>106.0</ele><time>2026-04-25T16:21:11.024Z</time></trkpt><trkpt lat="45.2404299" lon="8.7426246"><ele>106.00000000000001</ele><time>2026-04-25T16:21:12.025Z</time></trkpt><trkpt lat="45.2404129" lon="8.7425183"><ele>106.0</ele><time>2026-04-25T16:21:13.025Z</time></trkpt><trkpt lat="45.2404001" lon="8.7424109"><ele>106.0</ele><time>2026-04-25T16:21:14.025Z</time></trkpt><trkpt lat="45.2403881" lon="8.7422811"><ele>106.0</ele><time>2026-04-25T16:21:15.024Z</time></trkpt><trkpt lat="45.240377" lon="8.7421493"><ele>106.0</ele><time>2026-04-25T16:21:16.025Z</time></trkpt><trkpt lat="45.2403646" lon="8.742012"><ele>106.0</ele><time>2026-04-25T16:21:17.023Z</time></trkpt><trkpt lat="45.2403479" lon="8.7418685"><ele>106.0</ele><time>2026-04-25T16:21:18.025Z</time></trkpt><trkpt lat="45.2403266" lon="8.7417243"><ele>106.0</ele><time>2026-04-25T16:21:19.024Z</time></trkpt><trkpt lat="45.2403029" lon="8.7415762"><ele>106.0</ele><time>2026-04-25T16:21:20.025Z</time></trkpt><trkpt lat="45.2402774" lon="8.7414249"><ele>106.0</ele><time>2026-04-25T16:21:21.024Z</time></trkpt><trkpt lat="45.2402681" lon="8.7412759"><ele>106.0</ele><time>2026-04-25T16:21:22.025Z</time></trkpt><trkpt lat="45.2402451" lon="8.7411258"><ele>106.0</ele><time>2026-04-25T16:21:23.025Z</time></trkpt><trkpt lat="45.2402271" lon="8.7409816"><ele>105.83333333333334</ele><time>2026-04-25T16:21:24.025Z</time></trkpt><trkpt lat="45.2402078" lon="8.7408457"><ele>105.66666666666667</ele><time>2026-04-25T16:21:25.025Z</time></trkpt><trkpt lat="45.240193" lon="8.7407227"><ele>105.5</ele><time>2026-04-25T16:21:26.025Z</time></trkpt><trkpt lat="45.2401813" lon="8.7406182"><ele>105.33333333333334</ele><time>2026-04-25T16:21:27.025Z</time></trkpt><trkpt lat="45.2401643" lon="8.7405162"><ele>105.16666666666667</ele><time>2026-04-25T16:21:28.025Z</time></trkpt><trkpt lat="45.2401396" lon="8.74038"><ele>105.0</ele><time>2026-04-25T16:21:30.024Z</time></trkpt><trkpt lat="45.2401286" lon="8.7402897"><ele>105.0</ele><time>2026-04-25T16:21:32.025Z</time></trkpt><trkpt lat="45.2401039" lon="8.7401953"><ele>105.0</ele><time>2026-04-25T16:21:53.023Z</time></trkpt><trkpt lat="45.240087" lon="8.7400867"><ele>105.0</ele><time>2026-04-25T16:21:55.025Z</time></trkpt><trkpt lat="45.2400752" lon="8.7399421"><ele>105.0</ele><time>2026-04-25T16:21:57.022Z</time></trkpt><trkpt lat="45.2400534" lon="8.7398071"><ele>105.0</ele><time>2026-04-25T16:21:59.022Z</time></trkpt><trkpt lat="45.2400365" lon="8.7397086"><ele>105.0</ele><time>2026-04-25T16:22:01.025Z</time></trkpt><trkpt lat="45.2400328" lon="8.739592"><ele>105.0</ele><time>2026-04-25T16:22:03.025Z</time></trkpt><trkpt lat="45.240037" lon="8.7394756"><ele>105.0</ele><time>2026-04-25T16:22:05.024Z</time></trkpt><trkpt lat="45.2400284" lon="8.7393408"><ele>105.0</ele><time>2026-04-25T16:22:07.024Z</time></trkpt><trkpt lat="45.2399799" lon="8.7391959"><ele>105.0</ele><time>2026-04-25T16:22:09.023Z</time></trkpt><trkpt lat="45.2399003" lon="8.7391094"><ele>105.0</ele><time>2026-04-25T16:22:12.025Z</time></trkpt><trkpt lat="45.239828" lon="8.7391222"><ele>104.85714285714286</ele><time>2026-04-25T16:22:14.025Z</time></trkpt><trkpt lat="45.2397628" lon="8.7391677"><ele>104.71428571428572</ele><time>2026-04-25T16:22:17.022Z</time></trkpt><trkpt lat="45.2397009" lon="8.7392503"><ele>104.57142857142857</ele><time>2026-04-25T16:52:59.015Z</time></trkpt><trkpt lat="45.2397672" lon="8.7392028"><ele>104.42857142857143</ele><time>2026-04-25T16:53:06.015Z</time></trkpt><trkpt lat="45.2398404" lon="8.7391865"><ele>104.28571428571429</ele><time>2026-04-25T16:53:12.015Z</time></trkpt><trkpt lat="45.2399141" lon="8.7391913"><ele>104.14285714285714</ele><time>2026-04-25T16:53:18.015Z</time></trkpt><trkpt lat="45.2399788" lon="8.7392249"><ele>104.0</ele><time>2026-04-25T16:53:24.956Z</time></trkpt><trkpt lat="45.2399994" lon="8.7393193"><ele>104.14285714285714</ele><time>2026-04-25T16:53:29.976Z</time></trkpt><trkpt lat="45.2400136" lon="8.7394215"><ele>104.28571428571429</ele><time>2026-04-25T16:53:35.955Z</time></trkpt><trkpt lat="45.2400359" lon="8.7395228"><ele>104.42857142857143</ele><time>2026-04-25T16:53:42.015Z</time></trkpt><trkpt lat="45.2400606" lon="8.7396051"><ele>104.57142857142857</ele><time>2026-04-25T16:53:47.023Z</time></trkpt><trkpt lat="45.2400816" lon="8.7396982"><ele>104.71428571428572</ele><time>2026-04-25T16:53:53.014Z</time></trkpt><trkpt lat="45.2401285" lon="8.7397581"><ele>104.85714285714286</ele><time>2026-04-25T16:53:59.015Z</time></trkpt><trkpt lat="45.2401469" lon="8.7398485"><ele>105.0</ele><time>2026-04-25T16:54:05.015Z</time></trkpt><trkpt lat="45.2401245" lon="8.7399408"><ele>105.0</ele><time>2026-04-25T16:54:10.014Z</time></trkpt><trkpt lat="45.2401226" lon="8.7400446"><ele>105.0</ele><time>2026-04-25T16:54:16.981Z</time></trkpt><trkpt lat="45.2401403" lon="8.7401335"><ele>105.0</ele><time>2026-04-25T16:54:22.014Z</time></trkpt><trkpt lat="45.2400798" lon="8.7401691"><ele>105.0</ele><time>2026-04-25T16:54:27.05Z</time></trkpt><trkpt lat="45.240015" lon="8.7401417"><ele>105.0</ele><time>2026-04-25T16:54:33.056Z</time></trkpt><trkpt lat="45.2399718" lon="8.7402284"><ele>105.0</ele><time>2026-04-25T16:55:16.015Z</time></trkpt><trkpt lat="45.2399134" lon="8.7402813"><ele>105.0</ele><time>2026-04-25T17:17:10.007Z</time></trkpt><trkpt lat="45.2398705" lon="8.7402064"><ele>105.0</ele><time>2026-04-25T17:17:22.935Z</time></trkpt><trkpt lat="45.2398336" lon="8.7401315"><ele>105.0</ele><time>2026-04-25T17:17:28.009Z</time></trkpt><trkpt lat="45.2397688" lon="8.7401346"><ele>105.0</ele><time>2026-04-25T17:17:57.008Z</time></trkpt><trkpt lat="45.2397997" lon="8.7402204"><ele>105.0</ele><time>2026-04-25T17:18:06.008Z</time></trkpt><trkpt lat="45.239874" lon="8.7402012"><ele>105.0</ele><time>2026-04-25T17:18:08.007Z</time></trkpt><trkpt lat="45.2399526" lon="8.7401861"><ele>105.0</ele><time>2026-04-25T17:18:11.009Z</time></trkpt><trkpt lat="45.2400152" lon="8.7401757"><ele>105.0</ele><time>2026-04-25T17:18:23.009Z</time></trkpt><trkpt lat="45.2400797" lon="8.7401534"><ele>105.0</ele><time>2026-04-25T17:18:28.008Z</time></trkpt><trkpt lat="45.2401444" lon="8.7402053"><ele>105.0</ele><time>2026-04-25T17:18:32.008Z</time></trkpt><trkpt lat="45.2401414" lon="8.7403294"><ele>105.0</ele><time>2026-04-25T17:18:52.008Z</time></trkpt><trkpt lat="45.2401545" lon="8.7404489"><ele>105.0</ele><time>2026-04-25T17:18:54.008Z</time></trkpt><trkpt lat="45.2401791" lon="8.7405892"><ele>105.0</ele><time>2026-04-25T17:18:56.008Z</time></trkpt><trkpt lat="45.2402075" lon="8.7407662"><ele>105.0</ele><time>2026-04-25T17:18:58.008Z</time></trkpt><trkpt lat="45.2402155" lon="8.7408643"><ele>105.0</ele><time>2026-04-25T17:18:59.009Z</time></trkpt><trkpt lat="45.2402264" lon="8.7409681"><ele>105.0</ele><time>2026-04-25T17:19:00.009Z</time></trkpt><trkpt lat="45.2402406" lon="8.741086"><ele>105.0</ele><time>2026-04-25T17:19:01.007Z</time></trkpt><trkpt lat="45.2402535" lon="8.7412065"><ele>105.0</ele><time>2026-04-25T17:19:02.008Z</time></trkpt><trkpt lat="45.2402688" lon="8.7413219"><ele>105.0</ele><time>2026-04-25T17:19:03.008Z</time></trkpt><trkpt lat="45.2402866" lon="8.7414563"><ele>105.0</ele><time>2026-04-25T17:19:04.008Z</time></trkpt><trkpt lat="45.2403007" lon="8.7415911"><ele>105.0</ele><time>2026-04-25T17:19:05.008Z</time></trkpt><trkpt lat="45.240319" lon="8.7417246"><ele>105.0</ele><time>2026-04-25T17:19:06.008Z</time></trkpt><trkpt lat="45.2403415" lon="8.7418611"><ele>105.0</ele><time>2026-04-25T17:19:07.007Z</time></trkpt><trkpt lat="45.2403542" lon="8.7420004"><ele>105.0</ele><time>2026-04-25T17:19:08.008Z</time></trkpt><trkpt lat="45.2403633" lon="8.7421444"><ele>105.0</ele><time>2026-04-25T17:19:09.008Z</time></trkpt><trkpt lat="45.2403771" lon="8.7423003"><ele>105.0</ele><time>2026-04-25T17:19:10.008Z</time></trkpt><trkpt lat="45.2403892" lon="8.742461"><ele>105.0</ele><time>2026-04-25T17:19:11.009Z</time></trkpt><trkpt lat="45.2404017" lon="8.7426155"><ele>105.0</ele><time>2026-04-25T17:19:12.008Z</time></trkpt><trkpt lat="45.2404194" lon="8.7427565"><ele>105.0</ele><time>2026-04-25T17:19:13.009Z</time></trkpt><trkpt lat="45.2404419" lon="8.7428982"><ele>105.16666666666667</ele><time>2026-04-25T17:19:14.007Z</time></trkpt><trkpt lat="45.240465" lon="8.743006"><ele>105.33333333333334</ele><time>2026-04-25T17:19:15.008Z</time></trkpt><trkpt lat="45.2404809" lon="8.7430947"><ele>105.5</ele><time>2026-04-25T17:19:16.009Z</time></trkpt><trkpt lat="45.2405121" lon="8.7432073"><ele>105.66666666666667</ele><time>2026-04-25T17:19:18.009Z</time></trkpt><trkpt lat="45.2405562" lon="8.7432823"><ele>105.83333333333334</ele><time>2026-04-25T17:19:20.007Z</time></trkpt><trkpt lat="45.2406203" lon="8.7432753"><ele>106.0</ele><time>2026-04-25T17:19:21.008Z</time></trkpt><trkpt lat="45.2407269" lon="8.743252"><ele>106.0</ele><time>2026-04-25T17:19:23.008Z</time></trkpt><trkpt lat="45.2408759" lon="8.7432093"><ele>106.0</ele><time>2026-04-25T17:19:25.008Z</time></trkpt><trkpt lat="45.2409451" lon="8.7431908"><ele>106.0</ele><time>2026-04-25T17:19:26.009Z</time></trkpt><trkpt lat="45.2410232" lon="8.7431692"><ele>106.0</ele><time>2026-04-25T17:19:27.007Z</time></trkpt><trkpt lat="45.2410976" lon="8.743146"><ele>106.0</ele><time>2026-04-25T17:19:29.008Z</time></trkpt><trkpt lat="45.2412078" lon="8.7431252"><ele>106.0</ele><time>2026-04-25T17:19:31.008Z</time></trkpt><trkpt lat="45.2413151" lon="8.7430969"><ele>106.0</ele><time>2026-04-25T17:19:33.007Z</time></trkpt><trkpt lat="45.2413787" lon="8.7430711"><ele>106.0</ele><time>2026-04-25T17:19:34.008Z</time></trkpt><trkpt lat="45.241502" lon="8.7430474"><ele>106.0</ele><time>2026-04-25T17:19:36.008Z</time></trkpt><trkpt lat="45.2415696" lon="8.7430336"><ele>106.0</ele><time>2026-04-25T17:19:37.008Z</time></trkpt><trkpt lat="45.2416534" lon="8.7430148"><ele>106.00000000000001</ele><time>2026-04-25T17:19:38.008Z</time></trkpt><trkpt lat="45.2417256" lon="8.7430139"><ele>106.0</ele><time>2026-04-25T17:19:39.006Z</time></trkpt><trkpt lat="45.2418524" lon="8.7430483"><ele>106.0</ele><time>2026-04-25T17:19:41.007Z</time></trkpt><trkpt lat="45.2419192" lon="8.7430735"><ele>106.0</ele><time>2026-04-25T17:19:42.009Z</time></trkpt><trkpt lat="45.2419698" lon="8.7431657"><ele>106.00000000000001</ele><time>2026-04-25T17:19:44.007Z</time></trkpt><trkpt lat="45.2420141" lon="8.7432332"><ele>106.0</ele><time>2026-04-25T17:19:50.008Z</time></trkpt><trkpt lat="45.2420475" lon="8.7433121"><ele>106.0</ele><time>2026-04-25T17:19:55.009Z</time></trkpt><trkpt lat="45.2420747" lon="8.7434739"><ele>106.0</ele><time>2026-04-25T17:19:57.009Z</time></trkpt><trkpt lat="45.2420843" lon="8.7436"><ele>106.0</ele><time>2026-04-25T17:19:58.007Z</time></trkpt><trkpt lat="45.2420907" lon="8.7437313"><ele>106.0</ele><time>2026-04-25T17:19:59.008Z</time></trkpt><trkpt lat="45.2420912" lon="8.7438677"><ele>106.0</ele><time>2026-04-25T17:20:00.008Z</time></trkpt><trkpt lat="45.2420989" lon="8.7440219"><ele>106.0</ele><time>2026-04-25T17:20:01.009Z</time></trkpt><trkpt lat="45.2421233" lon="8.7441843"><ele>106.0</ele><time>2026-04-25T17:20:02.009Z</time></trkpt><trkpt lat="45.2421466" lon="8.74434"><ele>106.0</ele><time>2026-04-25T17:20:03.008Z</time></trkpt><trkpt lat="45.2421689" lon="8.744516"><ele>106.0</ele><time>2026-04-25T17:20:04.008Z</time></trkpt><trkpt lat="45.2421917" lon="8.7446884"><ele>106.0</ele><time>2026-04-25T17:20:05.008Z</time></trkpt><trkpt lat="45.2422163" lon="8.7448615"><ele>106.0</ele><time>2026-04-25T17:20:06.007Z</time></trkpt><trkpt lat="45.2422406" lon="8.7450428"><ele>106.0</ele><time>2026-04-25T17:20:07.009Z</time></trkpt><trkpt lat="45.2422644" lon="8.7452149"><ele>106.0</ele><time>2026-04-25T17:20:08.008Z</time></trkpt><trkpt lat="45.2422881" lon="8.7453708"><ele>106.00000000000001</ele><time>2026-04-25T17:20:09.008Z</time></trkpt><trkpt lat="45.2423004" lon="8.7455076"><ele>106.0</ele><time>2026-04-25T17:20:10.007Z</time></trkpt><trkpt lat="45.2422909" lon="8.745636"><ele>106.0</ele><time>2026-04-25T17:20:11.007Z</time></trkpt><trkpt lat="45.2422712" lon="8.7457387"><ele>106.0</ele><time>2026-04-25T17:20:12.009Z</time></trkpt><trkpt lat="45.2422474" lon="8.7458394"><ele>106.00000000000001</ele><time>2026-04-25T17:20:13.009Z</time></trkpt><trkpt lat="45.2421754" lon="8.7459036"><ele>106.0</ele><time>2026-04-25T17:20:14.009Z</time></trkpt><trkpt lat="45.2421253" lon="8.7459843"><ele>105.83333333333334</ele><time>2026-04-25T17:20:15.008Z</time></trkpt><trkpt lat="45.2420871" lon="8.7460951"><ele>105.66666666666667</ele><time>2026-04-25T17:20:16.008Z</time></trkpt><trkpt lat="45.2420487" lon="8.7461902"><ele>105.5</ele><time>2026-04-25T17:20:17.008Z</time></trkpt><trkpt lat="45.2420687" lon="8.7463433"><ele>105.33333333333334</ele><time>2026-04-25T17:20:19.007Z</time></trkpt><trkpt lat="45.242092" lon="8.7464391"><ele>105.16666666666667</ele><time>2026-04-25T17:20:21.008Z</time></trkpt><trkpt lat="45.2421246" lon="8.7465339"><ele>105.0</ele><time>2026-04-25T17:20:23.008Z</time></trkpt><trkpt lat="45.242215" lon="8.7466331"><ele>105.0</ele><time>2026-04-25T17:20:25.008Z</time></trkpt><trkpt lat="45.2422762" lon="8.746676"><ele>105.0</ele><time>2026-04-25T17:20:26.008Z</time></trkpt><trkpt lat="45.2423593" lon="8.7466387"><ele>105.0</ele><time>2026-04-25T17:20:27.007Z</time></trkpt><trkpt lat="45.242433" lon="8.7465907"><ele>105.0</ele><time>2026-04-25T17:20:28.008Z</time></trkpt><trkpt lat="45.2425" lon="8.7464964"><ele>105.0</ele><time>2026-04-25T17:20:29.008Z</time></trkpt><trkpt lat="45.2425484" lon="8.7463907"><ele>105.0</ele><time>2026-04-25T17:20:30.008Z</time></trkpt><trkpt lat="45.2425948" lon="8.7462801"><ele>104.8</ele><time>2026-04-25T17:20:31.008Z</time></trkpt><trkpt lat="45.2425437" lon="8.7461376"><ele>104.6</ele><time>2026-04-25T17:20:32.008Z</time></trkpt><trkpt lat="45.2425239" lon="8.7460363"><ele>104.4</ele><time>2026-04-25T17:20:33.008Z</time></trkpt><trkpt lat="45.2424783" lon="8.7459362"><ele>104.2</ele><time>2026-04-25T17:20:34.008Z</time></trkpt><trkpt lat="45.242429" lon="8.7458235"><ele>104.0</ele><time>2026-04-25T17:20:35.007Z</time></trkpt><trkpt lat="45.2423912" lon="8.7457125"><ele>104.4</ele><time>2026-04-25T17:20:36.008Z</time></trkpt><trkpt lat="45.2423813" lon="8.745604"><ele>104.80000000000001</ele><time>2026-04-25T17:20:37.008Z</time></trkpt><trkpt lat="45.2423656" lon="8.7454654"><ele>105.19999999999999</ele><time>2026-04-25T17:20:38.007Z</time></trkpt><trkpt lat="45.2423524" lon="8.7453345"><ele>105.6</ele><time>2026-04-25T17:20:39.007Z</time></trkpt><trkpt lat="45.2423327" lon="8.7451775"><ele>106.0</ele><time>2026-04-25T17:20:40.008Z</time></trkpt><trkpt lat="45.2423118" lon="8.7450336"><ele>106.0</ele><time>2026-04-25T17:20:41.008Z</time></trkpt><trkpt lat="45.2422829" lon="8.7448883"><ele>106.0</ele><time>2026-04-25T17:20:42.008Z</time></trkpt><trkpt lat="45.2422602" lon="8.7447472"><ele>106.0</ele><time>2026-04-25T17:20:43.007Z</time></trkpt><trkpt lat="45.242235" lon="8.7445963"><ele>106.0</ele><time>2026-04-25T17:20:44.008Z</time></trkpt><trkpt lat="45.2422103" lon="8.7444287"><ele>106.0</ele><time>2026-04-25T17:20:45.008Z</time></trkpt><trkpt lat="45.2421821" lon="8.7442655"><ele>106.0</ele><time>2026-04-25T17:20:46.008Z</time></trkpt><trkpt lat="45.2421635" lon="8.7440957"><ele>106.0</ele><time>2026-04-25T17:20:47.008Z</time></trkpt><trkpt lat="45.2421496" lon="8.7439158"><ele>106.0</ele><time>2026-04-25T17:20:48.008Z</time></trkpt><trkpt lat="45.2421359" lon="8.7437341"><ele>106.0</ele><time>2026-04-25T17:20:49.007Z</time></trkpt><trkpt lat="45.2421288" lon="8.7435587"><ele>106.0</ele><time>2026-04-25T17:20:50.008Z</time></trkpt><trkpt lat="45.2421287" lon="8.7433723"><ele>106.0</ele><time>2026-04-25T17:20:51.008Z</time></trkpt><trkpt lat="45.2421299" lon="8.743201"><ele>106.0</ele><time>2026-04-25T17:20:52.008Z</time></trkpt><trkpt lat="45.2421358" lon="8.7430082"><ele>106.0</ele><time>2026-04-25T17:20:53.007Z</time></trkpt><trkpt lat="45.2421725" lon="8.7428288"><ele>106.0</ele><time>2026-04-25T17:20:54.008Z</time></trkpt><trkpt lat="45.2422063" lon="8.7426382"><ele>106.0</ele><time>2026-04-25T17:20:55.007Z</time></trkpt><trkpt lat="45.242249" lon="8.7424451"><ele>106.0</ele><time>2026-04-25T17:20:56.007Z</time></trkpt><trkpt lat="45.2422963" lon="8.7422488"><ele>106.0</ele><time>2026-04-25T17:20:57.007Z</time></trkpt><trkpt lat="45.2423508" lon="8.7420604"><ele>106.0</ele><time>2026-04-25T17:20:58.007Z</time></trkpt><trkpt lat="45.2424079" lon="8.7418792"><ele>106.0</ele><time>2026-04-25T17:20:59.008Z</time></trkpt><trkpt lat="45.2424705" lon="8.7416809"><ele>106.0</ele><time>2026-04-25T17:21:00.007Z</time></trkpt><trkpt lat="45.2425311" lon="8.7414805"><ele>106.0</ele><time>2026-04-25T17:21:01.007Z</time></trkpt><trkpt lat="45.2425965" lon="8.7412794"><ele>106.0</ele><time>2026-04-25T17:21:02.008Z</time></trkpt><trkpt lat="45.2426555" lon="8.7410775"><ele>106.0</ele><time>2026-04-25T17:21:03.008Z</time></trkpt><trkpt lat="45.2427201" lon="8.7408764"><ele>106.0</ele><time>2026-04-25T17:21:04.008Z</time></trkpt><trkpt lat="45.2427766" lon="8.7406919"><ele>105.25</ele><time>2026-04-25T17:21:05.009Z</time></trkpt><trkpt lat="45.2427984" lon="8.7404949"><ele>104.5</ele><time>2026-04-25T17:21:06.008Z</time></trkpt><trkpt lat="45.242862" lon="8.7403086"><ele>103.75</ele><time>2026-04-25T17:21:07.008Z</time></trkpt><trkpt lat="45.2429275" lon="8.7401462"><ele>103.0</ele><time>2026-04-25T17:21:08.008Z</time></trkpt><trkpt lat="45.2430046" lon="8.7400085"><ele>102.80000000000001</ele><time>2026-04-25T17:21:09.008Z</time></trkpt><trkpt lat="45.2430659" lon="8.7398788"><ele>102.6</ele><time>2026-04-25T17:21:10.006Z</time></trkpt><trkpt lat="45.2431275" lon="8.7397878"><ele>102.4</ele><time>2026-04-25T17:21:11.008Z</time></trkpt><trkpt lat="45.2431849" lon="8.7397224"><ele>102.19999999999999</ele><time>2026-04-25T17:21:12.008Z</time></trkpt><trkpt lat="45.2432549" lon="8.7396744"><ele>102.0</ele><time>2026-04-25T17:21:13.008Z</time></trkpt><trkpt lat="45.2433544" lon="8.7396252"><ele>102.39999999999999</ele><time>2026-04-25T17:21:15.007Z</time></trkpt><trkpt lat="45.2434484" lon="8.739549"><ele>102.8</ele><time>2026-04-25T17:21:17.008Z</time></trkpt><trkpt lat="45.2435043" lon="8.7394014"><ele>103.2</ele><time>2026-04-25T17:21:19.006Z</time></trkpt><trkpt lat="45.2434646" lon="8.7392276"><ele>103.6</ele><time>2026-04-25T17:21:21.008Z</time></trkpt><trkpt lat="45.2434443" lon="8.7391331"><ele>104.0</ele><time>2026-04-25T17:21:22.007Z</time></trkpt><trkpt lat="45.243423" lon="8.7390294"><ele>104.0</ele><time>2026-04-25T17:21:23.008Z</time></trkpt><trkpt lat="45.2434069" lon="8.7389111"><ele>104.0</ele><time>2026-04-25T17:21:24.008Z</time></trkpt><trkpt lat="45.2434345" lon="8.7387677"><ele>104.0</ele><time>2026-04-25T17:21:25.008Z</time></trkpt><trkpt lat="45.2434549" lon="8.7386205"><ele>104.0</ele><time>2026-04-25T17:21:26.008Z</time></trkpt><trkpt lat="45.2434764" lon="8.7384767"><ele>104.0</ele><time>2026-04-25T17:21:27.007Z</time></trkpt><trkpt lat="45.243499" lon="8.7383197"><ele>103.75</ele><time>2026-04-25T17:21:28.008Z</time></trkpt><trkpt lat="45.2435458" lon="8.7381677"><ele>103.5</ele><time>2026-04-25T17:21:29.007Z</time></trkpt><trkpt lat="45.2435959" lon="8.7380029"><ele>103.25</ele><time>2026-04-25T17:21:30.007Z</time></trkpt><trkpt lat="45.2436568" lon="8.737832"><ele>103.0</ele><time>2026-04-25T17:21:31.007Z</time></trkpt><trkpt lat="45.2437129" lon="8.7376586"><ele>103.5</ele><time>2026-04-25T17:21:32.007Z</time></trkpt><trkpt lat="45.2437674" lon="8.7374737"><ele>104.0</ele><time>2026-04-25T17:21:33.008Z</time></trkpt><trkpt lat="45.2438213" lon="8.73728"><ele>104.5</ele><time>2026-04-25T17:21:34.007Z</time></trkpt><trkpt lat="45.2438785" lon="8.737079"><ele>105.0</ele><time>2026-04-25T17:21:35.007Z</time></trkpt><trkpt lat="45.2439396" lon="8.7368759"><ele>105.66666666666666</ele><time>2026-04-25T17:21:36.007Z</time></trkpt><trkpt lat="45.2440105" lon="8.7366763"><ele>106.33333333333333</ele><time>2026-04-25T17:21:37.006Z</time></trkpt><trkpt lat="45.2440766" lon="8.7364721"><ele>107.0</ele><time>2026-04-25T17:21:38.007Z</time></trkpt><trkpt lat="45.2441414" lon="8.7362655"><ele>107.0</ele><time>2026-04-25T17:21:39.008Z</time></trkpt><trkpt lat="45.2442016" lon="8.736057"><ele>107.0</ele><time>2026-04-25T17:21:40.006Z</time></trkpt><trkpt lat="45.244268" lon="8.7358403"><ele>107.0</ele><time>2026-04-25T17:21:41.007Z</time></trkpt><trkpt lat="45.2443484" lon="8.7356236"><ele>106.66666666666666</ele><time>2026-04-25T17:21:42.008Z</time></trkpt><trkpt lat="45.2444122" lon="8.7353954"><ele>106.33333333333334</ele><time>2026-04-25T17:21:43.008Z</time></trkpt><trkpt lat="45.2444808" lon="8.7351753"><ele>106.0</ele><time>2026-04-25T17:21:44.008Z</time></trkpt><trkpt lat="45.2445417" lon="8.7349644"><ele>106.0</ele><time>2026-04-25T17:21:45.007Z</time></trkpt><trkpt lat="45.2446102" lon="8.7347296"><ele>106.0</ele><time>2026-04-25T17:21:46.007Z</time></trkpt><trkpt lat="45.2446818" lon="8.7345054"><ele>106.0</ele><time>2026-04-25T17:21:47.007Z</time></trkpt><trkpt lat="45.2447461" lon="8.734296"><ele>106.5</ele><time>2026-04-25T17:21:48.007Z</time></trkpt><trkpt lat="45.2448096" lon="8.7341076"><ele>107.0</ele><time>2026-04-25T17:21:49.008Z</time></trkpt><trkpt lat="45.2448651" lon="8.7339294"><ele>107.5</ele><time>2026-04-25T17:21:50.007Z</time></trkpt><trkpt lat="45.2449291" lon="8.7337621"><ele>108.0</ele><time>2026-04-25T17:21:51.007Z</time></trkpt><trkpt lat="45.2449787" lon="8.7335937"><ele>107.75</ele><time>2026-04-25T17:21:52.008Z</time></trkpt><trkpt lat="45.2450267" lon="8.733422"><ele>107.5</ele><time>2026-04-25T17:21:53.008Z</time></trkpt><trkpt lat="45.2450806" lon="8.7332446"><ele>107.25</ele><time>2026-04-25T17:21:54.006Z</time></trkpt><trkpt lat="45.2451284" lon="8.7330607"><ele>107.0</ele><time>2026-04-25T17:21:55.008Z</time></trkpt><trkpt lat="45.2451795" lon="8.7328798"><ele>106.66666666666666</ele><time>2026-04-25T17:21:56.007Z</time></trkpt><trkpt lat="45.2452546" lon="8.7326362"><ele>106.33333333333334</ele><time>2026-04-25T17:21:57.007Z</time></trkpt><trkpt lat="45.2453134" lon="8.7324339"><ele>106.0</ele><time>2026-04-25T17:21:58.007Z</time></trkpt><trkpt lat="45.2453857" lon="8.7322262"><ele>106.0</ele><time>2026-04-25T17:21:59.008Z</time></trkpt><trkpt lat="45.2454577" lon="8.7320003"><ele>106.0</ele><time>2026-04-25T17:22:00.008Z</time></trkpt><trkpt lat="45.2455261" lon="8.7317846"><ele>106.0</ele><time>2026-04-25T17:22:01.006Z</time></trkpt><trkpt lat="45.2456007" lon="8.7315512"><ele>106.66666666666667</ele><time>2026-04-25T17:22:02.006Z</time></trkpt><trkpt lat="45.2456724" lon="8.7313275"><ele>107.33333333333334</ele><time>2026-04-25T17:22:03.008Z</time></trkpt><trkpt lat="45.2457378" lon="8.7310958"><ele>108.0</ele><time>2026-04-25T17:22:04.008Z</time></trkpt><trkpt lat="45.2458072" lon="8.7308649"><ele>108.33333333333334</ele><time>2026-04-25T17:22:05.007Z</time></trkpt><trkpt lat="45.2458794" lon="8.7306354"><ele>108.66666666666667</ele><time>2026-04-25T17:22:06.008Z</time></trkpt><trkpt lat="45.245954" lon="8.7304026"><ele>109.0</ele><time>2026-04-25T17:22:07.006Z</time></trkpt><trkpt lat="45.246022" lon="8.7301752"><ele>109.0</ele><time>2026-04-25T17:22:08.007Z</time></trkpt><trkpt lat="45.2460919" lon="8.7299564"><ele>109.0</ele><time>2026-04-25T17:22:09.008Z</time></trkpt><trkpt lat="45.2461633" lon="8.7297308"><ele>109.0</ele><time>2026-04-25T17:22:10.006Z</time></trkpt><trkpt lat="45.2462271" lon="8.7295046"><ele>108.33333333333334</ele><time>2026-04-25T17:22:11.009Z</time></trkpt><trkpt lat="45.2462751" lon="8.7292972"><ele>107.66666666666666</ele><time>2026-04-25T17:22:12.006Z</time></trkpt><trkpt lat="45.2463488" lon="8.729057"><ele>107.0</ele><time>2026-04-25T17:22:13.008Z</time></trkpt><trkpt lat="45.2464263" lon="8.7288092"><ele>107.66666666666666</ele><time>2026-04-25T17:22:14.008Z</time></trkpt><trkpt lat="45.2465022" lon="8.7285597"><ele>108.33333333333334</ele><time>2026-04-25T17:22:15.006Z</time></trkpt><trkpt lat="45.2465715" lon="8.7283184"><ele>109.0</ele><time>2026-04-25T17:22:16.006Z</time></trkpt><trkpt lat="45.2466391" lon="8.7280592"><ele>109.0</ele><time>2026-04-25T17:22:17.005Z</time></trkpt><trkpt lat="45.2467129" lon="8.7278149"><ele>109.0</ele><time>2026-04-25T17:22:18.006Z</time></trkpt><trkpt lat="45.2467848" lon="8.7275748"><ele>109.0</ele><time>2026-04-25T17:22:19.008Z</time></trkpt><trkpt lat="45.246873" lon="8.7273173"><ele>108.66666666666667</ele><time>2026-04-25T17:22:20.006Z</time></trkpt><trkpt lat="45.2469603" lon="8.7270624"><ele>108.33333333333334</ele><time>2026-04-25T17:22:21.007Z</time></trkpt><trkpt lat="45.2470439" lon="8.7268082"><ele>108.0</ele><time>2026-04-25T17:22:22.007Z</time></trkpt><trkpt lat="45.2471252" lon="8.7265548"><ele>108.0</ele><time>2026-04-25T17:22:23.008Z</time></trkpt><trkpt lat="45.2472119" lon="8.7262925"><ele>108.0</ele><time>2026-04-25T17:22:24.008Z</time></trkpt><trkpt lat="45.2472958" lon="8.7260501"><ele>108.0</ele><time>2026-04-25T17:22:25.008Z</time></trkpt><trkpt lat="45.2473731" lon="8.7257904"><ele>107.66666666666666</ele><time>2026-04-25T17:22:26.008Z</time></trkpt><trkpt lat="45.2474518" lon="8.7255432"><ele>107.33333333333333</ele><time>2026-04-25T17:22:27.007Z</time></trkpt><trkpt lat="45.2475216" lon="8.7252971"><ele>107.0</ele><time>2026-04-25T17:22:28.006Z</time></trkpt><trkpt lat="45.2476038" lon="8.7250599"><ele>107.66666666666666</ele><time>2026-04-25T17:22:29.008Z</time></trkpt><trkpt lat="45.2476709" lon="8.7248203"><ele>108.33333333333334</ele><time>2026-04-25T17:22:30.007Z</time></trkpt><trkpt lat="45.2477378" lon="8.724578"><ele>109.0</ele><time>2026-04-25T17:22:31.008Z</time></trkpt><trkpt lat="45.2478061" lon="8.7243502"><ele>109.33333333333334</ele><time>2026-04-25T17:22:32.007Z</time></trkpt><trkpt lat="45.2478765" lon="8.7241183"><ele>109.66666666666666</ele><time>2026-04-25T17:22:33.007Z</time></trkpt><trkpt lat="45.2479469" lon="8.7238977"><ele>110.0</ele><time>2026-04-25T17:22:34.006Z</time></trkpt><trkpt lat="45.2480088" lon="8.7236743"><ele>110.0</ele><time>2026-04-25T17:22:35.006Z</time></trkpt><trkpt lat="45.2480866" lon="8.7234393"><ele>110.0</ele><time>2026-04-25T17:22:36.008Z</time></trkpt><trkpt lat="45.2481552" lon="8.723211"><ele>110.0</ele><time>2026-04-25T17:22:37.007Z</time></trkpt><trkpt lat="45.248223" lon="8.7230017"><ele>110.0</ele><time>2026-04-25T17:22:38.008Z</time></trkpt><trkpt lat="45.2482878" lon="8.7227905"><ele>110.0</ele><time>2026-04-25T17:22:39.008Z</time></trkpt><trkpt lat="45.2483516" lon="8.7225957"><ele>110.0</ele><time>2026-04-25T17:22:40.007Z</time></trkpt><trkpt lat="45.2484082" lon="8.7224153"><ele>109.33333333333333</ele><time>2026-04-25T17:22:41.007Z</time></trkpt><trkpt lat="45.2484691" lon="8.7222196"><ele>108.66666666666666</ele><time>2026-04-25T17:22:42.006Z</time></trkpt><trkpt lat="45.2485199" lon="8.7220225"><ele>108.0</ele><time>2026-04-25T17:22:43.009Z</time></trkpt><trkpt lat="45.2485823" lon="8.7218269"><ele>108.0</ele><time>2026-04-25T17:22:44.006Z</time></trkpt><trkpt lat="45.2486516" lon="8.721658"><ele>108.0</ele><time>2026-04-25T17:22:45.008Z</time></trkpt><trkpt lat="45.2487222" lon="8.7214848"><ele>108.0</ele><time>2026-04-25T17:22:46.007Z</time></trkpt><trkpt lat="45.2487894" lon="8.7213231"><ele>108.0</ele><time>2026-04-25T17:22:47.007Z</time></trkpt><trkpt lat="45.2488533" lon="8.7211476"><ele>108.25</ele><time>2026-04-25T17:22:48.005Z</time></trkpt><trkpt lat="45.2489207" lon="8.7209806"><ele>108.5</ele><time>2026-04-25T17:22:49.007Z</time></trkpt><trkpt lat="45.2489877" lon="8.7208249"><ele>108.75</ele><time>2026-04-25T17:22:50.007Z</time></trkpt><trkpt lat="45.2490448" lon="8.7206667"><ele>109.0</ele><time>2026-04-25T17:22:51.007Z</time></trkpt><trkpt lat="45.2490982" lon="8.7204964"><ele>109.0</ele><time>2026-04-25T17:22:52.007Z</time></trkpt><trkpt lat="45.2491492" lon="8.7203528"><ele>109.0</ele><time>2026-04-25T17:22:53.007Z</time></trkpt><trkpt lat="45.2491861" lon="8.7202332"><ele>109.0</ele><time>2026-04-25T17:22:54.006Z</time></trkpt><trkpt lat="45.249231" lon="8.7201103"><ele>109.0</ele><time>2026-04-25T17:22:55.008Z</time></trkpt><trkpt lat="45.2492781" lon="8.7200174"><ele>109.0</ele><time>2026-04-25T17:22:56.006Z</time></trkpt><trkpt lat="45.2493297" lon="8.7199371"><ele>108.83333333333334</ele><time>2026-04-25T17:22:57.008Z</time></trkpt><trkpt lat="45.2493893" lon="8.7198779"><ele>108.66666666666667</ele><time>2026-04-25T17:22:58.006Z</time></trkpt><trkpt lat="45.2494509" lon="8.7198383"><ele>108.5</ele><time>2026-04-25T17:22:59.007Z</time></trkpt><trkpt lat="45.2495235" lon="8.7197917"><ele>108.33333333333334</ele><time>2026-04-25T17:23:00.008Z</time></trkpt><trkpt lat="45.2495929" lon="8.7197449"><ele>108.16666666666667</ele><time>2026-04-25T17:23:01.006Z</time></trkpt><trkpt lat="45.2496545" lon="8.7196705"><ele>108.0</ele><time>2026-04-25T17:23:02.007Z</time></trkpt><trkpt lat="45.2496897" lon="8.7195749"><ele>108.0</ele><time>2026-04-25T17:23:03.008Z</time></trkpt><trkpt lat="45.2497118" lon="8.7194767"><ele>108.0</ele><time>2026-04-25T17:23:04.007Z</time></trkpt><trkpt lat="45.249721" lon="8.7193737"><ele>108.0</ele><time>2026-04-25T17:23:05.008Z</time></trkpt><trkpt lat="45.2497262" lon="8.7192681"><ele>108.0</ele><time>2026-04-25T17:23:06.007Z</time></trkpt><trkpt lat="45.2496195" lon="8.7192165"><ele>108.0</ele><time>2026-04-25T17:23:07.008Z</time></trkpt><trkpt lat="45.2495681" lon="8.7191376"><ele>108.0</ele><time>2026-04-25T17:23:08.006Z</time></trkpt><trkpt lat="45.2495123" lon="8.7190661"><ele>107.80000000000001</ele><time>2026-04-25T17:23:09.007Z</time></trkpt><trkpt lat="45.2494399" lon="8.7189713"><ele>107.60000000000001</ele><time>2026-04-25T17:23:10.008Z</time></trkpt><trkpt lat="45.2493932" lon="8.7188268"><ele>107.39999999999999</ele><time>2026-04-25T17:23:11.007Z</time></trkpt><trkpt lat="45.2493605" lon="8.7186825"><ele>107.19999999999999</ele><time>2026-04-25T17:23:12.006Z</time></trkpt><trkpt lat="45.2493198" lon="8.7185386"><ele>107.0</ele><time>2026-04-25T17:23:13.006Z</time></trkpt><trkpt lat="45.2492821" lon="8.7183967"><ele>107.5</ele><time>2026-04-25T17:23:14.006Z</time></trkpt><trkpt lat="45.2492458" lon="8.7182419"><ele>108.0</ele><time>2026-04-25T17:23:15.006Z</time></trkpt><trkpt lat="45.2492016" lon="8.7180847"><ele>108.5</ele><time>2026-04-25T17:23:16.008Z</time></trkpt><trkpt lat="45.2491683" lon="8.7179197"><ele>109.0</ele><time>2026-04-25T17:23:17.008Z</time></trkpt><trkpt lat="45.2491287" lon="8.7177596"><ele>108.5</ele><time>2026-04-25T17:23:18.007Z</time></trkpt><trkpt lat="45.2490946" lon="8.7175858"><ele>108.0</ele><time>2026-04-25T17:23:19.006Z</time></trkpt><trkpt lat="45.2490658" lon="8.717419"><ele>107.5</ele><time>2026-04-25T17:23:20.008Z</time></trkpt><trkpt lat="45.2490287" lon="8.7172376"><ele>107.0</ele><time>2026-04-25T17:23:21.007Z</time></trkpt><trkpt lat="45.2489971" lon="8.717039"><ele>107.25</ele><time>2026-04-25T17:23:22.007Z</time></trkpt><trkpt lat="45.248966" lon="8.7168515"><ele>107.5</ele><time>2026-04-25T17:23:23.007Z</time></trkpt><trkpt lat="45.2489286" lon="8.7166603"><ele>107.75</ele><time>2026-04-25T17:23:24.006Z</time></trkpt><trkpt lat="45.2489086" lon="8.7164722"><ele>108.0</ele><time>2026-04-25T17:23:25.007Z</time></trkpt><trkpt lat="45.2488701" lon="8.7162792"><ele>108.5</ele><time>2026-04-25T17:23:26.006Z</time></trkpt><trkpt lat="45.2488333" lon="8.7160908"><ele>109.0</ele><time>2026-04-25T17:23:27.006Z</time></trkpt><trkpt lat="45.2487963" lon="8.7159"><ele>109.5</ele><time>2026-04-25T17:23:28.007Z</time></trkpt><trkpt lat="45.2487674" lon="8.7157313"><ele>110.0</ele><time>2026-04-25T17:23:29.007Z</time></trkpt><trkpt lat="45.2487352" lon="8.7155598"><ele>109.6</ele><time>2026-04-25T17:23:30.007Z</time></trkpt><trkpt lat="45.2487037" lon="8.7153973"><ele>109.2</ele><time>2026-04-25T17:23:31.006Z</time></trkpt><trkpt lat="45.2486835" lon="8.7152806"><ele>108.80000000000001</ele><time>2026-04-25T17:23:32.008Z</time></trkpt><trkpt lat="45.2486705" lon="8.7151833"><ele>108.4</ele><time>2026-04-25T17:23:33.007Z</time></trkpt><trkpt lat="45.2486635" lon="8.7150341"><ele>108.0</ele><time>2026-04-25T17:23:35.007Z</time></trkpt><trkpt lat="45.2486942" lon="8.7149036"><ele>108.0</ele><time>2026-04-25T17:23:37.008Z</time></trkpt><trkpt lat="45.2487284" lon="8.7148182"><ele>108.0</ele><time>2026-04-25T17:23:38.007Z</time></trkpt><trkpt lat="45.2487633" lon="8.7147265"><ele>108.0</ele><time>2026-04-25T17:23:39.006Z</time></trkpt><trkpt lat="45.2488056" lon="8.7146219"><ele>108.0</ele><time>2026-04-25T17:23:40.006Z</time></trkpt><trkpt lat="45.2488499" lon="8.7145056"><ele>108.0</ele><time>2026-04-25T17:23:41.007Z</time></trkpt><trkpt lat="45.2488749" lon="8.7143906"><ele>108.0</ele><time>2026-04-25T17:23:42.005Z</time></trkpt><trkpt lat="45.2488575" lon="8.7142657"><ele>108.2</ele><time>2026-04-25T17:23:43.007Z</time></trkpt><trkpt lat="45.2488243" lon="8.7141367"><ele>108.4</ele><time>2026-04-25T17:23:44.006Z</time></trkpt><trkpt lat="45.2487842" lon="8.7140223"><ele>108.60000000000001</ele><time>2026-04-25T17:23:45.007Z</time></trkpt><trkpt lat="45.2487073" lon="8.7139422"><ele>108.80000000000001</ele><time>2026-04-25T17:23:46.008Z</time></trkpt><trkpt lat="45.2486265" lon="8.713879"><ele>109.0</ele><time>2026-04-25T17:23:47.007Z</time></trkpt><trkpt lat="45.2485468" lon="8.7138126"><ele>109.0</ele><time>2026-04-25T17:23:48.006Z</time></trkpt><trkpt lat="45.248471" lon="8.7136939"><ele>109.0</ele><time>2026-04-25T17:23:49.008Z</time></trkpt><trkpt lat="45.2484052" lon="8.7135742"><ele>109.0</ele><time>2026-04-25T17:23:50.006Z</time></trkpt><trkpt lat="45.2483626" lon="8.7134278"><ele>109.0</ele><time>2026-04-25T17:23:51.007Z</time></trkpt><trkpt lat="45.2483225" lon="8.7132802"><ele>109.0</ele><time>2026-04-25T17:23:52.005Z</time></trkpt><trkpt lat="45.2482872" lon="8.713111"><ele>108.5</ele><time>2026-04-25T17:23:53.007Z</time></trkpt><trkpt lat="45.2482449" lon="8.7129463"><ele>108.0</ele><time>2026-04-25T17:23:54.007Z</time></trkpt><trkpt lat="45.2481898" lon="8.7127601"><ele>107.5</ele><time>2026-04-25T17:23:55.006Z</time></trkpt><trkpt lat="45.2481212" lon="8.7125808"><ele>107.0</ele><time>2026-04-25T17:23:56.007Z</time></trkpt><trkpt lat="45.2480479" lon="8.7123973"><ele>107.0</ele><time>2026-04-25T17:23:57.007Z</time></trkpt><trkpt lat="45.2479526" lon="8.7122179"><ele>107.0</ele><time>2026-04-25T17:23:58.007Z</time></trkpt><trkpt lat="45.2478477" lon="8.7119926"><ele>107.0</ele><time>2026-04-25T17:23:59.007Z</time></trkpt><trkpt lat="45.2477307" lon="8.7117784"><ele>107.33333333333333</ele><time>2026-04-25T17:24:00.006Z</time></trkpt><trkpt lat="45.2476294" lon="8.7115585"><ele>107.66666666666666</ele><time>2026-04-25T17:24:01.006Z</time></trkpt><trkpt lat="45.2475132" lon="8.7113398"><ele>108.0</ele><time>2026-04-25T17:24:02.007Z</time></trkpt><trkpt lat="45.2473994" lon="8.711109"><ele>107.33333333333334</ele><time>2026-04-25T17:24:03.007Z</time></trkpt><trkpt lat="45.2472711" lon="8.7108688"><ele>106.66666666666667</ele><time>2026-04-25T17:24:04.006Z</time></trkpt><trkpt lat="45.2471544" lon="8.7106241"><ele>106.0</ele><time>2026-04-25T17:24:05.007Z</time></trkpt><trkpt lat="45.2470358" lon="8.7103643"><ele>105.66666666666667</ele><time>2026-04-25T17:24:06.006Z</time></trkpt><trkpt lat="45.2469154" lon="8.7101153"><ele>105.33333333333334</ele><time>2026-04-25T17:24:07.007Z</time></trkpt><trkpt lat="45.2467841" lon="8.7098591"><ele>105.0</ele><time>2026-04-25T17:24:08.007Z</time></trkpt><trkpt lat="45.2466554" lon="8.7096031"><ele>105.5</ele><time>2026-04-25T17:24:09.007Z</time></trkpt><trkpt lat="45.2465144" lon="8.7093434"><ele>106.0</ele><time>2026-04-25T17:24:10.007Z</time></trkpt><trkpt lat="45.2463865" lon="8.7090768"><ele>106.5</ele><time>2026-04-25T17:24:11.007Z</time></trkpt><trkpt lat="45.2462568" lon="8.7088092"><ele>107.0</ele><time>2026-04-25T17:24:12.006Z</time></trkpt><trkpt lat="45.2461258" lon="8.7085427"><ele>108.0</ele><time>2026-04-25T17:24:13.007Z</time></trkpt><trkpt lat="45.2459904" lon="8.7082823"><ele>109.0</ele><time>2026-04-25T17:24:14.008Z</time></trkpt><trkpt lat="45.2458526" lon="8.7080155"><ele>109.0</ele><time>2026-04-25T17:24:15.007Z</time></trkpt><trkpt lat="45.2457293" lon="8.7077423"><ele>109.0</ele><time>2026-04-25T17:24:16.007Z</time></trkpt><trkpt lat="45.2455991" lon="8.7074663"><ele>109.0</ele><time>2026-04-25T17:24:17.005Z</time></trkpt><trkpt lat="45.2454663" lon="8.7071912"><ele>109.0</ele><time>2026-04-25T17:24:18.006Z</time></trkpt><trkpt lat="45.2453318" lon="8.7069006"><ele>109.5</ele><time>2026-04-25T17:24:19.008Z</time></trkpt><trkpt lat="45.2452002" lon="8.7066327"><ele>110.0</ele><time>2026-04-25T17:24:20.005Z</time></trkpt><trkpt lat="45.2450673" lon="8.7063495"><ele>109.0</ele><time>2026-04-25T17:24:21.007Z</time></trkpt><trkpt lat="45.2449305" lon="8.7060717"><ele>108.0</ele><time>2026-04-25T17:24:22.007Z</time></trkpt><trkpt lat="45.2447979" lon="8.7057879"><ele>107.0</ele><time>2026-04-25T17:24:23.007Z</time></trkpt><trkpt lat="45.2446574" lon="8.705511"><ele>106.0</ele><time>2026-04-25T17:24:24.005Z</time></trkpt><trkpt lat="45.2445239" lon="8.7052288"><ele>106.0</ele><time>2026-04-25T17:24:25.006Z</time></trkpt><trkpt lat="45.2443873" lon="8.7049462"><ele>106.0</ele><time>2026-04-25T17:24:26.007Z</time></trkpt><trkpt lat="45.2442432" lon="8.7046592"><ele>106.0</ele><time>2026-04-25T17:24:27.008Z</time></trkpt><trkpt lat="45.2440997" lon="8.7043868"><ele>106.0</ele><time>2026-04-25T17:24:28.007Z</time></trkpt><trkpt lat="45.2439587" lon="8.704109"><ele>105.5</ele><time>2026-04-25T17:24:29.006Z</time></trkpt><trkpt lat="45.2438217" lon="8.7038319"><ele>105.0</ele><time>2026-04-25T17:24:30.007Z</time></trkpt><trkpt lat="45.243679" lon="8.7035448"><ele>104.5</ele><time>2026-04-25T17:24:31.006Z</time></trkpt><trkpt lat="45.2435393" lon="8.7032586"><ele>104.0</ele><time>2026-04-25T17:24:32.005Z</time></trkpt><trkpt lat="45.2434047" lon="8.7029748"><ele>103.5</ele><time>2026-04-25T17:24:33.006Z</time></trkpt><trkpt lat="45.2432639" lon="8.7026891"><ele>103.0</ele><time>2026-04-25T17:24:34.006Z</time></trkpt><trkpt lat="45.2431423" lon="8.7023909"><ele>103.5</ele><time>2026-04-25T17:24:35.005Z</time></trkpt><trkpt lat="45.2430204" lon="8.7020919"><ele>104.0</ele><time>2026-04-25T17:24:36.007Z</time></trkpt><trkpt lat="45.2429121" lon="8.7017972"><ele>104.5</ele><time>2026-04-25T17:24:37.006Z</time></trkpt><trkpt lat="45.242803" lon="8.7015072"><ele>105.0</ele><time>2026-04-25T17:24:38.006Z</time></trkpt><trkpt lat="45.2426903" lon="8.7012246"><ele>105.0</ele><time>2026-04-25T17:24:39.006Z</time></trkpt><trkpt lat="45.2425713" lon="8.7009617"><ele>105.0</ele><time>2026-04-25T17:24:40.006Z</time></trkpt><trkpt lat="45.2424395" lon="8.7007158"><ele>105.0</ele><time>2026-04-25T17:24:41.007Z</time></trkpt><trkpt lat="45.2422912" lon="8.7005084"><ele>105.0</ele><time>2026-04-25T17:24:42.007Z</time></trkpt><trkpt lat="45.2421365" lon="8.7002923"><ele>105.0</ele><time>2026-04-25T17:24:43.005Z</time></trkpt><trkpt lat="45.2419861" lon="8.700094"><ele>105.0</ele><time>2026-04-25T17:24:44.006Z</time></trkpt><trkpt lat="45.2418217" lon="8.6998849"><ele>105.33333333333334</ele><time>2026-04-25T17:24:45.007Z</time></trkpt><trkpt lat="45.2416602" lon="8.6996775"><ele>105.66666666666667</ele><time>2026-04-25T17:24:46.005Z</time></trkpt><trkpt lat="45.2414884" lon="8.6994743"><ele>106.0</ele><time>2026-04-25T17:24:47.005Z</time></trkpt><trkpt lat="45.2413257" lon="8.6992851"><ele>106.33333333333334</ele><time>2026-04-25T17:24:48.006Z</time></trkpt><trkpt lat="45.2411683" lon="8.6990872"><ele>106.66666666666666</ele><time>2026-04-25T17:24:49.006Z</time></trkpt><trkpt lat="45.2410024" lon="8.6988687"><ele>107.0</ele><time>2026-04-25T17:24:50.006Z</time></trkpt><trkpt lat="45.2408537" lon="8.6986911"><ele>107.0</ele><time>2026-04-25T17:24:51.006Z</time></trkpt><trkpt lat="45.2406914" lon="8.698485"><ele>107.0</ele><time>2026-04-25T17:24:52.005Z</time></trkpt><trkpt lat="45.2405286" lon="8.6982739"><ele>107.0</ele><time>2026-04-25T17:24:53.006Z</time></trkpt><trkpt lat="45.2403809" lon="8.6980878"><ele>107.0</ele><time>2026-04-25T17:24:54.007Z</time></trkpt><trkpt lat="45.2402289" lon="8.6979032"><ele>107.0</ele><time>2026-04-25T17:24:55.007Z</time></trkpt><trkpt lat="45.2400891" lon="8.6977171"><ele>107.0</ele><time>2026-04-25T17:24:56.006Z</time></trkpt><trkpt lat="45.239943" lon="8.6975316"><ele>107.0</ele><time>2026-04-25T17:24:57.007Z</time></trkpt><trkpt lat="45.239797" lon="8.6973408"><ele>107.0</ele><time>2026-04-25T17:24:58.008Z</time></trkpt><trkpt lat="45.2396475" lon="8.6971565"><ele>107.0</ele><time>2026-04-25T17:24:59.006Z</time></trkpt><trkpt lat="45.2395069" lon="8.69699"><ele>107.66666666666666</ele><time>2026-04-25T17:25:00.007Z</time></trkpt><trkpt lat="45.2393664" lon="8.696815"><ele>108.33333333333334</ele><time>2026-04-25T17:25:01.007Z</time></trkpt><trkpt lat="45.239244" lon="8.6966674"><ele>109.0</ele><time>2026-04-25T17:25:02.008Z</time></trkpt><trkpt lat="45.2390994" lon="8.6965107"><ele>108.33333333333334</ele><time>2026-04-25T17:25:03.006Z</time></trkpt><trkpt lat="45.2389646" lon="8.6963415"><ele>107.66666666666666</ele><time>2026-04-25T17:25:04.006Z</time></trkpt><trkpt lat="45.2388388" lon="8.6961916"><ele>107.0</ele><time>2026-04-25T17:25:05.007Z</time></trkpt><trkpt lat="45.2387127" lon="8.6960308"><ele>107.0</ele><time>2026-04-25T17:25:06.007Z</time></trkpt><trkpt lat="45.2385868" lon="8.6958707"><ele>107.0</ele><time>2026-04-25T17:25:07.006Z</time></trkpt><trkpt lat="45.2384494" lon="8.6957093"><ele>107.0</ele><time>2026-04-25T17:25:08.007Z</time></trkpt><trkpt lat="45.2383193" lon="8.695551"><ele>107.0</ele><time>2026-04-25T17:25:09.007Z</time></trkpt><trkpt lat="45.2381934" lon="8.6953898"><ele>107.0</ele><time>2026-04-25T17:25:10.006Z</time></trkpt><trkpt lat="45.2380724" lon="8.695229"><ele>107.0</ele><time>2026-04-25T17:25:11.006Z</time></trkpt><trkpt lat="45.2379513" lon="8.6950565"><ele>106.66666666666666</ele><time>2026-04-25T17:25:12.005Z</time></trkpt><trkpt lat="45.237826" lon="8.6948975"><ele>106.33333333333334</ele><time>2026-04-25T17:25:13.006Z</time></trkpt><trkpt lat="45.237697" lon="8.69475"><ele>106.0</ele><time>2026-04-25T17:25:14.008Z</time></trkpt><trkpt lat="45.2375708" lon="8.6945947"><ele>106.0</ele><time>2026-04-25T17:25:15.006Z</time></trkpt><trkpt lat="45.2374434" lon="8.6944333"><ele>106.0</ele><time>2026-04-25T17:25:16.007Z</time></trkpt><trkpt lat="45.2373256" lon="8.6942743"><ele>106.0</ele><time>2026-04-25T17:25:17.006Z</time></trkpt><trkpt lat="45.2371967" lon="8.6941254"><ele>106.66666666666667</ele><time>2026-04-25T17:25:18.006Z</time></trkpt><trkpt lat="45.2370723" lon="8.6939761"><ele>107.33333333333334</ele><time>2026-04-25T17:25:19.006Z</time></trkpt><trkpt lat="45.2369527" lon="8.6938251"><ele>108.0</ele><time>2026-04-25T17:25:20.005Z</time></trkpt><trkpt lat="45.2368384" lon="8.6936765"><ele>108.66666666666666</ele><time>2026-04-25T17:25:21.008Z</time></trkpt><trkpt lat="45.2367245" lon="8.693529"><ele>109.33333333333333</ele><time>2026-04-25T17:25:22.007Z</time></trkpt><trkpt lat="45.2366113" lon="8.6933976"><ele>110.0</ele><time>2026-04-25T17:25:23.007Z</time></trkpt><trkpt lat="45.2364994" lon="8.693251"><ele>109.5</ele><time>2026-04-25T17:25:24.006Z</time></trkpt><trkpt lat="45.2363864" lon="8.6931122"><ele>109.0</ele><time>2026-04-25T17:25:25.006Z</time></trkpt><trkpt lat="45.2362764" lon="8.6929833"><ele>108.5</ele><time>2026-04-25T17:25:26.007Z</time></trkpt><trkpt lat="45.2361711" lon="8.6928486"><ele>108.0</ele><time>2026-04-25T17:25:27.006Z</time></trkpt><trkpt lat="45.2360639" lon="8.6927254"><ele>108.0</ele><time>2026-04-25T17:25:28.006Z</time></trkpt><trkpt lat="45.2359525" lon="8.6925933"><ele>108.0</ele><time>2026-04-25T17:25:29.006Z</time></trkpt><trkpt lat="45.2358489" lon="8.6924581"><ele>108.0</ele><time>2026-04-25T17:25:30.007Z</time></trkpt><trkpt lat="45.2357498" lon="8.6923281"><ele>108.0</ele><time>2026-04-25T17:25:31.006Z</time></trkpt><trkpt lat="45.2356566" lon="8.6921943"><ele>108.0</ele><time>2026-04-25T17:25:32.005Z</time></trkpt><trkpt lat="45.2355531" lon="8.6920718"><ele>108.0</ele><time>2026-04-25T17:25:33.007Z</time></trkpt><trkpt lat="45.2354577" lon="8.6919486"><ele>108.0</ele><time>2026-04-25T17:25:34.006Z</time></trkpt><trkpt lat="45.2353622" lon="8.6918261"><ele>108.0</ele><time>2026-04-25T17:25:35.006Z</time></trkpt><trkpt lat="45.2352715" lon="8.691712"><ele>107.80000000000001</ele><time>2026-04-25T17:25:36.007Z</time></trkpt><trkpt lat="45.2351866" lon="8.6916153"><ele>107.60000000000001</ele><time>2026-04-25T17:25:37.006Z</time></trkpt><trkpt lat="45.2351234" lon="8.6915198"><ele>107.39999999999999</ele><time>2026-04-25T17:25:38.006Z</time></trkpt><trkpt lat="45.2350453" lon="8.6914215"><ele>107.19999999999999</ele><time>2026-04-25T17:25:39.005Z</time></trkpt><trkpt lat="45.2349581" lon="8.6913179"><ele>107.0</ele><time>2026-04-25T17:25:40.008Z</time></trkpt><trkpt lat="45.2348796" lon="8.6912094"><ele>107.75</ele><time>2026-04-25T17:25:41.007Z</time></trkpt><trkpt lat="45.2347976" lon="8.6911024"><ele>108.5</ele><time>2026-04-25T17:25:42.007Z</time></trkpt><trkpt lat="45.2347221" lon="8.6909742"><ele>109.25</ele><time>2026-04-25T17:25:43.007Z</time></trkpt><trkpt lat="45.234645" lon="8.6908497"><ele>110.0</ele><time>2026-04-25T17:25:44.005Z</time></trkpt><trkpt lat="45.2345706" lon="8.6907221"><ele>110.0</ele><time>2026-04-25T17:25:45.006Z</time></trkpt><trkpt lat="45.2344958" lon="8.6905987"><ele>110.0</ele><time>2026-04-25T17:25:46.006Z</time></trkpt><trkpt lat="45.2344204" lon="8.690477"><ele>110.0</ele><time>2026-04-25T17:25:47.006Z</time></trkpt><trkpt lat="45.2343415" lon="8.6903454"><ele>110.0</ele><time>2026-04-25T17:25:48.006Z</time></trkpt><trkpt lat="45.2342646" lon="8.6902126"><ele>109.5</ele><time>2026-04-25T17:25:49.006Z</time></trkpt><trkpt lat="45.2341918" lon="8.6900845"><ele>109.0</ele><time>2026-04-25T17:25:50.005Z</time></trkpt><trkpt lat="45.2341211" lon="8.689949"><ele>108.5</ele><time>2026-04-25T17:25:51.006Z</time></trkpt><trkpt lat="45.2340458" lon="8.6898229"><ele>108.0</ele><time>2026-04-25T17:25:52.005Z</time></trkpt><trkpt lat="45.2339768" lon="8.6897026"><ele>108.0</ele><time>2026-04-25T17:25:53.006Z</time></trkpt><trkpt lat="45.2339024" lon="8.6895786"><ele>108.0</ele><time>2026-04-25T17:25:54.005Z</time></trkpt><trkpt lat="45.2338417" lon="8.6894625"><ele>108.0</ele><time>2026-04-25T17:25:55.006Z</time></trkpt><trkpt lat="45.2337737" lon="8.6893066"><ele>108.0</ele><time>2026-04-25T17:25:56.005Z</time></trkpt><trkpt lat="45.2337094" lon="8.6891869"><ele>107.75</ele><time>2026-04-25T17:25:57.006Z</time></trkpt><trkpt lat="45.2336481" lon="8.6890605"><ele>107.5</ele><time>2026-04-25T17:25:58.005Z</time></trkpt><trkpt lat="45.2335838" lon="8.6889159"><ele>107.25</ele><time>2026-04-25T17:25:59.006Z</time></trkpt><trkpt lat="45.2335078" lon="8.6887855"><ele>107.0</ele><time>2026-04-25T17:26:00.006Z</time></trkpt><trkpt lat="45.2334557" lon="8.6886553"><ele>107.0</ele><time>2026-04-25T17:26:01.005Z</time></trkpt><trkpt lat="45.2334" lon="8.6885237"><ele>106.99999999999999</ele><time>2026-04-25T17:26:02.006Z</time></trkpt><trkpt lat="45.2333354" lon="8.688408"><ele>106.99999999999999</ele><time>2026-04-25T17:26:03.005Z</time></trkpt><trkpt lat="45.2332563" lon="8.6882823"><ele>107.0</ele><time>2026-04-25T17:26:04.005Z</time></trkpt><trkpt lat="45.2331961" lon="8.688152"><ele>107.0</ele><time>2026-04-25T17:26:05.005Z</time></trkpt><trkpt lat="45.2331198" lon="8.6880206"><ele>107.0</ele><time>2026-04-25T17:26:06.006Z</time></trkpt><trkpt lat="45.2330468" lon="8.6878846"><ele>106.99999999999999</ele><time>2026-04-25T17:26:07.005Z</time></trkpt><trkpt lat="45.2329909" lon="8.6877587"><ele>106.99999999999999</ele><time>2026-04-25T17:26:08.006Z</time></trkpt><trkpt lat="45.2329238" lon="8.6876321"><ele>107.0</ele><time>2026-04-25T17:26:09.004Z</time></trkpt><trkpt lat="45.2328541" lon="8.6875076"><ele>107.0</ele><time>2026-04-25T17:26:10.006Z</time></trkpt><trkpt lat="45.2327871" lon="8.687367"><ele>107.0</ele><time>2026-04-25T17:26:11.006Z</time></trkpt><trkpt lat="45.2327182" lon="8.6872298"><ele>107.0</ele><time>2026-04-25T17:26:12.006Z</time></trkpt><trkpt lat="45.2326497" lon="8.6870837"><ele>107.0</ele><time>2026-04-25T17:26:13.006Z</time></trkpt><trkpt lat="45.232581" lon="8.6869342"><ele>107.0</ele><time>2026-04-25T17:26:14.006Z</time></trkpt><trkpt lat="45.232516" lon="8.6867951"><ele>107.0</ele><time>2026-04-25T17:26:15.006Z</time></trkpt><trkpt lat="45.2324411" lon="8.6866631"><ele>107.0</ele><time>2026-04-25T17:26:16.005Z</time></trkpt><trkpt lat="45.2323805" lon="8.6865199"><ele>107.0</ele><time>2026-04-25T17:26:17.005Z</time></trkpt><trkpt lat="45.2323194" lon="8.6863736"><ele>107.0</ele><time>2026-04-25T17:26:18.005Z</time></trkpt><trkpt lat="45.232249" lon="8.6862303"><ele>106.5</ele><time>2026-04-25T17:26:19.005Z</time></trkpt><trkpt lat="45.2321699" lon="8.6860761"><ele>106.0</ele><time>2026-04-25T17:26:20.005Z</time></trkpt><trkpt lat="45.2320995" lon="8.685926"><ele>105.5</ele><time>2026-04-25T17:26:21.006Z</time></trkpt><trkpt lat="45.2320227" lon="8.6857841"><ele>105.0</ele><time>2026-04-25T17:26:22.006Z</time></trkpt><trkpt lat="45.2319492" lon="8.6856305"><ele>105.0</ele><time>2026-04-25T17:26:23.006Z</time></trkpt><trkpt lat="45.2318829" lon="8.6854989"><ele>105.0</ele><time>2026-04-25T17:26:24.006Z</time></trkpt><trkpt lat="45.2318144" lon="8.6853508"><ele>105.0</ele><time>2026-04-25T17:26:25.006Z</time></trkpt><trkpt lat="45.2317394" lon="8.6851973"><ele>105.0</ele><time>2026-04-25T17:26:26.004Z</time></trkpt><trkpt lat="45.2316624" lon="8.6850392"><ele>105.0</ele><time>2026-04-25T17:26:27.006Z</time></trkpt><trkpt lat="45.2315774" lon="8.6848792"><ele>105.0</ele><time>2026-04-25T17:26:28.007Z</time></trkpt><trkpt lat="45.2315051" lon="8.6847127"><ele>105.0</ele><time>2026-04-25T17:26:29.005Z</time></trkpt><trkpt lat="45.2314177" lon="8.6845507"><ele>105.0</ele><time>2026-04-25T17:26:30.005Z</time></trkpt><trkpt lat="45.2313345" lon="8.6843815"><ele>104.33333333333334</ele><time>2026-04-25T17:26:31.006Z</time></trkpt><trkpt lat="45.2312329" lon="8.6842122"><ele>103.66666666666667</ele><time>2026-04-25T17:26:32.007Z</time></trkpt><trkpt lat="45.2311468" lon="8.6840286"><ele>103.0</ele><time>2026-04-25T17:26:33.004Z</time></trkpt><trkpt lat="45.231057" lon="8.6838497"><ele>103.0</ele><time>2026-04-25T17:26:34.006Z</time></trkpt><trkpt lat="45.2309712" lon="8.6836698"><ele>103.0</ele><time>2026-04-25T17:26:35.006Z</time></trkpt><trkpt lat="45.23088" lon="8.6834892"><ele>103.0</ele><time>2026-04-25T17:26:36.006Z</time></trkpt><trkpt lat="45.2307969" lon="8.6833181"><ele>103.33333333333334</ele><time>2026-04-25T17:26:37.006Z</time></trkpt><trkpt lat="45.230717" lon="8.6831398"><ele>103.66666666666666</ele><time>2026-04-25T17:26:38.005Z</time></trkpt><trkpt lat="45.2306322" lon="8.6829753"><ele>104.0</ele><time>2026-04-25T17:26:39.005Z</time></trkpt><trkpt lat="45.2305434" lon="8.6827847"><ele>104.0</ele><time>2026-04-25T17:26:40.006Z</time></trkpt><trkpt lat="45.2304646" lon="8.6826044"><ele>104.0</ele><time>2026-04-25T17:26:41.006Z</time></trkpt><trkpt lat="45.2303756" lon="8.6824229"><ele>104.0</ele><time>2026-04-25T17:26:42.005Z</time></trkpt><trkpt lat="45.2302852" lon="8.6822398"><ele>104.0</ele><time>2026-04-25T17:26:43.006Z</time></trkpt><trkpt lat="45.2301792" lon="8.6820424"><ele>104.0</ele><time>2026-04-25T17:26:44.006Z</time></trkpt><trkpt lat="45.2301072" lon="8.6818709"><ele>104.0</ele><time>2026-04-25T17:26:45.006Z</time></trkpt><trkpt lat="45.2300094" lon="8.6816713"><ele>103.66666666666666</ele><time>2026-04-25T17:26:46.005Z</time></trkpt><trkpt lat="45.229904" lon="8.6814719"><ele>103.33333333333334</ele><time>2026-04-25T17:26:47.006Z</time></trkpt><trkpt lat="45.2297953" lon="8.6812746"><ele>103.0</ele><time>2026-04-25T17:26:48.005Z</time></trkpt><trkpt lat="45.2296831" lon="8.6810922"><ele>103.66666666666667</ele><time>2026-04-25T17:26:49.006Z</time></trkpt><trkpt lat="45.2295729" lon="8.6808977"><ele>104.33333333333334</ele><time>2026-04-25T17:26:50.006Z</time></trkpt><trkpt lat="45.2294545" lon="8.6807519"><ele>105.0</ele><time>2026-04-25T17:26:51.006Z</time></trkpt><trkpt lat="45.2292965" lon="8.680592"><ele>105.0</ele><time>2026-04-25T17:26:52.006Z</time></trkpt><trkpt lat="45.229152" lon="8.6804342"><ele>105.0</ele><time>2026-04-25T17:26:53.005Z</time></trkpt><trkpt lat="45.2289995" lon="8.680271"><ele>105.0</ele><time>2026-04-25T17:26:54.006Z</time></trkpt><trkpt lat="45.228851" lon="8.6801151"><ele>105.0</ele><time>2026-04-25T17:26:55.006Z</time></trkpt><trkpt lat="45.2287107" lon="8.6799586"><ele>105.0</ele><time>2026-04-25T17:26:56.006Z</time></trkpt><trkpt lat="45.2285631" lon="8.6798011"><ele>105.0</ele><time>2026-04-25T17:26:57.004Z</time></trkpt><trkpt lat="45.2284133" lon="8.6796451"><ele>105.0</ele><time>2026-04-25T17:26:58.006Z</time></trkpt><trkpt lat="45.2282603" lon="8.6794844"><ele>105.0</ele><time>2026-04-25T17:26:59.005Z</time></trkpt><trkpt lat="45.2281032" lon="8.6793295"><ele>105.0</ele><time>2026-04-25T17:27:00.005Z</time></trkpt><trkpt lat="45.2279553" lon="8.6791722"><ele>105.0</ele><time>2026-04-25T17:27:01.006Z</time></trkpt><trkpt lat="45.2278081" lon="8.6789999"><ele>105.0</ele><time>2026-04-25T17:27:02.006Z</time></trkpt><trkpt lat="45.2276601" lon="8.6788352"><ele>105.0</ele><time>2026-04-25T17:27:03.006Z</time></trkpt><trkpt lat="45.2275159" lon="8.6786785"><ele>105.33333333333334</ele><time>2026-04-25T17:27:04.006Z</time></trkpt><trkpt lat="45.2273687" lon="8.6785192"><ele>105.66666666666667</ele><time>2026-04-25T17:27:05.005Z</time></trkpt><trkpt lat="45.227246" lon="8.6783511"><ele>106.0</ele><time>2026-04-25T17:27:06.006Z</time></trkpt><trkpt lat="45.2271183" lon="8.6782212"><ele>106.0</ele><time>2026-04-25T17:27:07.004Z</time></trkpt><trkpt lat="45.2269945" lon="8.6780885"><ele>106.0</ele><time>2026-04-25T17:27:08.005Z</time></trkpt><trkpt lat="45.2268699" lon="8.6779583"><ele>106.0</ele><time>2026-04-25T17:27:09.006Z</time></trkpt><trkpt lat="45.2267538" lon="8.677835"><ele>106.0</ele><time>2026-04-25T17:27:10.004Z</time></trkpt><trkpt lat="45.2266609" lon="8.677721"><ele>106.0</ele><time>2026-04-25T17:27:11.006Z</time></trkpt><trkpt lat="45.226593" lon="8.6776115"><ele>106.0</ele><time>2026-04-25T17:27:12.004Z</time></trkpt><trkpt lat="45.2265413" lon="8.6775244"><ele>106.0</ele><time>2026-04-25T17:27:13.005Z</time></trkpt><trkpt lat="45.226495" lon="8.6774353"><ele>106.0</ele><time>2026-04-25T17:27:14.005Z</time></trkpt><trkpt lat="45.2264533" lon="8.6772727"><ele>106.00000000000001</ele><time>2026-04-25T17:27:16.006Z</time></trkpt><trkpt lat="45.2264086" lon="8.6771918"><ele>106.0</ele><time>2026-04-25T17:27:17.005Z</time></trkpt><trkpt lat="45.2263026" lon="8.6771543"><ele>106.0</ele><time>2026-04-25T17:27:19.006Z</time></trkpt><trkpt lat="45.2262065" lon="8.677257"><ele>106.0</ele><time>2026-04-25T17:27:21.005Z</time></trkpt><trkpt lat="45.2261664" lon="8.6773381"><ele>106.00000000000001</ele><time>2026-04-25T17:27:22.005Z</time></trkpt><trkpt lat="45.2261224" lon="8.6774201"><ele>106.0</ele><time>2026-04-25T17:27:23.006Z</time></trkpt><trkpt lat="45.2260668" lon="8.6775084"><ele>106.0</ele><time>2026-04-25T17:27:24.006Z</time></trkpt><trkpt lat="45.2259911" lon="8.6775852"><ele>106.0</ele><time>2026-04-25T17:27:25.003Z</time></trkpt><trkpt lat="45.2259109" lon="8.6776527"><ele>106.0</ele><time>2026-04-25T17:27:26.005Z</time></trkpt><trkpt lat="45.2258228" lon="8.6777161"><ele>106.0</ele><time>2026-04-25T17:27:27.006Z</time></trkpt><trkpt lat="45.2257269" lon="8.6777707"><ele>106.0</ele><time>2026-04-25T17:27:28.005Z</time></trkpt><trkpt lat="45.2256308" lon="8.6778073"><ele>105.8</ele><time>2026-04-25T17:27:29.005Z</time></trkpt><trkpt lat="45.2255305" lon="8.6778135"><ele>105.6</ele><time>2026-04-25T17:27:30.005Z</time></trkpt><trkpt lat="45.2254361" lon="8.6777941"><ele>105.4</ele><time>2026-04-25T17:27:31.006Z</time></trkpt><trkpt lat="45.225337" lon="8.6777732"><ele>105.2</ele><time>2026-04-25T17:27:32.006Z</time></trkpt><trkpt lat="45.2252386" lon="8.6777536"><ele>105.0</ele><time>2026-04-25T17:27:33.006Z</time></trkpt><trkpt lat="45.2251357" lon="8.6777219"><ele>105.5</ele><time>2026-04-25T17:27:34.005Z</time></trkpt><trkpt lat="45.2250283" lon="8.6776759"><ele>106.0</ele><time>2026-04-25T17:27:35.006Z</time></trkpt><trkpt lat="45.2249107" lon="8.677646"><ele>106.5</ele><time>2026-04-25T17:27:36.006Z</time></trkpt><trkpt lat="45.2247939" lon="8.6776073"><ele>107.0</ele><time>2026-04-25T17:27:37.005Z</time></trkpt><trkpt lat="45.2246613" lon="8.6775611"><ele>107.33333333333333</ele><time>2026-04-25T17:27:38.004Z</time></trkpt><trkpt lat="45.2245178" lon="8.6775158"><ele>107.66666666666666</ele><time>2026-04-25T17:27:39.004Z</time></trkpt><trkpt lat="45.2243712" lon="8.6774645"><ele>108.0</ele><time>2026-04-25T17:27:40.005Z</time></trkpt><trkpt lat="45.2242222" lon="8.6774138"><ele>108.0</ele><time>2026-04-25T17:27:41.006Z</time></trkpt><trkpt lat="45.2240673" lon="8.6773606"><ele>108.0</ele><time>2026-04-25T17:27:42.005Z</time></trkpt><trkpt lat="45.2239108" lon="8.6773059"><ele>108.0</ele><time>2026-04-25T17:27:43.006Z</time></trkpt><trkpt lat="45.2237497" lon="8.677254"><ele>107.66666666666666</ele><time>2026-04-25T17:27:44.006Z</time></trkpt><trkpt lat="45.2235783" lon="8.6771885"><ele>107.33333333333333</ele><time>2026-04-25T17:27:45.004Z</time></trkpt><trkpt lat="45.2234104" lon="8.677131"><ele>107.0</ele><time>2026-04-25T17:27:46.006Z</time></trkpt><trkpt lat="45.2232287" lon="8.677073"><ele>107.0</ele><time>2026-04-25T17:27:47.006Z</time></trkpt><trkpt lat="45.2230499" lon="8.6770092"><ele>107.0</ele><time>2026-04-25T17:27:48.003Z</time></trkpt><trkpt lat="45.2228598" lon="8.6769417"><ele>107.0</ele><time>2026-04-25T17:27:49.005Z</time></trkpt><trkpt lat="45.2226767" lon="8.6768765"><ele>107.0</ele><time>2026-04-25T17:27:50.005Z</time></trkpt><trkpt lat="45.2224823" lon="8.6768154"><ele>107.0</ele><time>2026-04-25T17:27:51.006Z</time></trkpt><trkpt lat="45.2222957" lon="8.6767565"><ele>107.0</ele><time>2026-04-25T17:27:52.005Z</time></trkpt><trkpt lat="45.2220983" lon="8.6766961"><ele>106.66666666666666</ele><time>2026-04-25T17:27:53.004Z</time></trkpt><trkpt lat="45.2219136" lon="8.6766234"><ele>106.33333333333334</ele><time>2026-04-25T17:27:54.006Z</time></trkpt><trkpt lat="45.2217131" lon="8.6765604"><ele>106.0</ele><time>2026-04-25T17:27:55.006Z</time></trkpt><trkpt lat="45.2214989" lon="8.6764821"><ele>106.0</ele><time>2026-04-25T17:27:56.006Z</time></trkpt><trkpt lat="45.2212977" lon="8.676398"><ele>106.0</ele><time>2026-04-25T17:27:57.005Z</time></trkpt><trkpt lat="45.2210923" lon="8.6763327"><ele>106.0</ele><time>2026-04-25T17:27:58.003Z</time></trkpt><trkpt lat="45.2208867" lon="8.6762666"><ele>106.0</ele><time>2026-04-25T17:27:59.006Z</time></trkpt><trkpt lat="45.2206832" lon="8.6761966"><ele>106.0</ele><time>2026-04-25T17:28:00.006Z</time></trkpt><trkpt lat="45.2204657" lon="8.6761334"><ele>106.0</ele><time>2026-04-25T17:28:01.003Z</time></trkpt><trkpt lat="45.2202616" lon="8.676056"><ele>106.0</ele><time>2026-04-25T17:28:02.005Z</time></trkpt><trkpt lat="45.2200586" lon="8.6759753"><ele>106.0</ele><time>2026-04-25T17:28:03.004Z</time></trkpt><trkpt lat="45.2198403" lon="8.6759061"><ele>106.0</ele><time>2026-04-25T17:28:04.004Z</time></trkpt><trkpt lat="45.2196306" lon="8.6758249"><ele>105.66666666666667</ele><time>2026-04-25T17:28:05.006Z</time></trkpt><trkpt lat="45.2194193" lon="8.675755"><ele>105.33333333333334</ele><time>2026-04-25T17:28:06.005Z</time></trkpt><trkpt lat="45.2191984" lon="8.675686"><ele>105.0</ele><time>2026-04-25T17:28:07.004Z</time></trkpt><trkpt lat="45.2189706" lon="8.6756066"><ele>104.5</ele><time>2026-04-25T17:28:08.006Z</time></trkpt><trkpt lat="45.2187473" lon="8.6755325"><ele>104.0</ele><time>2026-04-25T17:28:09.005Z</time></trkpt><trkpt lat="45.2185135" lon="8.6754644"><ele>104.0</ele><time>2026-04-25T17:28:10.005Z</time></trkpt><trkpt lat="45.2182974" lon="8.6753967"><ele>104.0</ele><time>2026-04-25T17:28:11.006Z</time></trkpt><trkpt lat="45.2180707" lon="8.6753193"><ele>105.0</ele><time>2026-04-25T17:28:12.006Z</time></trkpt><trkpt lat="45.2178477" lon="8.6752333"><ele>106.0</ele><time>2026-04-25T17:28:13.004Z</time></trkpt><trkpt lat="45.2176021" lon="8.6751588"><ele>106.0</ele><time>2026-04-25T17:28:14.005Z</time></trkpt><trkpt lat="45.2173737" lon="8.6750684"><ele>106.0</ele><time>2026-04-25T17:28:15.005Z</time></trkpt><trkpt lat="45.2171368" lon="8.674987"><ele>105.0</ele><time>2026-04-25T17:28:16.004Z</time></trkpt><trkpt lat="45.2169072" lon="8.6749267"><ele>104.0</ele><time>2026-04-25T17:28:17.004Z</time></trkpt><trkpt lat="45.2166701" lon="8.6748635"><ele>104.0</ele><time>2026-04-25T17:28:18.005Z</time></trkpt><trkpt lat="45.2164276" lon="8.6748269"><ele>104.0</ele><time>2026-04-25T17:28:19.003Z</time></trkpt><trkpt lat="45.2161935" lon="8.6747954"><ele>104.0</ele><time>2026-04-25T17:28:20.004Z</time></trkpt><trkpt lat="45.2159512" lon="8.6747773"><ele>104.0</ele><time>2026-04-25T17:28:21.004Z</time></trkpt><trkpt lat="45.2157086" lon="8.6747971"><ele>104.5</ele><time>2026-04-25T17:28:22.005Z</time></trkpt><trkpt lat="45.2154684" lon="8.6748053"><ele>105.0</ele><time>2026-04-25T17:28:23.004Z</time></trkpt><trkpt lat="45.21523" lon="8.6748078"><ele>105.0</ele><time>2026-04-25T17:28:24.006Z</time></trkpt><trkpt lat="45.2149846" lon="8.6748126"><ele>105.0</ele><time>2026-04-25T17:28:25.005Z</time></trkpt><trkpt lat="45.2147392" lon="8.6748256"><ele>105.0</ele><time>2026-04-25T17:28:26.005Z</time></trkpt><trkpt lat="45.2144965" lon="8.6748407"><ele>105.0</ele><time>2026-04-25T17:28:27.005Z</time></trkpt><trkpt lat="45.2142485" lon="8.6748502"><ele>105.0</ele><time>2026-04-25T17:28:28.005Z</time></trkpt><trkpt lat="45.2139959" lon="8.6748586"><ele>105.0</ele><time>2026-04-25T17:28:29.004Z</time></trkpt><trkpt lat="45.2137412" lon="8.674868"><ele>105.0</ele><time>2026-04-25T17:28:30.004Z</time></trkpt><trkpt lat="45.2134808" lon="8.6748904"><ele>105.0</ele><time>2026-04-25T17:28:31.005Z</time></trkpt><trkpt lat="45.2132233" lon="8.6748993"><ele>104.5</ele><time>2026-04-25T17:28:32.005Z</time></trkpt><trkpt lat="45.2129637" lon="8.6749082"><ele>104.0</ele><time>2026-04-25T17:28:33.004Z</time></trkpt><trkpt lat="45.2127003" lon="8.6749123"><ele>104.0</ele><time>2026-04-25T17:28:34.006Z</time></trkpt><trkpt lat="45.2124676" lon="8.6749151"><ele>104.0</ele><time>2026-04-25T17:28:35.005Z</time></trkpt><trkpt lat="45.2122232" lon="8.6749107"><ele>104.0</ele><time>2026-04-25T17:28:36.006Z</time></trkpt><trkpt lat="45.2120405" lon="8.674787"><ele>104.0</ele><time>2026-04-25T17:28:37.005Z</time></trkpt><trkpt lat="45.2118329" lon="8.6746764"><ele>104.0</ele><time>2026-04-25T17:28:38.007Z</time></trkpt><trkpt lat="45.2116135" lon="8.6745558"><ele>104.0</ele><time>2026-04-25T17:28:39.005Z</time></trkpt><trkpt lat="45.2113934" lon="8.6744352"><ele>104.0</ele><time>2026-04-25T17:28:40.006Z</time></trkpt><trkpt lat="45.21117" lon="8.674311"><ele>104.0</ele><time>2026-04-25T17:28:41.005Z</time></trkpt><trkpt lat="45.2109445" lon="8.6741866"><ele>104.0</ele><time>2026-04-25T17:28:42.005Z</time></trkpt><trkpt lat="45.2107143" lon="8.6740593"><ele>104.5</ele><time>2026-04-25T17:28:43.005Z</time></trkpt><trkpt lat="45.2104788" lon="8.6739337"><ele>105.0</ele><time>2026-04-25T17:28:44.005Z</time></trkpt><trkpt lat="45.2102427" lon="8.6738128"><ele>105.0</ele><time>2026-04-25T17:28:45.005Z</time></trkpt><trkpt lat="45.2100066" lon="8.673675"><ele>105.0</ele><time>2026-04-25T17:28:46.004Z</time></trkpt><trkpt lat="45.2097576" lon="8.673557"><ele>104.0</ele><time>2026-04-25T17:28:47.004Z</time></trkpt><trkpt lat="45.2095248" lon="8.6734256"><ele>103.0</ele><time>2026-04-25T17:28:48.005Z</time></trkpt><trkpt lat="45.2092838" lon="8.6733102"><ele>103.0</ele><time>2026-04-25T17:28:49.005Z</time></trkpt><trkpt lat="45.209054" lon="8.6731706"><ele>103.0</ele><time>2026-04-25T17:28:50.003Z</time></trkpt><trkpt lat="45.2088354" lon="8.6730485"><ele>103.0</ele><time>2026-04-25T17:28:51.004Z</time></trkpt><trkpt lat="45.2086171" lon="8.672921"><ele>103.0</ele><time>2026-04-25T17:28:52.003Z</time></trkpt><trkpt lat="45.2084067" lon="8.6727932"><ele>103.0</ele><time>2026-04-25T17:28:53.005Z</time></trkpt><trkpt lat="45.2081922" lon="8.672665"><ele>103.0</ele><time>2026-04-25T17:28:54.005Z</time></trkpt><trkpt lat="45.2079767" lon="8.6725334"><ele>103.0</ele><time>2026-04-25T17:28:55.005Z</time></trkpt><trkpt lat="45.2077714" lon="8.672407"><ele>103.0</ele><time>2026-04-25T17:28:56.004Z</time></trkpt><trkpt lat="45.2075684" lon="8.6722921"><ele>103.0</ele><time>2026-04-25T17:28:57.005Z</time></trkpt><trkpt lat="45.2073562" lon="8.672169"><ele>103.0</ele><time>2026-04-25T17:28:58.003Z</time></trkpt><trkpt lat="45.2071464" lon="8.6720495"><ele>103.0</ele><time>2026-04-25T17:28:59.004Z</time></trkpt><trkpt lat="45.2069364" lon="8.6719325"><ele>103.0</ele><time>2026-04-25T17:29:00.004Z</time></trkpt><trkpt lat="45.2067304" lon="8.6718115"><ele>103.0</ele><time>2026-04-25T17:29:01.005Z</time></trkpt><trkpt lat="45.2065248" lon="8.6716933"><ele>103.0</ele><time>2026-04-25T17:29:02.005Z</time></trkpt><trkpt lat="45.2063174" lon="8.6715781"><ele>103.66666666666667</ele><time>2026-04-25T17:29:03.004Z</time></trkpt><trkpt lat="45.2061112" lon="8.6714617"><ele>104.33333333333334</ele><time>2026-04-25T17:29:04.005Z</time></trkpt><trkpt lat="45.2059069" lon="8.6713422"><ele>105.0</ele><time>2026-04-25T17:29:05.005Z</time></trkpt><trkpt lat="45.2057001" lon="8.6712244"><ele>104.33333333333334</ele><time>2026-04-25T17:29:06.006Z</time></trkpt><trkpt lat="45.2055083" lon="8.6711107"><ele>103.66666666666667</ele><time>2026-04-25T17:29:07.005Z</time></trkpt><trkpt lat="45.2053027" lon="8.6710043"><ele>103.0</ele><time>2026-04-25T17:29:08.004Z</time></trkpt><trkpt lat="45.2050987" lon="8.670888"><ele>103.0</ele><time>2026-04-25T17:29:09.005Z</time></trkpt><trkpt lat="45.2048944" lon="8.6707763"><ele>103.0</ele><time>2026-04-25T17:29:10.005Z</time></trkpt><trkpt lat="45.2046959" lon="8.6706611"><ele>103.0</ele><time>2026-04-25T17:29:11.004Z</time></trkpt><trkpt lat="45.2044991" lon="8.6705356"><ele>103.0</ele><time>2026-04-25T17:29:12.004Z</time></trkpt><trkpt lat="45.2043018" lon="8.6704245"><ele>103.0</ele><time>2026-04-25T17:29:13.004Z</time></trkpt><trkpt lat="45.2041024" lon="8.6703134"><ele>103.0</ele><time>2026-04-25T17:29:14.004Z</time></trkpt><trkpt lat="45.2039062" lon="8.6702067"><ele>103.0</ele><time>2026-04-25T17:29:15.005Z</time></trkpt><trkpt lat="45.203727" lon="8.6701144"><ele>103.0</ele><time>2026-04-25T17:29:16.005Z</time></trkpt><trkpt lat="45.2035515" lon="8.6700212"><ele>103.0</ele><time>2026-04-25T17:29:17.003Z</time></trkpt><trkpt lat="45.2033792" lon="8.6699332"><ele>103.0</ele><time>2026-04-25T17:29:18.005Z</time></trkpt><trkpt lat="45.2032141" lon="8.6698469"><ele>103.0</ele><time>2026-04-25T17:29:19.005Z</time></trkpt><trkpt lat="45.2030548" lon="8.6697669"><ele>103.0</ele><time>2026-04-25T17:29:20.005Z</time></trkpt><trkpt lat="45.2028898" lon="8.6696751"><ele>103.0</ele><time>2026-04-25T17:29:21.004Z</time></trkpt><trkpt lat="45.2027318" lon="8.6695915"><ele>103.0</ele><time>2026-04-25T17:29:22.005Z</time></trkpt><trkpt lat="45.202585" lon="8.6695126"><ele>103.0</ele><time>2026-04-25T17:29:23.003Z</time></trkpt><trkpt lat="45.2024412" lon="8.6694338"><ele>104.0</ele><time>2026-04-25T17:29:24.005Z</time></trkpt><trkpt lat="45.2022969" lon="8.6693611"><ele>105.0</ele><time>2026-04-25T17:29:25.004Z</time></trkpt><trkpt lat="45.2021508" lon="8.6692871"><ele>106.0</ele><time>2026-04-25T17:29:26.004Z</time></trkpt><trkpt lat="45.2020089" lon="8.6692096"><ele>106.0</ele><time>2026-04-25T17:29:27.004Z</time></trkpt><trkpt lat="45.2018654" lon="8.6691429"><ele>106.0</ele><time>2026-04-25T17:29:28.005Z</time></trkpt><trkpt lat="45.2017339" lon="8.6690743"><ele>106.0</ele><time>2026-04-25T17:29:29.005Z</time></trkpt><trkpt lat="45.2016074" lon="8.669"><ele>106.0</ele><time>2026-04-25T17:29:30.004Z</time></trkpt><trkpt lat="45.2014682" lon="8.6689348"><ele>105.75</ele><time>2026-04-25T17:29:31.003Z</time></trkpt><trkpt lat="45.2013379" lon="8.6688717"><ele>105.5</ele><time>2026-04-25T17:29:32.005Z</time></trkpt><trkpt lat="45.2012086" lon="8.6687966"><ele>105.25</ele><time>2026-04-25T17:29:33.004Z</time></trkpt><trkpt lat="45.2010899" lon="8.6687288"><ele>105.0</ele><time>2026-04-25T17:29:34.004Z</time></trkpt><trkpt lat="45.2009773" lon="8.6686693"><ele>105.0</ele><time>2026-04-25T17:29:35.005Z</time></trkpt><trkpt lat="45.2008532" lon="8.6685938"><ele>105.0</ele><time>2026-04-25T17:29:36.005Z</time></trkpt><trkpt lat="45.20073" lon="8.6685247"><ele>105.0</ele><time>2026-04-25T17:29:37.005Z</time></trkpt><trkpt lat="45.2006138" lon="8.668473"><ele>105.0</ele><time>2026-04-25T17:29:38.005Z</time></trkpt><trkpt lat="45.2004919" lon="8.6684141"><ele>105.0</ele><time>2026-04-25T17:29:39.004Z</time></trkpt><trkpt lat="45.2003677" lon="8.6683429"><ele>105.0</ele><time>2026-04-25T17:29:40.005Z</time></trkpt><trkpt lat="45.2002431" lon="8.6682807"><ele>105.0</ele><time>2026-04-25T17:29:41.004Z</time></trkpt><trkpt lat="45.2001258" lon="8.6682065"><ele>105.0</ele><time>2026-04-25T17:29:42.004Z</time></trkpt><trkpt lat="45.2000093" lon="8.6681467"><ele>105.0</ele><time>2026-04-25T17:29:43.005Z</time></trkpt><trkpt lat="45.1998831" lon="8.6680839"><ele>105.0</ele><time>2026-04-25T17:29:44.004Z</time></trkpt><trkpt lat="45.1997586" lon="8.6680176"><ele>105.0</ele><time>2026-04-25T17:29:45.003Z</time></trkpt><trkpt lat="45.1996272" lon="8.6679519"><ele>105.0</ele><time>2026-04-25T17:29:46.005Z</time></trkpt><trkpt lat="45.1995136" lon="8.6678829"><ele>105.0</ele><time>2026-04-25T17:29:47.003Z</time></trkpt><trkpt lat="45.1993969" lon="8.6678289"><ele>105.0</ele><time>2026-04-25T17:29:48.004Z</time></trkpt><trkpt lat="45.1992808" lon="8.6677782"><ele>105.0</ele><time>2026-04-25T17:29:49.004Z</time></trkpt><trkpt lat="45.1991893" lon="8.6677269"><ele>105.0</ele><time>2026-04-25T17:29:50.005Z</time></trkpt><trkpt lat="45.1990902" lon="8.6676804"><ele>105.0</ele><time>2026-04-25T17:29:51.005Z</time></trkpt><trkpt lat="45.1989934" lon="8.6676285"><ele>105.0</ele><time>2026-04-25T17:29:52.003Z</time></trkpt><trkpt lat="45.1989195" lon="8.6675816"><ele>105.0</ele><time>2026-04-25T17:29:53.005Z</time></trkpt><trkpt lat="45.1988365" lon="8.6675346"><ele>105.0</ele><time>2026-04-25T17:29:54.004Z</time></trkpt><trkpt lat="45.1987595" lon="8.6674846"><ele>105.0</ele><time>2026-04-25T17:29:55.004Z</time></trkpt><trkpt lat="45.1986753" lon="8.6674365"><ele>105.0</ele><time>2026-04-25T17:29:56.004Z</time></trkpt><trkpt lat="45.1985911" lon="8.6673892"><ele>105.0</ele><time>2026-04-25T17:29:57.004Z</time></trkpt><trkpt lat="45.1985133" lon="8.667347"><ele>105.0</ele><time>2026-04-25T17:29:58.005Z</time></trkpt><trkpt lat="45.1984547" lon="8.6673064"><ele>105.0</ele><time>2026-04-25T17:29:59.004Z</time></trkpt><trkpt lat="45.1983939" lon="8.667268"><ele>105.0</ele><time>2026-04-25T17:30:00.004Z</time></trkpt><trkpt lat="45.1983285" lon="8.6672378"><ele>105.0</ele><time>2026-04-25T17:30:01.003Z</time></trkpt><trkpt lat="45.1982579" lon="8.6672287"><ele>105.0</ele><time>2026-04-25T17:30:02.004Z</time></trkpt><trkpt lat="45.1981869" lon="8.6672495"><ele>105.0</ele><time>2026-04-25T17:30:03.003Z</time></trkpt><trkpt lat="45.1981211" lon="8.6672587"><ele>105.0</ele><time>2026-04-25T17:30:04.004Z</time></trkpt><trkpt lat="45.1980557" lon="8.6672728"><ele>105.0</ele><time>2026-04-25T17:30:05.005Z</time></trkpt><trkpt lat="45.1979731" lon="8.6673733"><ele>105.0</ele><time>2026-04-25T17:30:07.004Z</time></trkpt><trkpt lat="45.1979501" lon="8.6675335"><ele>105.0</ele><time>2026-04-25T17:30:09.005Z</time></trkpt><trkpt lat="45.1979287" lon="8.667703"><ele>105.0</ele><time>2026-04-25T17:30:11.005Z</time></trkpt><trkpt lat="45.1978978" lon="8.6677964"><ele>105.0</ele><time>2026-04-25T17:30:12.005Z</time></trkpt><trkpt lat="45.1978458" lon="8.6679687"><ele>105.0</ele><time>2026-04-25T17:30:14.004Z</time></trkpt><trkpt lat="45.1978138" lon="8.6680518"><ele>105.0</ele><time>2026-04-25T17:30:15.004Z</time></trkpt><trkpt lat="45.1977807" lon="8.6681597"><ele>105.0</ele><time>2026-04-25T17:30:16.004Z</time></trkpt><trkpt lat="45.1977414" lon="8.6682592"><ele>105.0</ele><time>2026-04-25T17:30:17.004Z</time></trkpt><trkpt lat="45.1976953" lon="8.6683519"><ele>105.0</ele><time>2026-04-25T17:30:18.004Z</time></trkpt><trkpt lat="45.1976492" lon="8.6684589"><ele>105.0</ele><time>2026-04-25T17:30:19.003Z</time></trkpt><trkpt lat="45.1975983" lon="8.6685643"><ele>105.0</ele><time>2026-04-25T17:30:20.005Z</time></trkpt><trkpt lat="45.197541" lon="8.6686714"><ele>105.0</ele><time>2026-04-25T17:30:21.004Z</time></trkpt><trkpt lat="45.1974833" lon="8.6687687"><ele>105.0</ele><time>2026-04-25T17:30:22.005Z</time></trkpt><trkpt lat="45.1974337" lon="8.668878"><ele>105.0</ele><time>2026-04-25T17:30:23.005Z</time></trkpt><trkpt lat="45.1973831" lon="8.6689924"><ele>105.0</ele><time>2026-04-25T17:30:24.004Z</time></trkpt><trkpt lat="45.1973322" lon="8.6690994"><ele>104.83333333333333</ele><time>2026-04-25T17:30:25.005Z</time></trkpt><trkpt lat="45.1972823" lon="8.6691999"><ele>104.66666666666666</ele><time>2026-04-25T17:30:26.004Z</time></trkpt><trkpt lat="45.1972191" lon="8.669258"><ele>104.5</ele><time>2026-04-25T17:30:27.004Z</time></trkpt><trkpt lat="45.1971488" lon="8.6692914"><ele>104.33333333333333</ele><time>2026-04-25T17:30:28.004Z</time></trkpt><trkpt lat="45.1970778" lon="8.6693179"><ele>104.16666666666666</ele><time>2026-04-25T17:30:29.004Z</time></trkpt><trkpt lat="45.1969871" lon="8.669284"><ele>104.0</ele><time>2026-04-25T17:30:30.006Z</time></trkpt><trkpt lat="45.1968962" lon="8.6692409"><ele>104.0</ele><time>2026-04-25T17:30:31.003Z</time></trkpt><trkpt lat="45.1967946" lon="8.6691998"><ele>104.0</ele><time>2026-04-25T17:30:32.004Z</time></trkpt><trkpt lat="45.1966877" lon="8.6691602"><ele>104.0</ele><time>2026-04-25T17:30:33.004Z</time></trkpt><trkpt lat="45.1965788" lon="8.6690991"><ele>104.0</ele><time>2026-04-25T17:30:34.005Z</time></trkpt><trkpt lat="45.1964705" lon="8.6690418"><ele>104.0</ele><time>2026-04-25T17:30:35.002Z</time></trkpt><trkpt lat="45.1963375" lon="8.6689935"><ele>103.75</ele><time>2026-04-25T17:30:36.004Z</time></trkpt><trkpt lat="45.1962074" lon="8.6689541"><ele>103.5</ele><time>2026-04-25T17:30:37.004Z</time></trkpt><trkpt lat="45.1960802" lon="8.6688983"><ele>103.25</ele><time>2026-04-25T17:30:38.003Z</time></trkpt><trkpt lat="45.1959519" lon="8.6688601"><ele>103.0</ele><time>2026-04-25T17:30:39.004Z</time></trkpt><trkpt lat="45.1958357" lon="8.6688066"><ele>103.0</ele><time>2026-04-25T17:30:40.004Z</time></trkpt><trkpt lat="45.195718" lon="8.6687603"><ele>103.0</ele><time>2026-04-25T17:30:41.004Z</time></trkpt><trkpt lat="45.1956067" lon="8.6687078"><ele>103.0</ele><time>2026-04-25T17:30:42.004Z</time></trkpt><trkpt lat="45.1954975" lon="8.6686593"><ele>103.0</ele><time>2026-04-25T17:30:43.003Z</time></trkpt><trkpt lat="45.1953941" lon="8.6686127"><ele>103.00000000000001</ele><time>2026-04-25T17:30:44.004Z</time></trkpt><trkpt lat="45.1952861" lon="8.6685737"><ele>103.0</ele><time>2026-04-25T17:30:45.005Z</time></trkpt><trkpt lat="45.1952017" lon="8.6685368"><ele>103.0</ele><time>2026-04-25T17:30:46.005Z</time></trkpt><trkpt lat="45.1951348" lon="8.6685035"><ele>103.0</ele><time>2026-04-25T17:30:47.004Z</time></trkpt><trkpt lat="45.1950321" lon="8.6684567"><ele>103.00000000000001</ele><time>2026-04-25T17:30:49.004Z</time></trkpt><trkpt lat="45.1949647" lon="8.6684406"><ele>103.0</ele><time>2026-04-25T17:30:51.005Z</time></trkpt><trkpt lat="45.194929" lon="8.6685378"><ele>103.16666666666667</ele><time>2026-04-25T17:30:54.004Z</time></trkpt><trkpt lat="45.1948868" lon="8.6686453"><ele>103.33333333333334</ele><time>2026-04-25T17:30:59.004Z</time></trkpt><trkpt lat="45.1948721" lon="8.6687595"><ele>103.5</ele><time>2026-04-25T17:31:03.003Z</time></trkpt><trkpt lat="45.1948424" lon="8.6688603"><ele>103.66666666666666</ele><time>2026-04-25T17:31:07.005Z</time></trkpt><trkpt lat="45.1948446" lon="8.6689564"><ele>103.83333333333333</ele><time>2026-04-25T17:31:28.005Z</time></trkpt><trkpt lat="45.1948411" lon="8.6690495"><ele>104.0</ele><time>2026-04-25T17:31:34.005Z</time></trkpt><trkpt lat="45.1948157" lon="8.6691539"><ele>104.0</ele><time>2026-04-25T17:31:46.004Z</time></trkpt><trkpt lat="45.1948439" lon="8.6689911"><ele>104.0</ele><time>2026-04-25T17:33:30.03Z</time></trkpt><trkpt lat="45.1948728" lon="8.668907"><ele>104.0</ele><time>2026-04-25T17:33:34.002Z</time></trkpt><trkpt lat="45.1949091" lon="8.668827"><ele>104.0</ele><time>2026-04-25T17:33:40.002Z</time></trkpt><trkpt lat="45.1949557" lon="8.6686391"><ele>104.0</ele><time>2026-04-25T17:35:42.002Z</time></trkpt><trkpt lat="45.1949065" lon="8.6687123"><ele>104.0</ele><time>2026-04-25T17:35:50.002Z</time></trkpt><trkpt lat="45.1949365" lon="8.6688321"><ele>104.0</ele><time>2026-04-25T17:35:52.002Z</time></trkpt><trkpt lat="45.194905" lon="8.6689172"><ele>104.0</ele><time>2026-04-25T17:35:59Z</time></trkpt><trkpt lat="45.1948921" lon="8.6690121"><ele>104.0</ele><time>2026-04-25T17:36:05.945Z</time></trkpt><trkpt lat="45.1948709" lon="8.669101"><ele>104.0</ele><time>2026-04-25T17:36:12.002Z</time></trkpt><trkpt lat="45.1948232" lon="8.6691718"><ele>104.0</ele><time>2026-04-25T17:36:17.949Z</time></trkpt><trkpt lat="45.1948373" lon="8.6692756"><ele>104.0</ele><time>2026-04-25T17:37:25.001Z</time></trkpt><trkpt lat="45.1948086" lon="8.6691381"><ele>104.0</ele><time>2026-04-25T17:38:59.937Z</time></trkpt><trkpt lat="45.1947517" lon="8.6690987"><ele>104.0</ele><time>2026-04-25T17:39:06.001Z</time></trkpt><trkpt lat="45.194828" lon="8.6691648"><ele>104.0</ele><time>2026-04-25T17:39:34.001Z</time></trkpt><trkpt lat="45.1948097" lon="8.6692546"><ele>104.0</ele><time>2026-04-25T17:45:56.999Z</time></trkpt><trkpt lat="45.194783" lon="8.6691602"><ele>104.0</ele><time>2026-04-25T17:46:44.999Z</time></trkpt><trkpt lat="45.194737" lon="8.6690837"><ele>104.0</ele><time>2026-04-25T17:46:50.999Z</time></trkpt><trkpt lat="45.1947443" lon="8.6691758"><ele>104.0</ele><time>2026-04-25T17:47:09.999Z</time></trkpt><trkpt lat="45.1948047" lon="8.6692246"><ele>104.0</ele><time>2026-04-25T17:47:15.999Z</time></trkpt><trkpt lat="45.1948227" lon="8.6691344"><ele>104.0</ele><time>2026-04-25T17:47:27.997Z</time></trkpt><trkpt lat="45.1948884" lon="8.6691469"><ele>104.0</ele><time>2026-04-25T17:47:34.998Z</time></trkpt><trkpt lat="45.1949775" lon="8.6691243"><ele>104.0</ele><time>2026-04-25T17:48:47.997Z</time></trkpt><trkpt lat="45.1949263" lon="8.6691811"><ele>104.0</ele><time>2026-04-25T17:50:10.957Z</time></trkpt><trkpt lat="45.1949318" lon="8.6690818"><ele>104.0</ele><time>2026-04-25T17:50:19.997Z</time></trkpt><trkpt lat="45.1949449" lon="8.6691824"><ele>104.0</ele><time>2026-04-25T17:50:55.997Z</time></trkpt><trkpt lat="45.1949213" lon="8.6692742"><ele>104.0</ele><time>2026-04-25T17:51:02.996Z</time></trkpt><trkpt lat="45.1949363" lon="8.6691778"><ele>104.0</ele><time>2026-04-25T17:51:43.996Z</time></trkpt><trkpt lat="45.1949671" lon="8.6692611"><ele>104.0</ele><time>2026-04-25T17:52:42.823Z</time></trkpt><trkpt lat="45.1949478" lon="8.6691522"><ele>104.0</ele><time>2026-04-25T17:53:08.997Z</time></trkpt><trkpt lat="45.1949868" lon="8.669226"><ele>104.0</ele><time>2026-04-25T17:54:12.939Z</time></trkpt><trkpt lat="45.1949331" lon="8.6691763"><ele>104.0</ele><time>2026-04-25T17:55:39.995Z</time></trkpt><trkpt lat="45.1948703" lon="8.6691872"><ele>104.0</ele><time>2026-04-25T17:56:27.996Z</time></trkpt><trkpt lat="45.1948817" lon="8.6692831"><ele>104.0</ele><time>2026-04-25T17:56:43.996Z</time></trkpt><trkpt lat="45.1949271" lon="8.6693909"><ele>104.0</ele><time>2026-04-25T17:57:13.995Z</time></trkpt><trkpt lat="45.194939" lon="8.669289"><ele>104.0</ele><time>2026-04-25T17:57:30.995Z</time></trkpt><trkpt lat="45.1949104" lon="8.6692063"><ele>104.0</ele><time>2026-04-25T17:57:39.993Z</time></trkpt><trkpt lat="45.1948704" lon="8.6691361"><ele>104.0</ele><time>2026-04-25T17:57:51.995Z</time></trkpt><trkpt lat="45.194908" lon="8.6690588"><ele>104.0</ele><time>2026-04-25T17:58:28.993Z</time></trkpt><trkpt lat="45.194972" lon="8.6690678"><ele>104.0</ele><time>2026-04-25T17:59:10.994Z</time></trkpt><trkpt lat="45.1949117" lon="8.6691011"><ele>104.0</ele><time>2026-04-25T18:11:29.99Z</time></trkpt><trkpt lat="45.1948183" lon="8.6691119"><ele>104.0</ele><time>2026-04-25T18:17:53.987Z</time></trkpt><trkpt lat="45.1947537" lon="8.6691431"><ele>104.0</ele><time>2026-04-25T18:17:57.98Z</time></trkpt><trkpt lat="45.1947157" lon="8.6692191"><ele>104.0</ele><time>2026-04-25T18:18:04.988Z</time></trkpt><trkpt lat="45.1947765" lon="8.6691532"><ele>104.0</ele><time>2026-04-25T18:19:21.988Z</time></trkpt><trkpt lat="45.1948216" lon="8.669082"><ele>104.0</ele><time>2026-04-25T18:19:26.988Z</time></trkpt><trkpt lat="45.1948804" lon="8.6691199"><ele>104.0</ele><time>2026-04-25T18:19:31.842Z</time></trkpt><trkpt lat="45.1948309" lon="8.6691991"><ele>104.0</ele><time>2026-04-25T18:20:48.902Z</time></trkpt><trkpt lat="45.1947738" lon="8.6692548"><ele>104.0</ele><time>2026-04-25T18:20:53.987Z</time></trkpt><trkpt lat="45.1947091" lon="8.6692722"><ele>104.0</ele><time>2026-04-25T18:33:37.902Z</time></trkpt><trkpt lat="45.1947445" lon="8.66935"><ele>104.0</ele><time>2026-04-25T18:34:01.984Z</time></trkpt><trkpt lat="45.1947485" lon="8.6692602"><ele>104.0</ele><time>2026-04-25T18:35:33.984Z</time></trkpt><trkpt lat="45.1948353" lon="8.6693438"><ele>104.0</ele><time>2026-04-25T18:38:17.983Z</time></trkpt><trkpt lat="45.1947699" lon="8.669307"><ele>104.0</ele><time>2026-04-25T18:39:08.982Z</time></trkpt></trkseg></trk></gpx>